<?xml version="1.0" encoding="UTF-8" standalone="no" ?>
<gpx xmlns="http://www.topografix.com/GPX/1/1" xmlns:xsi="http://www.w3.org/2001/XMLSchema-instance" xsi:schemaLocation="http://www.topografix.com/GPX/1/1 http://www.topografix.com/GPX/1/1/gpx.xsd" version="1.1" creator="VisuGPX - https://www.visugpx.com">
  <metadata>
    <name>2021-06-03 La Jourande</name>
  </metadata>
  <trk>
    <name><![CDATA[2021-06-03 La Jourande_1]]></name>
    <trkseg>
      <trkpt lat="47.24692" lon="6.0252">
        <ele>269.8</ele>
        <time>2021-06-03T07:47:45Z</time>
      </trkpt>
      <trkpt lat="47.24692" lon="6.0252">
        <ele>271.6</ele>
        <time>2021-06-03T07:47:46Z</time>
      </trkpt>
      <trkpt lat="47.24692" lon="6.0252">
        <ele>266.6</ele>
        <time>2021-06-03T07:47:47Z</time>
      </trkpt>
      <trkpt lat="47.24692" lon="6.0252">
        <ele>270.8</ele>
        <time>2021-06-03T07:47:48Z</time>
      </trkpt>
      <trkpt lat="47.24692" lon="6.0252">
        <ele>272.2</ele>
        <time>2021-06-03T07:47:49Z</time>
      </trkpt>
      <trkpt lat="47.24692" lon="6.0252">
        <ele>272.6</ele>
        <time>2021-06-03T07:47:50Z</time>
      </trkpt>
      <trkpt lat="47.2469" lon="6.0252">
        <ele>272.8</ele>
        <time>2021-06-03T07:47:58Z</time>
      </trkpt>
      <trkpt lat="47.2469" lon="6.02521">
        <ele>272.6</ele>
        <time>2021-06-03T07:48:03Z</time>
      </trkpt>
      <trkpt lat="47.2469" lon="6.02518">
        <ele>272.6</ele>
        <time>2021-06-03T07:48:04Z</time>
      </trkpt>
      <trkpt lat="47.24691" lon="6.02516">
        <ele>272.8</ele>
        <time>2021-06-03T07:48:05Z</time>
      </trkpt>
      <trkpt lat="47.24692" lon="6.02515">
        <ele>272.8</ele>
        <time>2021-06-03T07:48:06Z</time>
      </trkpt>
      <trkpt lat="47.24693" lon="6.02513">
        <ele>272.8</ele>
        <time>2021-06-03T07:48:07Z</time>
      </trkpt>
      <trkpt lat="47.24695" lon="6.0251">
        <ele>272.8</ele>
        <time>2021-06-03T07:48:08Z</time>
      </trkpt>
      <trkpt lat="47.24696" lon="6.02507">
        <ele>272.8</ele>
        <time>2021-06-03T07:48:09Z</time>
      </trkpt>
      <trkpt lat="47.24697" lon="6.02506">
        <ele>273</ele>
        <time>2021-06-03T07:48:10Z</time>
      </trkpt>
      <trkpt lat="47.24699" lon="6.02504">
        <ele>273</ele>
        <time>2021-06-03T07:48:11Z</time>
      </trkpt>
      <trkpt lat="47.24702" lon="6.02501">
        <ele>273.4</ele>
        <time>2021-06-03T07:48:13Z</time>
      </trkpt>
      <trkpt lat="47.24703" lon="6.02498">
        <ele>273.4</ele>
        <time>2021-06-03T07:48:14Z</time>
      </trkpt>
      <trkpt lat="47.24703" lon="6.02493">
        <ele>273.6</ele>
        <time>2021-06-03T07:48:15Z</time>
      </trkpt>
      <trkpt lat="47.24701" lon="6.0249">
        <ele>273.6</ele>
        <time>2021-06-03T07:48:16Z</time>
      </trkpt>
      <trkpt lat="47.24698" lon="6.02484">
        <ele>274</ele>
        <time>2021-06-03T07:48:18Z</time>
      </trkpt>
      <trkpt lat="47.24697" lon="6.02481">
        <ele>274.2</ele>
        <time>2021-06-03T07:48:19Z</time>
      </trkpt>
      <trkpt lat="47.24695" lon="6.02478">
        <ele>274.4</ele>
        <time>2021-06-03T07:48:20Z</time>
      </trkpt>
      <trkpt lat="47.24694" lon="6.02475">
        <ele>274.4</ele>
        <time>2021-06-03T07:48:21Z</time>
      </trkpt>
      <trkpt lat="47.24687" lon="6.02461">
        <ele>274.8</ele>
        <time>2021-06-03T07:48:26Z</time>
      </trkpt>
      <trkpt lat="47.24682" lon="6.02453">
        <ele>275.4</ele>
        <time>2021-06-03T07:48:29Z</time>
      </trkpt>
      <trkpt lat="47.24681" lon="6.0245">
        <ele>275.4</ele>
        <time>2021-06-03T07:48:30Z</time>
      </trkpt>
      <trkpt lat="47.24679" lon="6.02447">
        <ele>275.6</ele>
        <time>2021-06-03T07:48:31Z</time>
      </trkpt>
      <trkpt lat="47.24677" lon="6.02445">
        <ele>275.6</ele>
        <time>2021-06-03T07:48:32Z</time>
      </trkpt>
      <trkpt lat="47.24675" lon="6.02442">
        <ele>275.6</ele>
        <time>2021-06-03T07:48:33Z</time>
      </trkpt>
      <trkpt lat="47.24673" lon="6.02437">
        <ele>275.6</ele>
        <time>2021-06-03T07:48:34Z</time>
      </trkpt>
      <trkpt lat="47.24671" lon="6.02434">
        <ele>275.8</ele>
        <time>2021-06-03T07:48:35Z</time>
      </trkpt>
      <trkpt lat="47.2467" lon="6.02431">
        <ele>275.8</ele>
        <time>2021-06-03T07:48:36Z</time>
      </trkpt>
      <trkpt lat="47.24668" lon="6.02428">
        <ele>275.8</ele>
        <time>2021-06-03T07:48:37Z</time>
      </trkpt>
      <trkpt lat="47.24666" lon="6.02424">
        <ele>275.8</ele>
        <time>2021-06-03T07:48:38Z</time>
      </trkpt>
      <trkpt lat="47.24664" lon="6.02421">
        <ele>275.8</ele>
        <time>2021-06-03T07:48:39Z</time>
      </trkpt>
      <trkpt lat="47.24663" lon="6.02414">
        <ele>275.8</ele>
        <time>2021-06-03T07:48:41Z</time>
      </trkpt>
      <trkpt lat="47.24661" lon="6.02411">
        <ele>275.8</ele>
        <time>2021-06-03T07:48:42Z</time>
      </trkpt>
      <trkpt lat="47.24659" lon="6.02408">
        <ele>275.8</ele>
        <time>2021-06-03T07:48:43Z</time>
      </trkpt>
      <trkpt lat="47.24657" lon="6.02405">
        <ele>275.8</ele>
        <time>2021-06-03T07:48:44Z</time>
      </trkpt>
      <trkpt lat="47.24656" lon="6.02402">
        <ele>275.8</ele>
        <time>2021-06-03T07:48:45Z</time>
      </trkpt>
      <trkpt lat="47.24654" lon="6.02397">
        <ele>275.8</ele>
        <time>2021-06-03T07:48:46Z</time>
      </trkpt>
      <trkpt lat="47.24652" lon="6.02395">
        <ele>275.8</ele>
        <time>2021-06-03T07:48:47Z</time>
      </trkpt>
      <trkpt lat="47.24649" lon="6.02384">
        <ele>276</ele>
        <time>2021-06-03T07:48:50Z</time>
      </trkpt>
      <trkpt lat="47.24645" lon="6.0238">
        <ele>276</ele>
        <time>2021-06-03T07:48:52Z</time>
      </trkpt>
      <trkpt lat="47.24642" lon="6.02369">
        <ele>276</ele>
        <time>2021-06-03T07:48:55Z</time>
      </trkpt>
      <trkpt lat="47.24639" lon="6.02363">
        <ele>276</ele>
        <time>2021-06-03T07:48:57Z</time>
      </trkpt>
      <trkpt lat="47.24636" lon="6.02358">
        <ele>276.2</ele>
        <time>2021-06-03T07:48:58Z</time>
      </trkpt>
      <trkpt lat="47.24631" lon="6.0235">
        <ele>276.2</ele>
        <time>2021-06-03T07:49:00Z</time>
      </trkpt>
      <trkpt lat="47.24628" lon="6.02347">
        <ele>276.2</ele>
        <time>2021-06-03T07:49:01Z</time>
      </trkpt>
      <trkpt lat="47.24619" lon="6.0233">
        <ele>276.2</ele>
        <time>2021-06-03T07:49:06Z</time>
      </trkpt>
      <trkpt lat="47.24616" lon="6.02326">
        <ele>276.2</ele>
        <time>2021-06-03T07:49:08Z</time>
      </trkpt>
      <trkpt lat="47.24613" lon="6.02324">
        <ele>276.2</ele>
        <time>2021-06-03T07:49:09Z</time>
      </trkpt>
      <trkpt lat="47.24611" lon="6.02322">
        <ele>276.2</ele>
        <time>2021-06-03T07:49:10Z</time>
      </trkpt>
      <trkpt lat="47.24609" lon="6.0232">
        <ele>276.2</ele>
        <time>2021-06-03T07:49:11Z</time>
      </trkpt>
      <trkpt lat="47.24606" lon="6.02318">
        <ele>276.2</ele>
        <time>2021-06-03T07:49:12Z</time>
      </trkpt>
      <trkpt lat="47.24602" lon="6.0231">
        <ele>276</ele>
        <time>2021-06-03T07:49:14Z</time>
      </trkpt>
      <trkpt lat="47.24603" lon="6.02306">
        <ele>276</ele>
        <time>2021-06-03T07:49:15Z</time>
      </trkpt>
      <trkpt lat="47.24607" lon="6.02299">
        <ele>276</ele>
        <time>2021-06-03T07:49:17Z</time>
      </trkpt>
      <trkpt lat="47.24609" lon="6.02296">
        <ele>276</ele>
        <time>2021-06-03T07:49:18Z</time>
      </trkpt>
      <trkpt lat="47.24611" lon="6.02293">
        <ele>276</ele>
        <time>2021-06-03T07:49:19Z</time>
      </trkpt>
      <trkpt lat="47.24613" lon="6.02289">
        <ele>276</ele>
        <time>2021-06-03T07:49:20Z</time>
      </trkpt>
      <trkpt lat="47.24616" lon="6.02283">
        <ele>276</ele>
        <time>2021-06-03T07:49:22Z</time>
      </trkpt>
      <trkpt lat="47.24617" lon="6.0228">
        <ele>276</ele>
        <time>2021-06-03T07:49:23Z</time>
      </trkpt>
      <trkpt lat="47.24618" lon="6.02276">
        <ele>276.2</ele>
        <time>2021-06-03T07:49:24Z</time>
      </trkpt>
      <trkpt lat="47.24619" lon="6.0227">
        <ele>276.2</ele>
        <time>2021-06-03T07:49:25Z</time>
      </trkpt>
      <trkpt lat="47.24619" lon="6.02266">
        <ele>276.4</ele>
        <time>2021-06-03T07:49:26Z</time>
      </trkpt>
      <trkpt lat="47.24619" lon="6.02262">
        <ele>276.4</ele>
        <time>2021-06-03T07:49:27Z</time>
      </trkpt>
      <trkpt lat="47.24618" lon="6.02253">
        <ele>276.8</ele>
        <time>2021-06-03T07:49:29Z</time>
      </trkpt>
      <trkpt lat="47.24617" lon="6.02249">
        <ele>276.8</ele>
        <time>2021-06-03T07:49:30Z</time>
      </trkpt>
      <trkpt lat="47.24605" lon="6.0223">
        <ele>277</ele>
        <time>2021-06-03T07:49:36Z</time>
      </trkpt>
      <trkpt lat="47.24602" lon="6.02229">
        <ele>277</ele>
        <time>2021-06-03T07:49:37Z</time>
      </trkpt>
      <trkpt lat="47.24599" lon="6.02227">
        <ele>277</ele>
        <time>2021-06-03T07:49:38Z</time>
      </trkpt>
      <trkpt lat="47.24585" lon="6.02223">
        <ele>276.8</ele>
        <time>2021-06-03T07:49:42Z</time>
      </trkpt>
      <trkpt lat="47.2458" lon="6.0222">
        <ele>276.6</ele>
        <time>2021-06-03T07:49:44Z</time>
      </trkpt>
      <trkpt lat="47.24572" lon="6.02213">
        <ele>276.2</ele>
        <time>2021-06-03T07:49:47Z</time>
      </trkpt>
      <trkpt lat="47.24547" lon="6.02201">
        <ele>275.4</ele>
        <time>2021-06-03T07:49:54Z</time>
      </trkpt>
      <trkpt lat="47.24542" lon="6.02198">
        <ele>275.2</ele>
        <time>2021-06-03T07:49:55Z</time>
      </trkpt>
      <trkpt lat="47.2453" lon="6.02191">
        <ele>274.6</ele>
        <time>2021-06-03T07:49:58Z</time>
      </trkpt>
      <trkpt lat="47.2452" lon="6.0218">
        <ele>274.4</ele>
        <time>2021-06-03T07:50:01Z</time>
      </trkpt>
      <trkpt lat="47.24516" lon="6.02177">
        <ele>274.4</ele>
        <time>2021-06-03T07:50:02Z</time>
      </trkpt>
      <trkpt lat="47.24509" lon="6.02175">
        <ele>274</ele>
        <time>2021-06-03T07:50:04Z</time>
      </trkpt>
      <trkpt lat="47.24506" lon="6.02176">
        <ele>273.8</ele>
        <time>2021-06-03T07:50:05Z</time>
      </trkpt>
      <trkpt lat="47.24504" lon="6.02178">
        <ele>273.8</ele>
        <time>2021-06-03T07:50:06Z</time>
      </trkpt>
      <trkpt lat="47.24503" lon="6.0218">
        <ele>273.8</ele>
        <time>2021-06-03T07:50:07Z</time>
      </trkpt>
      <trkpt lat="47.24502" lon="6.02181">
        <ele>273.8</ele>
        <time>2021-06-03T07:50:08Z</time>
      </trkpt>
      <trkpt lat="47.245" lon="6.02183">
        <ele>273.8</ele>
        <time>2021-06-03T07:50:09Z</time>
      </trkpt>
      <trkpt lat="47.24493" lon="6.02192">
        <ele>273.4</ele>
        <time>2021-06-03T07:50:12Z</time>
      </trkpt>
      <trkpt lat="47.24489" lon="6.02196">
        <ele>273.2</ele>
        <time>2021-06-03T07:50:13Z</time>
      </trkpt>
      <trkpt lat="47.24475" lon="6.02204">
        <ele>272.8</ele>
        <time>2021-06-03T07:50:16Z</time>
      </trkpt>
      <trkpt lat="47.24466" lon="6.02209">
        <ele>271.8</ele>
        <time>2021-06-03T07:50:18Z</time>
      </trkpt>
      <trkpt lat="47.24462" lon="6.02212">
        <ele>271.4</ele>
        <time>2021-06-03T07:50:19Z</time>
      </trkpt>
      <trkpt lat="47.24453" lon="6.02217">
        <ele>271.2</ele>
        <time>2021-06-03T07:50:21Z</time>
      </trkpt>
      <trkpt lat="47.24449" lon="6.02219">
        <ele>271.2</ele>
        <time>2021-06-03T07:50:22Z</time>
      </trkpt>
      <trkpt lat="47.24446" lon="6.02223">
        <ele>271.2</ele>
        <time>2021-06-03T07:50:23Z</time>
      </trkpt>
      <trkpt lat="47.24443" lon="6.02226">
        <ele>270.8</ele>
        <time>2021-06-03T07:50:24Z</time>
      </trkpt>
      <trkpt lat="47.2444" lon="6.0223">
        <ele>270.8</ele>
        <time>2021-06-03T07:50:25Z</time>
      </trkpt>
      <trkpt lat="47.24436" lon="6.02233">
        <ele>270.8</ele>
        <time>2021-06-03T07:50:26Z</time>
      </trkpt>
      <trkpt lat="47.24431" lon="6.02237">
        <ele>270.8</ele>
        <time>2021-06-03T07:50:27Z</time>
      </trkpt>
      <trkpt lat="47.24422" lon="6.0224">
        <ele>270.8</ele>
        <time>2021-06-03T07:50:29Z</time>
      </trkpt>
      <trkpt lat="47.24413" lon="6.02243">
        <ele>270.6</ele>
        <time>2021-06-03T07:50:31Z</time>
      </trkpt>
      <trkpt lat="47.24407" lon="6.02245">
        <ele>270.4</ele>
        <time>2021-06-03T07:50:32Z</time>
      </trkpt>
      <trkpt lat="47.24399" lon="6.02246">
        <ele>270.2</ele>
        <time>2021-06-03T07:50:34Z</time>
      </trkpt>
      <trkpt lat="47.24396" lon="6.02246">
        <ele>270</ele>
        <time>2021-06-03T07:50:35Z</time>
      </trkpt>
      <trkpt lat="47.24393" lon="6.02245">
        <ele>269.8</ele>
        <time>2021-06-03T07:50:36Z</time>
      </trkpt>
      <trkpt lat="47.24391" lon="6.02246">
        <ele>269.8</ele>
        <time>2021-06-03T07:50:37Z</time>
      </trkpt>
      <trkpt lat="47.24389" lon="6.02247">
        <ele>269.8</ele>
        <time>2021-06-03T07:50:38Z</time>
      </trkpt>
      <trkpt lat="47.24387" lon="6.02249">
        <ele>269.6</ele>
        <time>2021-06-03T07:50:39Z</time>
      </trkpt>
      <trkpt lat="47.24386" lon="6.02252">
        <ele>269.4</ele>
        <time>2021-06-03T07:50:40Z</time>
      </trkpt>
      <trkpt lat="47.24384" lon="6.02253">
        <ele>269.4</ele>
        <time>2021-06-03T07:50:41Z</time>
      </trkpt>
      <trkpt lat="47.24383" lon="6.02255">
        <ele>269.2</ele>
        <time>2021-06-03T07:50:42Z</time>
      </trkpt>
      <trkpt lat="47.24382" lon="6.02257">
        <ele>269.2</ele>
        <time>2021-06-03T07:50:43Z</time>
      </trkpt>
      <trkpt lat="47.24381" lon="6.02257">
        <ele>269</ele>
        <time>2021-06-03T07:50:44Z</time>
      </trkpt>
      <trkpt lat="47.24379" lon="6.02259">
        <ele>269</ele>
        <time>2021-06-03T07:50:45Z</time>
      </trkpt>
      <trkpt lat="47.24377" lon="6.0226">
        <ele>268.6</ele>
        <time>2021-06-03T07:50:46Z</time>
      </trkpt>
      <trkpt lat="47.24376" lon="6.0226">
        <ele>268</ele>
        <time>2021-06-03T07:50:47Z</time>
      </trkpt>
      <trkpt lat="47.24374" lon="6.02258">
        <ele>267.8</ele>
        <time>2021-06-03T07:50:48Z</time>
      </trkpt>
      <trkpt lat="47.24374" lon="6.02256">
        <ele>267.2</ele>
        <time>2021-06-03T07:50:49Z</time>
      </trkpt>
      <trkpt lat="47.24374" lon="6.02255">
        <ele>266.6</ele>
        <time>2021-06-03T07:50:50Z</time>
      </trkpt>
      <trkpt lat="47.24374" lon="6.02255">
        <ele>265.8</ele>
        <time>2021-06-03T07:50:51Z</time>
      </trkpt>
      <trkpt lat="47.24374" lon="6.02255">
        <ele>265</ele>
        <time>2021-06-03T07:50:53Z</time>
      </trkpt>
      <trkpt lat="47.24374" lon="6.02255">
        <ele>264.4</ele>
        <time>2021-06-03T07:50:54Z</time>
      </trkpt>
      <trkpt lat="47.2437" lon="6.02248">
        <ele>263.4</ele>
        <time>2021-06-03T07:51:21Z</time>
      </trkpt>
      <trkpt lat="47.24368" lon="6.02243">
        <ele>263.4</ele>
        <time>2021-06-03T07:51:22Z</time>
      </trkpt>
      <trkpt lat="47.24365" lon="6.02237">
        <ele>263.4</ele>
        <time>2021-06-03T07:51:23Z</time>
      </trkpt>
      <trkpt lat="47.24359" lon="6.02225">
        <ele>263</ele>
        <time>2021-06-03T07:51:25Z</time>
      </trkpt>
      <trkpt lat="47.24353" lon="6.02213">
        <ele>262.2</ele>
        <time>2021-06-03T07:51:27Z</time>
      </trkpt>
      <trkpt lat="47.24347" lon="6.02201">
        <ele>261.8</ele>
        <time>2021-06-03T07:51:29Z</time>
      </trkpt>
      <trkpt lat="47.24344" lon="6.02197">
        <ele>261.6</ele>
        <time>2021-06-03T07:51:30Z</time>
      </trkpt>
      <trkpt lat="47.2434" lon="6.02194">
        <ele>261</ele>
        <time>2021-06-03T07:51:31Z</time>
      </trkpt>
      <trkpt lat="47.24336" lon="6.02191">
        <ele>260.8</ele>
        <time>2021-06-03T07:51:32Z</time>
      </trkpt>
      <trkpt lat="47.24332" lon="6.02189">
        <ele>260.4</ele>
        <time>2021-06-03T07:51:33Z</time>
      </trkpt>
      <trkpt lat="47.24322" lon="6.02179">
        <ele>260</ele>
        <time>2021-06-03T07:51:35Z</time>
      </trkpt>
      <trkpt lat="47.24318" lon="6.02172">
        <ele>260</ele>
        <time>2021-06-03T07:51:36Z</time>
      </trkpt>
      <trkpt lat="47.24314" lon="6.02166">
        <ele>259.8</ele>
        <time>2021-06-03T07:51:37Z</time>
      </trkpt>
      <trkpt lat="47.24294" lon="6.02138">
        <ele>258.8</ele>
        <time>2021-06-03T07:51:41Z</time>
      </trkpt>
      <trkpt lat="47.2429" lon="6.02133">
        <ele>258.6</ele>
        <time>2021-06-03T07:51:42Z</time>
      </trkpt>
      <trkpt lat="47.24278" lon="6.02121">
        <ele>258</ele>
        <time>2021-06-03T07:51:44Z</time>
      </trkpt>
      <trkpt lat="47.24273" lon="6.02117">
        <ele>257.6</ele>
        <time>2021-06-03T07:51:45Z</time>
      </trkpt>
      <trkpt lat="47.24267" lon="6.02113">
        <ele>257.4</ele>
        <time>2021-06-03T07:51:46Z</time>
      </trkpt>
      <trkpt lat="47.2426" lon="6.02111">
        <ele>257.2</ele>
        <time>2021-06-03T07:51:47Z</time>
      </trkpt>
      <trkpt lat="47.24255" lon="6.02112">
        <ele>256.8</ele>
        <time>2021-06-03T07:51:48Z</time>
      </trkpt>
      <trkpt lat="47.2425" lon="6.02114">
        <ele>256.6</ele>
        <time>2021-06-03T07:51:49Z</time>
      </trkpt>
      <trkpt lat="47.24247" lon="6.02114">
        <ele>256</ele>
        <time>2021-06-03T07:51:50Z</time>
      </trkpt>
      <trkpt lat="47.24244" lon="6.02113">
        <ele>255.8</ele>
        <time>2021-06-03T07:51:51Z</time>
      </trkpt>
      <trkpt lat="47.24242" lon="6.02112">
        <ele>255.4</ele>
        <time>2021-06-03T07:51:52Z</time>
      </trkpt>
      <trkpt lat="47.2424" lon="6.02109">
        <ele>255</ele>
        <time>2021-06-03T07:51:53Z</time>
      </trkpt>
      <trkpt lat="47.24237" lon="6.02106">
        <ele>254.8</ele>
        <time>2021-06-03T07:51:54Z</time>
      </trkpt>
      <trkpt lat="47.24235" lon="6.02101">
        <ele>254.6</ele>
        <time>2021-06-03T07:51:55Z</time>
      </trkpt>
      <trkpt lat="47.2423" lon="6.02098">
        <ele>254.6</ele>
        <time>2021-06-03T07:51:56Z</time>
      </trkpt>
      <trkpt lat="47.24209" lon="6.02083">
        <ele>253.8</ele>
        <time>2021-06-03T07:52:01Z</time>
      </trkpt>
      <trkpt lat="47.24205" lon="6.02083">
        <ele>253.8</ele>
        <time>2021-06-03T07:52:02Z</time>
      </trkpt>
      <trkpt lat="47.24201" lon="6.02081">
        <ele>253.6</ele>
        <time>2021-06-03T07:52:03Z</time>
      </trkpt>
      <trkpt lat="47.24195" lon="6.0208">
        <ele>253.4</ele>
        <time>2021-06-03T07:52:04Z</time>
      </trkpt>
      <trkpt lat="47.24189" lon="6.02079">
        <ele>253.4</ele>
        <time>2021-06-03T07:52:05Z</time>
      </trkpt>
      <trkpt lat="47.24185" lon="6.02077">
        <ele>253.2</ele>
        <time>2021-06-03T07:52:06Z</time>
      </trkpt>
      <trkpt lat="47.24179" lon="6.02074">
        <ele>253</ele>
        <time>2021-06-03T07:52:07Z</time>
      </trkpt>
      <trkpt lat="47.24174" lon="6.0207">
        <ele>253</ele>
        <time>2021-06-03T07:52:08Z</time>
      </trkpt>
      <trkpt lat="47.24169" lon="6.02068">
        <ele>252.8</ele>
        <time>2021-06-03T07:52:09Z</time>
      </trkpt>
      <trkpt lat="47.24164" lon="6.02066">
        <ele>252.6</ele>
        <time>2021-06-03T07:52:10Z</time>
      </trkpt>
      <trkpt lat="47.24154" lon="6.02063">
        <ele>252.4</ele>
        <time>2021-06-03T07:52:12Z</time>
      </trkpt>
      <trkpt lat="47.24138" lon="6.02057">
        <ele>251.6</ele>
        <time>2021-06-03T07:52:15Z</time>
      </trkpt>
      <trkpt lat="47.24134" lon="6.02054">
        <ele>251.4</ele>
        <time>2021-06-03T07:52:16Z</time>
      </trkpt>
      <trkpt lat="47.24129" lon="6.02052">
        <ele>251.4</ele>
        <time>2021-06-03T07:52:17Z</time>
      </trkpt>
      <trkpt lat="47.24108" lon="6.02044">
        <ele>250.8</ele>
        <time>2021-06-03T07:52:21Z</time>
      </trkpt>
      <trkpt lat="47.24103" lon="6.02042">
        <ele>250.8</ele>
        <time>2021-06-03T07:52:22Z</time>
      </trkpt>
      <trkpt lat="47.241" lon="6.0204">
        <ele>250.4</ele>
        <time>2021-06-03T07:52:23Z</time>
      </trkpt>
      <trkpt lat="47.24075" lon="6.02034">
        <ele>250.2</ele>
        <time>2021-06-03T07:52:28Z</time>
      </trkpt>
      <trkpt lat="47.24072" lon="6.02033">
        <ele>250</ele>
        <time>2021-06-03T07:52:29Z</time>
      </trkpt>
      <trkpt lat="47.24062" lon="6.02029">
        <ele>249.8</ele>
        <time>2021-06-03T07:52:31Z</time>
      </trkpt>
      <trkpt lat="47.24053" lon="6.02026">
        <ele>249.6</ele>
        <time>2021-06-03T07:52:33Z</time>
      </trkpt>
      <trkpt lat="47.24048" lon="6.02022">
        <ele>249.4</ele>
        <time>2021-06-03T07:52:34Z</time>
      </trkpt>
      <trkpt lat="47.24043" lon="6.02019">
        <ele>249.4</ele>
        <time>2021-06-03T07:52:35Z</time>
      </trkpt>
      <trkpt lat="47.24039" lon="6.02017">
        <ele>249.4</ele>
        <time>2021-06-03T07:52:36Z</time>
      </trkpt>
      <trkpt lat="47.24036" lon="6.02015">
        <ele>249.2</ele>
        <time>2021-06-03T07:52:37Z</time>
      </trkpt>
      <trkpt lat="47.24033" lon="6.02013">
        <ele>249.2</ele>
        <time>2021-06-03T07:52:38Z</time>
      </trkpt>
      <trkpt lat="47.24029" lon="6.0201">
        <ele>249</ele>
        <time>2021-06-03T07:52:39Z</time>
      </trkpt>
      <trkpt lat="47.2402" lon="6.02001">
        <ele>248.8</ele>
        <time>2021-06-03T07:52:42Z</time>
      </trkpt>
      <trkpt lat="47.24017" lon="6.01998">
        <ele>248.8</ele>
        <time>2021-06-03T07:52:43Z</time>
      </trkpt>
      <trkpt lat="47.24014" lon="6.01996">
        <ele>248.8</ele>
        <time>2021-06-03T07:52:44Z</time>
      </trkpt>
      <trkpt lat="47.2401" lon="6.01994">
        <ele>248.8</ele>
        <time>2021-06-03T07:52:45Z</time>
      </trkpt>
      <trkpt lat="47.24007" lon="6.01994">
        <ele>248.8</ele>
        <time>2021-06-03T07:52:46Z</time>
      </trkpt>
      <trkpt lat="47.24005" lon="6.01994">
        <ele>248.6</ele>
        <time>2021-06-03T07:52:47Z</time>
      </trkpt>
      <trkpt lat="47.24002" lon="6.01996">
        <ele>248.6</ele>
        <time>2021-06-03T07:52:48Z</time>
      </trkpt>
      <trkpt lat="47.24" lon="6.01998">
        <ele>248.6</ele>
        <time>2021-06-03T07:52:49Z</time>
      </trkpt>
      <trkpt lat="47.23996" lon="6.02">
        <ele>248.6</ele>
        <time>2021-06-03T07:52:50Z</time>
      </trkpt>
      <trkpt lat="47.23994" lon="6.02001">
        <ele>248.6</ele>
        <time>2021-06-03T07:52:51Z</time>
      </trkpt>
      <trkpt lat="47.23991" lon="6.02003">
        <ele>248.6</ele>
        <time>2021-06-03T07:52:52Z</time>
      </trkpt>
      <trkpt lat="47.23989" lon="6.02004">
        <ele>248.6</ele>
        <time>2021-06-03T07:52:53Z</time>
      </trkpt>
      <trkpt lat="47.23987" lon="6.02004">
        <ele>248.6</ele>
        <time>2021-06-03T07:52:54Z</time>
      </trkpt>
      <trkpt lat="47.23985" lon="6.02002">
        <ele>248.6</ele>
        <time>2021-06-03T07:52:55Z</time>
      </trkpt>
      <trkpt lat="47.23983" lon="6.02001">
        <ele>248.6</ele>
        <time>2021-06-03T07:52:56Z</time>
      </trkpt>
      <trkpt lat="47.23982" lon="6.01998">
        <ele>248.6</ele>
        <time>2021-06-03T07:52:57Z</time>
      </trkpt>
      <trkpt lat="47.2398" lon="6.01996">
        <ele>248.6</ele>
        <time>2021-06-03T07:52:58Z</time>
      </trkpt>
      <trkpt lat="47.23979" lon="6.01993">
        <ele>248.6</ele>
        <time>2021-06-03T07:52:59Z</time>
      </trkpt>
      <trkpt lat="47.23971" lon="6.0199">
        <ele>248.6</ele>
        <time>2021-06-03T07:53:02Z</time>
      </trkpt>
      <trkpt lat="47.23969" lon="6.01991">
        <ele>248.6</ele>
        <time>2021-06-03T07:53:03Z</time>
      </trkpt>
      <trkpt lat="47.23967" lon="6.01991">
        <ele>248.6</ele>
        <time>2021-06-03T07:53:04Z</time>
      </trkpt>
      <trkpt lat="47.23962" lon="6.01987">
        <ele>248.6</ele>
        <time>2021-06-03T07:53:06Z</time>
      </trkpt>
      <trkpt lat="47.2396" lon="6.01983">
        <ele>248.4</ele>
        <time>2021-06-03T07:53:07Z</time>
      </trkpt>
      <trkpt lat="47.23958" lon="6.01979">
        <ele>248.4</ele>
        <time>2021-06-03T07:53:08Z</time>
      </trkpt>
      <trkpt lat="47.23956" lon="6.01975">
        <ele>248.4</ele>
        <time>2021-06-03T07:53:09Z</time>
      </trkpt>
      <trkpt lat="47.23954" lon="6.01971">
        <ele>248.2</ele>
        <time>2021-06-03T07:53:10Z</time>
      </trkpt>
      <trkpt lat="47.23946" lon="6.01959">
        <ele>247.8</ele>
        <time>2021-06-03T07:53:14Z</time>
      </trkpt>
      <trkpt lat="47.23937" lon="6.01947">
        <ele>247.8</ele>
        <time>2021-06-03T07:53:18Z</time>
      </trkpt>
      <trkpt lat="47.23934" lon="6.01944">
        <ele>247.8</ele>
        <time>2021-06-03T07:53:19Z</time>
      </trkpt>
      <trkpt lat="47.23917" lon="6.01918">
        <ele>247.6</ele>
        <time>2021-06-03T07:53:27Z</time>
      </trkpt>
      <trkpt lat="47.23894" lon="6.01888">
        <ele>247.8</ele>
        <time>2021-06-03T07:53:36Z</time>
      </trkpt>
      <trkpt lat="47.23873" lon="6.01864">
        <ele>247.6</ele>
        <time>2021-06-03T07:53:43Z</time>
      </trkpt>
      <trkpt lat="47.23848" lon="6.01829">
        <ele>247.6</ele>
        <time>2021-06-03T07:53:52Z</time>
      </trkpt>
      <trkpt lat="47.23828" lon="6.01803">
        <ele>247.2</ele>
        <time>2021-06-03T07:53:59Z</time>
      </trkpt>
      <trkpt lat="47.2382" lon="6.01791">
        <ele>247.2</ele>
        <time>2021-06-03T07:54:02Z</time>
      </trkpt>
      <trkpt lat="47.23818" lon="6.01787">
        <ele>247.2</ele>
        <time>2021-06-03T07:54:03Z</time>
      </trkpt>
      <trkpt lat="47.2381" lon="6.01776">
        <ele>247.2</ele>
        <time>2021-06-03T07:54:06Z</time>
      </trkpt>
      <trkpt lat="47.23808" lon="6.01773">
        <ele>247</ele>
        <time>2021-06-03T07:54:07Z</time>
      </trkpt>
      <trkpt lat="47.23805" lon="6.01769">
        <ele>247</ele>
        <time>2021-06-03T07:54:08Z</time>
      </trkpt>
      <trkpt lat="47.23803" lon="6.01765">
        <ele>247.2</ele>
        <time>2021-06-03T07:54:09Z</time>
      </trkpt>
      <trkpt lat="47.23799" lon="6.01761">
        <ele>247.2</ele>
        <time>2021-06-03T07:54:10Z</time>
      </trkpt>
      <trkpt lat="47.23796" lon="6.01758">
        <ele>247.2</ele>
        <time>2021-06-03T07:54:11Z</time>
      </trkpt>
      <trkpt lat="47.23794" lon="6.01754">
        <ele>247.2</ele>
        <time>2021-06-03T07:54:12Z</time>
      </trkpt>
      <trkpt lat="47.23791" lon="6.01751">
        <ele>247</ele>
        <time>2021-06-03T07:54:13Z</time>
      </trkpt>
      <trkpt lat="47.23789" lon="6.01749">
        <ele>247</ele>
        <time>2021-06-03T07:54:14Z</time>
      </trkpt>
      <trkpt lat="47.2377" lon="6.01727">
        <ele>247</ele>
        <time>2021-06-03T07:54:21Z</time>
      </trkpt>
      <trkpt lat="47.23767" lon="6.01724">
        <ele>247</ele>
        <time>2021-06-03T07:54:22Z</time>
      </trkpt>
      <trkpt lat="47.23746" lon="6.01705">
        <ele>247</ele>
        <time>2021-06-03T07:54:29Z</time>
      </trkpt>
      <trkpt lat="47.23744" lon="6.01703">
        <ele>247</ele>
        <time>2021-06-03T07:54:30Z</time>
      </trkpt>
      <trkpt lat="47.23741" lon="6.017">
        <ele>247</ele>
        <time>2021-06-03T07:54:31Z</time>
      </trkpt>
      <trkpt lat="47.23738" lon="6.01698">
        <ele>247</ele>
        <time>2021-06-03T07:54:32Z</time>
      </trkpt>
      <trkpt lat="47.23731" lon="6.01693">
        <ele>247</ele>
        <time>2021-06-03T07:54:34Z</time>
      </trkpt>
      <trkpt lat="47.23728" lon="6.01691">
        <ele>247</ele>
        <time>2021-06-03T07:54:35Z</time>
      </trkpt>
      <trkpt lat="47.23722" lon="6.01687">
        <ele>247</ele>
        <time>2021-06-03T07:54:37Z</time>
      </trkpt>
      <trkpt lat="47.2372" lon="6.01684">
        <ele>247</ele>
        <time>2021-06-03T07:54:38Z</time>
      </trkpt>
      <trkpt lat="47.23714" lon="6.0168">
        <ele>247</ele>
        <time>2021-06-03T07:54:40Z</time>
      </trkpt>
      <trkpt lat="47.23712" lon="6.01679">
        <ele>246.8</ele>
        <time>2021-06-03T07:54:41Z</time>
      </trkpt>
      <trkpt lat="47.23709" lon="6.01677">
        <ele>246.8</ele>
        <time>2021-06-03T07:54:42Z</time>
      </trkpt>
      <trkpt lat="47.23707" lon="6.01674">
        <ele>246.8</ele>
        <time>2021-06-03T07:54:43Z</time>
      </trkpt>
      <trkpt lat="47.23705" lon="6.01671">
        <ele>246.8</ele>
        <time>2021-06-03T07:54:44Z</time>
      </trkpt>
      <trkpt lat="47.23703" lon="6.01668">
        <ele>246.8</ele>
        <time>2021-06-03T07:54:45Z</time>
      </trkpt>
      <trkpt lat="47.23701" lon="6.01666">
        <ele>246.8</ele>
        <time>2021-06-03T07:54:46Z</time>
      </trkpt>
      <trkpt lat="47.23686" lon="6.01655">
        <ele>246.8</ele>
        <time>2021-06-03T07:54:51Z</time>
      </trkpt>
      <trkpt lat="47.23664" lon="6.01648">
        <ele>247</ele>
        <time>2021-06-03T07:54:58Z</time>
      </trkpt>
      <trkpt lat="47.2366" lon="6.01646">
        <ele>247</ele>
        <time>2021-06-03T07:54:59Z</time>
      </trkpt>
      <trkpt lat="47.23656" lon="6.01644">
        <ele>247</ele>
        <time>2021-06-03T07:55:00Z</time>
      </trkpt>
      <trkpt lat="47.23646" lon="6.01639">
        <ele>246.8</ele>
        <time>2021-06-03T07:55:02Z</time>
      </trkpt>
      <trkpt lat="47.23626" lon="6.0163">
        <ele>246</ele>
        <time>2021-06-03T07:55:06Z</time>
      </trkpt>
      <trkpt lat="47.23621" lon="6.01628">
        <ele>246</ele>
        <time>2021-06-03T07:55:07Z</time>
      </trkpt>
      <trkpt lat="47.23611" lon="6.01623">
        <ele>245</ele>
        <time>2021-06-03T07:55:09Z</time>
      </trkpt>
      <trkpt lat="47.23607" lon="6.01621">
        <ele>244.8</ele>
        <time>2021-06-03T07:55:10Z</time>
      </trkpt>
      <trkpt lat="47.23603" lon="6.01618">
        <ele>244.6</ele>
        <time>2021-06-03T07:55:11Z</time>
      </trkpt>
      <trkpt lat="47.23599" lon="6.01616">
        <ele>244.4</ele>
        <time>2021-06-03T07:55:12Z</time>
      </trkpt>
      <trkpt lat="47.23595" lon="6.01614">
        <ele>244.4</ele>
        <time>2021-06-03T07:55:13Z</time>
      </trkpt>
      <trkpt lat="47.23592" lon="6.01613">
        <ele>244.2</ele>
        <time>2021-06-03T07:55:14Z</time>
      </trkpt>
      <trkpt lat="47.23588" lon="6.01611">
        <ele>244.2</ele>
        <time>2021-06-03T07:55:15Z</time>
      </trkpt>
      <trkpt lat="47.23584" lon="6.01609">
        <ele>244</ele>
        <time>2021-06-03T07:55:16Z</time>
      </trkpt>
      <trkpt lat="47.23577" lon="6.01604">
        <ele>243.8</ele>
        <time>2021-06-03T07:55:18Z</time>
      </trkpt>
      <trkpt lat="47.23555" lon="6.01595">
        <ele>243.8</ele>
        <time>2021-06-03T07:55:23Z</time>
      </trkpt>
      <trkpt lat="47.23542" lon="6.01587">
        <ele>243.8</ele>
        <time>2021-06-03T07:55:26Z</time>
      </trkpt>
      <trkpt lat="47.23538" lon="6.01585">
        <ele>243.8</ele>
        <time>2021-06-03T07:55:27Z</time>
      </trkpt>
      <trkpt lat="47.2353" lon="6.01581">
        <ele>243.8</ele>
        <time>2021-06-03T07:55:29Z</time>
      </trkpt>
      <trkpt lat="47.23527" lon="6.01578">
        <ele>243.8</ele>
        <time>2021-06-03T07:55:30Z</time>
      </trkpt>
      <trkpt lat="47.23523" lon="6.01575">
        <ele>243.8</ele>
        <time>2021-06-03T07:55:31Z</time>
      </trkpt>
      <trkpt lat="47.2352" lon="6.01574">
        <ele>243.8</ele>
        <time>2021-06-03T07:55:32Z</time>
      </trkpt>
      <trkpt lat="47.23516" lon="6.01571">
        <ele>243.8</ele>
        <time>2021-06-03T07:55:33Z</time>
      </trkpt>
      <trkpt lat="47.23514" lon="6.01569">
        <ele>243.8</ele>
        <time>2021-06-03T07:55:34Z</time>
      </trkpt>
      <trkpt lat="47.23512" lon="6.01568">
        <ele>243.8</ele>
        <time>2021-06-03T07:55:35Z</time>
      </trkpt>
      <trkpt lat="47.2351" lon="6.01568">
        <ele>244</ele>
        <time>2021-06-03T07:55:36Z</time>
      </trkpt>
      <trkpt lat="47.23508" lon="6.01567">
        <ele>244.4</ele>
        <time>2021-06-03T07:55:37Z</time>
      </trkpt>
      <trkpt lat="47.23506" lon="6.01566">
        <ele>244.6</ele>
        <time>2021-06-03T07:55:38Z</time>
      </trkpt>
      <trkpt lat="47.23504" lon="6.01565">
        <ele>245</ele>
        <time>2021-06-03T07:55:39Z</time>
      </trkpt>
      <trkpt lat="47.23501" lon="6.01563">
        <ele>245.4</ele>
        <time>2021-06-03T07:55:41Z</time>
      </trkpt>
      <trkpt lat="47.235" lon="6.01561">
        <ele>245.8</ele>
        <time>2021-06-03T07:55:42Z</time>
      </trkpt>
      <trkpt lat="47.235" lon="6.01559">
        <ele>246.2</ele>
        <time>2021-06-03T07:55:43Z</time>
      </trkpt>
      <trkpt lat="47.23508" lon="6.01561">
        <ele>247.2</ele>
        <time>2021-06-03T07:55:47Z</time>
      </trkpt>
      <trkpt lat="47.2351" lon="6.01561">
        <ele>247.6</ele>
        <time>2021-06-03T07:55:48Z</time>
      </trkpt>
      <trkpt lat="47.23512" lon="6.01561">
        <ele>247.6</ele>
        <time>2021-06-03T07:55:49Z</time>
      </trkpt>
      <trkpt lat="47.23514" lon="6.01562">
        <ele>247.8</ele>
        <time>2021-06-03T07:55:50Z</time>
      </trkpt>
      <trkpt lat="47.23516" lon="6.01563">
        <ele>247.8</ele>
        <time>2021-06-03T07:55:51Z</time>
      </trkpt>
      <trkpt lat="47.23518" lon="6.01564">
        <ele>248</ele>
        <time>2021-06-03T07:55:52Z</time>
      </trkpt>
      <trkpt lat="47.2352" lon="6.01564">
        <ele>248.2</ele>
        <time>2021-06-03T07:55:53Z</time>
      </trkpt>
      <trkpt lat="47.23521" lon="6.01565">
        <ele>248.2</ele>
        <time>2021-06-03T07:55:54Z</time>
      </trkpt>
      <trkpt lat="47.23523" lon="6.01565">
        <ele>248.4</ele>
        <time>2021-06-03T07:55:55Z</time>
      </trkpt>
      <trkpt lat="47.23525" lon="6.01566">
        <ele>248.4</ele>
        <time>2021-06-03T07:55:56Z</time>
      </trkpt>
      <trkpt lat="47.23527" lon="6.01567">
        <ele>248.6</ele>
        <time>2021-06-03T07:55:57Z</time>
      </trkpt>
      <trkpt lat="47.23529" lon="6.01568">
        <ele>248.8</ele>
        <time>2021-06-03T07:55:58Z</time>
      </trkpt>
      <trkpt lat="47.2353" lon="6.01569">
        <ele>248.8</ele>
        <time>2021-06-03T07:55:59Z</time>
      </trkpt>
      <trkpt lat="47.23532" lon="6.0157">
        <ele>249</ele>
        <time>2021-06-03T07:56:00Z</time>
      </trkpt>
      <trkpt lat="47.23533" lon="6.01573">
        <ele>249</ele>
        <time>2021-06-03T07:56:01Z</time>
      </trkpt>
      <trkpt lat="47.23533" lon="6.01575">
        <ele>249</ele>
        <time>2021-06-03T07:56:02Z</time>
      </trkpt>
      <trkpt lat="47.23533" lon="6.01578">
        <ele>249</ele>
        <time>2021-06-03T07:56:03Z</time>
      </trkpt>
      <trkpt lat="47.23532" lon="6.01582">
        <ele>249.2</ele>
        <time>2021-06-03T07:56:04Z</time>
      </trkpt>
      <trkpt lat="47.23531" lon="6.01585">
        <ele>249.2</ele>
        <time>2021-06-03T07:56:05Z</time>
      </trkpt>
      <trkpt lat="47.23531" lon="6.01589">
        <ele>249.2</ele>
        <time>2021-06-03T07:56:06Z</time>
      </trkpt>
      <trkpt lat="47.2353" lon="6.01592">
        <ele>249.4</ele>
        <time>2021-06-03T07:56:07Z</time>
      </trkpt>
      <trkpt lat="47.23529" lon="6.01596">
        <ele>249.4</ele>
        <time>2021-06-03T07:56:08Z</time>
      </trkpt>
      <trkpt lat="47.23528" lon="6.016">
        <ele>249.4</ele>
        <time>2021-06-03T07:56:09Z</time>
      </trkpt>
      <trkpt lat="47.23528" lon="6.01603">
        <ele>249.6</ele>
        <time>2021-06-03T07:56:10Z</time>
      </trkpt>
      <trkpt lat="47.23527" lon="6.01608">
        <ele>249.6</ele>
        <time>2021-06-03T07:56:11Z</time>
      </trkpt>
      <trkpt lat="47.23526" lon="6.01612">
        <ele>249.6</ele>
        <time>2021-06-03T07:56:12Z</time>
      </trkpt>
      <trkpt lat="47.23525" lon="6.01616">
        <ele>249.6</ele>
        <time>2021-06-03T07:56:13Z</time>
      </trkpt>
      <trkpt lat="47.23524" lon="6.0162">
        <ele>249.8</ele>
        <time>2021-06-03T07:56:14Z</time>
      </trkpt>
      <trkpt lat="47.23523" lon="6.01624">
        <ele>249.8</ele>
        <time>2021-06-03T07:56:15Z</time>
      </trkpt>
      <trkpt lat="47.23522" lon="6.01628">
        <ele>249.8</ele>
        <time>2021-06-03T07:56:16Z</time>
      </trkpt>
      <trkpt lat="47.23516" lon="6.01655">
        <ele>250</ele>
        <time>2021-06-03T07:56:22Z</time>
      </trkpt>
      <trkpt lat="47.23508" lon="6.0169">
        <ele>250</ele>
        <time>2021-06-03T07:56:29Z</time>
      </trkpt>
      <trkpt lat="47.23499" lon="6.01717">
        <ele>249.8</ele>
        <time>2021-06-03T07:56:35Z</time>
      </trkpt>
      <trkpt lat="47.23496" lon="6.01718">
        <ele>249.8</ele>
        <time>2021-06-03T07:56:36Z</time>
      </trkpt>
      <trkpt lat="47.23484" lon="6.01712">
        <ele>249.6</ele>
        <time>2021-06-03T07:56:40Z</time>
      </trkpt>
      <trkpt lat="47.23481" lon="6.01712">
        <ele>249.4</ele>
        <time>2021-06-03T07:56:41Z</time>
      </trkpt>
      <trkpt lat="47.23457" lon="6.01711">
        <ele>248.6</ele>
        <time>2021-06-03T07:56:48Z</time>
      </trkpt>
      <trkpt lat="47.23446" lon="6.01712">
        <ele>248.2</ele>
        <time>2021-06-03T07:56:51Z</time>
      </trkpt>
      <trkpt lat="47.23434" lon="6.01713">
        <ele>248</ele>
        <time>2021-06-03T07:56:55Z</time>
      </trkpt>
      <trkpt lat="47.23432" lon="6.01713">
        <ele>248</ele>
        <time>2021-06-03T07:56:56Z</time>
      </trkpt>
      <trkpt lat="47.23429" lon="6.01714">
        <ele>248</ele>
        <time>2021-06-03T07:56:57Z</time>
      </trkpt>
      <trkpt lat="47.23426" lon="6.01714">
        <ele>248</ele>
        <time>2021-06-03T07:56:58Z</time>
      </trkpt>
      <trkpt lat="47.23423" lon="6.01714">
        <ele>248</ele>
        <time>2021-06-03T07:56:59Z</time>
      </trkpt>
      <trkpt lat="47.2342" lon="6.01715">
        <ele>248</ele>
        <time>2021-06-03T07:57:00Z</time>
      </trkpt>
      <trkpt lat="47.23407" lon="6.01717">
        <ele>248</ele>
        <time>2021-06-03T07:57:04Z</time>
      </trkpt>
      <trkpt lat="47.23386" lon="6.0172">
        <ele>248</ele>
        <time>2021-06-03T07:57:08Z</time>
      </trkpt>
      <trkpt lat="47.23367" lon="6.01721">
        <ele>247</ele>
        <time>2021-06-03T07:57:11Z</time>
      </trkpt>
      <trkpt lat="47.23342" lon="6.01723">
        <ele>246</ele>
        <time>2021-06-03T07:57:16Z</time>
      </trkpt>
      <trkpt lat="47.23337" lon="6.01724">
        <ele>246</ele>
        <time>2021-06-03T07:57:17Z</time>
      </trkpt>
      <trkpt lat="47.23332" lon="6.01724">
        <ele>246</ele>
        <time>2021-06-03T07:57:18Z</time>
      </trkpt>
      <trkpt lat="47.23327" lon="6.01725">
        <ele>246</ele>
        <time>2021-06-03T07:57:19Z</time>
      </trkpt>
      <trkpt lat="47.23322" lon="6.01725">
        <ele>246</ele>
        <time>2021-06-03T07:57:20Z</time>
      </trkpt>
      <trkpt lat="47.23316" lon="6.01726">
        <ele>246</ele>
        <time>2021-06-03T07:57:21Z</time>
      </trkpt>
      <trkpt lat="47.23311" lon="6.01726">
        <ele>246</ele>
        <time>2021-06-03T07:57:22Z</time>
      </trkpt>
      <trkpt lat="47.23307" lon="6.01726">
        <ele>246</ele>
        <time>2021-06-03T07:57:23Z</time>
      </trkpt>
      <trkpt lat="47.23302" lon="6.01726">
        <ele>246</ele>
        <time>2021-06-03T07:57:24Z</time>
      </trkpt>
      <trkpt lat="47.23297" lon="6.01727">
        <ele>246</ele>
        <time>2021-06-03T07:57:25Z</time>
      </trkpt>
      <trkpt lat="47.23293" lon="6.01727">
        <ele>246</ele>
        <time>2021-06-03T07:57:26Z</time>
      </trkpt>
      <trkpt lat="47.23288" lon="6.01727">
        <ele>246</ele>
        <time>2021-06-03T07:57:27Z</time>
      </trkpt>
      <trkpt lat="47.23284" lon="6.01727">
        <ele>246</ele>
        <time>2021-06-03T07:57:28Z</time>
      </trkpt>
      <trkpt lat="47.23279" lon="6.01727">
        <ele>246</ele>
        <time>2021-06-03T07:57:29Z</time>
      </trkpt>
      <trkpt lat="47.23275" lon="6.01727">
        <ele>246.2</ele>
        <time>2021-06-03T07:57:30Z</time>
      </trkpt>
      <trkpt lat="47.2327" lon="6.01726">
        <ele>246.2</ele>
        <time>2021-06-03T07:57:31Z</time>
      </trkpt>
      <trkpt lat="47.23265" lon="6.01725">
        <ele>246.2</ele>
        <time>2021-06-03T07:57:32Z</time>
      </trkpt>
      <trkpt lat="47.23261" lon="6.01724">
        <ele>246.2</ele>
        <time>2021-06-03T07:57:33Z</time>
      </trkpt>
      <trkpt lat="47.23258" lon="6.01723">
        <ele>246.2</ele>
        <time>2021-06-03T07:57:34Z</time>
      </trkpt>
      <trkpt lat="47.23254" lon="6.01721">
        <ele>246</ele>
        <time>2021-06-03T07:57:35Z</time>
      </trkpt>
      <trkpt lat="47.23251" lon="6.01718">
        <ele>246</ele>
        <time>2021-06-03T07:57:36Z</time>
      </trkpt>
      <trkpt lat="47.23249" lon="6.01716">
        <ele>246</ele>
        <time>2021-06-03T07:57:37Z</time>
      </trkpt>
      <trkpt lat="47.23247" lon="6.01715">
        <ele>245.8</ele>
        <time>2021-06-03T07:57:38Z</time>
      </trkpt>
      <trkpt lat="47.23245" lon="6.01714">
        <ele>245.8</ele>
        <time>2021-06-03T07:57:39Z</time>
      </trkpt>
      <trkpt lat="47.23242" lon="6.01713">
        <ele>245.6</ele>
        <time>2021-06-03T07:57:40Z</time>
      </trkpt>
      <trkpt lat="47.23239" lon="6.01714">
        <ele>245.6</ele>
        <time>2021-06-03T07:57:41Z</time>
      </trkpt>
      <trkpt lat="47.23237" lon="6.01715">
        <ele>245.4</ele>
        <time>2021-06-03T07:57:42Z</time>
      </trkpt>
      <trkpt lat="47.23234" lon="6.01716">
        <ele>245.4</ele>
        <time>2021-06-03T07:57:43Z</time>
      </trkpt>
      <trkpt lat="47.23231" lon="6.01717">
        <ele>245.2</ele>
        <time>2021-06-03T07:57:44Z</time>
      </trkpt>
      <trkpt lat="47.23219" lon="6.01722">
        <ele>245</ele>
        <time>2021-06-03T07:57:48Z</time>
      </trkpt>
      <trkpt lat="47.23212" lon="6.01725">
        <ele>245</ele>
        <time>2021-06-03T07:57:50Z</time>
      </trkpt>
      <trkpt lat="47.23193" lon="6.01731">
        <ele>244.6</ele>
        <time>2021-06-03T07:57:55Z</time>
      </trkpt>
      <trkpt lat="47.23166" lon="6.01743">
        <ele>244.2</ele>
        <time>2021-06-03T07:58:01Z</time>
      </trkpt>
      <trkpt lat="47.23155" lon="6.01749">
        <ele>244</ele>
        <time>2021-06-03T07:58:03Z</time>
      </trkpt>
      <trkpt lat="47.23141" lon="6.01762">
        <ele>243.8</ele>
        <time>2021-06-03T07:58:07Z</time>
      </trkpt>
      <trkpt lat="47.2313" lon="6.01773">
        <ele>243.8</ele>
        <time>2021-06-03T07:58:10Z</time>
      </trkpt>
      <trkpt lat="47.23128" lon="6.01775">
        <ele>243.8</ele>
        <time>2021-06-03T07:58:11Z</time>
      </trkpt>
      <trkpt lat="47.23126" lon="6.01777">
        <ele>243.8</ele>
        <time>2021-06-03T07:58:12Z</time>
      </trkpt>
      <trkpt lat="47.23107" lon="6.01802">
        <ele>244.2</ele>
        <time>2021-06-03T07:58:18Z</time>
      </trkpt>
      <trkpt lat="47.23099" lon="6.01816">
        <ele>244.2</ele>
        <time>2021-06-03T07:58:21Z</time>
      </trkpt>
      <trkpt lat="47.23096" lon="6.01825">
        <ele>244.4</ele>
        <time>2021-06-03T07:58:23Z</time>
      </trkpt>
      <trkpt lat="47.23096" lon="6.01831">
        <ele>244.4</ele>
        <time>2021-06-03T07:58:24Z</time>
      </trkpt>
      <trkpt lat="47.23095" lon="6.01836">
        <ele>244.4</ele>
        <time>2021-06-03T07:58:25Z</time>
      </trkpt>
      <trkpt lat="47.23095" lon="6.0184">
        <ele>244.4</ele>
        <time>2021-06-03T07:58:26Z</time>
      </trkpt>
      <trkpt lat="47.23095" lon="6.01844">
        <ele>244.4</ele>
        <time>2021-06-03T07:58:27Z</time>
      </trkpt>
      <trkpt lat="47.23095" lon="6.01848">
        <ele>244.4</ele>
        <time>2021-06-03T07:58:28Z</time>
      </trkpt>
      <trkpt lat="47.23094" lon="6.01853">
        <ele>244.4</ele>
        <time>2021-06-03T07:58:29Z</time>
      </trkpt>
      <trkpt lat="47.23092" lon="6.0186">
        <ele>244.6</ele>
        <time>2021-06-03T07:58:31Z</time>
      </trkpt>
      <trkpt lat="47.23091" lon="6.01864">
        <ele>244.6</ele>
        <time>2021-06-03T07:58:32Z</time>
      </trkpt>
      <trkpt lat="47.2309" lon="6.01868">
        <ele>244.6</ele>
        <time>2021-06-03T07:58:33Z</time>
      </trkpt>
      <trkpt lat="47.2309" lon="6.0189">
        <ele>244.6</ele>
        <time>2021-06-03T07:58:37Z</time>
      </trkpt>
      <trkpt lat="47.23091" lon="6.01897">
        <ele>244.4</ele>
        <time>2021-06-03T07:58:38Z</time>
      </trkpt>
      <trkpt lat="47.23092" lon="6.01913">
        <ele>244.4</ele>
        <time>2021-06-03T07:58:41Z</time>
      </trkpt>
      <trkpt lat="47.23092" lon="6.01944">
        <ele>244.2</ele>
        <time>2021-06-03T07:58:46Z</time>
      </trkpt>
      <trkpt lat="47.23092" lon="6.02005">
        <ele>244.4</ele>
        <time>2021-06-03T07:58:56Z</time>
      </trkpt>
      <trkpt lat="47.23092" lon="6.02076">
        <ele>244.2</ele>
        <time>2021-06-03T07:59:07Z</time>
      </trkpt>
      <trkpt lat="47.2309" lon="6.02087">
        <ele>244.2</ele>
        <time>2021-06-03T07:59:09Z</time>
      </trkpt>
      <trkpt lat="47.23089" lon="6.02093">
        <ele>244.2</ele>
        <time>2021-06-03T07:59:10Z</time>
      </trkpt>
      <trkpt lat="47.23087" lon="6.02099">
        <ele>244</ele>
        <time>2021-06-03T07:59:11Z</time>
      </trkpt>
      <trkpt lat="47.23086" lon="6.02105">
        <ele>244</ele>
        <time>2021-06-03T07:59:12Z</time>
      </trkpt>
      <trkpt lat="47.23084" lon="6.02111">
        <ele>244</ele>
        <time>2021-06-03T07:59:13Z</time>
      </trkpt>
      <trkpt lat="47.23083" lon="6.02117">
        <ele>244</ele>
        <time>2021-06-03T07:59:14Z</time>
      </trkpt>
      <trkpt lat="47.23082" lon="6.02124">
        <ele>244</ele>
        <time>2021-06-03T07:59:15Z</time>
      </trkpt>
      <trkpt lat="47.23082" lon="6.0213">
        <ele>243.8</ele>
        <time>2021-06-03T07:59:16Z</time>
      </trkpt>
      <trkpt lat="47.23081" lon="6.02136">
        <ele>243.8</ele>
        <time>2021-06-03T07:59:17Z</time>
      </trkpt>
      <trkpt lat="47.2308" lon="6.02159">
        <ele>243.8</ele>
        <time>2021-06-03T07:59:21Z</time>
      </trkpt>
      <trkpt lat="47.23081" lon="6.02165">
        <ele>243.6</ele>
        <time>2021-06-03T07:59:22Z</time>
      </trkpt>
      <trkpt lat="47.23081" lon="6.02171">
        <ele>243.4</ele>
        <time>2021-06-03T07:59:23Z</time>
      </trkpt>
      <trkpt lat="47.23084" lon="6.02202">
        <ele>243.4</ele>
        <time>2021-06-03T07:59:28Z</time>
      </trkpt>
      <trkpt lat="47.23079" lon="6.02262">
        <ele>243</ele>
        <time>2021-06-03T07:59:37Z</time>
      </trkpt>
      <trkpt lat="47.23075" lon="6.02314">
        <ele>243</ele>
        <time>2021-06-03T07:59:45Z</time>
      </trkpt>
      <trkpt lat="47.23076" lon="6.0232">
        <ele>243.2</ele>
        <time>2021-06-03T07:59:46Z</time>
      </trkpt>
      <trkpt lat="47.23077" lon="6.02325">
        <ele>243.2</ele>
        <time>2021-06-03T07:59:47Z</time>
      </trkpt>
      <trkpt lat="47.23078" lon="6.02328">
        <ele>243.2</ele>
        <time>2021-06-03T07:59:48Z</time>
      </trkpt>
      <trkpt lat="47.2308" lon="6.02331">
        <ele>243.4</ele>
        <time>2021-06-03T07:59:49Z</time>
      </trkpt>
      <trkpt lat="47.23082" lon="6.02333">
        <ele>243.4</ele>
        <time>2021-06-03T07:59:50Z</time>
      </trkpt>
      <trkpt lat="47.23083" lon="6.02336">
        <ele>243.4</ele>
        <time>2021-06-03T07:59:51Z</time>
      </trkpt>
      <trkpt lat="47.23084" lon="6.0234">
        <ele>243.4</ele>
        <time>2021-06-03T07:59:52Z</time>
      </trkpt>
      <trkpt lat="47.23083" lon="6.0235">
        <ele>243.6</ele>
        <time>2021-06-03T07:59:54Z</time>
      </trkpt>
      <trkpt lat="47.23079" lon="6.02363">
        <ele>244</ele>
        <time>2021-06-03T07:59:56Z</time>
      </trkpt>
      <trkpt lat="47.23077" lon="6.02372">
        <ele>244</ele>
        <time>2021-06-03T07:59:57Z</time>
      </trkpt>
      <trkpt lat="47.23076" lon="6.02388">
        <ele>243.8</ele>
        <time>2021-06-03T07:59:59Z</time>
      </trkpt>
      <trkpt lat="47.23076" lon="6.02396">
        <ele>243.8</ele>
        <time>2021-06-03T08:00:00Z</time>
      </trkpt>
      <trkpt lat="47.23076" lon="6.02403">
        <ele>243.6</ele>
        <time>2021-06-03T08:00:01Z</time>
      </trkpt>
      <trkpt lat="47.23076" lon="6.02411">
        <ele>243.2</ele>
        <time>2021-06-03T08:00:02Z</time>
      </trkpt>
      <trkpt lat="47.23076" lon="6.02419">
        <ele>243.2</ele>
        <time>2021-06-03T08:00:03Z</time>
      </trkpt>
      <trkpt lat="47.23076" lon="6.02426">
        <ele>243</ele>
        <time>2021-06-03T08:00:04Z</time>
      </trkpt>
      <trkpt lat="47.23076" lon="6.0244">
        <ele>243</ele>
        <time>2021-06-03T08:00:06Z</time>
      </trkpt>
      <trkpt lat="47.23076" lon="6.02448">
        <ele>242.8</ele>
        <time>2021-06-03T08:00:07Z</time>
      </trkpt>
      <trkpt lat="47.23076" lon="6.02455">
        <ele>242.8</ele>
        <time>2021-06-03T08:00:08Z</time>
      </trkpt>
      <trkpt lat="47.23076" lon="6.02461">
        <ele>242.6</ele>
        <time>2021-06-03T08:00:09Z</time>
      </trkpt>
      <trkpt lat="47.23076" lon="6.02467">
        <ele>242.6</ele>
        <time>2021-06-03T08:00:10Z</time>
      </trkpt>
      <trkpt lat="47.23076" lon="6.02473">
        <ele>242.6</ele>
        <time>2021-06-03T08:00:11Z</time>
      </trkpt>
      <trkpt lat="47.23076" lon="6.02479">
        <ele>242.8</ele>
        <time>2021-06-03T08:00:12Z</time>
      </trkpt>
      <trkpt lat="47.23075" lon="6.02485">
        <ele>242.6</ele>
        <time>2021-06-03T08:00:13Z</time>
      </trkpt>
      <trkpt lat="47.23075" lon="6.02491">
        <ele>242.6</ele>
        <time>2021-06-03T08:00:14Z</time>
      </trkpt>
      <trkpt lat="47.23075" lon="6.02497">
        <ele>242.4</ele>
        <time>2021-06-03T08:00:15Z</time>
      </trkpt>
      <trkpt lat="47.23075" lon="6.02503">
        <ele>242.4</ele>
        <time>2021-06-03T08:00:16Z</time>
      </trkpt>
      <trkpt lat="47.23075" lon="6.02509">
        <ele>242.4</ele>
        <time>2021-06-03T08:00:17Z</time>
      </trkpt>
      <trkpt lat="47.23075" lon="6.02515">
        <ele>242.4</ele>
        <time>2021-06-03T08:00:18Z</time>
      </trkpt>
      <trkpt lat="47.23075" lon="6.02521">
        <ele>242.4</ele>
        <time>2021-06-03T08:00:19Z</time>
      </trkpt>
      <trkpt lat="47.23075" lon="6.02562">
        <ele>242.4</ele>
        <time>2021-06-03T08:00:25Z</time>
      </trkpt>
      <trkpt lat="47.23072" lon="6.02626">
        <ele>242.4</ele>
        <time>2021-06-03T08:00:35Z</time>
      </trkpt>
      <trkpt lat="47.23068" lon="6.02693">
        <ele>242.4</ele>
        <time>2021-06-03T08:00:45Z</time>
      </trkpt>
      <trkpt lat="47.23067" lon="6.02708">
        <ele>242.4</ele>
        <time>2021-06-03T08:00:47Z</time>
      </trkpt>
      <trkpt lat="47.23063" lon="6.02727">
        <ele>242.4</ele>
        <time>2021-06-03T08:00:50Z</time>
      </trkpt>
      <trkpt lat="47.23053" lon="6.02765">
        <ele>242.6</ele>
        <time>2021-06-03T08:00:56Z</time>
      </trkpt>
      <trkpt lat="47.23051" lon="6.02771">
        <ele>242.6</ele>
        <time>2021-06-03T08:00:57Z</time>
      </trkpt>
      <trkpt lat="47.23049" lon="6.02777">
        <ele>242.6</ele>
        <time>2021-06-03T08:00:58Z</time>
      </trkpt>
      <trkpt lat="47.23046" lon="6.02789">
        <ele>242.6</ele>
        <time>2021-06-03T08:01:00Z</time>
      </trkpt>
      <trkpt lat="47.23045" lon="6.02797">
        <ele>242.6</ele>
        <time>2021-06-03T08:01:01Z</time>
      </trkpt>
      <trkpt lat="47.23044" lon="6.02803">
        <ele>242.6</ele>
        <time>2021-06-03T08:01:02Z</time>
      </trkpt>
      <trkpt lat="47.23043" lon="6.02808">
        <ele>242.8</ele>
        <time>2021-06-03T08:01:03Z</time>
      </trkpt>
      <trkpt lat="47.23043" lon="6.02812">
        <ele>242.8</ele>
        <time>2021-06-03T08:01:04Z</time>
      </trkpt>
      <trkpt lat="47.23042" lon="6.02816">
        <ele>243</ele>
        <time>2021-06-03T08:01:05Z</time>
      </trkpt>
      <trkpt lat="47.23041" lon="6.0282">
        <ele>243</ele>
        <time>2021-06-03T08:01:06Z</time>
      </trkpt>
      <trkpt lat="47.2304" lon="6.02823">
        <ele>243.2</ele>
        <time>2021-06-03T08:01:07Z</time>
      </trkpt>
      <trkpt lat="47.23039" lon="6.02828">
        <ele>243.4</ele>
        <time>2021-06-03T08:01:08Z</time>
      </trkpt>
      <trkpt lat="47.23031" lon="6.02856">
        <ele>244.2</ele>
        <time>2021-06-03T08:01:14Z</time>
      </trkpt>
      <trkpt lat="47.23027" lon="6.02874">
        <ele>244.2</ele>
        <time>2021-06-03T08:01:17Z</time>
      </trkpt>
      <trkpt lat="47.23025" lon="6.0288">
        <ele>244</ele>
        <time>2021-06-03T08:01:18Z</time>
      </trkpt>
      <trkpt lat="47.23019" lon="6.029">
        <ele>243.8</ele>
        <time>2021-06-03T08:01:22Z</time>
      </trkpt>
      <trkpt lat="47.23016" lon="6.02909">
        <ele>243.6</ele>
        <time>2021-06-03T08:01:24Z</time>
      </trkpt>
      <trkpt lat="47.23014" lon="6.02914">
        <ele>243.6</ele>
        <time>2021-06-03T08:01:25Z</time>
      </trkpt>
      <trkpt lat="47.23013" lon="6.02919">
        <ele>243.4</ele>
        <time>2021-06-03T08:01:26Z</time>
      </trkpt>
      <trkpt lat="47.23012" lon="6.02923">
        <ele>243.4</ele>
        <time>2021-06-03T08:01:27Z</time>
      </trkpt>
      <trkpt lat="47.2301" lon="6.02928">
        <ele>243.4</ele>
        <time>2021-06-03T08:01:28Z</time>
      </trkpt>
      <trkpt lat="47.23009" lon="6.02933">
        <ele>243.4</ele>
        <time>2021-06-03T08:01:29Z</time>
      </trkpt>
      <trkpt lat="47.23006" lon="6.02942">
        <ele>243.4</ele>
        <time>2021-06-03T08:01:31Z</time>
      </trkpt>
      <trkpt lat="47.22998" lon="6.02974">
        <ele>243.4</ele>
        <time>2021-06-03T08:01:37Z</time>
      </trkpt>
      <trkpt lat="47.22997" lon="6.02978">
        <ele>243.4</ele>
        <time>2021-06-03T08:01:38Z</time>
      </trkpt>
      <trkpt lat="47.22996" lon="6.02981">
        <ele>243.6</ele>
        <time>2021-06-03T08:01:39Z</time>
      </trkpt>
      <trkpt lat="47.22995" lon="6.02985">
        <ele>243.6</ele>
        <time>2021-06-03T08:01:40Z</time>
      </trkpt>
      <trkpt lat="47.22994" lon="6.0299">
        <ele>243.6</ele>
        <time>2021-06-03T08:01:41Z</time>
      </trkpt>
      <trkpt lat="47.22994" lon="6.02992">
        <ele>244</ele>
        <time>2021-06-03T08:01:42Z</time>
      </trkpt>
      <trkpt lat="47.22992" lon="6.02999">
        <ele>244.6</ele>
        <time>2021-06-03T08:01:44Z</time>
      </trkpt>
      <trkpt lat="47.22991" lon="6.03002">
        <ele>244.8</ele>
        <time>2021-06-03T08:01:45Z</time>
      </trkpt>
      <trkpt lat="47.2299" lon="6.03005">
        <ele>245.2</ele>
        <time>2021-06-03T08:01:46Z</time>
      </trkpt>
      <trkpt lat="47.2299" lon="6.03009">
        <ele>245.4</ele>
        <time>2021-06-03T08:01:47Z</time>
      </trkpt>
      <trkpt lat="47.2299" lon="6.03012">
        <ele>245.6</ele>
        <time>2021-06-03T08:01:48Z</time>
      </trkpt>
      <trkpt lat="47.2299" lon="6.03015">
        <ele>246</ele>
        <time>2021-06-03T08:01:49Z</time>
      </trkpt>
      <trkpt lat="47.2299" lon="6.03019">
        <ele>246</ele>
        <time>2021-06-03T08:01:50Z</time>
      </trkpt>
      <trkpt lat="47.2299" lon="6.03022">
        <ele>246.4</ele>
        <time>2021-06-03T08:01:51Z</time>
      </trkpt>
      <trkpt lat="47.22989" lon="6.03025">
        <ele>246.4</ele>
        <time>2021-06-03T08:01:52Z</time>
      </trkpt>
      <trkpt lat="47.22988" lon="6.03028">
        <ele>246.6</ele>
        <time>2021-06-03T08:01:53Z</time>
      </trkpt>
      <trkpt lat="47.22987" lon="6.03031">
        <ele>246.8</ele>
        <time>2021-06-03T08:01:54Z</time>
      </trkpt>
      <trkpt lat="47.22986" lon="6.03034">
        <ele>246.8</ele>
        <time>2021-06-03T08:01:55Z</time>
      </trkpt>
      <trkpt lat="47.22985" lon="6.03037">
        <ele>246.8</ele>
        <time>2021-06-03T08:01:56Z</time>
      </trkpt>
      <trkpt lat="47.22984" lon="6.0304">
        <ele>247</ele>
        <time>2021-06-03T08:01:57Z</time>
      </trkpt>
      <trkpt lat="47.22983" lon="6.03044">
        <ele>247</ele>
        <time>2021-06-03T08:01:58Z</time>
      </trkpt>
      <trkpt lat="47.22981" lon="6.03047">
        <ele>247</ele>
        <time>2021-06-03T08:01:59Z</time>
      </trkpt>
      <trkpt lat="47.22978" lon="6.03048">
        <ele>247</ele>
        <time>2021-06-03T08:02:00Z</time>
      </trkpt>
      <trkpt lat="47.22977" lon="6.03051">
        <ele>247</ele>
        <time>2021-06-03T08:02:01Z</time>
      </trkpt>
      <trkpt lat="47.22976" lon="6.03054">
        <ele>247</ele>
        <time>2021-06-03T08:02:02Z</time>
      </trkpt>
      <trkpt lat="47.22975" lon="6.03059">
        <ele>247</ele>
        <time>2021-06-03T08:02:03Z</time>
      </trkpt>
      <trkpt lat="47.22973" lon="6.03062">
        <ele>247</ele>
        <time>2021-06-03T08:02:04Z</time>
      </trkpt>
      <trkpt lat="47.2297" lon="6.03065">
        <ele>247</ele>
        <time>2021-06-03T08:02:05Z</time>
      </trkpt>
      <trkpt lat="47.22968" lon="6.03066">
        <ele>246.8</ele>
        <time>2021-06-03T08:02:06Z</time>
      </trkpt>
      <trkpt lat="47.22967" lon="6.03064">
        <ele>246.8</ele>
        <time>2021-06-03T08:02:07Z</time>
      </trkpt>
      <trkpt lat="47.22968" lon="6.0306">
        <ele>246.6</ele>
        <time>2021-06-03T08:02:08Z</time>
      </trkpt>
      <trkpt lat="47.22971" lon="6.03052">
        <ele>246</ele>
        <time>2021-06-03T08:02:10Z</time>
      </trkpt>
      <trkpt lat="47.22972" lon="6.03044">
        <ele>245.4</ele>
        <time>2021-06-03T08:02:12Z</time>
      </trkpt>
      <trkpt lat="47.2297" lon="6.03042">
        <ele>245.2</ele>
        <time>2021-06-03T08:02:13Z</time>
      </trkpt>
      <trkpt lat="47.22968" lon="6.03041">
        <ele>245</ele>
        <time>2021-06-03T08:02:14Z</time>
      </trkpt>
      <trkpt lat="47.22966" lon="6.03041">
        <ele>245</ele>
        <time>2021-06-03T08:02:15Z</time>
      </trkpt>
      <trkpt lat="47.22964" lon="6.03041">
        <ele>244.6</ele>
        <time>2021-06-03T08:02:16Z</time>
      </trkpt>
      <trkpt lat="47.22961" lon="6.03041">
        <ele>244.4</ele>
        <time>2021-06-03T08:02:17Z</time>
      </trkpt>
      <trkpt lat="47.22958" lon="6.03041">
        <ele>244.2</ele>
        <time>2021-06-03T08:02:18Z</time>
      </trkpt>
      <trkpt lat="47.22957" lon="6.03041">
        <ele>244.2</ele>
        <time>2021-06-03T08:02:19Z</time>
      </trkpt>
      <trkpt lat="47.22936" lon="6.03038">
        <ele>244</ele>
        <time>2021-06-03T08:02:28Z</time>
      </trkpt>
      <trkpt lat="47.22934" lon="6.03038">
        <ele>244</ele>
        <time>2021-06-03T08:02:29Z</time>
      </trkpt>
      <trkpt lat="47.22932" lon="6.03038">
        <ele>244.2</ele>
        <time>2021-06-03T08:02:30Z</time>
      </trkpt>
      <trkpt lat="47.22928" lon="6.03039">
        <ele>244.2</ele>
        <time>2021-06-03T08:02:32Z</time>
      </trkpt>
      <trkpt lat="47.22926" lon="6.03039">
        <ele>244.2</ele>
        <time>2021-06-03T08:02:33Z</time>
      </trkpt>
      <trkpt lat="47.22924" lon="6.0304">
        <ele>244.2</ele>
        <time>2021-06-03T08:02:34Z</time>
      </trkpt>
      <trkpt lat="47.22904" lon="6.03046">
        <ele>244</ele>
        <time>2021-06-03T08:02:42Z</time>
      </trkpt>
      <trkpt lat="47.22895" lon="6.03049">
        <ele>244</ele>
        <time>2021-06-03T08:02:44Z</time>
      </trkpt>
      <trkpt lat="47.22892" lon="6.03052">
        <ele>244</ele>
        <time>2021-06-03T08:02:45Z</time>
      </trkpt>
      <trkpt lat="47.2289" lon="6.03053">
        <ele>243.8</ele>
        <time>2021-06-03T08:02:46Z</time>
      </trkpt>
      <trkpt lat="47.22886" lon="6.03056">
        <ele>243.8</ele>
        <time>2021-06-03T08:02:47Z</time>
      </trkpt>
      <trkpt lat="47.22884" lon="6.03059">
        <ele>243.8</ele>
        <time>2021-06-03T08:02:48Z</time>
      </trkpt>
      <trkpt lat="47.22881" lon="6.03065">
        <ele>243.6</ele>
        <time>2021-06-03T08:02:49Z</time>
      </trkpt>
      <trkpt lat="47.22878" lon="6.03072">
        <ele>243.6</ele>
        <time>2021-06-03T08:02:50Z</time>
      </trkpt>
      <trkpt lat="47.22876" lon="6.03077">
        <ele>243.6</ele>
        <time>2021-06-03T08:02:51Z</time>
      </trkpt>
      <trkpt lat="47.22873" lon="6.03083">
        <ele>243.4</ele>
        <time>2021-06-03T08:02:52Z</time>
      </trkpt>
      <trkpt lat="47.22871" lon="6.03087">
        <ele>243.4</ele>
        <time>2021-06-03T08:02:53Z</time>
      </trkpt>
      <trkpt lat="47.22869" lon="6.03092">
        <ele>243.4</ele>
        <time>2021-06-03T08:02:54Z</time>
      </trkpt>
      <trkpt lat="47.22867" lon="6.03095">
        <ele>243.4</ele>
        <time>2021-06-03T08:02:55Z</time>
      </trkpt>
      <trkpt lat="47.22865" lon="6.03099">
        <ele>243.4</ele>
        <time>2021-06-03T08:02:56Z</time>
      </trkpt>
      <trkpt lat="47.22863" lon="6.03103">
        <ele>243.4</ele>
        <time>2021-06-03T08:02:57Z</time>
      </trkpt>
      <trkpt lat="47.22861" lon="6.03106">
        <ele>243.4</ele>
        <time>2021-06-03T08:02:58Z</time>
      </trkpt>
      <trkpt lat="47.22859" lon="6.03108">
        <ele>243.4</ele>
        <time>2021-06-03T08:02:59Z</time>
      </trkpt>
      <trkpt lat="47.22857" lon="6.03111">
        <ele>243.4</ele>
        <time>2021-06-03T08:03:00Z</time>
      </trkpt>
      <trkpt lat="47.22854" lon="6.03114">
        <ele>243.4</ele>
        <time>2021-06-03T08:03:01Z</time>
      </trkpt>
      <trkpt lat="47.22852" lon="6.03118">
        <ele>243.4</ele>
        <time>2021-06-03T08:03:02Z</time>
      </trkpt>
      <trkpt lat="47.22849" lon="6.03122">
        <ele>243.4</ele>
        <time>2021-06-03T08:03:03Z</time>
      </trkpt>
      <trkpt lat="47.22846" lon="6.03125">
        <ele>243.4</ele>
        <time>2021-06-03T08:03:04Z</time>
      </trkpt>
      <trkpt lat="47.22844" lon="6.03128">
        <ele>243.4</ele>
        <time>2021-06-03T08:03:05Z</time>
      </trkpt>
      <trkpt lat="47.22837" lon="6.03147">
        <ele>243.4</ele>
        <time>2021-06-03T08:03:09Z</time>
      </trkpt>
      <trkpt lat="47.22821" lon="6.03173">
        <ele>243.4</ele>
        <time>2021-06-03T08:03:16Z</time>
      </trkpt>
      <trkpt lat="47.22813" lon="6.03181">
        <ele>243.4</ele>
        <time>2021-06-03T08:03:19Z</time>
      </trkpt>
      <trkpt lat="47.22807" lon="6.03186">
        <ele>243.4</ele>
        <time>2021-06-03T08:03:21Z</time>
      </trkpt>
      <trkpt lat="47.22804" lon="6.03188">
        <ele>243.4</ele>
        <time>2021-06-03T08:03:22Z</time>
      </trkpt>
      <trkpt lat="47.22801" lon="6.03191">
        <ele>243.4</ele>
        <time>2021-06-03T08:03:23Z</time>
      </trkpt>
      <trkpt lat="47.22767" lon="6.03216">
        <ele>243.4</ele>
        <time>2021-06-03T08:03:33Z</time>
      </trkpt>
      <trkpt lat="47.22748" lon="6.0323">
        <ele>243.8</ele>
        <time>2021-06-03T08:03:39Z</time>
      </trkpt>
      <trkpt lat="47.22703" lon="6.03249">
        <ele>244</ele>
        <time>2021-06-03T08:03:50Z</time>
      </trkpt>
      <trkpt lat="47.22687" lon="6.03253">
        <ele>243.8</ele>
        <time>2021-06-03T08:03:54Z</time>
      </trkpt>
      <trkpt lat="47.22679" lon="6.03253">
        <ele>243.8</ele>
        <time>2021-06-03T08:03:56Z</time>
      </trkpt>
      <trkpt lat="47.22675" lon="6.03253">
        <ele>243.8</ele>
        <time>2021-06-03T08:03:57Z</time>
      </trkpt>
      <trkpt lat="47.22671" lon="6.03253">
        <ele>243.8</ele>
        <time>2021-06-03T08:03:58Z</time>
      </trkpt>
      <trkpt lat="47.22666" lon="6.03254">
        <ele>243.8</ele>
        <time>2021-06-03T08:03:59Z</time>
      </trkpt>
      <trkpt lat="47.22649" lon="6.03258">
        <ele>243.2</ele>
        <time>2021-06-03T08:04:03Z</time>
      </trkpt>
      <trkpt lat="47.22645" lon="6.03259">
        <ele>243.2</ele>
        <time>2021-06-03T08:04:04Z</time>
      </trkpt>
      <trkpt lat="47.22641" lon="6.0326">
        <ele>243</ele>
        <time>2021-06-03T08:04:05Z</time>
      </trkpt>
      <trkpt lat="47.22634" lon="6.03263">
        <ele>242.8</ele>
        <time>2021-06-03T08:04:07Z</time>
      </trkpt>
      <trkpt lat="47.22621" lon="6.03263">
        <ele>242.8</ele>
        <time>2021-06-03T08:04:10Z</time>
      </trkpt>
      <trkpt lat="47.22614" lon="6.03263">
        <ele>242.8</ele>
        <time>2021-06-03T08:04:12Z</time>
      </trkpt>
      <trkpt lat="47.2261" lon="6.03262">
        <ele>242.8</ele>
        <time>2021-06-03T08:04:13Z</time>
      </trkpt>
      <trkpt lat="47.22605" lon="6.03261">
        <ele>242.8</ele>
        <time>2021-06-03T08:04:14Z</time>
      </trkpt>
      <trkpt lat="47.22602" lon="6.0326">
        <ele>242.8</ele>
        <time>2021-06-03T08:04:15Z</time>
      </trkpt>
      <trkpt lat="47.22598" lon="6.03259">
        <ele>242.8</ele>
        <time>2021-06-03T08:04:16Z</time>
      </trkpt>
      <trkpt lat="47.22595" lon="6.03257">
        <ele>242.6</ele>
        <time>2021-06-03T08:04:17Z</time>
      </trkpt>
      <trkpt lat="47.22591" lon="6.03256">
        <ele>242.6</ele>
        <time>2021-06-03T08:04:18Z</time>
      </trkpt>
      <trkpt lat="47.22587" lon="6.03254">
        <ele>242.8</ele>
        <time>2021-06-03T08:04:19Z</time>
      </trkpt>
      <trkpt lat="47.22583" lon="6.03251">
        <ele>242.8</ele>
        <time>2021-06-03T08:04:20Z</time>
      </trkpt>
      <trkpt lat="47.22579" lon="6.03249">
        <ele>242.6</ele>
        <time>2021-06-03T08:04:21Z</time>
      </trkpt>
      <trkpt lat="47.22562" lon="6.03236">
        <ele>242.6</ele>
        <time>2021-06-03T08:04:26Z</time>
      </trkpt>
      <trkpt lat="47.22531" lon="6.03207">
        <ele>242.8</ele>
        <time>2021-06-03T08:04:35Z</time>
      </trkpt>
      <trkpt lat="47.22504" lon="6.03188">
        <ele>243.2</ele>
        <time>2021-06-03T08:04:42Z</time>
      </trkpt>
      <trkpt lat="47.2246" lon="6.03174">
        <ele>243.2</ele>
        <time>2021-06-03T08:04:51Z</time>
      </trkpt>
      <trkpt lat="47.22427" lon="6.03156">
        <ele>243.2</ele>
        <time>2021-06-03T08:04:58Z</time>
      </trkpt>
      <trkpt lat="47.22387" lon="6.03134">
        <ele>243</ele>
        <time>2021-06-03T08:05:06Z</time>
      </trkpt>
      <trkpt lat="47.22347" lon="6.03112">
        <ele>243.2</ele>
        <time>2021-06-03T08:05:14Z</time>
      </trkpt>
      <trkpt lat="47.22331" lon="6.03105">
        <ele>243.2</ele>
        <time>2021-06-03T08:05:17Z</time>
      </trkpt>
      <trkpt lat="47.22326" lon="6.03102">
        <ele>243.2</ele>
        <time>2021-06-03T08:05:18Z</time>
      </trkpt>
      <trkpt lat="47.22322" lon="6.03099">
        <ele>243.2</ele>
        <time>2021-06-03T08:05:19Z</time>
      </trkpt>
      <trkpt lat="47.22317" lon="6.03096">
        <ele>243.2</ele>
        <time>2021-06-03T08:05:20Z</time>
      </trkpt>
      <trkpt lat="47.22312" lon="6.03094">
        <ele>243.2</ele>
        <time>2021-06-03T08:05:21Z</time>
      </trkpt>
      <trkpt lat="47.22307" lon="6.03091">
        <ele>243</ele>
        <time>2021-06-03T08:05:22Z</time>
      </trkpt>
      <trkpt lat="47.22302" lon="6.03088">
        <ele>243</ele>
        <time>2021-06-03T08:05:23Z</time>
      </trkpt>
      <trkpt lat="47.22298" lon="6.03086">
        <ele>243</ele>
        <time>2021-06-03T08:05:24Z</time>
      </trkpt>
      <trkpt lat="47.22292" lon="6.03083">
        <ele>243</ele>
        <time>2021-06-03T08:05:25Z</time>
      </trkpt>
      <trkpt lat="47.22287" lon="6.03081">
        <ele>243</ele>
        <time>2021-06-03T08:05:26Z</time>
      </trkpt>
      <trkpt lat="47.22284" lon="6.03079">
        <ele>243</ele>
        <time>2021-06-03T08:05:27Z</time>
      </trkpt>
      <trkpt lat="47.22279" lon="6.03076">
        <ele>243</ele>
        <time>2021-06-03T08:05:28Z</time>
      </trkpt>
      <trkpt lat="47.22274" lon="6.03073">
        <ele>243</ele>
        <time>2021-06-03T08:05:29Z</time>
      </trkpt>
      <trkpt lat="47.2227" lon="6.0307">
        <ele>243</ele>
        <time>2021-06-03T08:05:30Z</time>
      </trkpt>
      <trkpt lat="47.22265" lon="6.03067">
        <ele>243</ele>
        <time>2021-06-03T08:05:31Z</time>
      </trkpt>
      <trkpt lat="47.22213" lon="6.03038">
        <ele>243</ele>
        <time>2021-06-03T08:05:42Z</time>
      </trkpt>
      <trkpt lat="47.22177" lon="6.03016">
        <ele>243</ele>
        <time>2021-06-03T08:05:50Z</time>
      </trkpt>
      <trkpt lat="47.22173" lon="6.03014">
        <ele>243</ele>
        <time>2021-06-03T08:05:51Z</time>
      </trkpt>
      <trkpt lat="47.22168" lon="6.03011">
        <ele>243</ele>
        <time>2021-06-03T08:05:52Z</time>
      </trkpt>
      <trkpt lat="47.2216" lon="6.03005">
        <ele>243</ele>
        <time>2021-06-03T08:05:54Z</time>
      </trkpt>
      <trkpt lat="47.22155" lon="6.03002">
        <ele>243</ele>
        <time>2021-06-03T08:05:55Z</time>
      </trkpt>
      <trkpt lat="47.22151" lon="6.02998">
        <ele>243</ele>
        <time>2021-06-03T08:05:56Z</time>
      </trkpt>
      <trkpt lat="47.22139" lon="6.02985">
        <ele>243</ele>
        <time>2021-06-03T08:05:59Z</time>
      </trkpt>
      <trkpt lat="47.2211" lon="6.02954">
        <ele>242.8</ele>
        <time>2021-06-03T08:06:06Z</time>
      </trkpt>
      <trkpt lat="47.22083" lon="6.0292">
        <ele>242.8</ele>
        <time>2021-06-03T08:06:13Z</time>
      </trkpt>
      <trkpt lat="47.2208" lon="6.02915">
        <ele>242.8</ele>
        <time>2021-06-03T08:06:14Z</time>
      </trkpt>
      <trkpt lat="47.22076" lon="6.0291">
        <ele>242.8</ele>
        <time>2021-06-03T08:06:15Z</time>
      </trkpt>
      <trkpt lat="47.22073" lon="6.02904">
        <ele>242.8</ele>
        <time>2021-06-03T08:06:16Z</time>
      </trkpt>
      <trkpt lat="47.22069" lon="6.02899">
        <ele>242.8</ele>
        <time>2021-06-03T08:06:17Z</time>
      </trkpt>
      <trkpt lat="47.22053" lon="6.02869">
        <ele>242.8</ele>
        <time>2021-06-03T08:06:22Z</time>
      </trkpt>
      <trkpt lat="47.22038" lon="6.02839">
        <ele>243</ele>
        <time>2021-06-03T08:06:27Z</time>
      </trkpt>
      <trkpt lat="47.22035" lon="6.02834">
        <ele>243</ele>
        <time>2021-06-03T08:06:28Z</time>
      </trkpt>
      <trkpt lat="47.22032" lon="6.02828">
        <ele>243</ele>
        <time>2021-06-03T08:06:29Z</time>
      </trkpt>
      <trkpt lat="47.22024" lon="6.02809">
        <ele>243</ele>
        <time>2021-06-03T08:06:32Z</time>
      </trkpt>
      <trkpt lat="47.22016" lon="6.02781">
        <ele>243</ele>
        <time>2021-06-03T08:06:36Z</time>
      </trkpt>
      <trkpt lat="47.21999" lon="6.02704">
        <ele>242.8</ele>
        <time>2021-06-03T08:06:46Z</time>
      </trkpt>
      <trkpt lat="47.21998" lon="6.02695">
        <ele>242.8</ele>
        <time>2021-06-03T08:06:47Z</time>
      </trkpt>
      <trkpt lat="47.21988" lon="6.02623">
        <ele>242.4</ele>
        <time>2021-06-03T08:06:56Z</time>
      </trkpt>
      <trkpt lat="47.21987" lon="6.02615">
        <ele>242.2</ele>
        <time>2021-06-03T08:06:57Z</time>
      </trkpt>
      <trkpt lat="47.21986" lon="6.02608">
        <ele>242.2</ele>
        <time>2021-06-03T08:06:58Z</time>
      </trkpt>
      <trkpt lat="47.21985" lon="6.026">
        <ele>242.2</ele>
        <time>2021-06-03T08:06:59Z</time>
      </trkpt>
      <trkpt lat="47.2198" lon="6.02568">
        <ele>242.2</ele>
        <time>2021-06-03T08:07:03Z</time>
      </trkpt>
      <trkpt lat="47.21978" lon="6.02551">
        <ele>242.2</ele>
        <time>2021-06-03T08:07:05Z</time>
      </trkpt>
      <trkpt lat="47.21973" lon="6.02506">
        <ele>242.2</ele>
        <time>2021-06-03T08:07:11Z</time>
      </trkpt>
      <trkpt lat="47.21972" lon="6.02497">
        <ele>242.2</ele>
        <time>2021-06-03T08:07:12Z</time>
      </trkpt>
      <trkpt lat="47.21971" lon="6.02489">
        <ele>242.2</ele>
        <time>2021-06-03T08:07:13Z</time>
      </trkpt>
      <trkpt lat="47.2197" lon="6.02482">
        <ele>242.2</ele>
        <time>2021-06-03T08:07:14Z</time>
      </trkpt>
      <trkpt lat="47.2197" lon="6.02475">
        <ele>242.2</ele>
        <time>2021-06-03T08:07:15Z</time>
      </trkpt>
      <trkpt lat="47.21969" lon="6.02467">
        <ele>242.2</ele>
        <time>2021-06-03T08:07:16Z</time>
      </trkpt>
      <trkpt lat="47.21968" lon="6.02461">
        <ele>242</ele>
        <time>2021-06-03T08:07:17Z</time>
      </trkpt>
      <trkpt lat="47.21966" lon="6.02453">
        <ele>242</ele>
        <time>2021-06-03T08:07:18Z</time>
      </trkpt>
      <trkpt lat="47.21965" lon="6.02445">
        <ele>242</ele>
        <time>2021-06-03T08:07:19Z</time>
      </trkpt>
      <trkpt lat="47.21964" lon="6.02438">
        <ele>242</ele>
        <time>2021-06-03T08:07:20Z</time>
      </trkpt>
      <trkpt lat="47.21956" lon="6.02402">
        <ele>242</ele>
        <time>2021-06-03T08:07:25Z</time>
      </trkpt>
      <trkpt lat="47.21954" lon="6.02396">
        <ele>242</ele>
        <time>2021-06-03T08:07:26Z</time>
      </trkpt>
      <trkpt lat="47.21953" lon="6.0239">
        <ele>242</ele>
        <time>2021-06-03T08:07:27Z</time>
      </trkpt>
      <trkpt lat="47.21951" lon="6.02384">
        <ele>242</ele>
        <time>2021-06-03T08:07:28Z</time>
      </trkpt>
      <trkpt lat="47.21948" lon="6.02372">
        <ele>242</ele>
        <time>2021-06-03T08:07:30Z</time>
      </trkpt>
      <trkpt lat="47.21925" lon="6.02319">
        <ele>242.4</ele>
        <time>2021-06-03T08:07:39Z</time>
      </trkpt>
      <trkpt lat="47.21904" lon="6.02272">
        <ele>242.4</ele>
        <time>2021-06-03T08:07:46Z</time>
      </trkpt>
      <trkpt lat="47.21898" lon="6.02257">
        <ele>242.2</ele>
        <time>2021-06-03T08:07:48Z</time>
      </trkpt>
      <trkpt lat="47.21895" lon="6.0225">
        <ele>242.2</ele>
        <time>2021-06-03T08:07:49Z</time>
      </trkpt>
      <trkpt lat="47.21892" lon="6.02243">
        <ele>241.8</ele>
        <time>2021-06-03T08:07:50Z</time>
      </trkpt>
      <trkpt lat="47.21889" lon="6.02236">
        <ele>241.8</ele>
        <time>2021-06-03T08:07:51Z</time>
      </trkpt>
      <trkpt lat="47.2188" lon="6.02217">
        <ele>241.2</ele>
        <time>2021-06-03T08:07:54Z</time>
      </trkpt>
      <trkpt lat="47.21877" lon="6.0221">
        <ele>241.2</ele>
        <time>2021-06-03T08:07:55Z</time>
      </trkpt>
      <trkpt lat="47.21874" lon="6.02204">
        <ele>241.2</ele>
        <time>2021-06-03T08:07:56Z</time>
      </trkpt>
      <trkpt lat="47.21872" lon="6.02199">
        <ele>241.2</ele>
        <time>2021-06-03T08:07:57Z</time>
      </trkpt>
      <trkpt lat="47.21869" lon="6.02191">
        <ele>241.2</ele>
        <time>2021-06-03T08:07:58Z</time>
      </trkpt>
      <trkpt lat="47.21867" lon="6.02185">
        <ele>241.2</ele>
        <time>2021-06-03T08:07:59Z</time>
      </trkpt>
      <trkpt lat="47.21864" lon="6.02179">
        <ele>241.2</ele>
        <time>2021-06-03T08:08:00Z</time>
      </trkpt>
      <trkpt lat="47.21861" lon="6.02172">
        <ele>241.2</ele>
        <time>2021-06-03T08:08:01Z</time>
      </trkpt>
      <trkpt lat="47.21858" lon="6.02166">
        <ele>241.2</ele>
        <time>2021-06-03T08:08:02Z</time>
      </trkpt>
      <trkpt lat="47.21848" lon="6.02141">
        <ele>241.2</ele>
        <time>2021-06-03T08:08:06Z</time>
      </trkpt>
      <trkpt lat="47.21833" lon="6.02108">
        <ele>241.2</ele>
        <time>2021-06-03T08:08:11Z</time>
      </trkpt>
      <trkpt lat="47.21814" lon="6.02062">
        <ele>240.8</ele>
        <time>2021-06-03T08:08:18Z</time>
      </trkpt>
      <trkpt lat="47.21811" lon="6.02056">
        <ele>240.8</ele>
        <time>2021-06-03T08:08:19Z</time>
      </trkpt>
      <trkpt lat="47.21809" lon="6.02051">
        <ele>240.8</ele>
        <time>2021-06-03T08:08:20Z</time>
      </trkpt>
      <trkpt lat="47.21806" lon="6.02045">
        <ele>240.8</ele>
        <time>2021-06-03T08:08:21Z</time>
      </trkpt>
      <trkpt lat="47.21803" lon="6.02039">
        <ele>240.8</ele>
        <time>2021-06-03T08:08:22Z</time>
      </trkpt>
      <trkpt lat="47.21801" lon="6.02032">
        <ele>240.8</ele>
        <time>2021-06-03T08:08:23Z</time>
      </trkpt>
      <trkpt lat="47.21798" lon="6.02026">
        <ele>241</ele>
        <time>2021-06-03T08:08:24Z</time>
      </trkpt>
      <trkpt lat="47.21795" lon="6.0202">
        <ele>241</ele>
        <time>2021-06-03T08:08:25Z</time>
      </trkpt>
      <trkpt lat="47.21793" lon="6.02014">
        <ele>241</ele>
        <time>2021-06-03T08:08:26Z</time>
      </trkpt>
      <trkpt lat="47.2179" lon="6.02008">
        <ele>241</ele>
        <time>2021-06-03T08:08:27Z</time>
      </trkpt>
      <trkpt lat="47.2176" lon="6.01938">
        <ele>241</ele>
        <time>2021-06-03T08:08:38Z</time>
      </trkpt>
      <trkpt lat="47.21755" lon="6.01925">
        <ele>241</ele>
        <time>2021-06-03T08:08:40Z</time>
      </trkpt>
      <trkpt lat="47.21747" lon="6.01906">
        <ele>241</ele>
        <time>2021-06-03T08:08:43Z</time>
      </trkpt>
      <trkpt lat="47.21744" lon="6.01901">
        <ele>241</ele>
        <time>2021-06-03T08:08:44Z</time>
      </trkpt>
      <trkpt lat="47.21741" lon="6.01896">
        <ele>241.2</ele>
        <time>2021-06-03T08:08:45Z</time>
      </trkpt>
      <trkpt lat="47.21739" lon="6.01891">
        <ele>241.2</ele>
        <time>2021-06-03T08:08:46Z</time>
      </trkpt>
      <trkpt lat="47.21735" lon="6.01867">
        <ele>241.2</ele>
        <time>2021-06-03T08:08:49Z</time>
      </trkpt>
      <trkpt lat="47.2173" lon="6.01845">
        <ele>241</ele>
        <time>2021-06-03T08:08:52Z</time>
      </trkpt>
      <trkpt lat="47.21728" lon="6.01838">
        <ele>241</ele>
        <time>2021-06-03T08:08:53Z</time>
      </trkpt>
      <trkpt lat="47.21726" lon="6.01832">
        <ele>240.8</ele>
        <time>2021-06-03T08:08:54Z</time>
      </trkpt>
      <trkpt lat="47.21724" lon="6.01827">
        <ele>240.8</ele>
        <time>2021-06-03T08:08:55Z</time>
      </trkpt>
      <trkpt lat="47.21722" lon="6.01823">
        <ele>240.8</ele>
        <time>2021-06-03T08:08:56Z</time>
      </trkpt>
      <trkpt lat="47.21722" lon="6.01819">
        <ele>240.8</ele>
        <time>2021-06-03T08:08:57Z</time>
      </trkpt>
      <trkpt lat="47.2172" lon="6.01816">
        <ele>240.8</ele>
        <time>2021-06-03T08:08:58Z</time>
      </trkpt>
      <trkpt lat="47.21719" lon="6.01813">
        <ele>240.8</ele>
        <time>2021-06-03T08:08:59Z</time>
      </trkpt>
      <trkpt lat="47.21717" lon="6.01809">
        <ele>240.8</ele>
        <time>2021-06-03T08:09:00Z</time>
      </trkpt>
      <trkpt lat="47.21714" lon="6.01798">
        <ele>241.2</ele>
        <time>2021-06-03T08:09:02Z</time>
      </trkpt>
      <trkpt lat="47.21713" lon="6.01791">
        <ele>241.4</ele>
        <time>2021-06-03T08:09:03Z</time>
      </trkpt>
      <trkpt lat="47.21713" lon="6.01784">
        <ele>241.6</ele>
        <time>2021-06-03T08:09:04Z</time>
      </trkpt>
      <trkpt lat="47.21711" lon="6.01756">
        <ele>241.8</ele>
        <time>2021-06-03T08:09:08Z</time>
      </trkpt>
      <trkpt lat="47.21709" lon="6.01715">
        <ele>241.8</ele>
        <time>2021-06-03T08:09:13Z</time>
      </trkpt>
      <trkpt lat="47.21707" lon="6.01688">
        <ele>241.8</ele>
        <time>2021-06-03T08:09:16Z</time>
      </trkpt>
      <trkpt lat="47.21701" lon="6.0162">
        <ele>241.4</ele>
        <time>2021-06-03T08:09:24Z</time>
      </trkpt>
      <trkpt lat="47.21693" lon="6.01546">
        <ele>241</ele>
        <time>2021-06-03T08:09:33Z</time>
      </trkpt>
      <trkpt lat="47.21692" lon="6.01508">
        <ele>241</ele>
        <time>2021-06-03T08:09:38Z</time>
      </trkpt>
      <trkpt lat="47.21692" lon="6.01501">
        <ele>241</ele>
        <time>2021-06-03T08:09:39Z</time>
      </trkpt>
      <trkpt lat="47.21692" lon="6.01494">
        <ele>241</ele>
        <time>2021-06-03T08:09:40Z</time>
      </trkpt>
      <trkpt lat="47.21691" lon="6.01486">
        <ele>241</ele>
        <time>2021-06-03T08:09:41Z</time>
      </trkpt>
      <trkpt lat="47.21691" lon="6.01479">
        <ele>241</ele>
        <time>2021-06-03T08:09:42Z</time>
      </trkpt>
      <trkpt lat="47.21691" lon="6.01471">
        <ele>241</ele>
        <time>2021-06-03T08:09:43Z</time>
      </trkpt>
      <trkpt lat="47.2169" lon="6.01462">
        <ele>241</ele>
        <time>2021-06-03T08:09:44Z</time>
      </trkpt>
      <trkpt lat="47.21688" lon="6.01423">
        <ele>241</ele>
        <time>2021-06-03T08:09:49Z</time>
      </trkpt>
      <trkpt lat="47.2168" lon="6.0136">
        <ele>240.8</ele>
        <time>2021-06-03T08:09:57Z</time>
      </trkpt>
      <trkpt lat="47.21676" lon="6.01323">
        <ele>240.8</ele>
        <time>2021-06-03T08:10:02Z</time>
      </trkpt>
      <trkpt lat="47.21675" lon="6.01316">
        <ele>240.8</ele>
        <time>2021-06-03T08:10:03Z</time>
      </trkpt>
      <trkpt lat="47.21675" lon="6.01308">
        <ele>240.8</ele>
        <time>2021-06-03T08:10:04Z</time>
      </trkpt>
      <trkpt lat="47.21674" lon="6.01301">
        <ele>240.8</ele>
        <time>2021-06-03T08:10:05Z</time>
      </trkpt>
      <trkpt lat="47.21673" lon="6.01294">
        <ele>240.8</ele>
        <time>2021-06-03T08:10:06Z</time>
      </trkpt>
      <trkpt lat="47.21673" lon="6.01286">
        <ele>240.8</ele>
        <time>2021-06-03T08:10:07Z</time>
      </trkpt>
      <trkpt lat="47.21672" lon="6.01279">
        <ele>240.8</ele>
        <time>2021-06-03T08:10:08Z</time>
      </trkpt>
      <trkpt lat="47.21668" lon="6.01243">
        <ele>240.8</ele>
        <time>2021-06-03T08:10:13Z</time>
      </trkpt>
      <trkpt lat="47.21668" lon="6.01237">
        <ele>240.8</ele>
        <time>2021-06-03T08:10:14Z</time>
      </trkpt>
      <trkpt lat="47.21668" lon="6.01231">
        <ele>241</ele>
        <time>2021-06-03T08:10:15Z</time>
      </trkpt>
      <trkpt lat="47.21667" lon="6.01225">
        <ele>241.2</ele>
        <time>2021-06-03T08:10:16Z</time>
      </trkpt>
      <trkpt lat="47.21666" lon="6.01212">
        <ele>241.4</ele>
        <time>2021-06-03T08:10:18Z</time>
      </trkpt>
      <trkpt lat="47.21666" lon="6.01205">
        <ele>241.4</ele>
        <time>2021-06-03T08:10:19Z</time>
      </trkpt>
      <trkpt lat="47.21666" lon="6.01199">
        <ele>241.4</ele>
        <time>2021-06-03T08:10:20Z</time>
      </trkpt>
      <trkpt lat="47.21665" lon="6.01187">
        <ele>241.6</ele>
        <time>2021-06-03T08:10:22Z</time>
      </trkpt>
      <trkpt lat="47.21664" lon="6.01134">
        <ele>241.8</ele>
        <time>2021-06-03T08:10:30Z</time>
      </trkpt>
      <trkpt lat="47.21661" lon="6.01078">
        <ele>241.8</ele>
        <time>2021-06-03T08:10:37Z</time>
      </trkpt>
      <trkpt lat="47.21657" lon="6.01013">
        <ele>241</ele>
        <time>2021-06-03T08:10:45Z</time>
      </trkpt>
      <trkpt lat="47.21656" lon="6.01006">
        <ele>241</ele>
        <time>2021-06-03T08:10:46Z</time>
      </trkpt>
      <trkpt lat="47.21656" lon="6.01001">
        <ele>241</ele>
        <time>2021-06-03T08:10:47Z</time>
      </trkpt>
      <trkpt lat="47.21655" lon="6.00992">
        <ele>241</ele>
        <time>2021-06-03T08:10:48Z</time>
      </trkpt>
      <trkpt lat="47.21654" lon="6.00985">
        <ele>241</ele>
        <time>2021-06-03T08:10:49Z</time>
      </trkpt>
      <trkpt lat="47.21654" lon="6.00978">
        <ele>241</ele>
        <time>2021-06-03T08:10:50Z</time>
      </trkpt>
      <trkpt lat="47.21654" lon="6.00972">
        <ele>241</ele>
        <time>2021-06-03T08:10:51Z</time>
      </trkpt>
      <trkpt lat="47.21653" lon="6.00964">
        <ele>241</ele>
        <time>2021-06-03T08:10:52Z</time>
      </trkpt>
      <trkpt lat="47.21653" lon="6.00957">
        <ele>241.2</ele>
        <time>2021-06-03T08:10:53Z</time>
      </trkpt>
      <trkpt lat="47.21652" lon="6.0095">
        <ele>241.2</ele>
        <time>2021-06-03T08:10:54Z</time>
      </trkpt>
      <trkpt lat="47.21652" lon="6.00943">
        <ele>241.2</ele>
        <time>2021-06-03T08:10:55Z</time>
      </trkpt>
      <trkpt lat="47.21652" lon="6.00938">
        <ele>241.2</ele>
        <time>2021-06-03T08:10:56Z</time>
      </trkpt>
      <trkpt lat="47.21652" lon="6.00929">
        <ele>241.2</ele>
        <time>2021-06-03T08:10:57Z</time>
      </trkpt>
      <trkpt lat="47.21652" lon="6.00922">
        <ele>241.2</ele>
        <time>2021-06-03T08:10:58Z</time>
      </trkpt>
      <trkpt lat="47.21651" lon="6.00903">
        <ele>241.4</ele>
        <time>2021-06-03T08:11:01Z</time>
      </trkpt>
      <trkpt lat="47.2165" lon="6.00881">
        <ele>241.4</ele>
        <time>2021-06-03T08:11:04Z</time>
      </trkpt>
      <trkpt lat="47.21649" lon="6.00869">
        <ele>241.4</ele>
        <time>2021-06-03T08:11:06Z</time>
      </trkpt>
      <trkpt lat="47.21649" lon="6.0086">
        <ele>241.4</ele>
        <time>2021-06-03T08:11:07Z</time>
      </trkpt>
      <trkpt lat="47.21649" lon="6.00854">
        <ele>241.4</ele>
        <time>2021-06-03T08:11:08Z</time>
      </trkpt>
      <trkpt lat="47.21647" lon="6.00843">
        <ele>241.4</ele>
        <time>2021-06-03T08:11:10Z</time>
      </trkpt>
      <trkpt lat="47.21645" lon="6.00829">
        <ele>241.4</ele>
        <time>2021-06-03T08:11:12Z</time>
      </trkpt>
      <trkpt lat="47.21644" lon="6.00816">
        <ele>241.4</ele>
        <time>2021-06-03T08:11:14Z</time>
      </trkpt>
      <trkpt lat="47.21643" lon="6.00803">
        <ele>241.4</ele>
        <time>2021-06-03T08:11:16Z</time>
      </trkpt>
      <trkpt lat="47.21641" lon="6.00754">
        <ele>241.6</ele>
        <time>2021-06-03T08:11:23Z</time>
      </trkpt>
      <trkpt lat="47.21641" lon="6.00747">
        <ele>241.6</ele>
        <time>2021-06-03T08:11:24Z</time>
      </trkpt>
      <trkpt lat="47.21641" lon="6.00742">
        <ele>241.6</ele>
        <time>2021-06-03T08:11:25Z</time>
      </trkpt>
      <trkpt lat="47.2164" lon="6.00735">
        <ele>241.6</ele>
        <time>2021-06-03T08:11:26Z</time>
      </trkpt>
      <trkpt lat="47.21639" lon="6.0073">
        <ele>241.6</ele>
        <time>2021-06-03T08:11:27Z</time>
      </trkpt>
      <trkpt lat="47.2164" lon="6.00724">
        <ele>241.6</ele>
        <time>2021-06-03T08:11:28Z</time>
      </trkpt>
      <trkpt lat="47.21641" lon="6.00711">
        <ele>241.6</ele>
        <time>2021-06-03T08:11:30Z</time>
      </trkpt>
      <trkpt lat="47.2164" lon="6.00705">
        <ele>241.6</ele>
        <time>2021-06-03T08:11:31Z</time>
      </trkpt>
      <trkpt lat="47.21639" lon="6.00699">
        <ele>241.6</ele>
        <time>2021-06-03T08:11:32Z</time>
      </trkpt>
      <trkpt lat="47.21638" lon="6.00693">
        <ele>241.6</ele>
        <time>2021-06-03T08:11:33Z</time>
      </trkpt>
      <trkpt lat="47.21637" lon="6.00687">
        <ele>241.6</ele>
        <time>2021-06-03T08:11:34Z</time>
      </trkpt>
      <trkpt lat="47.21637" lon="6.00682">
        <ele>241.6</ele>
        <time>2021-06-03T08:11:35Z</time>
      </trkpt>
      <trkpt lat="47.21636" lon="6.00678">
        <ele>241.6</ele>
        <time>2021-06-03T08:11:36Z</time>
      </trkpt>
      <trkpt lat="47.21636" lon="6.00676">
        <ele>241.6</ele>
        <time>2021-06-03T08:11:37Z</time>
      </trkpt>
      <trkpt lat="47.21636" lon="6.00676">
        <ele>241.6</ele>
        <time>2021-06-03T08:11:38Z</time>
      </trkpt>
      <trkpt lat="47.21636" lon="6.00676">
        <ele>241.6</ele>
        <time>2021-06-03T08:11:51Z</time>
      </trkpt>
      <trkpt lat="47.21636" lon="6.00668">
        <ele>241.6</ele>
        <time>2021-06-03T08:12:44Z</time>
      </trkpt>
      <trkpt lat="47.21635" lon="6.00666">
        <ele>241.6</ele>
        <time>2021-06-03T08:12:45Z</time>
      </trkpt>
      <trkpt lat="47.21635" lon="6.00664">
        <ele>241.6</ele>
        <time>2021-06-03T08:12:46Z</time>
      </trkpt>
      <trkpt lat="47.21634" lon="6.00643">
        <ele>241.4</ele>
        <time>2021-06-03T08:12:51Z</time>
      </trkpt>
      <trkpt lat="47.21632" lon="6.00623">
        <ele>241.4</ele>
        <time>2021-06-03T08:12:55Z</time>
      </trkpt>
      <trkpt lat="47.21631" lon="6.00618">
        <ele>241.4</ele>
        <time>2021-06-03T08:12:56Z</time>
      </trkpt>
      <trkpt lat="47.2163" lon="6.00612">
        <ele>241.4</ele>
        <time>2021-06-03T08:12:57Z</time>
      </trkpt>
      <trkpt lat="47.21624" lon="6.00572">
        <ele>241.2</ele>
        <time>2021-06-03T08:13:04Z</time>
      </trkpt>
      <trkpt lat="47.21615" lon="6.0051">
        <ele>241.4</ele>
        <time>2021-06-03T08:13:14Z</time>
      </trkpt>
      <trkpt lat="47.21606" lon="6.00466">
        <ele>241.4</ele>
        <time>2021-06-03T08:13:21Z</time>
      </trkpt>
      <trkpt lat="47.21592" lon="6.00408">
        <ele>241</ele>
        <time>2021-06-03T08:13:30Z</time>
      </trkpt>
      <trkpt lat="47.21575" lon="6.00362">
        <ele>241.2</ele>
        <time>2021-06-03T08:13:38Z</time>
      </trkpt>
      <trkpt lat="47.21573" lon="6.00357">
        <ele>241.2</ele>
        <time>2021-06-03T08:13:39Z</time>
      </trkpt>
      <trkpt lat="47.2157" lon="6.00352">
        <ele>241.4</ele>
        <time>2021-06-03T08:13:40Z</time>
      </trkpt>
      <trkpt lat="47.21567" lon="6.00347">
        <ele>241.4</ele>
        <time>2021-06-03T08:13:41Z</time>
      </trkpt>
      <trkpt lat="47.21565" lon="6.00342">
        <ele>241.4</ele>
        <time>2021-06-03T08:13:42Z</time>
      </trkpt>
      <trkpt lat="47.21562" lon="6.00338">
        <ele>241.4</ele>
        <time>2021-06-03T08:13:43Z</time>
      </trkpt>
      <trkpt lat="47.21559" lon="6.00333">
        <ele>241.4</ele>
        <time>2021-06-03T08:13:44Z</time>
      </trkpt>
      <trkpt lat="47.21556" lon="6.00328">
        <ele>241.4</ele>
        <time>2021-06-03T08:13:45Z</time>
      </trkpt>
      <trkpt lat="47.21553" lon="6.00324">
        <ele>241.6</ele>
        <time>2021-06-03T08:13:46Z</time>
      </trkpt>
      <trkpt lat="47.2154" lon="6.00306">
        <ele>241.8</ele>
        <time>2021-06-03T08:13:50Z</time>
      </trkpt>
      <trkpt lat="47.21534" lon="6.00297">
        <ele>242</ele>
        <time>2021-06-03T08:13:52Z</time>
      </trkpt>
      <trkpt lat="47.21496" lon="6.00243">
        <ele>242</ele>
        <time>2021-06-03T08:14:03Z</time>
      </trkpt>
      <trkpt lat="47.21454" lon="6.00188">
        <ele>241.4</ele>
        <time>2021-06-03T08:14:14Z</time>
      </trkpt>
      <trkpt lat="47.21443" lon="6.00173">
        <ele>241.2</ele>
        <time>2021-06-03T08:14:17Z</time>
      </trkpt>
      <trkpt lat="47.2144" lon="6.00168">
        <ele>241.2</ele>
        <time>2021-06-03T08:14:18Z</time>
      </trkpt>
      <trkpt lat="47.21436" lon="6.00163">
        <ele>241.2</ele>
        <time>2021-06-03T08:14:19Z</time>
      </trkpt>
      <trkpt lat="47.21425" lon="6.0015">
        <ele>241.2</ele>
        <time>2021-06-03T08:14:22Z</time>
      </trkpt>
      <trkpt lat="47.21422" lon="6.00147">
        <ele>241.2</ele>
        <time>2021-06-03T08:14:23Z</time>
      </trkpt>
      <trkpt lat="47.21418" lon="6.00141">
        <ele>241.2</ele>
        <time>2021-06-03T08:14:24Z</time>
      </trkpt>
      <trkpt lat="47.21414" lon="6.00137">
        <ele>241.2</ele>
        <time>2021-06-03T08:14:25Z</time>
      </trkpt>
      <trkpt lat="47.21411" lon="6.00132">
        <ele>241.2</ele>
        <time>2021-06-03T08:14:26Z</time>
      </trkpt>
      <trkpt lat="47.21408" lon="6.00129">
        <ele>241.2</ele>
        <time>2021-06-03T08:14:27Z</time>
      </trkpt>
      <trkpt lat="47.2138" lon="6.001">
        <ele>241</ele>
        <time>2021-06-03T08:14:34Z</time>
      </trkpt>
      <trkpt lat="47.21339" lon="6.00054">
        <ele>240.8</ele>
        <time>2021-06-03T08:14:44Z</time>
      </trkpt>
      <trkpt lat="47.2133" lon="6.00045">
        <ele>240.8</ele>
        <time>2021-06-03T08:14:46Z</time>
      </trkpt>
      <trkpt lat="47.21295" lon="6.00009">
        <ele>240.2</ele>
        <time>2021-06-03T08:14:54Z</time>
      </trkpt>
      <trkpt lat="47.21269" lon="5.99983">
        <ele>239.6</ele>
        <time>2021-06-03T08:15:00Z</time>
      </trkpt>
      <trkpt lat="47.21255" lon="5.99971">
        <ele>239.4</ele>
        <time>2021-06-03T08:15:03Z</time>
      </trkpt>
      <trkpt lat="47.21251" lon="5.99967">
        <ele>239.4</ele>
        <time>2021-06-03T08:15:04Z</time>
      </trkpt>
      <trkpt lat="47.21247" lon="5.99963">
        <ele>239.4</ele>
        <time>2021-06-03T08:15:05Z</time>
      </trkpt>
      <trkpt lat="47.21243" lon="5.99959">
        <ele>239.4</ele>
        <time>2021-06-03T08:15:06Z</time>
      </trkpt>
      <trkpt lat="47.21239" lon="5.99955">
        <ele>239.4</ele>
        <time>2021-06-03T08:15:07Z</time>
      </trkpt>
      <trkpt lat="47.2123" lon="5.99947">
        <ele>239.4</ele>
        <time>2021-06-03T08:15:09Z</time>
      </trkpt>
      <trkpt lat="47.21226" lon="5.99944">
        <ele>239.4</ele>
        <time>2021-06-03T08:15:10Z</time>
      </trkpt>
      <trkpt lat="47.21223" lon="5.9994">
        <ele>239.4</ele>
        <time>2021-06-03T08:15:11Z</time>
      </trkpt>
      <trkpt lat="47.21219" lon="5.99937">
        <ele>239.6</ele>
        <time>2021-06-03T08:15:12Z</time>
      </trkpt>
      <trkpt lat="47.21215" lon="5.99933">
        <ele>239.6</ele>
        <time>2021-06-03T08:15:13Z</time>
      </trkpt>
      <trkpt lat="47.21211" lon="5.99929">
        <ele>239.6</ele>
        <time>2021-06-03T08:15:14Z</time>
      </trkpt>
      <trkpt lat="47.21208" lon="5.99926">
        <ele>239.6</ele>
        <time>2021-06-03T08:15:15Z</time>
      </trkpt>
      <trkpt lat="47.21205" lon="5.99923">
        <ele>239.6</ele>
        <time>2021-06-03T08:15:16Z</time>
      </trkpt>
      <trkpt lat="47.21202" lon="5.9992">
        <ele>239.6</ele>
        <time>2021-06-03T08:15:17Z</time>
      </trkpt>
      <trkpt lat="47.21199" lon="5.99917">
        <ele>239.6</ele>
        <time>2021-06-03T08:15:18Z</time>
      </trkpt>
      <trkpt lat="47.21196" lon="5.99915">
        <ele>239.4</ele>
        <time>2021-06-03T08:15:19Z</time>
      </trkpt>
      <trkpt lat="47.21193" lon="5.99916">
        <ele>239.4</ele>
        <time>2021-06-03T08:15:20Z</time>
      </trkpt>
      <trkpt lat="47.21191" lon="5.99919">
        <ele>239.4</ele>
        <time>2021-06-03T08:15:21Z</time>
      </trkpt>
      <trkpt lat="47.21187" lon="5.99933">
        <ele>239.4</ele>
        <time>2021-06-03T08:15:24Z</time>
      </trkpt>
      <trkpt lat="47.21169" lon="5.99965">
        <ele>239.8</ele>
        <time>2021-06-03T08:15:32Z</time>
      </trkpt>
      <trkpt lat="47.21167" lon="5.99964">
        <ele>239.8</ele>
        <time>2021-06-03T08:15:33Z</time>
      </trkpt>
      <trkpt lat="47.21141" lon="5.99961">
        <ele>240</ele>
        <time>2021-06-03T08:15:39Z</time>
      </trkpt>
      <trkpt lat="47.21106" lon="5.99964">
        <ele>239.8</ele>
        <time>2021-06-03T08:15:47Z</time>
      </trkpt>
      <trkpt lat="47.21102" lon="5.99966">
        <ele>240</ele>
        <time>2021-06-03T08:15:48Z</time>
      </trkpt>
      <trkpt lat="47.21099" lon="5.99968">
        <ele>240</ele>
        <time>2021-06-03T08:15:49Z</time>
      </trkpt>
      <trkpt lat="47.21096" lon="5.9997">
        <ele>240</ele>
        <time>2021-06-03T08:15:50Z</time>
      </trkpt>
      <trkpt lat="47.21093" lon="5.99973">
        <ele>240</ele>
        <time>2021-06-03T08:15:51Z</time>
      </trkpt>
      <trkpt lat="47.2109" lon="5.99977">
        <ele>240</ele>
        <time>2021-06-03T08:15:52Z</time>
      </trkpt>
      <trkpt lat="47.21088" lon="5.99981">
        <ele>240</ele>
        <time>2021-06-03T08:15:53Z</time>
      </trkpt>
      <trkpt lat="47.21085" lon="5.99984">
        <ele>240.6</ele>
        <time>2021-06-03T08:15:54Z</time>
      </trkpt>
      <trkpt lat="47.21081" lon="5.99986">
        <ele>240.6</ele>
        <time>2021-06-03T08:15:55Z</time>
      </trkpt>
      <trkpt lat="47.21078" lon="5.99988">
        <ele>240.8</ele>
        <time>2021-06-03T08:15:56Z</time>
      </trkpt>
      <trkpt lat="47.21075" lon="5.9999">
        <ele>240.8</ele>
        <time>2021-06-03T08:15:57Z</time>
      </trkpt>
      <trkpt lat="47.21072" lon="5.9999">
        <ele>240.8</ele>
        <time>2021-06-03T08:15:58Z</time>
      </trkpt>
      <trkpt lat="47.21064" lon="5.99991">
        <ele>241</ele>
        <time>2021-06-03T08:16:01Z</time>
      </trkpt>
      <trkpt lat="47.21061" lon="5.99991">
        <ele>241.2</ele>
        <time>2021-06-03T08:16:02Z</time>
      </trkpt>
      <trkpt lat="47.21058" lon="5.99991">
        <ele>241.2</ele>
        <time>2021-06-03T08:16:03Z</time>
      </trkpt>
      <trkpt lat="47.21055" lon="5.99992">
        <ele>241.2</ele>
        <time>2021-06-03T08:16:04Z</time>
      </trkpt>
      <trkpt lat="47.21052" lon="5.99993">
        <ele>241.2</ele>
        <time>2021-06-03T08:16:05Z</time>
      </trkpt>
      <trkpt lat="47.21043" lon="6">
        <ele>241.4</ele>
        <time>2021-06-03T08:16:08Z</time>
      </trkpt>
      <trkpt lat="47.21041" lon="6.00003">
        <ele>241.4</ele>
        <time>2021-06-03T08:16:09Z</time>
      </trkpt>
      <trkpt lat="47.21029" lon="6.00027">
        <ele>242</ele>
        <time>2021-06-03T08:16:15Z</time>
      </trkpt>
      <trkpt lat="47.21028" lon="6.00046">
        <ele>242.2</ele>
        <time>2021-06-03T08:16:19Z</time>
      </trkpt>
      <trkpt lat="47.21029" lon="6.0005">
        <ele>242.2</ele>
        <time>2021-06-03T08:16:20Z</time>
      </trkpt>
      <trkpt lat="47.2103" lon="6.00054">
        <ele>242.2</ele>
        <time>2021-06-03T08:16:21Z</time>
      </trkpt>
      <trkpt lat="47.21032" lon="6.00059">
        <ele>242.2</ele>
        <time>2021-06-03T08:16:22Z</time>
      </trkpt>
      <trkpt lat="47.21035" lon="6.00062">
        <ele>242.2</ele>
        <time>2021-06-03T08:16:23Z</time>
      </trkpt>
      <trkpt lat="47.21038" lon="6.00066">
        <ele>242.4</ele>
        <time>2021-06-03T08:16:24Z</time>
      </trkpt>
      <trkpt lat="47.2104" lon="6.00069">
        <ele>242.4</ele>
        <time>2021-06-03T08:16:25Z</time>
      </trkpt>
      <trkpt lat="47.21049" lon="6.00081">
        <ele>242.6</ele>
        <time>2021-06-03T08:16:29Z</time>
      </trkpt>
      <trkpt lat="47.21051" lon="6.00083">
        <ele>242.6</ele>
        <time>2021-06-03T08:16:30Z</time>
      </trkpt>
      <trkpt lat="47.21054" lon="6.00083">
        <ele>242.6</ele>
        <time>2021-06-03T08:16:31Z</time>
      </trkpt>
      <trkpt lat="47.21055" lon="6.00085">
        <ele>242.6</ele>
        <time>2021-06-03T08:16:32Z</time>
      </trkpt>
      <trkpt lat="47.21056" lon="6.00088">
        <ele>242.6</ele>
        <time>2021-06-03T08:16:33Z</time>
      </trkpt>
      <trkpt lat="47.21056" lon="6.00091">
        <ele>243</ele>
        <time>2021-06-03T08:16:34Z</time>
      </trkpt>
      <trkpt lat="47.21055" lon="6.00093">
        <ele>243</ele>
        <time>2021-06-03T08:16:35Z</time>
      </trkpt>
      <trkpt lat="47.21053" lon="6.00095">
        <ele>243.2</ele>
        <time>2021-06-03T08:16:36Z</time>
      </trkpt>
      <trkpt lat="47.21049" lon="6.00096">
        <ele>243.4</ele>
        <time>2021-06-03T08:16:38Z</time>
      </trkpt>
      <trkpt lat="47.21044" lon="6.00095">
        <ele>243.8</ele>
        <time>2021-06-03T08:16:40Z</time>
      </trkpt>
      <trkpt lat="47.21042" lon="6.00094">
        <ele>244</ele>
        <time>2021-06-03T08:16:41Z</time>
      </trkpt>
      <trkpt lat="47.2104" lon="6.00093">
        <ele>244</ele>
        <time>2021-06-03T08:16:42Z</time>
      </trkpt>
      <trkpt lat="47.21039" lon="6.00092">
        <ele>244</ele>
        <time>2021-06-03T08:16:43Z</time>
      </trkpt>
      <trkpt lat="47.21037" lon="6.00091">
        <ele>244.2</ele>
        <time>2021-06-03T08:16:44Z</time>
      </trkpt>
      <trkpt lat="47.21037" lon="6.00091">
        <ele>244.2</ele>
        <time>2021-06-03T08:16:45Z</time>
      </trkpt>
      <trkpt lat="47.21036" lon="6.00091">
        <ele>244.2</ele>
        <time>2021-06-03T08:16:47Z</time>
      </trkpt>
      <trkpt lat="47.21036" lon="6.00091">
        <ele>244.4</ele>
        <time>2021-06-03T08:16:48Z</time>
      </trkpt>
      <trkpt lat="47.21035" lon="6.00091">
        <ele>244.4</ele>
        <time>2021-06-03T08:16:49Z</time>
      </trkpt>
      <trkpt lat="47.21033" lon="6.00092">
        <ele>244.4</ele>
        <time>2021-06-03T08:16:50Z</time>
      </trkpt>
      <trkpt lat="47.21031" lon="6.00093">
        <ele>244.4</ele>
        <time>2021-06-03T08:16:51Z</time>
      </trkpt>
      <trkpt lat="47.21027" lon="6.00099">
        <ele>244.6</ele>
        <time>2021-06-03T08:16:53Z</time>
      </trkpt>
      <trkpt lat="47.21025" lon="6.00102">
        <ele>244.6</ele>
        <time>2021-06-03T08:16:54Z</time>
      </trkpt>
      <trkpt lat="47.21022" lon="6.00105">
        <ele>244.6</ele>
        <time>2021-06-03T08:16:55Z</time>
      </trkpt>
      <trkpt lat="47.21012" lon="6.00111">
        <ele>244.4</ele>
        <time>2021-06-03T08:16:58Z</time>
      </trkpt>
      <trkpt lat="47.21" lon="6.0012">
        <ele>244</ele>
        <time>2021-06-03T08:17:02Z</time>
      </trkpt>
      <trkpt lat="47.2098" lon="6.00146">
        <ele>243.8</ele>
        <time>2021-06-03T08:17:09Z</time>
      </trkpt>
      <trkpt lat="47.20961" lon="6.00174">
        <ele>243</ele>
        <time>2021-06-03T08:17:16Z</time>
      </trkpt>
      <trkpt lat="47.20958" lon="6.00179">
        <ele>243</ele>
        <time>2021-06-03T08:17:17Z</time>
      </trkpt>
      <trkpt lat="47.20927" lon="6.00227">
        <ele>243.4</ele>
        <time>2021-06-03T08:17:28Z</time>
      </trkpt>
      <trkpt lat="47.20924" lon="6.00232">
        <ele>243.4</ele>
        <time>2021-06-03T08:17:29Z</time>
      </trkpt>
      <trkpt lat="47.20921" lon="6.00236">
        <ele>243.8</ele>
        <time>2021-06-03T08:17:30Z</time>
      </trkpt>
      <trkpt lat="47.20905" lon="6.00253">
        <ele>244</ele>
        <time>2021-06-03T08:17:35Z</time>
      </trkpt>
      <trkpt lat="47.20898" lon="6.00258">
        <ele>244</ele>
        <time>2021-06-03T08:17:37Z</time>
      </trkpt>
      <trkpt lat="47.20877" lon="6.00277">
        <ele>244.6</ele>
        <time>2021-06-03T08:17:43Z</time>
      </trkpt>
      <trkpt lat="47.2087" lon="6.00282">
        <ele>244.8</ele>
        <time>2021-06-03T08:17:45Z</time>
      </trkpt>
      <trkpt lat="47.20866" lon="6.00284">
        <ele>244.8</ele>
        <time>2021-06-03T08:17:46Z</time>
      </trkpt>
      <trkpt lat="47.20859" lon="6.0029">
        <ele>245.2</ele>
        <time>2021-06-03T08:17:48Z</time>
      </trkpt>
      <trkpt lat="47.20856" lon="6.00292">
        <ele>245.2</ele>
        <time>2021-06-03T08:17:49Z</time>
      </trkpt>
      <trkpt lat="47.20852" lon="6.00295">
        <ele>245.4</ele>
        <time>2021-06-03T08:17:50Z</time>
      </trkpt>
      <trkpt lat="47.20849" lon="6.00297">
        <ele>245.6</ele>
        <time>2021-06-03T08:17:51Z</time>
      </trkpt>
      <trkpt lat="47.20846" lon="6.003">
        <ele>245.6</ele>
        <time>2021-06-03T08:17:52Z</time>
      </trkpt>
      <trkpt lat="47.20843" lon="6.00303">
        <ele>245.6</ele>
        <time>2021-06-03T08:17:53Z</time>
      </trkpt>
      <trkpt lat="47.2084" lon="6.00306">
        <ele>245.8</ele>
        <time>2021-06-03T08:17:54Z</time>
      </trkpt>
      <trkpt lat="47.20837" lon="6.00308">
        <ele>246</ele>
        <time>2021-06-03T08:17:55Z</time>
      </trkpt>
      <trkpt lat="47.20834" lon="6.0031">
        <ele>246.2</ele>
        <time>2021-06-03T08:17:56Z</time>
      </trkpt>
      <trkpt lat="47.20831" lon="6.00312">
        <ele>246.2</ele>
        <time>2021-06-03T08:17:57Z</time>
      </trkpt>
      <trkpt lat="47.20828" lon="6.00314">
        <ele>246.6</ele>
        <time>2021-06-03T08:17:58Z</time>
      </trkpt>
      <trkpt lat="47.20825" lon="6.00316">
        <ele>246.8</ele>
        <time>2021-06-03T08:17:59Z</time>
      </trkpt>
      <trkpt lat="47.20821" lon="6.00318">
        <ele>246.8</ele>
        <time>2021-06-03T08:18:00Z</time>
      </trkpt>
      <trkpt lat="47.20815" lon="6.00323">
        <ele>247</ele>
        <time>2021-06-03T08:18:02Z</time>
      </trkpt>
      <trkpt lat="47.20812" lon="6.00325">
        <ele>247</ele>
        <time>2021-06-03T08:18:03Z</time>
      </trkpt>
      <trkpt lat="47.20808" lon="6.00327">
        <ele>247</ele>
        <time>2021-06-03T08:18:04Z</time>
      </trkpt>
      <trkpt lat="47.20805" lon="6.00329">
        <ele>247.2</ele>
        <time>2021-06-03T08:18:05Z</time>
      </trkpt>
      <trkpt lat="47.20801" lon="6.0033">
        <ele>247.2</ele>
        <time>2021-06-03T08:18:06Z</time>
      </trkpt>
      <trkpt lat="47.20798" lon="6.00332">
        <ele>247.2</ele>
        <time>2021-06-03T08:18:07Z</time>
      </trkpt>
      <trkpt lat="47.20795" lon="6.00333">
        <ele>247.2</ele>
        <time>2021-06-03T08:18:08Z</time>
      </trkpt>
      <trkpt lat="47.20792" lon="6.00334">
        <ele>247.2</ele>
        <time>2021-06-03T08:18:09Z</time>
      </trkpt>
      <trkpt lat="47.2079" lon="6.00334">
        <ele>247.2</ele>
        <time>2021-06-03T08:18:10Z</time>
      </trkpt>
      <trkpt lat="47.20787" lon="6.00335">
        <ele>247.2</ele>
        <time>2021-06-03T08:18:11Z</time>
      </trkpt>
      <trkpt lat="47.20781" lon="6.00337">
        <ele>247.2</ele>
        <time>2021-06-03T08:18:13Z</time>
      </trkpt>
      <trkpt lat="47.20779" lon="6.00338">
        <ele>247.2</ele>
        <time>2021-06-03T08:18:14Z</time>
      </trkpt>
      <trkpt lat="47.20777" lon="6.00341">
        <ele>247.2</ele>
        <time>2021-06-03T08:18:15Z</time>
      </trkpt>
      <trkpt lat="47.20775" lon="6.00343">
        <ele>247.2</ele>
        <time>2021-06-03T08:18:16Z</time>
      </trkpt>
      <trkpt lat="47.20773" lon="6.00344">
        <ele>247.2</ele>
        <time>2021-06-03T08:18:17Z</time>
      </trkpt>
      <trkpt lat="47.20771" lon="6.00344">
        <ele>247.2</ele>
        <time>2021-06-03T08:18:18Z</time>
      </trkpt>
      <trkpt lat="47.20769" lon="6.00345">
        <ele>247.2</ele>
        <time>2021-06-03T08:18:19Z</time>
      </trkpt>
      <trkpt lat="47.20766" lon="6.00346">
        <ele>247.6</ele>
        <time>2021-06-03T08:18:20Z</time>
      </trkpt>
      <trkpt lat="47.20764" lon="6.00347">
        <ele>247.6</ele>
        <time>2021-06-03T08:18:21Z</time>
      </trkpt>
      <trkpt lat="47.20762" lon="6.00349">
        <ele>247.6</ele>
        <time>2021-06-03T08:18:22Z</time>
      </trkpt>
      <trkpt lat="47.2076" lon="6.00351">
        <ele>247.8</ele>
        <time>2021-06-03T08:18:23Z</time>
      </trkpt>
      <trkpt lat="47.20758" lon="6.00352">
        <ele>247.8</ele>
        <time>2021-06-03T08:18:24Z</time>
      </trkpt>
      <trkpt lat="47.20755" lon="6.00353">
        <ele>248</ele>
        <time>2021-06-03T08:18:25Z</time>
      </trkpt>
      <trkpt lat="47.20753" lon="6.00355">
        <ele>248.2</ele>
        <time>2021-06-03T08:18:26Z</time>
      </trkpt>
      <trkpt lat="47.20751" lon="6.00357">
        <ele>248.4</ele>
        <time>2021-06-03T08:18:27Z</time>
      </trkpt>
      <trkpt lat="47.20749" lon="6.0036">
        <ele>248.4</ele>
        <time>2021-06-03T08:18:28Z</time>
      </trkpt>
      <trkpt lat="47.20748" lon="6.00363">
        <ele>248.6</ele>
        <time>2021-06-03T08:18:29Z</time>
      </trkpt>
      <trkpt lat="47.20747" lon="6.00365">
        <ele>248.8</ele>
        <time>2021-06-03T08:18:30Z</time>
      </trkpt>
      <trkpt lat="47.20745" lon="6.00367">
        <ele>249</ele>
        <time>2021-06-03T08:18:31Z</time>
      </trkpt>
      <trkpt lat="47.20744" lon="6.00369">
        <ele>249.2</ele>
        <time>2021-06-03T08:18:32Z</time>
      </trkpt>
      <trkpt lat="47.20742" lon="6.00369">
        <ele>249.4</ele>
        <time>2021-06-03T08:18:33Z</time>
      </trkpt>
      <trkpt lat="47.2074" lon="6.0037">
        <ele>249.6</ele>
        <time>2021-06-03T08:18:34Z</time>
      </trkpt>
      <trkpt lat="47.20738" lon="6.00371">
        <ele>249.6</ele>
        <time>2021-06-03T08:18:35Z</time>
      </trkpt>
      <trkpt lat="47.20732" lon="6.00374">
        <ele>249.8</ele>
        <time>2021-06-03T08:18:37Z</time>
      </trkpt>
      <trkpt lat="47.20729" lon="6.00376">
        <ele>249.8</ele>
        <time>2021-06-03T08:18:38Z</time>
      </trkpt>
      <trkpt lat="47.20726" lon="6.00378">
        <ele>249.8</ele>
        <time>2021-06-03T08:18:39Z</time>
      </trkpt>
      <trkpt lat="47.20723" lon="6.00382">
        <ele>249.8</ele>
        <time>2021-06-03T08:18:40Z</time>
      </trkpt>
      <trkpt lat="47.20719" lon="6.00386">
        <ele>250</ele>
        <time>2021-06-03T08:18:41Z</time>
      </trkpt>
      <trkpt lat="47.20717" lon="6.00388">
        <ele>250</ele>
        <time>2021-06-03T08:18:42Z</time>
      </trkpt>
      <trkpt lat="47.20715" lon="6.0039">
        <ele>250</ele>
        <time>2021-06-03T08:18:43Z</time>
      </trkpt>
      <trkpt lat="47.20714" lon="6.00394">
        <ele>250</ele>
        <time>2021-06-03T08:18:44Z</time>
      </trkpt>
      <trkpt lat="47.20713" lon="6.00397">
        <ele>250.2</ele>
        <time>2021-06-03T08:18:45Z</time>
      </trkpt>
      <trkpt lat="47.20712" lon="6.004">
        <ele>250.2</ele>
        <time>2021-06-03T08:18:46Z</time>
      </trkpt>
      <trkpt lat="47.20712" lon="6.00403">
        <ele>250.2</ele>
        <time>2021-06-03T08:18:47Z</time>
      </trkpt>
      <trkpt lat="47.20711" lon="6.00405">
        <ele>250.2</ele>
        <time>2021-06-03T08:18:48Z</time>
      </trkpt>
      <trkpt lat="47.2071" lon="6.00408">
        <ele>250.2</ele>
        <time>2021-06-03T08:18:49Z</time>
      </trkpt>
      <trkpt lat="47.20707" lon="6.00416">
        <ele>250.4</ele>
        <time>2021-06-03T08:18:52Z</time>
      </trkpt>
      <trkpt lat="47.20705" lon="6.00422">
        <ele>250.8</ele>
        <time>2021-06-03T08:18:54Z</time>
      </trkpt>
      <trkpt lat="47.20704" lon="6.00425">
        <ele>251</ele>
        <time>2021-06-03T08:18:55Z</time>
      </trkpt>
      <trkpt lat="47.20704" lon="6.00428">
        <ele>251</ele>
        <time>2021-06-03T08:18:56Z</time>
      </trkpt>
      <trkpt lat="47.20701" lon="6.00439">
        <ele>251.4</ele>
        <time>2021-06-03T08:18:59Z</time>
      </trkpt>
      <trkpt lat="47.20698" lon="6.00444">
        <ele>251.4</ele>
        <time>2021-06-03T08:19:00Z</time>
      </trkpt>
      <trkpt lat="47.20696" lon="6.00448">
        <ele>251.6</ele>
        <time>2021-06-03T08:19:01Z</time>
      </trkpt>
      <trkpt lat="47.20696" lon="6.0046">
        <ele>252.2</ele>
        <time>2021-06-03T08:19:04Z</time>
      </trkpt>
      <trkpt lat="47.20695" lon="6.00463">
        <ele>252.2</ele>
        <time>2021-06-03T08:19:05Z</time>
      </trkpt>
      <trkpt lat="47.20695" lon="6.00465">
        <ele>252.4</ele>
        <time>2021-06-03T08:19:06Z</time>
      </trkpt>
      <trkpt lat="47.20694" lon="6.00467">
        <ele>252.4</ele>
        <time>2021-06-03T08:19:07Z</time>
      </trkpt>
      <trkpt lat="47.20693" lon="6.00469">
        <ele>252.8</ele>
        <time>2021-06-03T08:19:08Z</time>
      </trkpt>
      <trkpt lat="47.20692" lon="6.0047">
        <ele>253</ele>
        <time>2021-06-03T08:19:09Z</time>
      </trkpt>
      <trkpt lat="47.20691" lon="6.00471">
        <ele>253.2</ele>
        <time>2021-06-03T08:19:10Z</time>
      </trkpt>
      <trkpt lat="47.20689" lon="6.00472">
        <ele>253.6</ele>
        <time>2021-06-03T08:19:11Z</time>
      </trkpt>
      <trkpt lat="47.20688" lon="6.00472">
        <ele>253.8</ele>
        <time>2021-06-03T08:19:12Z</time>
      </trkpt>
      <trkpt lat="47.20687" lon="6.00473">
        <ele>254.2</ele>
        <time>2021-06-03T08:19:13Z</time>
      </trkpt>
      <trkpt lat="47.20686" lon="6.00473">
        <ele>254.2</ele>
        <time>2021-06-03T08:19:14Z</time>
      </trkpt>
      <trkpt lat="47.20686" lon="6.00473">
        <ele>254.4</ele>
        <time>2021-06-03T08:19:18Z</time>
      </trkpt>
      <trkpt lat="47.20686" lon="6.00473">
        <ele>254.4</ele>
        <time>2021-06-03T08:19:19Z</time>
      </trkpt>
      <trkpt lat="47.20686" lon="6.00473">
        <ele>254.4</ele>
        <time>2021-06-03T08:19:20Z</time>
      </trkpt>
      <trkpt lat="47.20687" lon="6.00475">
        <ele>254.4</ele>
        <time>2021-06-03T08:19:21Z</time>
      </trkpt>
      <trkpt lat="47.20688" lon="6.00478">
        <ele>254.4</ele>
        <time>2021-06-03T08:19:22Z</time>
      </trkpt>
      <trkpt lat="47.20689" lon="6.00483">
        <ele>254.4</ele>
        <time>2021-06-03T08:19:23Z</time>
      </trkpt>
      <trkpt lat="47.20689" lon="6.00487">
        <ele>254.4</ele>
        <time>2021-06-03T08:19:24Z</time>
      </trkpt>
      <trkpt lat="47.20688" lon="6.00493">
        <ele>254.4</ele>
        <time>2021-06-03T08:19:25Z</time>
      </trkpt>
      <trkpt lat="47.20687" lon="6.00498">
        <ele>254.4</ele>
        <time>2021-06-03T08:19:26Z</time>
      </trkpt>
      <trkpt lat="47.20687" lon="6.00503">
        <ele>254.2</ele>
        <time>2021-06-03T08:19:27Z</time>
      </trkpt>
      <trkpt lat="47.20687" lon="6.00507">
        <ele>254.2</ele>
        <time>2021-06-03T08:19:28Z</time>
      </trkpt>
      <trkpt lat="47.20689" lon="6.00511">
        <ele>254.2</ele>
        <time>2021-06-03T08:19:29Z</time>
      </trkpt>
      <trkpt lat="47.20691" lon="6.00514">
        <ele>254.2</ele>
        <time>2021-06-03T08:19:30Z</time>
      </trkpt>
      <trkpt lat="47.20693" lon="6.00516">
        <ele>254</ele>
        <time>2021-06-03T08:19:31Z</time>
      </trkpt>
      <trkpt lat="47.20694" lon="6.00518">
        <ele>254</ele>
        <time>2021-06-03T08:19:32Z</time>
      </trkpt>
      <trkpt lat="47.20695" lon="6.0052">
        <ele>254</ele>
        <time>2021-06-03T08:19:33Z</time>
      </trkpt>
      <trkpt lat="47.20697" lon="6.00522">
        <ele>254</ele>
        <time>2021-06-03T08:19:34Z</time>
      </trkpt>
      <trkpt lat="47.20698" lon="6.00524">
        <ele>254</ele>
        <time>2021-06-03T08:19:35Z</time>
      </trkpt>
      <trkpt lat="47.20704" lon="6.00536">
        <ele>254.6</ele>
        <time>2021-06-03T08:19:40Z</time>
      </trkpt>
      <trkpt lat="47.20704" lon="6.00538">
        <ele>254.8</ele>
        <time>2021-06-03T08:19:41Z</time>
      </trkpt>
      <trkpt lat="47.20705" lon="6.0054">
        <ele>255</ele>
        <time>2021-06-03T08:19:42Z</time>
      </trkpt>
      <trkpt lat="47.20706" lon="6.00542">
        <ele>255.2</ele>
        <time>2021-06-03T08:19:43Z</time>
      </trkpt>
      <trkpt lat="47.20707" lon="6.00545">
        <ele>255.4</ele>
        <time>2021-06-03T08:19:44Z</time>
      </trkpt>
      <trkpt lat="47.20707" lon="6.00547">
        <ele>255.6</ele>
        <time>2021-06-03T08:19:45Z</time>
      </trkpt>
      <trkpt lat="47.20708" lon="6.00549">
        <ele>255.8</ele>
        <time>2021-06-03T08:19:46Z</time>
      </trkpt>
      <trkpt lat="47.20708" lon="6.00552">
        <ele>256</ele>
        <time>2021-06-03T08:19:47Z</time>
      </trkpt>
      <trkpt lat="47.20709" lon="6.00554">
        <ele>256.2</ele>
        <time>2021-06-03T08:19:48Z</time>
      </trkpt>
      <trkpt lat="47.2071" lon="6.00556">
        <ele>256.4</ele>
        <time>2021-06-03T08:19:49Z</time>
      </trkpt>
      <trkpt lat="47.2071" lon="6.00559">
        <ele>256.4</ele>
        <time>2021-06-03T08:19:50Z</time>
      </trkpt>
      <trkpt lat="47.20711" lon="6.00561">
        <ele>256.6</ele>
        <time>2021-06-03T08:19:51Z</time>
      </trkpt>
      <trkpt lat="47.20712" lon="6.00568">
        <ele>257</ele>
        <time>2021-06-03T08:19:54Z</time>
      </trkpt>
      <trkpt lat="47.20712" lon="6.00571">
        <ele>257.2</ele>
        <time>2021-06-03T08:19:55Z</time>
      </trkpt>
      <trkpt lat="47.20713" lon="6.00573">
        <ele>257.4</ele>
        <time>2021-06-03T08:19:56Z</time>
      </trkpt>
      <trkpt lat="47.20713" lon="6.00575">
        <ele>257.6</ele>
        <time>2021-06-03T08:19:57Z</time>
      </trkpt>
      <trkpt lat="47.20713" lon="6.00577">
        <ele>257.8</ele>
        <time>2021-06-03T08:19:58Z</time>
      </trkpt>
      <trkpt lat="47.20714" lon="6.0058">
        <ele>257.8</ele>
        <time>2021-06-03T08:19:59Z</time>
      </trkpt>
      <trkpt lat="47.20715" lon="6.00582">
        <ele>258</ele>
        <time>2021-06-03T08:20:00Z</time>
      </trkpt>
      <trkpt lat="47.20715" lon="6.00584">
        <ele>258</ele>
        <time>2021-06-03T08:20:01Z</time>
      </trkpt>
      <trkpt lat="47.20715" lon="6.00586">
        <ele>258.2</ele>
        <time>2021-06-03T08:20:02Z</time>
      </trkpt>
      <trkpt lat="47.20715" lon="6.00588">
        <ele>258.4</ele>
        <time>2021-06-03T08:20:03Z</time>
      </trkpt>
      <trkpt lat="47.20715" lon="6.00591">
        <ele>258.6</ele>
        <time>2021-06-03T08:20:04Z</time>
      </trkpt>
      <trkpt lat="47.20716" lon="6.00593">
        <ele>258.8</ele>
        <time>2021-06-03T08:20:05Z</time>
      </trkpt>
      <trkpt lat="47.20716" lon="6.00596">
        <ele>259</ele>
        <time>2021-06-03T08:20:06Z</time>
      </trkpt>
      <trkpt lat="47.20716" lon="6.00598">
        <ele>259.2</ele>
        <time>2021-06-03T08:20:07Z</time>
      </trkpt>
      <trkpt lat="47.20717" lon="6.00601">
        <ele>259.4</ele>
        <time>2021-06-03T08:20:08Z</time>
      </trkpt>
      <trkpt lat="47.20717" lon="6.00603">
        <ele>259.6</ele>
        <time>2021-06-03T08:20:09Z</time>
      </trkpt>
      <trkpt lat="47.20717" lon="6.00606">
        <ele>259.6</ele>
        <time>2021-06-03T08:20:10Z</time>
      </trkpt>
      <trkpt lat="47.20717" lon="6.00608">
        <ele>259.8</ele>
        <time>2021-06-03T08:20:11Z</time>
      </trkpt>
      <trkpt lat="47.20717" lon="6.00611">
        <ele>260</ele>
        <time>2021-06-03T08:20:12Z</time>
      </trkpt>
      <trkpt lat="47.20717" lon="6.00614">
        <ele>260.2</ele>
        <time>2021-06-03T08:20:13Z</time>
      </trkpt>
      <trkpt lat="47.20717" lon="6.00616">
        <ele>260.4</ele>
        <time>2021-06-03T08:20:14Z</time>
      </trkpt>
      <trkpt lat="47.20716" lon="6.00619">
        <ele>260.4</ele>
        <time>2021-06-03T08:20:15Z</time>
      </trkpt>
      <trkpt lat="47.20717" lon="6.00621">
        <ele>260.6</ele>
        <time>2021-06-03T08:20:16Z</time>
      </trkpt>
      <trkpt lat="47.20717" lon="6.00624">
        <ele>260.8</ele>
        <time>2021-06-03T08:20:17Z</time>
      </trkpt>
      <trkpt lat="47.20717" lon="6.00626">
        <ele>260.8</ele>
        <time>2021-06-03T08:20:18Z</time>
      </trkpt>
      <trkpt lat="47.20717" lon="6.0063">
        <ele>261.2</ele>
        <time>2021-06-03T08:20:19Z</time>
      </trkpt>
      <trkpt lat="47.20717" lon="6.00632">
        <ele>261.2</ele>
        <time>2021-06-03T08:20:20Z</time>
      </trkpt>
      <trkpt lat="47.20717" lon="6.00634">
        <ele>261.6</ele>
        <time>2021-06-03T08:20:21Z</time>
      </trkpt>
      <trkpt lat="47.20717" lon="6.00636">
        <ele>261.8</ele>
        <time>2021-06-03T08:20:22Z</time>
      </trkpt>
      <trkpt lat="47.20717" lon="6.00639">
        <ele>261.8</ele>
        <time>2021-06-03T08:20:23Z</time>
      </trkpt>
      <trkpt lat="47.20717" lon="6.00641">
        <ele>262</ele>
        <time>2021-06-03T08:20:24Z</time>
      </trkpt>
      <trkpt lat="47.20716" lon="6.00644">
        <ele>262.2</ele>
        <time>2021-06-03T08:20:25Z</time>
      </trkpt>
      <trkpt lat="47.20716" lon="6.00646">
        <ele>262.4</ele>
        <time>2021-06-03T08:20:26Z</time>
      </trkpt>
      <trkpt lat="47.20715" lon="6.00649">
        <ele>262.4</ele>
        <time>2021-06-03T08:20:27Z</time>
      </trkpt>
      <trkpt lat="47.20715" lon="6.0065">
        <ele>262.6</ele>
        <time>2021-06-03T08:20:28Z</time>
      </trkpt>
      <trkpt lat="47.20715" lon="6.00653">
        <ele>262.8</ele>
        <time>2021-06-03T08:20:29Z</time>
      </trkpt>
      <trkpt lat="47.20715" lon="6.00655">
        <ele>263</ele>
        <time>2021-06-03T08:20:30Z</time>
      </trkpt>
      <trkpt lat="47.20715" lon="6.00658">
        <ele>263</ele>
        <time>2021-06-03T08:20:31Z</time>
      </trkpt>
      <trkpt lat="47.20714" lon="6.0066">
        <ele>263.2</ele>
        <time>2021-06-03T08:20:32Z</time>
      </trkpt>
      <trkpt lat="47.20714" lon="6.00663">
        <ele>263.6</ele>
        <time>2021-06-03T08:20:33Z</time>
      </trkpt>
      <trkpt lat="47.20713" lon="6.00665">
        <ele>263.6</ele>
        <time>2021-06-03T08:20:34Z</time>
      </trkpt>
      <trkpt lat="47.20712" lon="6.00667">
        <ele>263.8</ele>
        <time>2021-06-03T08:20:35Z</time>
      </trkpt>
      <trkpt lat="47.20712" lon="6.00669">
        <ele>264</ele>
        <time>2021-06-03T08:20:36Z</time>
      </trkpt>
      <trkpt lat="47.20711" lon="6.00672">
        <ele>264.4</ele>
        <time>2021-06-03T08:20:37Z</time>
      </trkpt>
      <trkpt lat="47.20711" lon="6.00674">
        <ele>264.6</ele>
        <time>2021-06-03T08:20:38Z</time>
      </trkpt>
      <trkpt lat="47.2071" lon="6.00677">
        <ele>264.6</ele>
        <time>2021-06-03T08:20:39Z</time>
      </trkpt>
      <trkpt lat="47.20709" lon="6.0068">
        <ele>264.6</ele>
        <time>2021-06-03T08:20:40Z</time>
      </trkpt>
      <trkpt lat="47.20709" lon="6.00682">
        <ele>264.8</ele>
        <time>2021-06-03T08:20:41Z</time>
      </trkpt>
      <trkpt lat="47.20709" lon="6.00685">
        <ele>265</ele>
        <time>2021-06-03T08:20:42Z</time>
      </trkpt>
      <trkpt lat="47.20708" lon="6.00688">
        <ele>265</ele>
        <time>2021-06-03T08:20:43Z</time>
      </trkpt>
      <trkpt lat="47.20708" lon="6.0069">
        <ele>265.2</ele>
        <time>2021-06-03T08:20:44Z</time>
      </trkpt>
      <trkpt lat="47.20707" lon="6.00693">
        <ele>265.6</ele>
        <time>2021-06-03T08:20:45Z</time>
      </trkpt>
      <trkpt lat="47.20707" lon="6.00695">
        <ele>265.8</ele>
        <time>2021-06-03T08:20:46Z</time>
      </trkpt>
      <trkpt lat="47.20706" lon="6.00697">
        <ele>266</ele>
        <time>2021-06-03T08:20:47Z</time>
      </trkpt>
      <trkpt lat="47.20706" lon="6.007">
        <ele>266</ele>
        <time>2021-06-03T08:20:48Z</time>
      </trkpt>
      <trkpt lat="47.20705" lon="6.00702">
        <ele>266.4</ele>
        <time>2021-06-03T08:20:49Z</time>
      </trkpt>
      <trkpt lat="47.20705" lon="6.00705">
        <ele>266.4</ele>
        <time>2021-06-03T08:20:50Z</time>
      </trkpt>
      <trkpt lat="47.20704" lon="6.00707">
        <ele>266.6</ele>
        <time>2021-06-03T08:20:51Z</time>
      </trkpt>
      <trkpt lat="47.20704" lon="6.0071">
        <ele>266.8</ele>
        <time>2021-06-03T08:20:52Z</time>
      </trkpt>
      <trkpt lat="47.20703" lon="6.00712">
        <ele>267</ele>
        <time>2021-06-03T08:20:53Z</time>
      </trkpt>
      <trkpt lat="47.20703" lon="6.00715">
        <ele>267.2</ele>
        <time>2021-06-03T08:20:54Z</time>
      </trkpt>
      <trkpt lat="47.20702" lon="6.00717">
        <ele>267.2</ele>
        <time>2021-06-03T08:20:55Z</time>
      </trkpt>
      <trkpt lat="47.20702" lon="6.00719">
        <ele>267.4</ele>
        <time>2021-06-03T08:20:56Z</time>
      </trkpt>
      <trkpt lat="47.20701" lon="6.00722">
        <ele>267.6</ele>
        <time>2021-06-03T08:20:57Z</time>
      </trkpt>
      <trkpt lat="47.207" lon="6.00724">
        <ele>267.8</ele>
        <time>2021-06-03T08:20:58Z</time>
      </trkpt>
      <trkpt lat="47.207" lon="6.00726">
        <ele>267.8</ele>
        <time>2021-06-03T08:20:59Z</time>
      </trkpt>
      <trkpt lat="47.20699" lon="6.00729">
        <ele>268</ele>
        <time>2021-06-03T08:21:00Z</time>
      </trkpt>
      <trkpt lat="47.20699" lon="6.00732">
        <ele>268</ele>
        <time>2021-06-03T08:21:01Z</time>
      </trkpt>
      <trkpt lat="47.20698" lon="6.00734">
        <ele>268</ele>
        <time>2021-06-03T08:21:02Z</time>
      </trkpt>
      <trkpt lat="47.20697" lon="6.00736">
        <ele>268.2</ele>
        <time>2021-06-03T08:21:03Z</time>
      </trkpt>
      <trkpt lat="47.20696" lon="6.00738">
        <ele>268.2</ele>
        <time>2021-06-03T08:21:04Z</time>
      </trkpt>
      <trkpt lat="47.20695" lon="6.0074">
        <ele>268.4</ele>
        <time>2021-06-03T08:21:05Z</time>
      </trkpt>
      <trkpt lat="47.20695" lon="6.00742">
        <ele>268.6</ele>
        <time>2021-06-03T08:21:06Z</time>
      </trkpt>
      <trkpt lat="47.20694" lon="6.00745">
        <ele>268.6</ele>
        <time>2021-06-03T08:21:07Z</time>
      </trkpt>
      <trkpt lat="47.20693" lon="6.00747">
        <ele>268.8</ele>
        <time>2021-06-03T08:21:08Z</time>
      </trkpt>
      <trkpt lat="47.20692" lon="6.00749">
        <ele>269</ele>
        <time>2021-06-03T08:21:09Z</time>
      </trkpt>
      <trkpt lat="47.20691" lon="6.00751">
        <ele>269.2</ele>
        <time>2021-06-03T08:21:10Z</time>
      </trkpt>
      <trkpt lat="47.2069" lon="6.00753">
        <ele>269.4</ele>
        <time>2021-06-03T08:21:11Z</time>
      </trkpt>
      <trkpt lat="47.20689" lon="6.00755">
        <ele>269.6</ele>
        <time>2021-06-03T08:21:12Z</time>
      </trkpt>
      <trkpt lat="47.20688" lon="6.00758">
        <ele>269.8</ele>
        <time>2021-06-03T08:21:13Z</time>
      </trkpt>
      <trkpt lat="47.20688" lon="6.0076">
        <ele>269.8</ele>
        <time>2021-06-03T08:21:14Z</time>
      </trkpt>
      <trkpt lat="47.20687" lon="6.00762">
        <ele>270</ele>
        <time>2021-06-03T08:21:15Z</time>
      </trkpt>
      <trkpt lat="47.20686" lon="6.00764">
        <ele>270</ele>
        <time>2021-06-03T08:21:16Z</time>
      </trkpt>
      <trkpt lat="47.20685" lon="6.00766">
        <ele>270.2</ele>
        <time>2021-06-03T08:21:17Z</time>
      </trkpt>
      <trkpt lat="47.20684" lon="6.00768">
        <ele>270.2</ele>
        <time>2021-06-03T08:21:18Z</time>
      </trkpt>
      <trkpt lat="47.20684" lon="6.0077">
        <ele>270.4</ele>
        <time>2021-06-03T08:21:19Z</time>
      </trkpt>
      <trkpt lat="47.20683" lon="6.00772">
        <ele>270.6</ele>
        <time>2021-06-03T08:21:20Z</time>
      </trkpt>
      <trkpt lat="47.20682" lon="6.00774">
        <ele>270.6</ele>
        <time>2021-06-03T08:21:21Z</time>
      </trkpt>
      <trkpt lat="47.20681" lon="6.00776">
        <ele>270.8</ele>
        <time>2021-06-03T08:21:22Z</time>
      </trkpt>
      <trkpt lat="47.2068" lon="6.00779">
        <ele>271</ele>
        <time>2021-06-03T08:21:23Z</time>
      </trkpt>
      <trkpt lat="47.20679" lon="6.00782">
        <ele>271.2</ele>
        <time>2021-06-03T08:21:24Z</time>
      </trkpt>
      <trkpt lat="47.20679" lon="6.00784">
        <ele>271.2</ele>
        <time>2021-06-03T08:21:25Z</time>
      </trkpt>
      <trkpt lat="47.20678" lon="6.00786">
        <ele>271.6</ele>
        <time>2021-06-03T08:21:26Z</time>
      </trkpt>
      <trkpt lat="47.20677" lon="6.00788">
        <ele>272</ele>
        <time>2021-06-03T08:21:27Z</time>
      </trkpt>
      <trkpt lat="47.20676" lon="6.0079">
        <ele>272.2</ele>
        <time>2021-06-03T08:21:28Z</time>
      </trkpt>
      <trkpt lat="47.20676" lon="6.00792">
        <ele>272.4</ele>
        <time>2021-06-03T08:21:29Z</time>
      </trkpt>
      <trkpt lat="47.20675" lon="6.00794">
        <ele>272.4</ele>
        <time>2021-06-03T08:21:30Z</time>
      </trkpt>
      <trkpt lat="47.20674" lon="6.00796">
        <ele>272.6</ele>
        <time>2021-06-03T08:21:31Z</time>
      </trkpt>
      <trkpt lat="47.20673" lon="6.00798">
        <ele>272.8</ele>
        <time>2021-06-03T08:21:32Z</time>
      </trkpt>
      <trkpt lat="47.20672" lon="6.008">
        <ele>272.8</ele>
        <time>2021-06-03T08:21:33Z</time>
      </trkpt>
      <trkpt lat="47.20671" lon="6.00802">
        <ele>273.2</ele>
        <time>2021-06-03T08:21:34Z</time>
      </trkpt>
      <trkpt lat="47.20671" lon="6.00804">
        <ele>273.4</ele>
        <time>2021-06-03T08:21:35Z</time>
      </trkpt>
      <trkpt lat="47.2067" lon="6.00806">
        <ele>273.6</ele>
        <time>2021-06-03T08:21:36Z</time>
      </trkpt>
      <trkpt lat="47.20669" lon="6.00808">
        <ele>273.6</ele>
        <time>2021-06-03T08:21:37Z</time>
      </trkpt>
      <trkpt lat="47.20669" lon="6.00811">
        <ele>273.8</ele>
        <time>2021-06-03T08:21:38Z</time>
      </trkpt>
      <trkpt lat="47.20668" lon="6.00812">
        <ele>273.8</ele>
        <time>2021-06-03T08:21:39Z</time>
      </trkpt>
      <trkpt lat="47.20667" lon="6.00815">
        <ele>274</ele>
        <time>2021-06-03T08:21:40Z</time>
      </trkpt>
      <trkpt lat="47.20666" lon="6.00817">
        <ele>274.2</ele>
        <time>2021-06-03T08:21:41Z</time>
      </trkpt>
      <trkpt lat="47.20665" lon="6.00819">
        <ele>274.6</ele>
        <time>2021-06-03T08:21:42Z</time>
      </trkpt>
      <trkpt lat="47.20664" lon="6.00821">
        <ele>275</ele>
        <time>2021-06-03T08:21:43Z</time>
      </trkpt>
      <trkpt lat="47.20663" lon="6.00823">
        <ele>275.2</ele>
        <time>2021-06-03T08:21:44Z</time>
      </trkpt>
      <trkpt lat="47.20663" lon="6.00824">
        <ele>275.6</ele>
        <time>2021-06-03T08:21:45Z</time>
      </trkpt>
      <trkpt lat="47.20662" lon="6.00827">
        <ele>275.8</ele>
        <time>2021-06-03T08:21:46Z</time>
      </trkpt>
      <trkpt lat="47.20661" lon="6.00829">
        <ele>275.8</ele>
        <time>2021-06-03T08:21:47Z</time>
      </trkpt>
      <trkpt lat="47.20661" lon="6.00831">
        <ele>276</ele>
        <time>2021-06-03T08:21:48Z</time>
      </trkpt>
      <trkpt lat="47.2066" lon="6.00833">
        <ele>276</ele>
        <time>2021-06-03T08:21:49Z</time>
      </trkpt>
      <trkpt lat="47.20659" lon="6.00835">
        <ele>276.2</ele>
        <time>2021-06-03T08:21:50Z</time>
      </trkpt>
      <trkpt lat="47.20659" lon="6.00836">
        <ele>276.2</ele>
        <time>2021-06-03T08:21:51Z</time>
      </trkpt>
      <trkpt lat="47.20658" lon="6.00838">
        <ele>276.4</ele>
        <time>2021-06-03T08:21:52Z</time>
      </trkpt>
      <trkpt lat="47.20657" lon="6.00839">
        <ele>276.6</ele>
        <time>2021-06-03T08:21:53Z</time>
      </trkpt>
      <trkpt lat="47.20656" lon="6.00841">
        <ele>276.6</ele>
        <time>2021-06-03T08:21:54Z</time>
      </trkpt>
      <trkpt lat="47.20655" lon="6.00843">
        <ele>277</ele>
        <time>2021-06-03T08:21:55Z</time>
      </trkpt>
      <trkpt lat="47.20654" lon="6.00845">
        <ele>277</ele>
        <time>2021-06-03T08:21:56Z</time>
      </trkpt>
      <trkpt lat="47.20654" lon="6.00847">
        <ele>277.4</ele>
        <time>2021-06-03T08:21:57Z</time>
      </trkpt>
      <trkpt lat="47.20653" lon="6.00849">
        <ele>277.6</ele>
        <time>2021-06-03T08:21:58Z</time>
      </trkpt>
      <trkpt lat="47.20651" lon="6.00851">
        <ele>278</ele>
        <time>2021-06-03T08:21:59Z</time>
      </trkpt>
      <trkpt lat="47.2065" lon="6.00852">
        <ele>278.2</ele>
        <time>2021-06-03T08:22:00Z</time>
      </trkpt>
      <trkpt lat="47.20649" lon="6.00854">
        <ele>278.2</ele>
        <time>2021-06-03T08:22:01Z</time>
      </trkpt>
      <trkpt lat="47.20648" lon="6.00856">
        <ele>278.4</ele>
        <time>2021-06-03T08:22:02Z</time>
      </trkpt>
      <trkpt lat="47.20647" lon="6.00858">
        <ele>278.4</ele>
        <time>2021-06-03T08:22:03Z</time>
      </trkpt>
      <trkpt lat="47.20647" lon="6.00861">
        <ele>278.8</ele>
        <time>2021-06-03T08:22:04Z</time>
      </trkpt>
      <trkpt lat="47.20646" lon="6.00863">
        <ele>279</ele>
        <time>2021-06-03T08:22:05Z</time>
      </trkpt>
      <trkpt lat="47.20645" lon="6.00865">
        <ele>279.2</ele>
        <time>2021-06-03T08:22:06Z</time>
      </trkpt>
      <trkpt lat="47.20644" lon="6.00866">
        <ele>279.4</ele>
        <time>2021-06-03T08:22:07Z</time>
      </trkpt>
      <trkpt lat="47.20643" lon="6.00867">
        <ele>279.6</ele>
        <time>2021-06-03T08:22:08Z</time>
      </trkpt>
      <trkpt lat="47.20642" lon="6.00868">
        <ele>279.8</ele>
        <time>2021-06-03T08:22:09Z</time>
      </trkpt>
      <trkpt lat="47.20642" lon="6.0087">
        <ele>280</ele>
        <time>2021-06-03T08:22:10Z</time>
      </trkpt>
      <trkpt lat="47.20641" lon="6.00872">
        <ele>280.2</ele>
        <time>2021-06-03T08:22:11Z</time>
      </trkpt>
      <trkpt lat="47.2064" lon="6.00874">
        <ele>280.2</ele>
        <time>2021-06-03T08:22:12Z</time>
      </trkpt>
      <trkpt lat="47.20639" lon="6.00876">
        <ele>280.4</ele>
        <time>2021-06-03T08:22:13Z</time>
      </trkpt>
      <trkpt lat="47.20639" lon="6.00878">
        <ele>280.6</ele>
        <time>2021-06-03T08:22:14Z</time>
      </trkpt>
      <trkpt lat="47.20638" lon="6.00879">
        <ele>280.8</ele>
        <time>2021-06-03T08:22:15Z</time>
      </trkpt>
      <trkpt lat="47.20637" lon="6.00881">
        <ele>280.8</ele>
        <time>2021-06-03T08:22:16Z</time>
      </trkpt>
      <trkpt lat="47.20636" lon="6.00883">
        <ele>280.8</ele>
        <time>2021-06-03T08:22:17Z</time>
      </trkpt>
      <trkpt lat="47.20635" lon="6.00885">
        <ele>281</ele>
        <time>2021-06-03T08:22:18Z</time>
      </trkpt>
      <trkpt lat="47.20635" lon="6.00887">
        <ele>281</ele>
        <time>2021-06-03T08:22:19Z</time>
      </trkpt>
      <trkpt lat="47.20634" lon="6.00888">
        <ele>281.2</ele>
        <time>2021-06-03T08:22:20Z</time>
      </trkpt>
      <trkpt lat="47.20633" lon="6.0089">
        <ele>281.6</ele>
        <time>2021-06-03T08:22:21Z</time>
      </trkpt>
      <trkpt lat="47.20632" lon="6.00892">
        <ele>281.6</ele>
        <time>2021-06-03T08:22:22Z</time>
      </trkpt>
      <trkpt lat="47.20631" lon="6.00893">
        <ele>281.8</ele>
        <time>2021-06-03T08:22:23Z</time>
      </trkpt>
      <trkpt lat="47.2063" lon="6.00895">
        <ele>282</ele>
        <time>2021-06-03T08:22:24Z</time>
      </trkpt>
      <trkpt lat="47.20629" lon="6.00897">
        <ele>282.2</ele>
        <time>2021-06-03T08:22:25Z</time>
      </trkpt>
      <trkpt lat="47.20628" lon="6.00898">
        <ele>282.2</ele>
        <time>2021-06-03T08:22:26Z</time>
      </trkpt>
      <trkpt lat="47.20627" lon="6.009">
        <ele>282.4</ele>
        <time>2021-06-03T08:22:27Z</time>
      </trkpt>
      <trkpt lat="47.20627" lon="6.00902">
        <ele>282.6</ele>
        <time>2021-06-03T08:22:28Z</time>
      </trkpt>
      <trkpt lat="47.20626" lon="6.00904">
        <ele>282.6</ele>
        <time>2021-06-03T08:22:29Z</time>
      </trkpt>
      <trkpt lat="47.20625" lon="6.00906">
        <ele>282.8</ele>
        <time>2021-06-03T08:22:30Z</time>
      </trkpt>
      <trkpt lat="47.20624" lon="6.00907">
        <ele>283</ele>
        <time>2021-06-03T08:22:31Z</time>
      </trkpt>
      <trkpt lat="47.20622" lon="6.0091">
        <ele>283</ele>
        <time>2021-06-03T08:22:32Z</time>
      </trkpt>
      <trkpt lat="47.20621" lon="6.00912">
        <ele>283.2</ele>
        <time>2021-06-03T08:22:33Z</time>
      </trkpt>
      <trkpt lat="47.2062" lon="6.00914">
        <ele>283.2</ele>
        <time>2021-06-03T08:22:34Z</time>
      </trkpt>
      <trkpt lat="47.20618" lon="6.00916">
        <ele>283.6</ele>
        <time>2021-06-03T08:22:35Z</time>
      </trkpt>
      <trkpt lat="47.20617" lon="6.00918">
        <ele>283.8</ele>
        <time>2021-06-03T08:22:36Z</time>
      </trkpt>
      <trkpt lat="47.20616" lon="6.00919">
        <ele>283.8</ele>
        <time>2021-06-03T08:22:37Z</time>
      </trkpt>
      <trkpt lat="47.20615" lon="6.00921">
        <ele>283.8</ele>
        <time>2021-06-03T08:22:38Z</time>
      </trkpt>
      <trkpt lat="47.20614" lon="6.00923">
        <ele>284.2</ele>
        <time>2021-06-03T08:22:39Z</time>
      </trkpt>
      <trkpt lat="47.20613" lon="6.00925">
        <ele>284.6</ele>
        <time>2021-06-03T08:22:40Z</time>
      </trkpt>
      <trkpt lat="47.20612" lon="6.00927">
        <ele>284.6</ele>
        <time>2021-06-03T08:22:41Z</time>
      </trkpt>
      <trkpt lat="47.2061" lon="6.00928">
        <ele>284.6</ele>
        <time>2021-06-03T08:22:42Z</time>
      </trkpt>
      <trkpt lat="47.20609" lon="6.0093">
        <ele>284.6</ele>
        <time>2021-06-03T08:22:43Z</time>
      </trkpt>
      <trkpt lat="47.20608" lon="6.00932">
        <ele>284.8</ele>
        <time>2021-06-03T08:22:44Z</time>
      </trkpt>
      <trkpt lat="47.20607" lon="6.00934">
        <ele>285</ele>
        <time>2021-06-03T08:22:45Z</time>
      </trkpt>
      <trkpt lat="47.20606" lon="6.00936">
        <ele>285.2</ele>
        <time>2021-06-03T08:22:46Z</time>
      </trkpt>
      <trkpt lat="47.20605" lon="6.00939">
        <ele>285.4</ele>
        <time>2021-06-03T08:22:47Z</time>
      </trkpt>
      <trkpt lat="47.20604" lon="6.00941">
        <ele>285.4</ele>
        <time>2021-06-03T08:22:48Z</time>
      </trkpt>
      <trkpt lat="47.20603" lon="6.00943">
        <ele>285.6</ele>
        <time>2021-06-03T08:22:49Z</time>
      </trkpt>
      <trkpt lat="47.20602" lon="6.00945">
        <ele>285.6</ele>
        <time>2021-06-03T08:22:50Z</time>
      </trkpt>
      <trkpt lat="47.20601" lon="6.00947">
        <ele>285.8</ele>
        <time>2021-06-03T08:22:51Z</time>
      </trkpt>
      <trkpt lat="47.206" lon="6.00949">
        <ele>285.8</ele>
        <time>2021-06-03T08:22:52Z</time>
      </trkpt>
      <trkpt lat="47.20599" lon="6.00951">
        <ele>286.2</ele>
        <time>2021-06-03T08:22:53Z</time>
      </trkpt>
      <trkpt lat="47.20597" lon="6.00953">
        <ele>286.4</ele>
        <time>2021-06-03T08:22:54Z</time>
      </trkpt>
      <trkpt lat="47.20596" lon="6.00955">
        <ele>286.4</ele>
        <time>2021-06-03T08:22:55Z</time>
      </trkpt>
      <trkpt lat="47.20595" lon="6.00957">
        <ele>286.6</ele>
        <time>2021-06-03T08:22:56Z</time>
      </trkpt>
      <trkpt lat="47.20594" lon="6.00959">
        <ele>286.6</ele>
        <time>2021-06-03T08:22:57Z</time>
      </trkpt>
      <trkpt lat="47.20594" lon="6.00961">
        <ele>286.8</ele>
        <time>2021-06-03T08:22:58Z</time>
      </trkpt>
      <trkpt lat="47.20593" lon="6.00963">
        <ele>286.8</ele>
        <time>2021-06-03T08:22:59Z</time>
      </trkpt>
      <trkpt lat="47.20592" lon="6.00966">
        <ele>287</ele>
        <time>2021-06-03T08:23:00Z</time>
      </trkpt>
      <trkpt lat="47.20592" lon="6.00968">
        <ele>287.2</ele>
        <time>2021-06-03T08:23:01Z</time>
      </trkpt>
      <trkpt lat="47.20591" lon="6.00971">
        <ele>287.2</ele>
        <time>2021-06-03T08:23:02Z</time>
      </trkpt>
      <trkpt lat="47.2059" lon="6.00973">
        <ele>287.4</ele>
        <time>2021-06-03T08:23:03Z</time>
      </trkpt>
      <trkpt lat="47.2059" lon="6.00975">
        <ele>287.6</ele>
        <time>2021-06-03T08:23:04Z</time>
      </trkpt>
      <trkpt lat="47.20589" lon="6.00978">
        <ele>287.8</ele>
        <time>2021-06-03T08:23:05Z</time>
      </trkpt>
      <trkpt lat="47.20588" lon="6.0098">
        <ele>288</ele>
        <time>2021-06-03T08:23:06Z</time>
      </trkpt>
      <trkpt lat="47.20588" lon="6.00982">
        <ele>288.2</ele>
        <time>2021-06-03T08:23:07Z</time>
      </trkpt>
      <trkpt lat="47.20587" lon="6.00985">
        <ele>288.4</ele>
        <time>2021-06-03T08:23:08Z</time>
      </trkpt>
      <trkpt lat="47.20586" lon="6.00987">
        <ele>288.4</ele>
        <time>2021-06-03T08:23:09Z</time>
      </trkpt>
      <trkpt lat="47.20586" lon="6.00989">
        <ele>288.6</ele>
        <time>2021-06-03T08:23:10Z</time>
      </trkpt>
      <trkpt lat="47.20585" lon="6.00991">
        <ele>288.8</ele>
        <time>2021-06-03T08:23:11Z</time>
      </trkpt>
      <trkpt lat="47.20585" lon="6.00994">
        <ele>289</ele>
        <time>2021-06-03T08:23:12Z</time>
      </trkpt>
      <trkpt lat="47.20585" lon="6.00996">
        <ele>289.2</ele>
        <time>2021-06-03T08:23:13Z</time>
      </trkpt>
      <trkpt lat="47.20585" lon="6.00999">
        <ele>289.4</ele>
        <time>2021-06-03T08:23:14Z</time>
      </trkpt>
      <trkpt lat="47.20584" lon="6.01001">
        <ele>289.6</ele>
        <time>2021-06-03T08:23:15Z</time>
      </trkpt>
      <trkpt lat="47.20584" lon="6.01003">
        <ele>289.6</ele>
        <time>2021-06-03T08:23:16Z</time>
      </trkpt>
      <trkpt lat="47.20584" lon="6.01006">
        <ele>289.8</ele>
        <time>2021-06-03T08:23:17Z</time>
      </trkpt>
      <trkpt lat="47.20584" lon="6.01008">
        <ele>290</ele>
        <time>2021-06-03T08:23:18Z</time>
      </trkpt>
      <trkpt lat="47.20584" lon="6.0101">
        <ele>290.2</ele>
        <time>2021-06-03T08:23:19Z</time>
      </trkpt>
      <trkpt lat="47.20584" lon="6.01013">
        <ele>290.2</ele>
        <time>2021-06-03T08:23:20Z</time>
      </trkpt>
      <trkpt lat="47.20583" lon="6.01016">
        <ele>290.4</ele>
        <time>2021-06-03T08:23:21Z</time>
      </trkpt>
      <trkpt lat="47.20583" lon="6.01018">
        <ele>290.6</ele>
        <time>2021-06-03T08:23:22Z</time>
      </trkpt>
      <trkpt lat="47.20582" lon="6.0102">
        <ele>290.8</ele>
        <time>2021-06-03T08:23:23Z</time>
      </trkpt>
      <trkpt lat="47.20582" lon="6.01023">
        <ele>291</ele>
        <time>2021-06-03T08:23:24Z</time>
      </trkpt>
      <trkpt lat="47.20581" lon="6.01025">
        <ele>291</ele>
        <time>2021-06-03T08:23:25Z</time>
      </trkpt>
      <trkpt lat="47.20581" lon="6.01027">
        <ele>291.2</ele>
        <time>2021-06-03T08:23:26Z</time>
      </trkpt>
      <trkpt lat="47.2058" lon="6.01029">
        <ele>291.4</ele>
        <time>2021-06-03T08:23:27Z</time>
      </trkpt>
      <trkpt lat="47.2058" lon="6.01031">
        <ele>291.6</ele>
        <time>2021-06-03T08:23:28Z</time>
      </trkpt>
      <trkpt lat="47.20579" lon="6.01034">
        <ele>291.8</ele>
        <time>2021-06-03T08:23:29Z</time>
      </trkpt>
      <trkpt lat="47.20579" lon="6.01036">
        <ele>291.8</ele>
        <time>2021-06-03T08:23:30Z</time>
      </trkpt>
      <trkpt lat="47.20578" lon="6.01039">
        <ele>292</ele>
        <time>2021-06-03T08:23:31Z</time>
      </trkpt>
      <trkpt lat="47.20578" lon="6.01041">
        <ele>292.2</ele>
        <time>2021-06-03T08:23:32Z</time>
      </trkpt>
      <trkpt lat="47.20578" lon="6.01043">
        <ele>292.4</ele>
        <time>2021-06-03T08:23:33Z</time>
      </trkpt>
      <trkpt lat="47.20577" lon="6.01046">
        <ele>292.6</ele>
        <time>2021-06-03T08:23:34Z</time>
      </trkpt>
      <trkpt lat="47.20576" lon="6.01048">
        <ele>292.6</ele>
        <time>2021-06-03T08:23:35Z</time>
      </trkpt>
      <trkpt lat="47.20576" lon="6.01051">
        <ele>292.8</ele>
        <time>2021-06-03T08:23:36Z</time>
      </trkpt>
      <trkpt lat="47.20575" lon="6.01053">
        <ele>292.8</ele>
        <time>2021-06-03T08:23:37Z</time>
      </trkpt>
      <trkpt lat="47.20574" lon="6.01056">
        <ele>293</ele>
        <time>2021-06-03T08:23:38Z</time>
      </trkpt>
      <trkpt lat="47.20574" lon="6.01058">
        <ele>293.2</ele>
        <time>2021-06-03T08:23:39Z</time>
      </trkpt>
      <trkpt lat="47.20573" lon="6.0106">
        <ele>293.4</ele>
        <time>2021-06-03T08:23:40Z</time>
      </trkpt>
      <trkpt lat="47.20573" lon="6.01062">
        <ele>293.6</ele>
        <time>2021-06-03T08:23:41Z</time>
      </trkpt>
      <trkpt lat="47.20572" lon="6.01064">
        <ele>293.6</ele>
        <time>2021-06-03T08:23:42Z</time>
      </trkpt>
      <trkpt lat="47.20571" lon="6.01066">
        <ele>293.8</ele>
        <time>2021-06-03T08:23:43Z</time>
      </trkpt>
      <trkpt lat="47.20571" lon="6.01068">
        <ele>294</ele>
        <time>2021-06-03T08:23:44Z</time>
      </trkpt>
      <trkpt lat="47.2057" lon="6.0107">
        <ele>294.2</ele>
        <time>2021-06-03T08:23:45Z</time>
      </trkpt>
      <trkpt lat="47.20569" lon="6.01072">
        <ele>294.2</ele>
        <time>2021-06-03T08:23:46Z</time>
      </trkpt>
      <trkpt lat="47.20569" lon="6.01074">
        <ele>294.6</ele>
        <time>2021-06-03T08:23:47Z</time>
      </trkpt>
      <trkpt lat="47.20568" lon="6.01076">
        <ele>294.8</ele>
        <time>2021-06-03T08:23:48Z</time>
      </trkpt>
      <trkpt lat="47.20567" lon="6.01078">
        <ele>295</ele>
        <time>2021-06-03T08:23:49Z</time>
      </trkpt>
      <trkpt lat="47.20566" lon="6.0108">
        <ele>295.2</ele>
        <time>2021-06-03T08:23:50Z</time>
      </trkpt>
      <trkpt lat="47.20566" lon="6.01082">
        <ele>295.2</ele>
        <time>2021-06-03T08:23:51Z</time>
      </trkpt>
      <trkpt lat="47.20565" lon="6.01085">
        <ele>295.4</ele>
        <time>2021-06-03T08:23:52Z</time>
      </trkpt>
      <trkpt lat="47.20564" lon="6.01087">
        <ele>295.4</ele>
        <time>2021-06-03T08:23:53Z</time>
      </trkpt>
      <trkpt lat="47.20563" lon="6.01089">
        <ele>295.6</ele>
        <time>2021-06-03T08:23:54Z</time>
      </trkpt>
      <trkpt lat="47.20562" lon="6.01091">
        <ele>296</ele>
        <time>2021-06-03T08:23:55Z</time>
      </trkpt>
      <trkpt lat="47.20562" lon="6.01094">
        <ele>296</ele>
        <time>2021-06-03T08:23:56Z</time>
      </trkpt>
      <trkpt lat="47.20561" lon="6.01096">
        <ele>296.2</ele>
        <time>2021-06-03T08:23:57Z</time>
      </trkpt>
      <trkpt lat="47.20561" lon="6.01098">
        <ele>296.4</ele>
        <time>2021-06-03T08:23:58Z</time>
      </trkpt>
      <trkpt lat="47.20561" lon="6.01101">
        <ele>296.6</ele>
        <time>2021-06-03T08:23:59Z</time>
      </trkpt>
      <trkpt lat="47.20561" lon="6.01104">
        <ele>296.8</ele>
        <time>2021-06-03T08:24:00Z</time>
      </trkpt>
      <trkpt lat="47.20561" lon="6.01106">
        <ele>296.8</ele>
        <time>2021-06-03T08:24:01Z</time>
      </trkpt>
      <trkpt lat="47.20561" lon="6.01108">
        <ele>297</ele>
        <time>2021-06-03T08:24:02Z</time>
      </trkpt>
      <trkpt lat="47.20561" lon="6.01111">
        <ele>297</ele>
        <time>2021-06-03T08:24:03Z</time>
      </trkpt>
      <trkpt lat="47.20561" lon="6.01113">
        <ele>297.4</ele>
        <time>2021-06-03T08:24:04Z</time>
      </trkpt>
      <trkpt lat="47.20562" lon="6.01116">
        <ele>297.6</ele>
        <time>2021-06-03T08:24:05Z</time>
      </trkpt>
      <trkpt lat="47.20562" lon="6.01118">
        <ele>297.8</ele>
        <time>2021-06-03T08:24:06Z</time>
      </trkpt>
      <trkpt lat="47.20562" lon="6.01121">
        <ele>298</ele>
        <time>2021-06-03T08:24:07Z</time>
      </trkpt>
      <trkpt lat="47.20563" lon="6.01123">
        <ele>298</ele>
        <time>2021-06-03T08:24:08Z</time>
      </trkpt>
      <trkpt lat="47.20563" lon="6.01126">
        <ele>298.2</ele>
        <time>2021-06-03T08:24:09Z</time>
      </trkpt>
      <trkpt lat="47.20563" lon="6.01128">
        <ele>298.4</ele>
        <time>2021-06-03T08:24:10Z</time>
      </trkpt>
      <trkpt lat="47.20563" lon="6.0113">
        <ele>298.6</ele>
        <time>2021-06-03T08:24:11Z</time>
      </trkpt>
      <trkpt lat="47.20563" lon="6.01132">
        <ele>298.6</ele>
        <time>2021-06-03T08:24:12Z</time>
      </trkpt>
      <trkpt lat="47.20563" lon="6.01134">
        <ele>299</ele>
        <time>2021-06-03T08:24:13Z</time>
      </trkpt>
      <trkpt lat="47.20563" lon="6.01136">
        <ele>299</ele>
        <time>2021-06-03T08:24:14Z</time>
      </trkpt>
      <trkpt lat="47.20563" lon="6.01139">
        <ele>299.2</ele>
        <time>2021-06-03T08:24:15Z</time>
      </trkpt>
      <trkpt lat="47.20563" lon="6.01141">
        <ele>299.4</ele>
        <time>2021-06-03T08:24:16Z</time>
      </trkpt>
      <trkpt lat="47.20563" lon="6.01143">
        <ele>299.6</ele>
        <time>2021-06-03T08:24:17Z</time>
      </trkpt>
      <trkpt lat="47.20563" lon="6.01145">
        <ele>299.6</ele>
        <time>2021-06-03T08:24:18Z</time>
      </trkpt>
      <trkpt lat="47.20563" lon="6.01148">
        <ele>299.8</ele>
        <time>2021-06-03T08:24:19Z</time>
      </trkpt>
      <trkpt lat="47.20563" lon="6.0115">
        <ele>300</ele>
        <time>2021-06-03T08:24:20Z</time>
      </trkpt>
      <trkpt lat="47.20563" lon="6.01153">
        <ele>300.2</ele>
        <time>2021-06-03T08:24:21Z</time>
      </trkpt>
      <trkpt lat="47.20563" lon="6.01155">
        <ele>300.4</ele>
        <time>2021-06-03T08:24:22Z</time>
      </trkpt>
      <trkpt lat="47.20563" lon="6.01158">
        <ele>300.6</ele>
        <time>2021-06-03T08:24:23Z</time>
      </trkpt>
      <trkpt lat="47.20563" lon="6.0116">
        <ele>300.8</ele>
        <time>2021-06-03T08:24:24Z</time>
      </trkpt>
      <trkpt lat="47.20563" lon="6.01163">
        <ele>301</ele>
        <time>2021-06-03T08:24:25Z</time>
      </trkpt>
      <trkpt lat="47.20563" lon="6.01165">
        <ele>301</ele>
        <time>2021-06-03T08:24:26Z</time>
      </trkpt>
      <trkpt lat="47.20563" lon="6.01168">
        <ele>301.2</ele>
        <time>2021-06-03T08:24:27Z</time>
      </trkpt>
      <trkpt lat="47.20563" lon="6.0117">
        <ele>301.4</ele>
        <time>2021-06-03T08:24:28Z</time>
      </trkpt>
      <trkpt lat="47.20562" lon="6.01172">
        <ele>301.4</ele>
        <time>2021-06-03T08:24:29Z</time>
      </trkpt>
      <trkpt lat="47.20562" lon="6.01174">
        <ele>301.6</ele>
        <time>2021-06-03T08:24:30Z</time>
      </trkpt>
      <trkpt lat="47.20562" lon="6.01177">
        <ele>301.8</ele>
        <time>2021-06-03T08:24:31Z</time>
      </trkpt>
      <trkpt lat="47.20563" lon="6.01179">
        <ele>302</ele>
        <time>2021-06-03T08:24:32Z</time>
      </trkpt>
      <trkpt lat="47.20563" lon="6.01182">
        <ele>302</ele>
        <time>2021-06-03T08:24:33Z</time>
      </trkpt>
      <trkpt lat="47.20563" lon="6.01184">
        <ele>302.2</ele>
        <time>2021-06-03T08:24:34Z</time>
      </trkpt>
      <trkpt lat="47.20564" lon="6.01186">
        <ele>302.4</ele>
        <time>2021-06-03T08:24:35Z</time>
      </trkpt>
      <trkpt lat="47.20564" lon="6.01188">
        <ele>302.6</ele>
        <time>2021-06-03T08:24:36Z</time>
      </trkpt>
      <trkpt lat="47.20564" lon="6.0119">
        <ele>302.6</ele>
        <time>2021-06-03T08:24:37Z</time>
      </trkpt>
      <trkpt lat="47.20564" lon="6.01193">
        <ele>302.6</ele>
        <time>2021-06-03T08:24:38Z</time>
      </trkpt>
      <trkpt lat="47.20564" lon="6.01195">
        <ele>302.8</ele>
        <time>2021-06-03T08:24:39Z</time>
      </trkpt>
      <trkpt lat="47.20564" lon="6.01198">
        <ele>302.8</ele>
        <time>2021-06-03T08:24:40Z</time>
      </trkpt>
      <trkpt lat="47.20564" lon="6.012">
        <ele>303</ele>
        <time>2021-06-03T08:24:41Z</time>
      </trkpt>
      <trkpt lat="47.20564" lon="6.01202">
        <ele>303.2</ele>
        <time>2021-06-03T08:24:42Z</time>
      </trkpt>
      <trkpt lat="47.20564" lon="6.01204">
        <ele>303.2</ele>
        <time>2021-06-03T08:24:43Z</time>
      </trkpt>
      <trkpt lat="47.20564" lon="6.01206">
        <ele>303.6</ele>
        <time>2021-06-03T08:24:44Z</time>
      </trkpt>
      <trkpt lat="47.20565" lon="6.01208">
        <ele>303.6</ele>
        <time>2021-06-03T08:24:45Z</time>
      </trkpt>
      <trkpt lat="47.20565" lon="6.01209">
        <ele>303.8</ele>
        <time>2021-06-03T08:24:46Z</time>
      </trkpt>
      <trkpt lat="47.20565" lon="6.01211">
        <ele>304</ele>
        <time>2021-06-03T08:24:47Z</time>
      </trkpt>
      <trkpt lat="47.20564" lon="6.01213">
        <ele>304.2</ele>
        <time>2021-06-03T08:24:48Z</time>
      </trkpt>
      <trkpt lat="47.20564" lon="6.01215">
        <ele>304.4</ele>
        <time>2021-06-03T08:24:49Z</time>
      </trkpt>
      <trkpt lat="47.20564" lon="6.01217">
        <ele>304.4</ele>
        <time>2021-06-03T08:24:50Z</time>
      </trkpt>
      <trkpt lat="47.20564" lon="6.01219">
        <ele>304.6</ele>
        <time>2021-06-03T08:24:51Z</time>
      </trkpt>
      <trkpt lat="47.20564" lon="6.01222">
        <ele>304.6</ele>
        <time>2021-06-03T08:24:52Z</time>
      </trkpt>
      <trkpt lat="47.20563" lon="6.01225">
        <ele>304.8</ele>
        <time>2021-06-03T08:24:53Z</time>
      </trkpt>
      <trkpt lat="47.20563" lon="6.01228">
        <ele>304.8</ele>
        <time>2021-06-03T08:24:54Z</time>
      </trkpt>
      <trkpt lat="47.20562" lon="6.0123">
        <ele>305</ele>
        <time>2021-06-03T08:24:55Z</time>
      </trkpt>
      <trkpt lat="47.20561" lon="6.01232">
        <ele>305.2</ele>
        <time>2021-06-03T08:24:56Z</time>
      </trkpt>
      <trkpt lat="47.2056" lon="6.01234">
        <ele>305.4</ele>
        <time>2021-06-03T08:24:57Z</time>
      </trkpt>
      <trkpt lat="47.20559" lon="6.01236">
        <ele>305.4</ele>
        <time>2021-06-03T08:24:58Z</time>
      </trkpt>
      <trkpt lat="47.20558" lon="6.01238">
        <ele>305.4</ele>
        <time>2021-06-03T08:24:59Z</time>
      </trkpt>
      <trkpt lat="47.20557" lon="6.0124">
        <ele>305.8</ele>
        <time>2021-06-03T08:25:00Z</time>
      </trkpt>
      <trkpt lat="47.20556" lon="6.01242">
        <ele>306</ele>
        <time>2021-06-03T08:25:01Z</time>
      </trkpt>
      <trkpt lat="47.20555" lon="6.01244">
        <ele>306.2</ele>
        <time>2021-06-03T08:25:02Z</time>
      </trkpt>
      <trkpt lat="47.20554" lon="6.01246">
        <ele>306.4</ele>
        <time>2021-06-03T08:25:03Z</time>
      </trkpt>
      <trkpt lat="47.20553" lon="6.01248">
        <ele>306.6</ele>
        <time>2021-06-03T08:25:04Z</time>
      </trkpt>
      <trkpt lat="47.20552" lon="6.01251">
        <ele>306.8</ele>
        <time>2021-06-03T08:25:05Z</time>
      </trkpt>
      <trkpt lat="47.20551" lon="6.01253">
        <ele>307</ele>
        <time>2021-06-03T08:25:06Z</time>
      </trkpt>
      <trkpt lat="47.20549" lon="6.01255">
        <ele>307.2</ele>
        <time>2021-06-03T08:25:07Z</time>
      </trkpt>
      <trkpt lat="47.20548" lon="6.01257">
        <ele>307.2</ele>
        <time>2021-06-03T08:25:08Z</time>
      </trkpt>
      <trkpt lat="47.20546" lon="6.01259">
        <ele>307.4</ele>
        <time>2021-06-03T08:25:09Z</time>
      </trkpt>
      <trkpt lat="47.20545" lon="6.01261">
        <ele>307.6</ele>
        <time>2021-06-03T08:25:10Z</time>
      </trkpt>
      <trkpt lat="47.20543" lon="6.01263">
        <ele>307.6</ele>
        <time>2021-06-03T08:25:11Z</time>
      </trkpt>
      <trkpt lat="47.20542" lon="6.01265">
        <ele>307.8</ele>
        <time>2021-06-03T08:25:12Z</time>
      </trkpt>
      <trkpt lat="47.20541" lon="6.01267">
        <ele>308</ele>
        <time>2021-06-03T08:25:13Z</time>
      </trkpt>
      <trkpt lat="47.2054" lon="6.0127">
        <ele>308</ele>
        <time>2021-06-03T08:25:14Z</time>
      </trkpt>
      <trkpt lat="47.20539" lon="6.01272">
        <ele>308</ele>
        <time>2021-06-03T08:25:15Z</time>
      </trkpt>
      <trkpt lat="47.20538" lon="6.01274">
        <ele>308</ele>
        <time>2021-06-03T08:25:16Z</time>
      </trkpt>
      <trkpt lat="47.20537" lon="6.01276">
        <ele>308</ele>
        <time>2021-06-03T08:25:17Z</time>
      </trkpt>
      <trkpt lat="47.20537" lon="6.01277">
        <ele>308</ele>
        <time>2021-06-03T08:25:18Z</time>
      </trkpt>
      <trkpt lat="47.20537" lon="6.01278">
        <ele>308.2</ele>
        <time>2021-06-03T08:25:19Z</time>
      </trkpt>
      <trkpt lat="47.20537" lon="6.01278">
        <ele>308.2</ele>
        <time>2021-06-03T08:25:21Z</time>
      </trkpt>
      <trkpt lat="47.20537" lon="6.01278">
        <ele>307.6</ele>
        <time>2021-06-03T08:25:52Z</time>
      </trkpt>
      <trkpt lat="47.20537" lon="6.0128">
        <ele>307.6</ele>
        <time>2021-06-03T08:25:53Z</time>
      </trkpt>
      <trkpt lat="47.20541" lon="6.01302">
        <ele>307.8</ele>
        <time>2021-06-03T08:26:00Z</time>
      </trkpt>
      <trkpt lat="47.20542" lon="6.01308">
        <ele>307.8</ele>
        <time>2021-06-03T08:26:02Z</time>
      </trkpt>
      <trkpt lat="47.20545" lon="6.01315">
        <ele>308</ele>
        <time>2021-06-03T08:26:04Z</time>
      </trkpt>
      <trkpt lat="47.20552" lon="6.01332">
        <ele>308.4</ele>
        <time>2021-06-03T08:26:09Z</time>
      </trkpt>
      <trkpt lat="47.20564" lon="6.01365">
        <ele>308.8</ele>
        <time>2021-06-03T08:26:18Z</time>
      </trkpt>
      <trkpt lat="47.20569" lon="6.01377">
        <ele>309</ele>
        <time>2021-06-03T08:26:21Z</time>
      </trkpt>
      <trkpt lat="47.20574" lon="6.01389">
        <ele>309.4</ele>
        <time>2021-06-03T08:26:24Z</time>
      </trkpt>
      <trkpt lat="47.20578" lon="6.01397">
        <ele>309.4</ele>
        <time>2021-06-03T08:26:26Z</time>
      </trkpt>
      <trkpt lat="47.20597" lon="6.01436">
        <ele>310</ele>
        <time>2021-06-03T08:26:36Z</time>
      </trkpt>
      <trkpt lat="47.20599" lon="6.01441">
        <ele>310</ele>
        <time>2021-06-03T08:26:37Z</time>
      </trkpt>
      <trkpt lat="47.20601" lon="6.01449">
        <ele>310.2</ele>
        <time>2021-06-03T08:26:39Z</time>
      </trkpt>
      <trkpt lat="47.20608" lon="6.0147">
        <ele>310.6</ele>
        <time>2021-06-03T08:26:44Z</time>
      </trkpt>
      <trkpt lat="47.20609" lon="6.01474">
        <ele>310.6</ele>
        <time>2021-06-03T08:26:45Z</time>
      </trkpt>
      <trkpt lat="47.20611" lon="6.01477">
        <ele>311</ele>
        <time>2021-06-03T08:26:46Z</time>
      </trkpt>
      <trkpt lat="47.20612" lon="6.01481">
        <ele>311</ele>
        <time>2021-06-03T08:26:47Z</time>
      </trkpt>
      <trkpt lat="47.20614" lon="6.01485">
        <ele>311.2</ele>
        <time>2021-06-03T08:26:48Z</time>
      </trkpt>
      <trkpt lat="47.20616" lon="6.01488">
        <ele>311.4</ele>
        <time>2021-06-03T08:26:49Z</time>
      </trkpt>
      <trkpt lat="47.20618" lon="6.0149">
        <ele>311.4</ele>
        <time>2021-06-03T08:26:50Z</time>
      </trkpt>
      <trkpt lat="47.2062" lon="6.01492">
        <ele>311.6</ele>
        <time>2021-06-03T08:26:51Z</time>
      </trkpt>
      <trkpt lat="47.20622" lon="6.01494">
        <ele>311.6</ele>
        <time>2021-06-03T08:26:52Z</time>
      </trkpt>
      <trkpt lat="47.20624" lon="6.01496">
        <ele>312</ele>
        <time>2021-06-03T08:26:53Z</time>
      </trkpt>
      <trkpt lat="47.20626" lon="6.01497">
        <ele>312</ele>
        <time>2021-06-03T08:26:54Z</time>
      </trkpt>
      <trkpt lat="47.20628" lon="6.01498">
        <ele>312.2</ele>
        <time>2021-06-03T08:26:55Z</time>
      </trkpt>
      <trkpt lat="47.2063" lon="6.01499">
        <ele>312.4</ele>
        <time>2021-06-03T08:26:56Z</time>
      </trkpt>
      <trkpt lat="47.20632" lon="6.015">
        <ele>312.4</ele>
        <time>2021-06-03T08:26:57Z</time>
      </trkpt>
      <trkpt lat="47.20635" lon="6.01501">
        <ele>312.6</ele>
        <time>2021-06-03T08:26:58Z</time>
      </trkpt>
      <trkpt lat="47.20637" lon="6.01502">
        <ele>312.6</ele>
        <time>2021-06-03T08:26:59Z</time>
      </trkpt>
      <trkpt lat="47.20639" lon="6.01503">
        <ele>312.8</ele>
        <time>2021-06-03T08:27:00Z</time>
      </trkpt>
      <trkpt lat="47.20641" lon="6.01505">
        <ele>313</ele>
        <time>2021-06-03T08:27:01Z</time>
      </trkpt>
      <trkpt lat="47.20643" lon="6.01506">
        <ele>313</ele>
        <time>2021-06-03T08:27:02Z</time>
      </trkpt>
      <trkpt lat="47.20644" lon="6.01508">
        <ele>313.2</ele>
        <time>2021-06-03T08:27:03Z</time>
      </trkpt>
      <trkpt lat="47.20647" lon="6.01509">
        <ele>313.4</ele>
        <time>2021-06-03T08:27:04Z</time>
      </trkpt>
      <trkpt lat="47.20648" lon="6.0151">
        <ele>313.6</ele>
        <time>2021-06-03T08:27:05Z</time>
      </trkpt>
      <trkpt lat="47.2065" lon="6.01512">
        <ele>313.8</ele>
        <time>2021-06-03T08:27:06Z</time>
      </trkpt>
      <trkpt lat="47.20652" lon="6.01513">
        <ele>314</ele>
        <time>2021-06-03T08:27:07Z</time>
      </trkpt>
      <trkpt lat="47.20653" lon="6.01515">
        <ele>314.6</ele>
        <time>2021-06-03T08:27:08Z</time>
      </trkpt>
      <trkpt lat="47.20654" lon="6.01516">
        <ele>314.8</ele>
        <time>2021-06-03T08:27:09Z</time>
      </trkpt>
      <trkpt lat="47.20656" lon="6.01518">
        <ele>315</ele>
        <time>2021-06-03T08:27:10Z</time>
      </trkpt>
      <trkpt lat="47.20657" lon="6.01519">
        <ele>315.2</ele>
        <time>2021-06-03T08:27:11Z</time>
      </trkpt>
      <trkpt lat="47.20659" lon="6.01521">
        <ele>315.4</ele>
        <time>2021-06-03T08:27:12Z</time>
      </trkpt>
      <trkpt lat="47.20661" lon="6.01523">
        <ele>315.6</ele>
        <time>2021-06-03T08:27:13Z</time>
      </trkpt>
      <trkpt lat="47.20662" lon="6.01525">
        <ele>315.8</ele>
        <time>2021-06-03T08:27:14Z</time>
      </trkpt>
      <trkpt lat="47.20664" lon="6.01527">
        <ele>316</ele>
        <time>2021-06-03T08:27:15Z</time>
      </trkpt>
      <trkpt lat="47.20665" lon="6.01528">
        <ele>316.2</ele>
        <time>2021-06-03T08:27:16Z</time>
      </trkpt>
      <trkpt lat="47.20667" lon="6.0153">
        <ele>316.4</ele>
        <time>2021-06-03T08:27:17Z</time>
      </trkpt>
      <trkpt lat="47.20668" lon="6.01532">
        <ele>316.6</ele>
        <time>2021-06-03T08:27:18Z</time>
      </trkpt>
      <trkpt lat="47.20669" lon="6.01534">
        <ele>317</ele>
        <time>2021-06-03T08:27:19Z</time>
      </trkpt>
      <trkpt lat="47.20671" lon="6.01536">
        <ele>317.2</ele>
        <time>2021-06-03T08:27:20Z</time>
      </trkpt>
      <trkpt lat="47.20672" lon="6.01538">
        <ele>317.4</ele>
        <time>2021-06-03T08:27:21Z</time>
      </trkpt>
      <trkpt lat="47.20673" lon="6.0154">
        <ele>317.6</ele>
        <time>2021-06-03T08:27:22Z</time>
      </trkpt>
      <trkpt lat="47.20675" lon="6.01542">
        <ele>317.8</ele>
        <time>2021-06-03T08:27:23Z</time>
      </trkpt>
      <trkpt lat="47.20676" lon="6.01544">
        <ele>318.2</ele>
        <time>2021-06-03T08:27:24Z</time>
      </trkpt>
      <trkpt lat="47.20677" lon="6.01547">
        <ele>318.4</ele>
        <time>2021-06-03T08:27:25Z</time>
      </trkpt>
      <trkpt lat="47.20678" lon="6.01549">
        <ele>318.6</ele>
        <time>2021-06-03T08:27:26Z</time>
      </trkpt>
      <trkpt lat="47.20679" lon="6.0155">
        <ele>318.8</ele>
        <time>2021-06-03T08:27:27Z</time>
      </trkpt>
      <trkpt lat="47.2068" lon="6.01552">
        <ele>319</ele>
        <time>2021-06-03T08:27:28Z</time>
      </trkpt>
      <trkpt lat="47.20681" lon="6.01554">
        <ele>319.2</ele>
        <time>2021-06-03T08:27:29Z</time>
      </trkpt>
      <trkpt lat="47.20682" lon="6.01556">
        <ele>319.2</ele>
        <time>2021-06-03T08:27:30Z</time>
      </trkpt>
      <trkpt lat="47.20684" lon="6.01558">
        <ele>319.4</ele>
        <time>2021-06-03T08:27:31Z</time>
      </trkpt>
      <trkpt lat="47.20685" lon="6.0156">
        <ele>319.4</ele>
        <time>2021-06-03T08:27:32Z</time>
      </trkpt>
      <trkpt lat="47.20686" lon="6.01562">
        <ele>319.6</ele>
        <time>2021-06-03T08:27:33Z</time>
      </trkpt>
      <trkpt lat="47.20687" lon="6.01564">
        <ele>319.4</ele>
        <time>2021-06-03T08:27:34Z</time>
      </trkpt>
      <trkpt lat="47.20688" lon="6.01566">
        <ele>319.6</ele>
        <time>2021-06-03T08:27:35Z</time>
      </trkpt>
      <trkpt lat="47.20689" lon="6.01567">
        <ele>319.8</ele>
        <time>2021-06-03T08:27:36Z</time>
      </trkpt>
      <trkpt lat="47.2069" lon="6.01569">
        <ele>319.8</ele>
        <time>2021-06-03T08:27:37Z</time>
      </trkpt>
      <trkpt lat="47.20691" lon="6.01571">
        <ele>320</ele>
        <time>2021-06-03T08:27:38Z</time>
      </trkpt>
      <trkpt lat="47.20692" lon="6.01573">
        <ele>320.2</ele>
        <time>2021-06-03T08:27:39Z</time>
      </trkpt>
      <trkpt lat="47.20693" lon="6.01575">
        <ele>320.4</ele>
        <time>2021-06-03T08:27:40Z</time>
      </trkpt>
      <trkpt lat="47.20694" lon="6.01577">
        <ele>320.6</ele>
        <time>2021-06-03T08:27:41Z</time>
      </trkpt>
      <trkpt lat="47.20695" lon="6.01578">
        <ele>320.8</ele>
        <time>2021-06-03T08:27:42Z</time>
      </trkpt>
      <trkpt lat="47.20696" lon="6.0158">
        <ele>321</ele>
        <time>2021-06-03T08:27:43Z</time>
      </trkpt>
      <trkpt lat="47.20697" lon="6.01582">
        <ele>321.2</ele>
        <time>2021-06-03T08:27:44Z</time>
      </trkpt>
      <trkpt lat="47.20698" lon="6.01585">
        <ele>321.4</ele>
        <time>2021-06-03T08:27:45Z</time>
      </trkpt>
      <trkpt lat="47.20699" lon="6.01587">
        <ele>321.4</ele>
        <time>2021-06-03T08:27:46Z</time>
      </trkpt>
      <trkpt lat="47.207" lon="6.01589">
        <ele>321.6</ele>
        <time>2021-06-03T08:27:47Z</time>
      </trkpt>
      <trkpt lat="47.20701" lon="6.01591">
        <ele>321.8</ele>
        <time>2021-06-03T08:27:48Z</time>
      </trkpt>
      <trkpt lat="47.20702" lon="6.01593">
        <ele>322</ele>
        <time>2021-06-03T08:27:49Z</time>
      </trkpt>
      <trkpt lat="47.20702" lon="6.01596">
        <ele>322.2</ele>
        <time>2021-06-03T08:27:50Z</time>
      </trkpt>
      <trkpt lat="47.20703" lon="6.01598">
        <ele>322.4</ele>
        <time>2021-06-03T08:27:51Z</time>
      </trkpt>
      <trkpt lat="47.20704" lon="6.016">
        <ele>322.6</ele>
        <time>2021-06-03T08:27:52Z</time>
      </trkpt>
      <trkpt lat="47.20706" lon="6.01602">
        <ele>322.8</ele>
        <time>2021-06-03T08:27:53Z</time>
      </trkpt>
      <trkpt lat="47.20707" lon="6.01605">
        <ele>323</ele>
        <time>2021-06-03T08:27:54Z</time>
      </trkpt>
      <trkpt lat="47.20708" lon="6.01607">
        <ele>323.2</ele>
        <time>2021-06-03T08:27:55Z</time>
      </trkpt>
      <trkpt lat="47.20709" lon="6.01608">
        <ele>323.2</ele>
        <time>2021-06-03T08:27:56Z</time>
      </trkpt>
      <trkpt lat="47.2071" lon="6.01611">
        <ele>323.4</ele>
        <time>2021-06-03T08:27:57Z</time>
      </trkpt>
      <trkpt lat="47.20711" lon="6.01613">
        <ele>323.6</ele>
        <time>2021-06-03T08:27:58Z</time>
      </trkpt>
      <trkpt lat="47.20711" lon="6.01616">
        <ele>323.8</ele>
        <time>2021-06-03T08:27:59Z</time>
      </trkpt>
      <trkpt lat="47.20712" lon="6.01618">
        <ele>324.4</ele>
        <time>2021-06-03T08:28:00Z</time>
      </trkpt>
      <trkpt lat="47.20713" lon="6.01621">
        <ele>324.6</ele>
        <time>2021-06-03T08:28:01Z</time>
      </trkpt>
      <trkpt lat="47.20713" lon="6.01622">
        <ele>325</ele>
        <time>2021-06-03T08:28:02Z</time>
      </trkpt>
      <trkpt lat="47.20713" lon="6.01625">
        <ele>325</ele>
        <time>2021-06-03T08:28:03Z</time>
      </trkpt>
      <trkpt lat="47.20714" lon="6.01627">
        <ele>325.2</ele>
        <time>2021-06-03T08:28:04Z</time>
      </trkpt>
      <trkpt lat="47.20714" lon="6.01629">
        <ele>325.4</ele>
        <time>2021-06-03T08:28:05Z</time>
      </trkpt>
      <trkpt lat="47.20715" lon="6.01631">
        <ele>325.4</ele>
        <time>2021-06-03T08:28:06Z</time>
      </trkpt>
      <trkpt lat="47.20715" lon="6.01634">
        <ele>325.8</ele>
        <time>2021-06-03T08:28:07Z</time>
      </trkpt>
      <trkpt lat="47.20716" lon="6.01636">
        <ele>325.8</ele>
        <time>2021-06-03T08:28:08Z</time>
      </trkpt>
      <trkpt lat="47.20717" lon="6.01638">
        <ele>326</ele>
        <time>2021-06-03T08:28:09Z</time>
      </trkpt>
      <trkpt lat="47.20718" lon="6.0164">
        <ele>326</ele>
        <time>2021-06-03T08:28:10Z</time>
      </trkpt>
      <trkpt lat="47.20719" lon="6.01643">
        <ele>326.2</ele>
        <time>2021-06-03T08:28:11Z</time>
      </trkpt>
      <trkpt lat="47.2072" lon="6.01645">
        <ele>326.4</ele>
        <time>2021-06-03T08:28:12Z</time>
      </trkpt>
      <trkpt lat="47.2072" lon="6.01647">
        <ele>326.6</ele>
        <time>2021-06-03T08:28:13Z</time>
      </trkpt>
      <trkpt lat="47.20721" lon="6.01649">
        <ele>326.8</ele>
        <time>2021-06-03T08:28:14Z</time>
      </trkpt>
      <trkpt lat="47.20722" lon="6.01651">
        <ele>327</ele>
        <time>2021-06-03T08:28:15Z</time>
      </trkpt>
      <trkpt lat="47.20722" lon="6.01653">
        <ele>327.2</ele>
        <time>2021-06-03T08:28:16Z</time>
      </trkpt>
      <trkpt lat="47.20723" lon="6.01655">
        <ele>327.4</ele>
        <time>2021-06-03T08:28:17Z</time>
      </trkpt>
      <trkpt lat="47.20723" lon="6.01658">
        <ele>327.6</ele>
        <time>2021-06-03T08:28:18Z</time>
      </trkpt>
      <trkpt lat="47.20724" lon="6.0166">
        <ele>327.8</ele>
        <time>2021-06-03T08:28:19Z</time>
      </trkpt>
      <trkpt lat="47.20725" lon="6.01662">
        <ele>328</ele>
        <time>2021-06-03T08:28:20Z</time>
      </trkpt>
      <trkpt lat="47.20725" lon="6.01664">
        <ele>328.2</ele>
        <time>2021-06-03T08:28:21Z</time>
      </trkpt>
      <trkpt lat="47.20726" lon="6.01666">
        <ele>328.2</ele>
        <time>2021-06-03T08:28:22Z</time>
      </trkpt>
      <trkpt lat="47.20727" lon="6.01669">
        <ele>328.4</ele>
        <time>2021-06-03T08:28:23Z</time>
      </trkpt>
      <trkpt lat="47.20727" lon="6.01671">
        <ele>328.6</ele>
        <time>2021-06-03T08:28:24Z</time>
      </trkpt>
      <trkpt lat="47.20728" lon="6.01673">
        <ele>328.8</ele>
        <time>2021-06-03T08:28:25Z</time>
      </trkpt>
      <trkpt lat="47.20728" lon="6.01676">
        <ele>329</ele>
        <time>2021-06-03T08:28:26Z</time>
      </trkpt>
      <trkpt lat="47.20729" lon="6.01678">
        <ele>329.2</ele>
        <time>2021-06-03T08:28:27Z</time>
      </trkpt>
      <trkpt lat="47.2073" lon="6.0168">
        <ele>329.4</ele>
        <time>2021-06-03T08:28:28Z</time>
      </trkpt>
      <trkpt lat="47.2073" lon="6.01682">
        <ele>329.4</ele>
        <time>2021-06-03T08:28:29Z</time>
      </trkpt>
      <trkpt lat="47.20731" lon="6.01684">
        <ele>329.6</ele>
        <time>2021-06-03T08:28:30Z</time>
      </trkpt>
      <trkpt lat="47.20731" lon="6.01686">
        <ele>329.8</ele>
        <time>2021-06-03T08:28:31Z</time>
      </trkpt>
      <trkpt lat="47.20732" lon="6.01688">
        <ele>330</ele>
        <time>2021-06-03T08:28:32Z</time>
      </trkpt>
      <trkpt lat="47.20733" lon="6.0169">
        <ele>330.2</ele>
        <time>2021-06-03T08:28:33Z</time>
      </trkpt>
      <trkpt lat="47.20733" lon="6.01692">
        <ele>330</ele>
        <time>2021-06-03T08:28:34Z</time>
      </trkpt>
      <trkpt lat="47.20734" lon="6.01694">
        <ele>330.2</ele>
        <time>2021-06-03T08:28:35Z</time>
      </trkpt>
      <trkpt lat="47.20735" lon="6.01696">
        <ele>330.4</ele>
        <time>2021-06-03T08:28:36Z</time>
      </trkpt>
      <trkpt lat="47.20736" lon="6.01698">
        <ele>330.8</ele>
        <time>2021-06-03T08:28:37Z</time>
      </trkpt>
      <trkpt lat="47.20737" lon="6.017">
        <ele>330.8</ele>
        <time>2021-06-03T08:28:38Z</time>
      </trkpt>
      <trkpt lat="47.20738" lon="6.01702">
        <ele>330.8</ele>
        <time>2021-06-03T08:28:39Z</time>
      </trkpt>
      <trkpt lat="47.20738" lon="6.01705">
        <ele>331.2</ele>
        <time>2021-06-03T08:28:40Z</time>
      </trkpt>
      <trkpt lat="47.20739" lon="6.01707">
        <ele>331.4</ele>
        <time>2021-06-03T08:28:41Z</time>
      </trkpt>
      <trkpt lat="47.2074" lon="6.01709">
        <ele>331.6</ele>
        <time>2021-06-03T08:28:42Z</time>
      </trkpt>
      <trkpt lat="47.20741" lon="6.01711">
        <ele>331.6</ele>
        <time>2021-06-03T08:28:43Z</time>
      </trkpt>
      <trkpt lat="47.20741" lon="6.01713">
        <ele>331.8</ele>
        <time>2021-06-03T08:28:44Z</time>
      </trkpt>
      <trkpt lat="47.20742" lon="6.01716">
        <ele>331.8</ele>
        <time>2021-06-03T08:28:45Z</time>
      </trkpt>
      <trkpt lat="47.20743" lon="6.01718">
        <ele>332</ele>
        <time>2021-06-03T08:28:46Z</time>
      </trkpt>
      <trkpt lat="47.20744" lon="6.0172">
        <ele>332</ele>
        <time>2021-06-03T08:28:47Z</time>
      </trkpt>
      <trkpt lat="47.20745" lon="6.01723">
        <ele>332.2</ele>
        <time>2021-06-03T08:28:48Z</time>
      </trkpt>
      <trkpt lat="47.20746" lon="6.01725">
        <ele>332.4</ele>
        <time>2021-06-03T08:28:49Z</time>
      </trkpt>
      <trkpt lat="47.20747" lon="6.01727">
        <ele>332.6</ele>
        <time>2021-06-03T08:28:50Z</time>
      </trkpt>
      <trkpt lat="47.20748" lon="6.01729">
        <ele>332.6</ele>
        <time>2021-06-03T08:28:51Z</time>
      </trkpt>
      <trkpt lat="47.20749" lon="6.01732">
        <ele>332.8</ele>
        <time>2021-06-03T08:28:52Z</time>
      </trkpt>
      <trkpt lat="47.20749" lon="6.01734">
        <ele>333</ele>
        <time>2021-06-03T08:28:53Z</time>
      </trkpt>
      <trkpt lat="47.2075" lon="6.01736">
        <ele>333</ele>
        <time>2021-06-03T08:28:54Z</time>
      </trkpt>
      <trkpt lat="47.20751" lon="6.01739">
        <ele>333.2</ele>
        <time>2021-06-03T08:28:55Z</time>
      </trkpt>
      <trkpt lat="47.20752" lon="6.01741">
        <ele>333.6</ele>
        <time>2021-06-03T08:28:56Z</time>
      </trkpt>
      <trkpt lat="47.20753" lon="6.01743">
        <ele>333.8</ele>
        <time>2021-06-03T08:28:57Z</time>
      </trkpt>
      <trkpt lat="47.20754" lon="6.01745">
        <ele>333.8</ele>
        <time>2021-06-03T08:28:58Z</time>
      </trkpt>
      <trkpt lat="47.20755" lon="6.01747">
        <ele>334.2</ele>
        <time>2021-06-03T08:28:59Z</time>
      </trkpt>
      <trkpt lat="47.20756" lon="6.01749">
        <ele>334.2</ele>
        <time>2021-06-03T08:29:00Z</time>
      </trkpt>
      <trkpt lat="47.20757" lon="6.0175">
        <ele>334.4</ele>
        <time>2021-06-03T08:29:01Z</time>
      </trkpt>
      <trkpt lat="47.20757" lon="6.01751">
        <ele>334.6</ele>
        <time>2021-06-03T08:29:02Z</time>
      </trkpt>
      <trkpt lat="47.20758" lon="6.01754">
        <ele>334.8</ele>
        <time>2021-06-03T08:29:03Z</time>
      </trkpt>
      <trkpt lat="47.20759" lon="6.01756">
        <ele>335.2</ele>
        <time>2021-06-03T08:29:04Z</time>
      </trkpt>
      <trkpt lat="47.20759" lon="6.01759">
        <ele>335.4</ele>
        <time>2021-06-03T08:29:05Z</time>
      </trkpt>
      <trkpt lat="47.2076" lon="6.01761">
        <ele>335.6</ele>
        <time>2021-06-03T08:29:06Z</time>
      </trkpt>
      <trkpt lat="47.20761" lon="6.01763">
        <ele>335.6</ele>
        <time>2021-06-03T08:29:07Z</time>
      </trkpt>
      <trkpt lat="47.20762" lon="6.01765">
        <ele>335.8</ele>
        <time>2021-06-03T08:29:08Z</time>
      </trkpt>
      <trkpt lat="47.20763" lon="6.01767">
        <ele>335.8</ele>
        <time>2021-06-03T08:29:09Z</time>
      </trkpt>
      <trkpt lat="47.20764" lon="6.01768">
        <ele>335.8</ele>
        <time>2021-06-03T08:29:10Z</time>
      </trkpt>
      <trkpt lat="47.20765" lon="6.0177">
        <ele>336</ele>
        <time>2021-06-03T08:29:11Z</time>
      </trkpt>
      <trkpt lat="47.20766" lon="6.01773">
        <ele>336.2</ele>
        <time>2021-06-03T08:29:12Z</time>
      </trkpt>
      <trkpt lat="47.20767" lon="6.01775">
        <ele>336.4</ele>
        <time>2021-06-03T08:29:13Z</time>
      </trkpt>
      <trkpt lat="47.20768" lon="6.01777">
        <ele>336.4</ele>
        <time>2021-06-03T08:29:14Z</time>
      </trkpt>
      <trkpt lat="47.20769" lon="6.01779">
        <ele>336.6</ele>
        <time>2021-06-03T08:29:15Z</time>
      </trkpt>
      <trkpt lat="47.2077" lon="6.01781">
        <ele>336.8</ele>
        <time>2021-06-03T08:29:16Z</time>
      </trkpt>
      <trkpt lat="47.20771" lon="6.01782">
        <ele>337</ele>
        <time>2021-06-03T08:29:17Z</time>
      </trkpt>
      <trkpt lat="47.20772" lon="6.01784">
        <ele>337.2</ele>
        <time>2021-06-03T08:29:18Z</time>
      </trkpt>
      <trkpt lat="47.20773" lon="6.01787">
        <ele>337.2</ele>
        <time>2021-06-03T08:29:19Z</time>
      </trkpt>
      <trkpt lat="47.20774" lon="6.01789">
        <ele>337.4</ele>
        <time>2021-06-03T08:29:20Z</time>
      </trkpt>
      <trkpt lat="47.20775" lon="6.01791">
        <ele>337.6</ele>
        <time>2021-06-03T08:29:21Z</time>
      </trkpt>
      <trkpt lat="47.20776" lon="6.01793">
        <ele>337.8</ele>
        <time>2021-06-03T08:29:22Z</time>
      </trkpt>
      <trkpt lat="47.20778" lon="6.01794">
        <ele>338</ele>
        <time>2021-06-03T08:29:23Z</time>
      </trkpt>
      <trkpt lat="47.20779" lon="6.01797">
        <ele>338</ele>
        <time>2021-06-03T08:29:24Z</time>
      </trkpt>
      <trkpt lat="47.2078" lon="6.01799">
        <ele>338.2</ele>
        <time>2021-06-03T08:29:25Z</time>
      </trkpt>
      <trkpt lat="47.2078" lon="6.01801">
        <ele>338.2</ele>
        <time>2021-06-03T08:29:26Z</time>
      </trkpt>
      <trkpt lat="47.20782" lon="6.01804">
        <ele>338.4</ele>
        <time>2021-06-03T08:29:27Z</time>
      </trkpt>
      <trkpt lat="47.20782" lon="6.01805">
        <ele>338.4</ele>
        <time>2021-06-03T08:29:28Z</time>
      </trkpt>
      <trkpt lat="47.20783" lon="6.01808">
        <ele>338.6</ele>
        <time>2021-06-03T08:29:29Z</time>
      </trkpt>
      <trkpt lat="47.20784" lon="6.01809">
        <ele>338.8</ele>
        <time>2021-06-03T08:29:30Z</time>
      </trkpt>
      <trkpt lat="47.20785" lon="6.01811">
        <ele>339</ele>
        <time>2021-06-03T08:29:31Z</time>
      </trkpt>
      <trkpt lat="47.20786" lon="6.01813">
        <ele>339.4</ele>
        <time>2021-06-03T08:29:32Z</time>
      </trkpt>
      <trkpt lat="47.20787" lon="6.01815">
        <ele>339.6</ele>
        <time>2021-06-03T08:29:33Z</time>
      </trkpt>
      <trkpt lat="47.20788" lon="6.01817">
        <ele>339.6</ele>
        <time>2021-06-03T08:29:34Z</time>
      </trkpt>
      <trkpt lat="47.20789" lon="6.0182">
        <ele>339.8</ele>
        <time>2021-06-03T08:29:35Z</time>
      </trkpt>
      <trkpt lat="47.2079" lon="6.01822">
        <ele>339.8</ele>
        <time>2021-06-03T08:29:36Z</time>
      </trkpt>
      <trkpt lat="47.20791" lon="6.01824">
        <ele>340</ele>
        <time>2021-06-03T08:29:37Z</time>
      </trkpt>
      <trkpt lat="47.20792" lon="6.01826">
        <ele>340.2</ele>
        <time>2021-06-03T08:29:38Z</time>
      </trkpt>
      <trkpt lat="47.20792" lon="6.01828">
        <ele>340.4</ele>
        <time>2021-06-03T08:29:39Z</time>
      </trkpt>
      <trkpt lat="47.20793" lon="6.0183">
        <ele>340.6</ele>
        <time>2021-06-03T08:29:40Z</time>
      </trkpt>
      <trkpt lat="47.20794" lon="6.01832">
        <ele>340.8</ele>
        <time>2021-06-03T08:29:41Z</time>
      </trkpt>
      <trkpt lat="47.20794" lon="6.01835">
        <ele>341</ele>
        <time>2021-06-03T08:29:42Z</time>
      </trkpt>
      <trkpt lat="47.20795" lon="6.01837">
        <ele>341.2</ele>
        <time>2021-06-03T08:29:43Z</time>
      </trkpt>
      <trkpt lat="47.20796" lon="6.0184">
        <ele>341.2</ele>
        <time>2021-06-03T08:29:44Z</time>
      </trkpt>
      <trkpt lat="47.20796" lon="6.01842">
        <ele>341.4</ele>
        <time>2021-06-03T08:29:45Z</time>
      </trkpt>
      <trkpt lat="47.20797" lon="6.01844">
        <ele>341.4</ele>
        <time>2021-06-03T08:29:46Z</time>
      </trkpt>
      <trkpt lat="47.20797" lon="6.01847">
        <ele>341.6</ele>
        <time>2021-06-03T08:29:47Z</time>
      </trkpt>
      <trkpt lat="47.20798" lon="6.0185">
        <ele>341.6</ele>
        <time>2021-06-03T08:29:48Z</time>
      </trkpt>
      <trkpt lat="47.20798" lon="6.01852">
        <ele>342</ele>
        <time>2021-06-03T08:29:49Z</time>
      </trkpt>
      <trkpt lat="47.20799" lon="6.01855">
        <ele>342.2</ele>
        <time>2021-06-03T08:29:50Z</time>
      </trkpt>
      <trkpt lat="47.208" lon="6.01857">
        <ele>342.6</ele>
        <time>2021-06-03T08:29:51Z</time>
      </trkpt>
      <trkpt lat="47.208" lon="6.0186">
        <ele>342.6</ele>
        <time>2021-06-03T08:29:52Z</time>
      </trkpt>
      <trkpt lat="47.208" lon="6.01863">
        <ele>342.8</ele>
        <time>2021-06-03T08:29:53Z</time>
      </trkpt>
      <trkpt lat="47.20801" lon="6.01866">
        <ele>343</ele>
        <time>2021-06-03T08:29:54Z</time>
      </trkpt>
      <trkpt lat="47.20801" lon="6.01868">
        <ele>343</ele>
        <time>2021-06-03T08:29:55Z</time>
      </trkpt>
      <trkpt lat="47.20801" lon="6.01871">
        <ele>343.2</ele>
        <time>2021-06-03T08:29:56Z</time>
      </trkpt>
      <trkpt lat="47.208" lon="6.01874">
        <ele>343.2</ele>
        <time>2021-06-03T08:29:57Z</time>
      </trkpt>
      <trkpt lat="47.208" lon="6.01877">
        <ele>343.4</ele>
        <time>2021-06-03T08:29:58Z</time>
      </trkpt>
      <trkpt lat="47.208" lon="6.0188">
        <ele>343.4</ele>
        <time>2021-06-03T08:29:59Z</time>
      </trkpt>
      <trkpt lat="47.208" lon="6.01882">
        <ele>343.4</ele>
        <time>2021-06-03T08:30:00Z</time>
      </trkpt>
      <trkpt lat="47.208" lon="6.01885">
        <ele>343.4</ele>
        <time>2021-06-03T08:30:01Z</time>
      </trkpt>
      <trkpt lat="47.208" lon="6.01887">
        <ele>343.6</ele>
        <time>2021-06-03T08:30:02Z</time>
      </trkpt>
      <trkpt lat="47.20801" lon="6.01889">
        <ele>343.6</ele>
        <time>2021-06-03T08:30:03Z</time>
      </trkpt>
      <trkpt lat="47.20802" lon="6.01891">
        <ele>343.6</ele>
        <time>2021-06-03T08:30:04Z</time>
      </trkpt>
      <trkpt lat="47.20803" lon="6.01893">
        <ele>344</ele>
        <time>2021-06-03T08:30:05Z</time>
      </trkpt>
      <trkpt lat="47.20804" lon="6.01894">
        <ele>344.2</ele>
        <time>2021-06-03T08:30:06Z</time>
      </trkpt>
      <trkpt lat="47.20806" lon="6.01894">
        <ele>344.4</ele>
        <time>2021-06-03T08:30:07Z</time>
      </trkpt>
      <trkpt lat="47.20808" lon="6.01895">
        <ele>344.6</ele>
        <time>2021-06-03T08:30:08Z</time>
      </trkpt>
      <trkpt lat="47.2081" lon="6.01894">
        <ele>344.6</ele>
        <time>2021-06-03T08:30:09Z</time>
      </trkpt>
      <trkpt lat="47.20812" lon="6.01894">
        <ele>344.8</ele>
        <time>2021-06-03T08:30:10Z</time>
      </trkpt>
      <trkpt lat="47.20813" lon="6.01894">
        <ele>345</ele>
        <time>2021-06-03T08:30:11Z</time>
      </trkpt>
      <trkpt lat="47.20815" lon="6.01893">
        <ele>345.2</ele>
        <time>2021-06-03T08:30:12Z</time>
      </trkpt>
      <trkpt lat="47.20817" lon="6.01892">
        <ele>345.4</ele>
        <time>2021-06-03T08:30:13Z</time>
      </trkpt>
      <trkpt lat="47.20818" lon="6.0189">
        <ele>345.4</ele>
        <time>2021-06-03T08:30:14Z</time>
      </trkpt>
      <trkpt lat="47.20819" lon="6.01888">
        <ele>345.6</ele>
        <time>2021-06-03T08:30:15Z</time>
      </trkpt>
      <trkpt lat="47.2082" lon="6.01887">
        <ele>345.8</ele>
        <time>2021-06-03T08:30:16Z</time>
      </trkpt>
      <trkpt lat="47.20821" lon="6.01885">
        <ele>346</ele>
        <time>2021-06-03T08:30:17Z</time>
      </trkpt>
      <trkpt lat="47.20822" lon="6.01883">
        <ele>346.2</ele>
        <time>2021-06-03T08:30:18Z</time>
      </trkpt>
      <trkpt lat="47.20823" lon="6.01881">
        <ele>346.4</ele>
        <time>2021-06-03T08:30:19Z</time>
      </trkpt>
      <trkpt lat="47.20823" lon="6.01879">
        <ele>347</ele>
        <time>2021-06-03T08:30:20Z</time>
      </trkpt>
      <trkpt lat="47.20824" lon="6.01877">
        <ele>347</ele>
        <time>2021-06-03T08:30:21Z</time>
      </trkpt>
      <trkpt lat="47.20825" lon="6.01876">
        <ele>347.4</ele>
        <time>2021-06-03T08:30:22Z</time>
      </trkpt>
      <trkpt lat="47.20826" lon="6.01874">
        <ele>347.6</ele>
        <time>2021-06-03T08:30:23Z</time>
      </trkpt>
      <trkpt lat="47.20826" lon="6.01871">
        <ele>347.6</ele>
        <time>2021-06-03T08:30:24Z</time>
      </trkpt>
      <trkpt lat="47.20827" lon="6.01869">
        <ele>347.8</ele>
        <time>2021-06-03T08:30:25Z</time>
      </trkpt>
      <trkpt lat="47.20827" lon="6.01867">
        <ele>347.8</ele>
        <time>2021-06-03T08:30:26Z</time>
      </trkpt>
      <trkpt lat="47.20828" lon="6.01865">
        <ele>348</ele>
        <time>2021-06-03T08:30:27Z</time>
      </trkpt>
      <trkpt lat="47.20829" lon="6.01862">
        <ele>348</ele>
        <time>2021-06-03T08:30:28Z</time>
      </trkpt>
      <trkpt lat="47.20829" lon="6.01859">
        <ele>348.2</ele>
        <time>2021-06-03T08:30:29Z</time>
      </trkpt>
      <trkpt lat="47.2083" lon="6.01856">
        <ele>348.2</ele>
        <time>2021-06-03T08:30:30Z</time>
      </trkpt>
      <trkpt lat="47.2083" lon="6.01853">
        <ele>348.6</ele>
        <time>2021-06-03T08:30:31Z</time>
      </trkpt>
      <trkpt lat="47.2083" lon="6.01851">
        <ele>348.8</ele>
        <time>2021-06-03T08:30:32Z</time>
      </trkpt>
      <trkpt lat="47.2083" lon="6.01848">
        <ele>348.8</ele>
        <time>2021-06-03T08:30:33Z</time>
      </trkpt>
      <trkpt lat="47.2083" lon="6.01845">
        <ele>349</ele>
        <time>2021-06-03T08:30:34Z</time>
      </trkpt>
      <trkpt lat="47.2083" lon="6.01843">
        <ele>349</ele>
        <time>2021-06-03T08:30:35Z</time>
      </trkpt>
      <trkpt lat="47.2083" lon="6.01841">
        <ele>349.2</ele>
        <time>2021-06-03T08:30:36Z</time>
      </trkpt>
      <trkpt lat="47.2083" lon="6.01838">
        <ele>349.2</ele>
        <time>2021-06-03T08:30:37Z</time>
      </trkpt>
      <trkpt lat="47.20831" lon="6.01836">
        <ele>349.4</ele>
        <time>2021-06-03T08:30:38Z</time>
      </trkpt>
      <trkpt lat="47.20832" lon="6.01833">
        <ele>349.4</ele>
        <time>2021-06-03T08:30:39Z</time>
      </trkpt>
      <trkpt lat="47.20833" lon="6.01831">
        <ele>349.6</ele>
        <time>2021-06-03T08:30:40Z</time>
      </trkpt>
      <trkpt lat="47.20833" lon="6.01828">
        <ele>350</ele>
        <time>2021-06-03T08:30:41Z</time>
      </trkpt>
      <trkpt lat="47.20835" lon="6.01826">
        <ele>350</ele>
        <time>2021-06-03T08:30:42Z</time>
      </trkpt>
      <trkpt lat="47.20835" lon="6.01824">
        <ele>350.4</ele>
        <time>2021-06-03T08:30:43Z</time>
      </trkpt>
      <trkpt lat="47.20836" lon="6.0182">
        <ele>350.4</ele>
        <time>2021-06-03T08:30:44Z</time>
      </trkpt>
      <trkpt lat="47.20837" lon="6.01816">
        <ele>350.6</ele>
        <time>2021-06-03T08:30:45Z</time>
      </trkpt>
      <trkpt lat="47.20838" lon="6.01815">
        <ele>350.8</ele>
        <time>2021-06-03T08:30:46Z</time>
      </trkpt>
      <trkpt lat="47.20838" lon="6.01812">
        <ele>350.8</ele>
        <time>2021-06-03T08:30:47Z</time>
      </trkpt>
      <trkpt lat="47.20839" lon="6.01809">
        <ele>351</ele>
        <time>2021-06-03T08:30:48Z</time>
      </trkpt>
      <trkpt lat="47.20839" lon="6.01806">
        <ele>351.2</ele>
        <time>2021-06-03T08:30:49Z</time>
      </trkpt>
      <trkpt lat="47.20839" lon="6.01803">
        <ele>351.6</ele>
        <time>2021-06-03T08:30:50Z</time>
      </trkpt>
      <trkpt lat="47.2084" lon="6.01801">
        <ele>351.8</ele>
        <time>2021-06-03T08:30:51Z</time>
      </trkpt>
      <trkpt lat="47.2084" lon="6.018">
        <ele>352</ele>
        <time>2021-06-03T08:30:52Z</time>
      </trkpt>
      <trkpt lat="47.20841" lon="6.01797">
        <ele>352.4</ele>
        <time>2021-06-03T08:30:53Z</time>
      </trkpt>
      <trkpt lat="47.20841" lon="6.01793">
        <ele>352.6</ele>
        <time>2021-06-03T08:30:54Z</time>
      </trkpt>
      <trkpt lat="47.20841" lon="6.01791">
        <ele>352.8</ele>
        <time>2021-06-03T08:30:55Z</time>
      </trkpt>
      <trkpt lat="47.20842" lon="6.01789">
        <ele>352.8</ele>
        <time>2021-06-03T08:30:56Z</time>
      </trkpt>
      <trkpt lat="47.20842" lon="6.01787">
        <ele>353</ele>
        <time>2021-06-03T08:30:57Z</time>
      </trkpt>
      <trkpt lat="47.20842" lon="6.01784">
        <ele>353.2</ele>
        <time>2021-06-03T08:30:58Z</time>
      </trkpt>
      <trkpt lat="47.20843" lon="6.01781">
        <ele>353.4</ele>
        <time>2021-06-03T08:30:59Z</time>
      </trkpt>
      <trkpt lat="47.20843" lon="6.01779">
        <ele>353.6</ele>
        <time>2021-06-03T08:31:00Z</time>
      </trkpt>
      <trkpt lat="47.20842" lon="6.01777">
        <ele>353.8</ele>
        <time>2021-06-03T08:31:01Z</time>
      </trkpt>
      <trkpt lat="47.20842" lon="6.01774">
        <ele>354</ele>
        <time>2021-06-03T08:31:02Z</time>
      </trkpt>
      <trkpt lat="47.20842" lon="6.01772">
        <ele>354</ele>
        <time>2021-06-03T08:31:03Z</time>
      </trkpt>
      <trkpt lat="47.20842" lon="6.01769">
        <ele>354</ele>
        <time>2021-06-03T08:31:04Z</time>
      </trkpt>
      <trkpt lat="47.20841" lon="6.01767">
        <ele>354.4</ele>
        <time>2021-06-03T08:31:05Z</time>
      </trkpt>
      <trkpt lat="47.20841" lon="6.01765">
        <ele>354.4</ele>
        <time>2021-06-03T08:31:06Z</time>
      </trkpt>
      <trkpt lat="47.2084" lon="6.01762">
        <ele>354.6</ele>
        <time>2021-06-03T08:31:07Z</time>
      </trkpt>
      <trkpt lat="47.2084" lon="6.01759">
        <ele>354.8</ele>
        <time>2021-06-03T08:31:08Z</time>
      </trkpt>
      <trkpt lat="47.20839" lon="6.01757">
        <ele>355</ele>
        <time>2021-06-03T08:31:09Z</time>
      </trkpt>
      <trkpt lat="47.20838" lon="6.01755">
        <ele>355.2</ele>
        <time>2021-06-03T08:31:10Z</time>
      </trkpt>
      <trkpt lat="47.20837" lon="6.01752">
        <ele>355.2</ele>
        <time>2021-06-03T08:31:11Z</time>
      </trkpt>
      <trkpt lat="47.20837" lon="6.0175">
        <ele>355.6</ele>
        <time>2021-06-03T08:31:12Z</time>
      </trkpt>
      <trkpt lat="47.20836" lon="6.01748">
        <ele>355.6</ele>
        <time>2021-06-03T08:31:13Z</time>
      </trkpt>
      <trkpt lat="47.20835" lon="6.01745">
        <ele>356</ele>
        <time>2021-06-03T08:31:14Z</time>
      </trkpt>
      <trkpt lat="47.20834" lon="6.01742">
        <ele>356</ele>
        <time>2021-06-03T08:31:15Z</time>
      </trkpt>
      <trkpt lat="47.20833" lon="6.0174">
        <ele>356.2</ele>
        <time>2021-06-03T08:31:16Z</time>
      </trkpt>
      <trkpt lat="47.20831" lon="6.01738">
        <ele>356.6</ele>
        <time>2021-06-03T08:31:17Z</time>
      </trkpt>
      <trkpt lat="47.2083" lon="6.01736">
        <ele>356.6</ele>
        <time>2021-06-03T08:31:18Z</time>
      </trkpt>
      <trkpt lat="47.20829" lon="6.01734">
        <ele>356.8</ele>
        <time>2021-06-03T08:31:19Z</time>
      </trkpt>
      <trkpt lat="47.20827" lon="6.01732">
        <ele>356.8</ele>
        <time>2021-06-03T08:31:20Z</time>
      </trkpt>
      <trkpt lat="47.20826" lon="6.01731">
        <ele>357</ele>
        <time>2021-06-03T08:31:21Z</time>
      </trkpt>
      <trkpt lat="47.20825" lon="6.01729">
        <ele>357.2</ele>
        <time>2021-06-03T08:31:22Z</time>
      </trkpt>
      <trkpt lat="47.20823" lon="6.01727">
        <ele>357.2</ele>
        <time>2021-06-03T08:31:23Z</time>
      </trkpt>
      <trkpt lat="47.20822" lon="6.01726">
        <ele>357.4</ele>
        <time>2021-06-03T08:31:24Z</time>
      </trkpt>
      <trkpt lat="47.20821" lon="6.01724">
        <ele>357.6</ele>
        <time>2021-06-03T08:31:25Z</time>
      </trkpt>
      <trkpt lat="47.2082" lon="6.01722">
        <ele>357.8</ele>
        <time>2021-06-03T08:31:26Z</time>
      </trkpt>
      <trkpt lat="47.2082" lon="6.0172">
        <ele>358</ele>
        <time>2021-06-03T08:31:27Z</time>
      </trkpt>
      <trkpt lat="47.20819" lon="6.01719">
        <ele>358</ele>
        <time>2021-06-03T08:31:28Z</time>
      </trkpt>
      <trkpt lat="47.20818" lon="6.01717">
        <ele>358.2</ele>
        <time>2021-06-03T08:31:29Z</time>
      </trkpt>
      <trkpt lat="47.20818" lon="6.01716">
        <ele>358.4</ele>
        <time>2021-06-03T08:31:30Z</time>
      </trkpt>
      <trkpt lat="47.20816" lon="6.01714">
        <ele>358.8</ele>
        <time>2021-06-03T08:31:31Z</time>
      </trkpt>
      <trkpt lat="47.20816" lon="6.01711">
        <ele>359</ele>
        <time>2021-06-03T08:31:32Z</time>
      </trkpt>
      <trkpt lat="47.20814" lon="6.0171">
        <ele>359</ele>
        <time>2021-06-03T08:31:33Z</time>
      </trkpt>
      <trkpt lat="47.20814" lon="6.01707">
        <ele>359.2</ele>
        <time>2021-06-03T08:31:34Z</time>
      </trkpt>
      <trkpt lat="47.20813" lon="6.01705">
        <ele>359.2</ele>
        <time>2021-06-03T08:31:35Z</time>
      </trkpt>
      <trkpt lat="47.20812" lon="6.01703">
        <ele>359.4</ele>
        <time>2021-06-03T08:31:36Z</time>
      </trkpt>
      <trkpt lat="47.20812" lon="6.017">
        <ele>359.4</ele>
        <time>2021-06-03T08:31:37Z</time>
      </trkpt>
      <trkpt lat="47.20812" lon="6.01698">
        <ele>359.6</ele>
        <time>2021-06-03T08:31:38Z</time>
      </trkpt>
      <trkpt lat="47.20812" lon="6.01695">
        <ele>359.8</ele>
        <time>2021-06-03T08:31:39Z</time>
      </trkpt>
      <trkpt lat="47.20811" lon="6.01693">
        <ele>359.8</ele>
        <time>2021-06-03T08:31:40Z</time>
      </trkpt>
      <trkpt lat="47.20811" lon="6.0169">
        <ele>360</ele>
        <time>2021-06-03T08:31:41Z</time>
      </trkpt>
      <trkpt lat="47.20812" lon="6.01687">
        <ele>360.2</ele>
        <time>2021-06-03T08:31:42Z</time>
      </trkpt>
      <trkpt lat="47.20811" lon="6.01684">
        <ele>360.2</ele>
        <time>2021-06-03T08:31:43Z</time>
      </trkpt>
      <trkpt lat="47.20811" lon="6.01681">
        <ele>360.4</ele>
        <time>2021-06-03T08:31:44Z</time>
      </trkpt>
      <trkpt lat="47.20811" lon="6.01678">
        <ele>360.4</ele>
        <time>2021-06-03T08:31:45Z</time>
      </trkpt>
      <trkpt lat="47.20811" lon="6.01675">
        <ele>360.4</ele>
        <time>2021-06-03T08:31:46Z</time>
      </trkpt>
      <trkpt lat="47.20811" lon="6.01672">
        <ele>360.6</ele>
        <time>2021-06-03T08:31:47Z</time>
      </trkpt>
      <trkpt lat="47.20811" lon="6.01669">
        <ele>360.6</ele>
        <time>2021-06-03T08:31:48Z</time>
      </trkpt>
      <trkpt lat="47.20811" lon="6.01667">
        <ele>360.6</ele>
        <time>2021-06-03T08:31:49Z</time>
      </trkpt>
      <trkpt lat="47.20811" lon="6.01665">
        <ele>360.8</ele>
        <time>2021-06-03T08:31:50Z</time>
      </trkpt>
      <trkpt lat="47.20811" lon="6.01662">
        <ele>360.8</ele>
        <time>2021-06-03T08:31:51Z</time>
      </trkpt>
      <trkpt lat="47.2081" lon="6.01659">
        <ele>361</ele>
        <time>2021-06-03T08:31:52Z</time>
      </trkpt>
      <trkpt lat="47.2081" lon="6.01657">
        <ele>361.2</ele>
        <time>2021-06-03T08:31:53Z</time>
      </trkpt>
      <trkpt lat="47.2081" lon="6.01654">
        <ele>361.4</ele>
        <time>2021-06-03T08:31:54Z</time>
      </trkpt>
      <trkpt lat="47.2081" lon="6.01652">
        <ele>361.6</ele>
        <time>2021-06-03T08:31:55Z</time>
      </trkpt>
      <trkpt lat="47.2081" lon="6.01649">
        <ele>361.6</ele>
        <time>2021-06-03T08:31:56Z</time>
      </trkpt>
      <trkpt lat="47.2081" lon="6.01647">
        <ele>361.8</ele>
        <time>2021-06-03T08:31:57Z</time>
      </trkpt>
      <trkpt lat="47.2081" lon="6.01646">
        <ele>361.8</ele>
        <time>2021-06-03T08:31:58Z</time>
      </trkpt>
      <trkpt lat="47.20809" lon="6.01644">
        <ele>362</ele>
        <time>2021-06-03T08:31:59Z</time>
      </trkpt>
      <trkpt lat="47.20808" lon="6.01642">
        <ele>362</ele>
        <time>2021-06-03T08:32:00Z</time>
      </trkpt>
      <trkpt lat="47.20808" lon="6.0164">
        <ele>362.2</ele>
        <time>2021-06-03T08:32:01Z</time>
      </trkpt>
      <trkpt lat="47.20808" lon="6.01637">
        <ele>362.6</ele>
        <time>2021-06-03T08:32:02Z</time>
      </trkpt>
      <trkpt lat="47.20808" lon="6.01635">
        <ele>362.6</ele>
        <time>2021-06-03T08:32:03Z</time>
      </trkpt>
      <trkpt lat="47.20808" lon="6.01633">
        <ele>362.8</ele>
        <time>2021-06-03T08:32:04Z</time>
      </trkpt>
      <trkpt lat="47.20808" lon="6.01631">
        <ele>362.8</ele>
        <time>2021-06-03T08:32:05Z</time>
      </trkpt>
      <trkpt lat="47.20808" lon="6.01629">
        <ele>362.8</ele>
        <time>2021-06-03T08:32:06Z</time>
      </trkpt>
      <trkpt lat="47.20809" lon="6.01627">
        <ele>363</ele>
        <time>2021-06-03T08:32:07Z</time>
      </trkpt>
      <trkpt lat="47.20809" lon="6.01625">
        <ele>363.2</ele>
        <time>2021-06-03T08:32:08Z</time>
      </trkpt>
      <trkpt lat="47.20809" lon="6.01622">
        <ele>363.2</ele>
        <time>2021-06-03T08:32:09Z</time>
      </trkpt>
      <trkpt lat="47.20809" lon="6.01619">
        <ele>363.4</ele>
        <time>2021-06-03T08:32:10Z</time>
      </trkpt>
      <trkpt lat="47.20809" lon="6.01616">
        <ele>363.6</ele>
        <time>2021-06-03T08:32:11Z</time>
      </trkpt>
      <trkpt lat="47.20809" lon="6.01613">
        <ele>363.6</ele>
        <time>2021-06-03T08:32:12Z</time>
      </trkpt>
      <trkpt lat="47.20809" lon="6.01611">
        <ele>363.8</ele>
        <time>2021-06-03T08:32:13Z</time>
      </trkpt>
      <trkpt lat="47.20809" lon="6.01608">
        <ele>363.8</ele>
        <time>2021-06-03T08:32:14Z</time>
      </trkpt>
      <trkpt lat="47.20809" lon="6.01605">
        <ele>363.8</ele>
        <time>2021-06-03T08:32:15Z</time>
      </trkpt>
      <trkpt lat="47.20809" lon="6.01603">
        <ele>364.2</ele>
        <time>2021-06-03T08:32:16Z</time>
      </trkpt>
      <trkpt lat="47.20809" lon="6.016">
        <ele>364.4</ele>
        <time>2021-06-03T08:32:17Z</time>
      </trkpt>
      <trkpt lat="47.20809" lon="6.01598">
        <ele>364.4</ele>
        <time>2021-06-03T08:32:18Z</time>
      </trkpt>
      <trkpt lat="47.20809" lon="6.01595">
        <ele>364.6</ele>
        <time>2021-06-03T08:32:19Z</time>
      </trkpt>
      <trkpt lat="47.20809" lon="6.01593">
        <ele>364.8</ele>
        <time>2021-06-03T08:32:20Z</time>
      </trkpt>
      <trkpt lat="47.2081" lon="6.01591">
        <ele>365</ele>
        <time>2021-06-03T08:32:21Z</time>
      </trkpt>
      <trkpt lat="47.2081" lon="6.01588">
        <ele>365</ele>
        <time>2021-06-03T08:32:22Z</time>
      </trkpt>
      <trkpt lat="47.2081" lon="6.01585">
        <ele>365.4</ele>
        <time>2021-06-03T08:32:23Z</time>
      </trkpt>
      <trkpt lat="47.2081" lon="6.01583">
        <ele>365.4</ele>
        <time>2021-06-03T08:32:24Z</time>
      </trkpt>
      <trkpt lat="47.2081" lon="6.01581">
        <ele>365.8</ele>
        <time>2021-06-03T08:32:25Z</time>
      </trkpt>
      <trkpt lat="47.20811" lon="6.01578">
        <ele>366</ele>
        <time>2021-06-03T08:32:26Z</time>
      </trkpt>
      <trkpt lat="47.20811" lon="6.01576">
        <ele>366</ele>
        <time>2021-06-03T08:32:27Z</time>
      </trkpt>
      <trkpt lat="47.20812" lon="6.01573">
        <ele>366.2</ele>
        <time>2021-06-03T08:32:28Z</time>
      </trkpt>
      <trkpt lat="47.20812" lon="6.0157">
        <ele>366.2</ele>
        <time>2021-06-03T08:32:29Z</time>
      </trkpt>
      <trkpt lat="47.20812" lon="6.01567">
        <ele>366.2</ele>
        <time>2021-06-03T08:32:30Z</time>
      </trkpt>
      <trkpt lat="47.20812" lon="6.01565">
        <ele>366.2</ele>
        <time>2021-06-03T08:32:31Z</time>
      </trkpt>
      <trkpt lat="47.20812" lon="6.01562">
        <ele>366.4</ele>
        <time>2021-06-03T08:32:32Z</time>
      </trkpt>
      <trkpt lat="47.20812" lon="6.01559">
        <ele>366.6</ele>
        <time>2021-06-03T08:32:33Z</time>
      </trkpt>
      <trkpt lat="47.20812" lon="6.01556">
        <ele>366.6</ele>
        <time>2021-06-03T08:32:34Z</time>
      </trkpt>
      <trkpt lat="47.20813" lon="6.01554">
        <ele>366.8</ele>
        <time>2021-06-03T08:32:35Z</time>
      </trkpt>
      <trkpt lat="47.20813" lon="6.01552">
        <ele>367</ele>
        <time>2021-06-03T08:32:36Z</time>
      </trkpt>
      <trkpt lat="47.20814" lon="6.0155">
        <ele>367.2</ele>
        <time>2021-06-03T08:32:37Z</time>
      </trkpt>
      <trkpt lat="47.20814" lon="6.01547">
        <ele>367.6</ele>
        <time>2021-06-03T08:32:38Z</time>
      </trkpt>
      <trkpt lat="47.20814" lon="6.01545">
        <ele>367.8</ele>
        <time>2021-06-03T08:32:39Z</time>
      </trkpt>
      <trkpt lat="47.20814" lon="6.01543">
        <ele>368</ele>
        <time>2021-06-03T08:32:40Z</time>
      </trkpt>
      <trkpt lat="47.20815" lon="6.0154">
        <ele>368</ele>
        <time>2021-06-03T08:32:41Z</time>
      </trkpt>
      <trkpt lat="47.20815" lon="6.01538">
        <ele>368.4</ele>
        <time>2021-06-03T08:32:42Z</time>
      </trkpt>
      <trkpt lat="47.20815" lon="6.01535">
        <ele>368.6</ele>
        <time>2021-06-03T08:32:43Z</time>
      </trkpt>
      <trkpt lat="47.20815" lon="6.01533">
        <ele>368.8</ele>
        <time>2021-06-03T08:32:44Z</time>
      </trkpt>
      <trkpt lat="47.20816" lon="6.01531">
        <ele>369</ele>
        <time>2021-06-03T08:32:45Z</time>
      </trkpt>
      <trkpt lat="47.20816" lon="6.01529">
        <ele>369.2</ele>
        <time>2021-06-03T08:32:46Z</time>
      </trkpt>
      <trkpt lat="47.20817" lon="6.01526">
        <ele>369.4</ele>
        <time>2021-06-03T08:32:47Z</time>
      </trkpt>
      <trkpt lat="47.20817" lon="6.01523">
        <ele>369.6</ele>
        <time>2021-06-03T08:32:48Z</time>
      </trkpt>
      <trkpt lat="47.20817" lon="6.0152">
        <ele>369.8</ele>
        <time>2021-06-03T08:32:49Z</time>
      </trkpt>
      <trkpt lat="47.20818" lon="6.01518">
        <ele>370</ele>
        <time>2021-06-03T08:32:50Z</time>
      </trkpt>
      <trkpt lat="47.20818" lon="6.01516">
        <ele>370.2</ele>
        <time>2021-06-03T08:32:51Z</time>
      </trkpt>
      <trkpt lat="47.20818" lon="6.01513">
        <ele>370.4</ele>
        <time>2021-06-03T08:32:52Z</time>
      </trkpt>
      <trkpt lat="47.20819" lon="6.0151">
        <ele>370.6</ele>
        <time>2021-06-03T08:32:53Z</time>
      </trkpt>
      <trkpt lat="47.20819" lon="6.01508">
        <ele>371</ele>
        <time>2021-06-03T08:32:54Z</time>
      </trkpt>
      <trkpt lat="47.20819" lon="6.01506">
        <ele>371.2</ele>
        <time>2021-06-03T08:32:55Z</time>
      </trkpt>
      <trkpt lat="47.20819" lon="6.01503">
        <ele>371.4</ele>
        <time>2021-06-03T08:32:56Z</time>
      </trkpt>
      <trkpt lat="47.2082" lon="6.01501">
        <ele>371.6</ele>
        <time>2021-06-03T08:32:57Z</time>
      </trkpt>
      <trkpt lat="47.2082" lon="6.01499">
        <ele>371.8</ele>
        <time>2021-06-03T08:32:58Z</time>
      </trkpt>
      <trkpt lat="47.2082" lon="6.01497">
        <ele>372.2</ele>
        <time>2021-06-03T08:32:59Z</time>
      </trkpt>
      <trkpt lat="47.2082" lon="6.01495">
        <ele>372.4</ele>
        <time>2021-06-03T08:33:00Z</time>
      </trkpt>
      <trkpt lat="47.20821" lon="6.01492">
        <ele>372.6</ele>
        <time>2021-06-03T08:33:01Z</time>
      </trkpt>
      <trkpt lat="47.20821" lon="6.0149">
        <ele>372.8</ele>
        <time>2021-06-03T08:33:02Z</time>
      </trkpt>
      <trkpt lat="47.20821" lon="6.01487">
        <ele>372.8</ele>
        <time>2021-06-03T08:33:03Z</time>
      </trkpt>
      <trkpt lat="47.2082" lon="6.01485">
        <ele>373</ele>
        <time>2021-06-03T08:33:04Z</time>
      </trkpt>
      <trkpt lat="47.2082" lon="6.01483">
        <ele>373.2</ele>
        <time>2021-06-03T08:33:05Z</time>
      </trkpt>
      <trkpt lat="47.2082" lon="6.01481">
        <ele>373.2</ele>
        <time>2021-06-03T08:33:06Z</time>
      </trkpt>
      <trkpt lat="47.20819" lon="6.01479">
        <ele>373.4</ele>
        <time>2021-06-03T08:33:07Z</time>
      </trkpt>
      <trkpt lat="47.20819" lon="6.01478">
        <ele>373.6</ele>
        <time>2021-06-03T08:33:08Z</time>
      </trkpt>
      <trkpt lat="47.20819" lon="6.01476">
        <ele>373.8</ele>
        <time>2021-06-03T08:33:09Z</time>
      </trkpt>
      <trkpt lat="47.20818" lon="6.01474">
        <ele>374</ele>
        <time>2021-06-03T08:33:10Z</time>
      </trkpt>
      <trkpt lat="47.20819" lon="6.01471">
        <ele>374.4</ele>
        <time>2021-06-03T08:33:11Z</time>
      </trkpt>
      <trkpt lat="47.20819" lon="6.01469">
        <ele>374.6</ele>
        <time>2021-06-03T08:33:12Z</time>
      </trkpt>
      <trkpt lat="47.20818" lon="6.01467">
        <ele>374.8</ele>
        <time>2021-06-03T08:33:13Z</time>
      </trkpt>
      <trkpt lat="47.20818" lon="6.01464">
        <ele>375</ele>
        <time>2021-06-03T08:33:14Z</time>
      </trkpt>
      <trkpt lat="47.20818" lon="6.01462">
        <ele>375.2</ele>
        <time>2021-06-03T08:33:15Z</time>
      </trkpt>
      <trkpt lat="47.20817" lon="6.0146">
        <ele>375.2</ele>
        <time>2021-06-03T08:33:16Z</time>
      </trkpt>
      <trkpt lat="47.20817" lon="6.01458">
        <ele>375.4</ele>
        <time>2021-06-03T08:33:17Z</time>
      </trkpt>
      <trkpt lat="47.20816" lon="6.01456">
        <ele>375.6</ele>
        <time>2021-06-03T08:33:18Z</time>
      </trkpt>
      <trkpt lat="47.20815" lon="6.01454">
        <ele>375.8</ele>
        <time>2021-06-03T08:33:19Z</time>
      </trkpt>
      <trkpt lat="47.20814" lon="6.01452">
        <ele>376</ele>
        <time>2021-06-03T08:33:20Z</time>
      </trkpt>
      <trkpt lat="47.20814" lon="6.0145">
        <ele>376</ele>
        <time>2021-06-03T08:33:21Z</time>
      </trkpt>
      <trkpt lat="47.20813" lon="6.01448">
        <ele>376.2</ele>
        <time>2021-06-03T08:33:22Z</time>
      </trkpt>
      <trkpt lat="47.20812" lon="6.01446">
        <ele>376.4</ele>
        <time>2021-06-03T08:33:23Z</time>
      </trkpt>
      <trkpt lat="47.20812" lon="6.01444">
        <ele>376.8</ele>
        <time>2021-06-03T08:33:24Z</time>
      </trkpt>
      <trkpt lat="47.20812" lon="6.01442">
        <ele>377</ele>
        <time>2021-06-03T08:33:25Z</time>
      </trkpt>
      <trkpt lat="47.20811" lon="6.0144">
        <ele>377</ele>
        <time>2021-06-03T08:33:26Z</time>
      </trkpt>
      <trkpt lat="47.20811" lon="6.01438">
        <ele>377.4</ele>
        <time>2021-06-03T08:33:27Z</time>
      </trkpt>
      <trkpt lat="47.20811" lon="6.01438">
        <ele>377.4</ele>
        <time>2021-06-03T08:33:28Z</time>
      </trkpt>
      <trkpt lat="47.20811" lon="6.01438">
        <ele>377.8</ele>
        <time>2021-06-03T08:33:30Z</time>
      </trkpt>
      <trkpt lat="47.20811" lon="6.01438">
        <ele>378.2</ele>
        <time>2021-06-03T08:33:33Z</time>
      </trkpt>
      <trkpt lat="47.20811" lon="6.01437">
        <ele>378.4</ele>
        <time>2021-06-03T08:33:43Z</time>
      </trkpt>
      <trkpt lat="47.2081" lon="6.01436">
        <ele>378.4</ele>
        <time>2021-06-03T08:33:44Z</time>
      </trkpt>
      <trkpt lat="47.20809" lon="6.01434">
        <ele>378.4</ele>
        <time>2021-06-03T08:33:45Z</time>
      </trkpt>
      <trkpt lat="47.20807" lon="6.01433">
        <ele>378.6</ele>
        <time>2021-06-03T08:33:46Z</time>
      </trkpt>
      <trkpt lat="47.20805" lon="6.01431">
        <ele>378.6</ele>
        <time>2021-06-03T08:33:47Z</time>
      </trkpt>
      <trkpt lat="47.20804" lon="6.01428">
        <ele>378.6</ele>
        <time>2021-06-03T08:33:48Z</time>
      </trkpt>
      <trkpt lat="47.20803" lon="6.01425">
        <ele>378.6</ele>
        <time>2021-06-03T08:33:49Z</time>
      </trkpt>
      <trkpt lat="47.20802" lon="6.01423">
        <ele>378.8</ele>
        <time>2021-06-03T08:33:50Z</time>
      </trkpt>
      <trkpt lat="47.20801" lon="6.01421">
        <ele>378.8</ele>
        <time>2021-06-03T08:33:51Z</time>
      </trkpt>
      <trkpt lat="47.208" lon="6.01418">
        <ele>378.8</ele>
        <time>2021-06-03T08:33:52Z</time>
      </trkpt>
      <trkpt lat="47.20799" lon="6.01416">
        <ele>379</ele>
        <time>2021-06-03T08:33:53Z</time>
      </trkpt>
      <trkpt lat="47.20798" lon="6.01414">
        <ele>379</ele>
        <time>2021-06-03T08:33:54Z</time>
      </trkpt>
      <trkpt lat="47.20797" lon="6.01412">
        <ele>379.2</ele>
        <time>2021-06-03T08:33:55Z</time>
      </trkpt>
      <trkpt lat="47.20796" lon="6.01411">
        <ele>379.4</ele>
        <time>2021-06-03T08:33:56Z</time>
      </trkpt>
      <trkpt lat="47.20794" lon="6.0141">
        <ele>379.6</ele>
        <time>2021-06-03T08:33:57Z</time>
      </trkpt>
      <trkpt lat="47.20792" lon="6.01409">
        <ele>379.8</ele>
        <time>2021-06-03T08:33:58Z</time>
      </trkpt>
      <trkpt lat="47.20791" lon="6.01408">
        <ele>380</ele>
        <time>2021-06-03T08:33:59Z</time>
      </trkpt>
      <trkpt lat="47.20789" lon="6.01407">
        <ele>380.2</ele>
        <time>2021-06-03T08:34:00Z</time>
      </trkpt>
      <trkpt lat="47.20788" lon="6.01405">
        <ele>380.4</ele>
        <time>2021-06-03T08:34:01Z</time>
      </trkpt>
      <trkpt lat="47.20787" lon="6.01403">
        <ele>380.6</ele>
        <time>2021-06-03T08:34:02Z</time>
      </trkpt>
      <trkpt lat="47.20786" lon="6.01401">
        <ele>380.8</ele>
        <time>2021-06-03T08:34:03Z</time>
      </trkpt>
      <trkpt lat="47.20785" lon="6.01399">
        <ele>381</ele>
        <time>2021-06-03T08:34:04Z</time>
      </trkpt>
      <trkpt lat="47.20785" lon="6.01397">
        <ele>381.4</ele>
        <time>2021-06-03T08:34:05Z</time>
      </trkpt>
      <trkpt lat="47.20784" lon="6.01395">
        <ele>381.6</ele>
        <time>2021-06-03T08:34:06Z</time>
      </trkpt>
      <trkpt lat="47.20784" lon="6.01393">
        <ele>382</ele>
        <time>2021-06-03T08:34:07Z</time>
      </trkpt>
      <trkpt lat="47.20783" lon="6.01392">
        <ele>382</ele>
        <time>2021-06-03T08:34:08Z</time>
      </trkpt>
      <trkpt lat="47.20782" lon="6.0139">
        <ele>382.4</ele>
        <time>2021-06-03T08:34:09Z</time>
      </trkpt>
      <trkpt lat="47.2078" lon="6.01389">
        <ele>382.8</ele>
        <time>2021-06-03T08:34:10Z</time>
      </trkpt>
      <trkpt lat="47.20779" lon="6.01388">
        <ele>383</ele>
        <time>2021-06-03T08:34:11Z</time>
      </trkpt>
      <trkpt lat="47.20778" lon="6.01386">
        <ele>383.2</ele>
        <time>2021-06-03T08:34:12Z</time>
      </trkpt>
      <trkpt lat="47.20778" lon="6.01385">
        <ele>383.4</ele>
        <time>2021-06-03T08:34:13Z</time>
      </trkpt>
      <trkpt lat="47.20778" lon="6.01384">
        <ele>383.8</ele>
        <time>2021-06-03T08:34:17Z</time>
      </trkpt>
      <trkpt lat="47.20778" lon="6.01384">
        <ele>384</ele>
        <time>2021-06-03T08:34:20Z</time>
      </trkpt>
      <trkpt lat="47.20778" lon="6.01384">
        <ele>384.4</ele>
        <time>2021-06-03T08:34:28Z</time>
      </trkpt>
      <trkpt lat="47.20778" lon="6.01384">
        <ele>384.4</ele>
        <time>2021-06-03T08:34:40Z</time>
      </trkpt>
      <trkpt lat="47.20775" lon="6.01375">
        <ele>384</ele>
        <time>2021-06-03T08:35:35Z</time>
      </trkpt>
      <trkpt lat="47.20774" lon="6.01373">
        <ele>384</ele>
        <time>2021-06-03T08:35:36Z</time>
      </trkpt>
      <trkpt lat="47.20772" lon="6.01368">
        <ele>384.2</ele>
        <time>2021-06-03T08:35:38Z</time>
      </trkpt>
      <trkpt lat="47.20771" lon="6.01364">
        <ele>384.4</ele>
        <time>2021-06-03T08:35:39Z</time>
      </trkpt>
      <trkpt lat="47.20769" lon="6.0136">
        <ele>384.6</ele>
        <time>2021-06-03T08:35:41Z</time>
      </trkpt>
      <trkpt lat="47.20767" lon="6.0135">
        <ele>385.2</ele>
        <time>2021-06-03T08:35:44Z</time>
      </trkpt>
      <trkpt lat="47.20764" lon="6.0134">
        <ele>385.8</ele>
        <time>2021-06-03T08:35:48Z</time>
      </trkpt>
      <trkpt lat="47.20762" lon="6.01335">
        <ele>386</ele>
        <time>2021-06-03T08:35:50Z</time>
      </trkpt>
      <trkpt lat="47.2076" lon="6.0133">
        <ele>386</ele>
        <time>2021-06-03T08:35:52Z</time>
      </trkpt>
      <trkpt lat="47.20759" lon="6.01328">
        <ele>386.2</ele>
        <time>2021-06-03T08:35:53Z</time>
      </trkpt>
      <trkpt lat="47.20758" lon="6.01325">
        <ele>386.2</ele>
        <time>2021-06-03T08:35:54Z</time>
      </trkpt>
      <trkpt lat="47.20755" lon="6.01318">
        <ele>386.8</ele>
        <time>2021-06-03T08:35:57Z</time>
      </trkpt>
      <trkpt lat="47.20753" lon="6.01311">
        <ele>387.2</ele>
        <time>2021-06-03T08:36:00Z</time>
      </trkpt>
      <trkpt lat="47.20752" lon="6.0131">
        <ele>387.2</ele>
        <time>2021-06-03T08:36:01Z</time>
      </trkpt>
      <trkpt lat="47.20751" lon="6.01308">
        <ele>387.4</ele>
        <time>2021-06-03T08:36:02Z</time>
      </trkpt>
      <trkpt lat="47.20751" lon="6.01305">
        <ele>387.4</ele>
        <time>2021-06-03T08:36:03Z</time>
      </trkpt>
      <trkpt lat="47.2075" lon="6.01303">
        <ele>387.6</ele>
        <time>2021-06-03T08:36:04Z</time>
      </trkpt>
      <trkpt lat="47.20749" lon="6.013">
        <ele>387.8</ele>
        <time>2021-06-03T08:36:05Z</time>
      </trkpt>
      <trkpt lat="47.20748" lon="6.01298">
        <ele>387.8</ele>
        <time>2021-06-03T08:36:06Z</time>
      </trkpt>
      <trkpt lat="47.20747" lon="6.01296">
        <ele>388.2</ele>
        <time>2021-06-03T08:36:07Z</time>
      </trkpt>
      <trkpt lat="47.20746" lon="6.01293">
        <ele>388.4</ele>
        <time>2021-06-03T08:36:08Z</time>
      </trkpt>
      <trkpt lat="47.20745" lon="6.0129">
        <ele>388.6</ele>
        <time>2021-06-03T08:36:09Z</time>
      </trkpt>
      <trkpt lat="47.20744" lon="6.01288">
        <ele>389</ele>
        <time>2021-06-03T08:36:10Z</time>
      </trkpt>
      <trkpt lat="47.20743" lon="6.01285">
        <ele>389</ele>
        <time>2021-06-03T08:36:11Z</time>
      </trkpt>
      <trkpt lat="47.20743" lon="6.01282">
        <ele>389.2</ele>
        <time>2021-06-03T08:36:12Z</time>
      </trkpt>
      <trkpt lat="47.20742" lon="6.0128">
        <ele>389.4</ele>
        <time>2021-06-03T08:36:13Z</time>
      </trkpt>
      <trkpt lat="47.20742" lon="6.01277">
        <ele>389.4</ele>
        <time>2021-06-03T08:36:14Z</time>
      </trkpt>
      <trkpt lat="47.20741" lon="6.01274">
        <ele>389.6</ele>
        <time>2021-06-03T08:36:15Z</time>
      </trkpt>
      <trkpt lat="47.20741" lon="6.01271">
        <ele>389.6</ele>
        <time>2021-06-03T08:36:16Z</time>
      </trkpt>
      <trkpt lat="47.2074" lon="6.01268">
        <ele>389.8</ele>
        <time>2021-06-03T08:36:17Z</time>
      </trkpt>
      <trkpt lat="47.2074" lon="6.01266">
        <ele>389.8</ele>
        <time>2021-06-03T08:36:18Z</time>
      </trkpt>
      <trkpt lat="47.2074" lon="6.01263">
        <ele>389.8</ele>
        <time>2021-06-03T08:36:19Z</time>
      </trkpt>
      <trkpt lat="47.20739" lon="6.01261">
        <ele>389.8</ele>
        <time>2021-06-03T08:36:20Z</time>
      </trkpt>
      <trkpt lat="47.20739" lon="6.01258">
        <ele>390.2</ele>
        <time>2021-06-03T08:36:21Z</time>
      </trkpt>
      <trkpt lat="47.20739" lon="6.01256">
        <ele>390.4</ele>
        <time>2021-06-03T08:36:22Z</time>
      </trkpt>
      <trkpt lat="47.20739" lon="6.01253">
        <ele>390.6</ele>
        <time>2021-06-03T08:36:23Z</time>
      </trkpt>
      <trkpt lat="47.20739" lon="6.0125">
        <ele>390.8</ele>
        <time>2021-06-03T08:36:24Z</time>
      </trkpt>
      <trkpt lat="47.20739" lon="6.01248">
        <ele>391</ele>
        <time>2021-06-03T08:36:25Z</time>
      </trkpt>
      <trkpt lat="47.20738" lon="6.01245">
        <ele>391.2</ele>
        <time>2021-06-03T08:36:26Z</time>
      </trkpt>
      <trkpt lat="47.20739" lon="6.01243">
        <ele>391.4</ele>
        <time>2021-06-03T08:36:27Z</time>
      </trkpt>
      <trkpt lat="47.20739" lon="6.0124">
        <ele>391.6</ele>
        <time>2021-06-03T08:36:28Z</time>
      </trkpt>
      <trkpt lat="47.20739" lon="6.01238">
        <ele>391.8</ele>
        <time>2021-06-03T08:36:29Z</time>
      </trkpt>
      <trkpt lat="47.2074" lon="6.01235">
        <ele>392</ele>
        <time>2021-06-03T08:36:30Z</time>
      </trkpt>
      <trkpt lat="47.2074" lon="6.01233">
        <ele>392.2</ele>
        <time>2021-06-03T08:36:31Z</time>
      </trkpt>
      <trkpt lat="47.2074" lon="6.01231">
        <ele>392.4</ele>
        <time>2021-06-03T08:36:32Z</time>
      </trkpt>
      <trkpt lat="47.2074" lon="6.01228">
        <ele>392.8</ele>
        <time>2021-06-03T08:36:33Z</time>
      </trkpt>
      <trkpt lat="47.20741" lon="6.01226">
        <ele>392.8</ele>
        <time>2021-06-03T08:36:34Z</time>
      </trkpt>
      <trkpt lat="47.20742" lon="6.01224">
        <ele>393</ele>
        <time>2021-06-03T08:36:35Z</time>
      </trkpt>
      <trkpt lat="47.20743" lon="6.01221">
        <ele>393.2</ele>
        <time>2021-06-03T08:36:36Z</time>
      </trkpt>
      <trkpt lat="47.20744" lon="6.01219">
        <ele>393.4</ele>
        <time>2021-06-03T08:36:37Z</time>
      </trkpt>
      <trkpt lat="47.20745" lon="6.01217">
        <ele>393.6</ele>
        <time>2021-06-03T08:36:38Z</time>
      </trkpt>
      <trkpt lat="47.20746" lon="6.01215">
        <ele>393.6</ele>
        <time>2021-06-03T08:36:39Z</time>
      </trkpt>
      <trkpt lat="47.20747" lon="6.01213">
        <ele>393.8</ele>
        <time>2021-06-03T08:36:40Z</time>
      </trkpt>
      <trkpt lat="47.20748" lon="6.01211">
        <ele>394</ele>
        <time>2021-06-03T08:36:41Z</time>
      </trkpt>
      <trkpt lat="47.20749" lon="6.01209">
        <ele>394.2</ele>
        <time>2021-06-03T08:36:42Z</time>
      </trkpt>
      <trkpt lat="47.2075" lon="6.01207">
        <ele>394.4</ele>
        <time>2021-06-03T08:36:43Z</time>
      </trkpt>
      <trkpt lat="47.20751" lon="6.01205">
        <ele>394.6</ele>
        <time>2021-06-03T08:36:44Z</time>
      </trkpt>
      <trkpt lat="47.20751" lon="6.01203">
        <ele>394.8</ele>
        <time>2021-06-03T08:36:45Z</time>
      </trkpt>
      <trkpt lat="47.20753" lon="6.01201">
        <ele>394.8</ele>
        <time>2021-06-03T08:36:46Z</time>
      </trkpt>
      <trkpt lat="47.20754" lon="6.01199">
        <ele>395.2</ele>
        <time>2021-06-03T08:36:47Z</time>
      </trkpt>
      <trkpt lat="47.20755" lon="6.01197">
        <ele>395.2</ele>
        <time>2021-06-03T08:36:48Z</time>
      </trkpt>
      <trkpt lat="47.20755" lon="6.01195">
        <ele>395.4</ele>
        <time>2021-06-03T08:36:49Z</time>
      </trkpt>
      <trkpt lat="47.20756" lon="6.01193">
        <ele>395.6</ele>
        <time>2021-06-03T08:36:50Z</time>
      </trkpt>
      <trkpt lat="47.20757" lon="6.01192">
        <ele>395.6</ele>
        <time>2021-06-03T08:36:51Z</time>
      </trkpt>
      <trkpt lat="47.20757" lon="6.0119">
        <ele>395.8</ele>
        <time>2021-06-03T08:36:52Z</time>
      </trkpt>
      <trkpt lat="47.20758" lon="6.01188">
        <ele>396</ele>
        <time>2021-06-03T08:36:53Z</time>
      </trkpt>
      <trkpt lat="47.2076" lon="6.01187">
        <ele>396.2</ele>
        <time>2021-06-03T08:36:54Z</time>
      </trkpt>
      <trkpt lat="47.20761" lon="6.01186">
        <ele>396.6</ele>
        <time>2021-06-03T08:36:55Z</time>
      </trkpt>
      <trkpt lat="47.20763" lon="6.01185">
        <ele>396.8</ele>
        <time>2021-06-03T08:36:56Z</time>
      </trkpt>
      <trkpt lat="47.20764" lon="6.01184">
        <ele>397</ele>
        <time>2021-06-03T08:36:57Z</time>
      </trkpt>
      <trkpt lat="47.20766" lon="6.01183">
        <ele>397.2</ele>
        <time>2021-06-03T08:36:58Z</time>
      </trkpt>
      <trkpt lat="47.20767" lon="6.01182">
        <ele>397.2</ele>
        <time>2021-06-03T08:36:59Z</time>
      </trkpt>
      <trkpt lat="47.20769" lon="6.01181">
        <ele>397.2</ele>
        <time>2021-06-03T08:37:00Z</time>
      </trkpt>
      <trkpt lat="47.2077" lon="6.0118">
        <ele>397.4</ele>
        <time>2021-06-03T08:37:01Z</time>
      </trkpt>
      <trkpt lat="47.20772" lon="6.0118">
        <ele>397.6</ele>
        <time>2021-06-03T08:37:02Z</time>
      </trkpt>
      <trkpt lat="47.20774" lon="6.0118">
        <ele>397.6</ele>
        <time>2021-06-03T08:37:03Z</time>
      </trkpt>
      <trkpt lat="47.20775" lon="6.0118">
        <ele>397.8</ele>
        <time>2021-06-03T08:37:04Z</time>
      </trkpt>
      <trkpt lat="47.20776" lon="6.0118">
        <ele>397.8</ele>
        <time>2021-06-03T08:37:05Z</time>
      </trkpt>
      <trkpt lat="47.20778" lon="6.0118">
        <ele>397.8</ele>
        <time>2021-06-03T08:37:06Z</time>
      </trkpt>
      <trkpt lat="47.2078" lon="6.0118">
        <ele>397.8</ele>
        <time>2021-06-03T08:37:07Z</time>
      </trkpt>
      <trkpt lat="47.20781" lon="6.01181">
        <ele>398</ele>
        <time>2021-06-03T08:37:08Z</time>
      </trkpt>
      <trkpt lat="47.20783" lon="6.01182">
        <ele>398.2</ele>
        <time>2021-06-03T08:37:09Z</time>
      </trkpt>
      <trkpt lat="47.20785" lon="6.01182">
        <ele>398.4</ele>
        <time>2021-06-03T08:37:10Z</time>
      </trkpt>
      <trkpt lat="47.20787" lon="6.01184">
        <ele>398.4</ele>
        <time>2021-06-03T08:37:11Z</time>
      </trkpt>
      <trkpt lat="47.20788" lon="6.01185">
        <ele>398.6</ele>
        <time>2021-06-03T08:37:12Z</time>
      </trkpt>
      <trkpt lat="47.20789" lon="6.01185">
        <ele>398.6</ele>
        <time>2021-06-03T08:37:13Z</time>
      </trkpt>
      <trkpt lat="47.20791" lon="6.01186">
        <ele>398.8</ele>
        <time>2021-06-03T08:37:14Z</time>
      </trkpt>
      <trkpt lat="47.20792" lon="6.01187">
        <ele>399</ele>
        <time>2021-06-03T08:37:15Z</time>
      </trkpt>
      <trkpt lat="47.20794" lon="6.01188">
        <ele>399</ele>
        <time>2021-06-03T08:37:16Z</time>
      </trkpt>
      <trkpt lat="47.20796" lon="6.01189">
        <ele>399.4</ele>
        <time>2021-06-03T08:37:17Z</time>
      </trkpt>
      <trkpt lat="47.20798" lon="6.01191">
        <ele>399.8</ele>
        <time>2021-06-03T08:37:18Z</time>
      </trkpt>
      <trkpt lat="47.20799" lon="6.01192">
        <ele>400</ele>
        <time>2021-06-03T08:37:19Z</time>
      </trkpt>
      <trkpt lat="47.20801" lon="6.01192">
        <ele>400.2</ele>
        <time>2021-06-03T08:37:20Z</time>
      </trkpt>
      <trkpt lat="47.20802" lon="6.01194">
        <ele>400.4</ele>
        <time>2021-06-03T08:37:21Z</time>
      </trkpt>
      <trkpt lat="47.20803" lon="6.01196">
        <ele>400.6</ele>
        <time>2021-06-03T08:37:22Z</time>
      </trkpt>
      <trkpt lat="47.20804" lon="6.01197">
        <ele>400.8</ele>
        <time>2021-06-03T08:37:23Z</time>
      </trkpt>
      <trkpt lat="47.20805" lon="6.01199">
        <ele>401</ele>
        <time>2021-06-03T08:37:24Z</time>
      </trkpt>
      <trkpt lat="47.20806" lon="6.01201">
        <ele>401.2</ele>
        <time>2021-06-03T08:37:25Z</time>
      </trkpt>
      <trkpt lat="47.20806" lon="6.01203">
        <ele>401.4</ele>
        <time>2021-06-03T08:37:26Z</time>
      </trkpt>
      <trkpt lat="47.20807" lon="6.01204">
        <ele>401.4</ele>
        <time>2021-06-03T08:37:27Z</time>
      </trkpt>
      <trkpt lat="47.20808" lon="6.01206">
        <ele>401.6</ele>
        <time>2021-06-03T08:37:28Z</time>
      </trkpt>
      <trkpt lat="47.20808" lon="6.01208">
        <ele>401.8</ele>
        <time>2021-06-03T08:37:29Z</time>
      </trkpt>
      <trkpt lat="47.20809" lon="6.0121">
        <ele>402</ele>
        <time>2021-06-03T08:37:30Z</time>
      </trkpt>
      <trkpt lat="47.20809" lon="6.01211">
        <ele>402.2</ele>
        <time>2021-06-03T08:37:31Z</time>
      </trkpt>
      <trkpt lat="47.20809" lon="6.01212">
        <ele>402.4</ele>
        <time>2021-06-03T08:37:32Z</time>
      </trkpt>
      <trkpt lat="47.20809" lon="6.01213">
        <ele>402.4</ele>
        <time>2021-06-03T08:37:33Z</time>
      </trkpt>
      <trkpt lat="47.2081" lon="6.01215">
        <ele>402.8</ele>
        <time>2021-06-03T08:37:34Z</time>
      </trkpt>
      <trkpt lat="47.20811" lon="6.01216">
        <ele>403</ele>
        <time>2021-06-03T08:37:35Z</time>
      </trkpt>
      <trkpt lat="47.20811" lon="6.01218">
        <ele>403</ele>
        <time>2021-06-03T08:37:36Z</time>
      </trkpt>
      <trkpt lat="47.20812" lon="6.0122">
        <ele>403.2</ele>
        <time>2021-06-03T08:37:37Z</time>
      </trkpt>
      <trkpt lat="47.20813" lon="6.01221">
        <ele>403.4</ele>
        <time>2021-06-03T08:37:38Z</time>
      </trkpt>
      <trkpt lat="47.20814" lon="6.01223">
        <ele>403.4</ele>
        <time>2021-06-03T08:37:39Z</time>
      </trkpt>
      <trkpt lat="47.20814" lon="6.01225">
        <ele>403.4</ele>
        <time>2021-06-03T08:37:40Z</time>
      </trkpt>
      <trkpt lat="47.20814" lon="6.01227">
        <ele>403.6</ele>
        <time>2021-06-03T08:37:41Z</time>
      </trkpt>
      <trkpt lat="47.20814" lon="6.01228">
        <ele>403.8</ele>
        <time>2021-06-03T08:37:42Z</time>
      </trkpt>
      <trkpt lat="47.20815" lon="6.0123">
        <ele>403.8</ele>
        <time>2021-06-03T08:37:43Z</time>
      </trkpt>
      <trkpt lat="47.20815" lon="6.01231">
        <ele>404</ele>
        <time>2021-06-03T08:37:44Z</time>
      </trkpt>
      <trkpt lat="47.20815" lon="6.01232">
        <ele>404.2</ele>
        <time>2021-06-03T08:37:45Z</time>
      </trkpt>
      <trkpt lat="47.20816" lon="6.01234">
        <ele>404.4</ele>
        <time>2021-06-03T08:37:46Z</time>
      </trkpt>
      <trkpt lat="47.20817" lon="6.01236">
        <ele>404.4</ele>
        <time>2021-06-03T08:37:47Z</time>
      </trkpt>
      <trkpt lat="47.20818" lon="6.01238">
        <ele>404.6</ele>
        <time>2021-06-03T08:37:48Z</time>
      </trkpt>
      <trkpt lat="47.20818" lon="6.0124">
        <ele>404.6</ele>
        <time>2021-06-03T08:37:49Z</time>
      </trkpt>
      <trkpt lat="47.20818" lon="6.01242">
        <ele>404.8</ele>
        <time>2021-06-03T08:37:50Z</time>
      </trkpt>
      <trkpt lat="47.20819" lon="6.01244">
        <ele>404.8</ele>
        <time>2021-06-03T08:37:51Z</time>
      </trkpt>
      <trkpt lat="47.2082" lon="6.01245">
        <ele>405</ele>
        <time>2021-06-03T08:37:52Z</time>
      </trkpt>
      <trkpt lat="47.2082" lon="6.01247">
        <ele>405.2</ele>
        <time>2021-06-03T08:37:53Z</time>
      </trkpt>
      <trkpt lat="47.20821" lon="6.01249">
        <ele>405.4</ele>
        <time>2021-06-03T08:37:54Z</time>
      </trkpt>
      <trkpt lat="47.20822" lon="6.01251">
        <ele>405.6</ele>
        <time>2021-06-03T08:37:55Z</time>
      </trkpt>
      <trkpt lat="47.20822" lon="6.01253">
        <ele>405.6</ele>
        <time>2021-06-03T08:37:56Z</time>
      </trkpt>
      <trkpt lat="47.20823" lon="6.01255">
        <ele>405.6</ele>
        <time>2021-06-03T08:37:57Z</time>
      </trkpt>
      <trkpt lat="47.20824" lon="6.01257">
        <ele>405.8</ele>
        <time>2021-06-03T08:37:58Z</time>
      </trkpt>
      <trkpt lat="47.20824" lon="6.01258">
        <ele>405.8</ele>
        <time>2021-06-03T08:37:59Z</time>
      </trkpt>
      <trkpt lat="47.20825" lon="6.0126">
        <ele>405.8</ele>
        <time>2021-06-03T08:38:00Z</time>
      </trkpt>
      <trkpt lat="47.20826" lon="6.01261">
        <ele>405.8</ele>
        <time>2021-06-03T08:38:01Z</time>
      </trkpt>
      <trkpt lat="47.20827" lon="6.01263">
        <ele>405.8</ele>
        <time>2021-06-03T08:38:02Z</time>
      </trkpt>
      <trkpt lat="47.20829" lon="6.01264">
        <ele>406</ele>
        <time>2021-06-03T08:38:03Z</time>
      </trkpt>
      <trkpt lat="47.20829" lon="6.01266">
        <ele>406</ele>
        <time>2021-06-03T08:38:04Z</time>
      </trkpt>
      <trkpt lat="47.2083" lon="6.01267">
        <ele>406.2</ele>
        <time>2021-06-03T08:38:05Z</time>
      </trkpt>
      <trkpt lat="47.20832" lon="6.01268">
        <ele>406.2</ele>
        <time>2021-06-03T08:38:06Z</time>
      </trkpt>
      <trkpt lat="47.20833" lon="6.01269">
        <ele>406.4</ele>
        <time>2021-06-03T08:38:07Z</time>
      </trkpt>
      <trkpt lat="47.20834" lon="6.0127">
        <ele>406.4</ele>
        <time>2021-06-03T08:38:08Z</time>
      </trkpt>
      <trkpt lat="47.20836" lon="6.01271">
        <ele>406.8</ele>
        <time>2021-06-03T08:38:09Z</time>
      </trkpt>
      <trkpt lat="47.20837" lon="6.01271">
        <ele>407</ele>
        <time>2021-06-03T08:38:10Z</time>
      </trkpt>
      <trkpt lat="47.20839" lon="6.01272">
        <ele>407.2</ele>
        <time>2021-06-03T08:38:11Z</time>
      </trkpt>
      <trkpt lat="47.20842" lon="6.01274">
        <ele>407.2</ele>
        <time>2021-06-03T08:38:12Z</time>
      </trkpt>
      <trkpt lat="47.20843" lon="6.01274">
        <ele>407.4</ele>
        <time>2021-06-03T08:38:13Z</time>
      </trkpt>
      <trkpt lat="47.20845" lon="6.01273">
        <ele>407.6</ele>
        <time>2021-06-03T08:38:14Z</time>
      </trkpt>
      <trkpt lat="47.20847" lon="6.01273">
        <ele>407.6</ele>
        <time>2021-06-03T08:38:15Z</time>
      </trkpt>
      <trkpt lat="47.20848" lon="6.01272">
        <ele>407.8</ele>
        <time>2021-06-03T08:38:16Z</time>
      </trkpt>
      <trkpt lat="47.2085" lon="6.01272">
        <ele>408</ele>
        <time>2021-06-03T08:38:17Z</time>
      </trkpt>
      <trkpt lat="47.20851" lon="6.01271">
        <ele>408</ele>
        <time>2021-06-03T08:38:18Z</time>
      </trkpt>
      <trkpt lat="47.20853" lon="6.0127">
        <ele>408.2</ele>
        <time>2021-06-03T08:38:19Z</time>
      </trkpt>
      <trkpt lat="47.20854" lon="6.0127">
        <ele>408.4</ele>
        <time>2021-06-03T08:38:20Z</time>
      </trkpt>
      <trkpt lat="47.20854" lon="6.01269">
        <ele>408.6</ele>
        <time>2021-06-03T08:38:21Z</time>
      </trkpt>
      <trkpt lat="47.20856" lon="6.01269">
        <ele>408.6</ele>
        <time>2021-06-03T08:38:22Z</time>
      </trkpt>
      <trkpt lat="47.20857" lon="6.01268">
        <ele>409</ele>
        <time>2021-06-03T08:38:23Z</time>
      </trkpt>
      <trkpt lat="47.20859" lon="6.01267">
        <ele>409.2</ele>
        <time>2021-06-03T08:38:24Z</time>
      </trkpt>
      <trkpt lat="47.2086" lon="6.01265">
        <ele>409.2</ele>
        <time>2021-06-03T08:38:25Z</time>
      </trkpt>
      <trkpt lat="47.20861" lon="6.01264">
        <ele>409.4</ele>
        <time>2021-06-03T08:38:26Z</time>
      </trkpt>
      <trkpt lat="47.20862" lon="6.01262">
        <ele>409.6</ele>
        <time>2021-06-03T08:38:27Z</time>
      </trkpt>
      <trkpt lat="47.20863" lon="6.0126">
        <ele>409.8</ele>
        <time>2021-06-03T08:38:28Z</time>
      </trkpt>
      <trkpt lat="47.20864" lon="6.01257">
        <ele>410.2</ele>
        <time>2021-06-03T08:38:29Z</time>
      </trkpt>
      <trkpt lat="47.20866" lon="6.01256">
        <ele>410.2</ele>
        <time>2021-06-03T08:38:30Z</time>
      </trkpt>
      <trkpt lat="47.20867" lon="6.01255">
        <ele>410.4</ele>
        <time>2021-06-03T08:38:31Z</time>
      </trkpt>
      <trkpt lat="47.20867" lon="6.01253">
        <ele>410.4</ele>
        <time>2021-06-03T08:38:32Z</time>
      </trkpt>
      <trkpt lat="47.20868" lon="6.01252">
        <ele>410.6</ele>
        <time>2021-06-03T08:38:33Z</time>
      </trkpt>
      <trkpt lat="47.2087" lon="6.0125">
        <ele>410.8</ele>
        <time>2021-06-03T08:38:34Z</time>
      </trkpt>
      <trkpt lat="47.20871" lon="6.01249">
        <ele>411.2</ele>
        <time>2021-06-03T08:38:35Z</time>
      </trkpt>
      <trkpt lat="47.20872" lon="6.01247">
        <ele>411.4</ele>
        <time>2021-06-03T08:38:36Z</time>
      </trkpt>
      <trkpt lat="47.20874" lon="6.01245">
        <ele>411.6</ele>
        <time>2021-06-03T08:38:37Z</time>
      </trkpt>
      <trkpt lat="47.20875" lon="6.01243">
        <ele>411.8</ele>
        <time>2021-06-03T08:38:38Z</time>
      </trkpt>
      <trkpt lat="47.20877" lon="6.01242">
        <ele>411.8</ele>
        <time>2021-06-03T08:38:39Z</time>
      </trkpt>
      <trkpt lat="47.20879" lon="6.01242">
        <ele>412</ele>
        <time>2021-06-03T08:38:40Z</time>
      </trkpt>
      <trkpt lat="47.20882" lon="6.01243">
        <ele>412</ele>
        <time>2021-06-03T08:38:41Z</time>
      </trkpt>
      <trkpt lat="47.20884" lon="6.01243">
        <ele>412.2</ele>
        <time>2021-06-03T08:38:42Z</time>
      </trkpt>
      <trkpt lat="47.20885" lon="6.01244">
        <ele>412.2</ele>
        <time>2021-06-03T08:38:43Z</time>
      </trkpt>
      <trkpt lat="47.20886" lon="6.01245">
        <ele>412.2</ele>
        <time>2021-06-03T08:38:44Z</time>
      </trkpt>
      <trkpt lat="47.20888" lon="6.01246">
        <ele>412.4</ele>
        <time>2021-06-03T08:38:45Z</time>
      </trkpt>
      <trkpt lat="47.20889" lon="6.01247">
        <ele>412.4</ele>
        <time>2021-06-03T08:38:46Z</time>
      </trkpt>
      <trkpt lat="47.2089" lon="6.01249">
        <ele>412.6</ele>
        <time>2021-06-03T08:38:47Z</time>
      </trkpt>
      <trkpt lat="47.20892" lon="6.01251">
        <ele>412.8</ele>
        <time>2021-06-03T08:38:48Z</time>
      </trkpt>
      <trkpt lat="47.20893" lon="6.01253">
        <ele>413</ele>
        <time>2021-06-03T08:38:49Z</time>
      </trkpt>
      <trkpt lat="47.20894" lon="6.01254">
        <ele>413.4</ele>
        <time>2021-06-03T08:38:50Z</time>
      </trkpt>
      <trkpt lat="47.20894" lon="6.01256">
        <ele>413.4</ele>
        <time>2021-06-03T08:38:51Z</time>
      </trkpt>
      <trkpt lat="47.20895" lon="6.01257">
        <ele>413.8</ele>
        <time>2021-06-03T08:38:52Z</time>
      </trkpt>
      <trkpt lat="47.20897" lon="6.0126">
        <ele>413.8</ele>
        <time>2021-06-03T08:38:53Z</time>
      </trkpt>
      <trkpt lat="47.20899" lon="6.01262">
        <ele>414</ele>
        <time>2021-06-03T08:38:54Z</time>
      </trkpt>
      <trkpt lat="47.209" lon="6.01263">
        <ele>414.2</ele>
        <time>2021-06-03T08:38:55Z</time>
      </trkpt>
      <trkpt lat="47.20901" lon="6.01264">
        <ele>414.4</ele>
        <time>2021-06-03T08:38:56Z</time>
      </trkpt>
      <trkpt lat="47.20901" lon="6.01265">
        <ele>414.6</ele>
        <time>2021-06-03T08:38:57Z</time>
      </trkpt>
      <trkpt lat="47.20903" lon="6.01266">
        <ele>414.6</ele>
        <time>2021-06-03T08:38:58Z</time>
      </trkpt>
      <trkpt lat="47.20903" lon="6.01267">
        <ele>414.8</ele>
        <time>2021-06-03T08:38:59Z</time>
      </trkpt>
      <trkpt lat="47.20904" lon="6.01267">
        <ele>414.8</ele>
        <time>2021-06-03T08:39:00Z</time>
      </trkpt>
      <trkpt lat="47.20905" lon="6.01267">
        <ele>414.8</ele>
        <time>2021-06-03T08:39:01Z</time>
      </trkpt>
      <trkpt lat="47.20906" lon="6.01268">
        <ele>414.8</ele>
        <time>2021-06-03T08:39:02Z</time>
      </trkpt>
      <trkpt lat="47.20907" lon="6.01269">
        <ele>414.8</ele>
        <time>2021-06-03T08:39:03Z</time>
      </trkpt>
      <trkpt lat="47.20908" lon="6.0127">
        <ele>415</ele>
        <time>2021-06-03T08:39:04Z</time>
      </trkpt>
      <trkpt lat="47.20909" lon="6.01271">
        <ele>415</ele>
        <time>2021-06-03T08:39:05Z</time>
      </trkpt>
      <trkpt lat="47.20911" lon="6.01272">
        <ele>415.2</ele>
        <time>2021-06-03T08:39:06Z</time>
      </trkpt>
      <trkpt lat="47.20913" lon="6.01274">
        <ele>415.2</ele>
        <time>2021-06-03T08:39:07Z</time>
      </trkpt>
      <trkpt lat="47.20915" lon="6.01276">
        <ele>415</ele>
        <time>2021-06-03T08:39:08Z</time>
      </trkpt>
      <trkpt lat="47.20917" lon="6.01277">
        <ele>415.2</ele>
        <time>2021-06-03T08:39:09Z</time>
      </trkpt>
      <trkpt lat="47.20919" lon="6.01278">
        <ele>414.8</ele>
        <time>2021-06-03T08:39:10Z</time>
      </trkpt>
      <trkpt lat="47.2092" lon="6.01278">
        <ele>414.8</ele>
        <time>2021-06-03T08:39:11Z</time>
      </trkpt>
      <trkpt lat="47.20921" lon="6.01279">
        <ele>414.8</ele>
        <time>2021-06-03T08:39:12Z</time>
      </trkpt>
      <trkpt lat="47.20923" lon="6.0128">
        <ele>414.8</ele>
        <time>2021-06-03T08:39:13Z</time>
      </trkpt>
      <trkpt lat="47.20924" lon="6.01282">
        <ele>414.8</ele>
        <time>2021-06-03T08:39:14Z</time>
      </trkpt>
      <trkpt lat="47.20925" lon="6.01283">
        <ele>414.8</ele>
        <time>2021-06-03T08:39:15Z</time>
      </trkpt>
      <trkpt lat="47.20927" lon="6.01284">
        <ele>414.8</ele>
        <time>2021-06-03T08:39:16Z</time>
      </trkpt>
      <trkpt lat="47.20928" lon="6.01285">
        <ele>414.8</ele>
        <time>2021-06-03T08:39:17Z</time>
      </trkpt>
      <trkpt lat="47.2093" lon="6.01285">
        <ele>414.8</ele>
        <time>2021-06-03T08:39:18Z</time>
      </trkpt>
      <trkpt lat="47.20931" lon="6.01286">
        <ele>414.8</ele>
        <time>2021-06-03T08:39:19Z</time>
      </trkpt>
      <trkpt lat="47.20932" lon="6.01287">
        <ele>415</ele>
        <time>2021-06-03T08:39:20Z</time>
      </trkpt>
      <trkpt lat="47.20933" lon="6.01288">
        <ele>415</ele>
        <time>2021-06-03T08:39:21Z</time>
      </trkpt>
      <trkpt lat="47.20935" lon="6.01289">
        <ele>415</ele>
        <time>2021-06-03T08:39:22Z</time>
      </trkpt>
      <trkpt lat="47.20938" lon="6.01291">
        <ele>415.2</ele>
        <time>2021-06-03T08:39:24Z</time>
      </trkpt>
      <trkpt lat="47.2094" lon="6.01292">
        <ele>415.2</ele>
        <time>2021-06-03T08:39:25Z</time>
      </trkpt>
      <trkpt lat="47.20945" lon="6.01295">
        <ele>415.2</ele>
        <time>2021-06-03T08:39:27Z</time>
      </trkpt>
      <trkpt lat="47.20949" lon="6.01298">
        <ele>415.4</ele>
        <time>2021-06-03T08:39:29Z</time>
      </trkpt>
      <trkpt lat="47.20951" lon="6.013">
        <ele>415.4</ele>
        <time>2021-06-03T08:39:30Z</time>
      </trkpt>
      <trkpt lat="47.20965" lon="6.01305">
        <ele>415.4</ele>
        <time>2021-06-03T08:39:35Z</time>
      </trkpt>
      <trkpt lat="47.20978" lon="6.01303">
        <ele>415.4</ele>
        <time>2021-06-03T08:39:40Z</time>
      </trkpt>
      <trkpt lat="47.20982" lon="6.01301">
        <ele>415.4</ele>
        <time>2021-06-03T08:39:41Z</time>
      </trkpt>
      <trkpt lat="47.20984" lon="6.01299">
        <ele>415.4</ele>
        <time>2021-06-03T08:39:42Z</time>
      </trkpt>
      <trkpt lat="47.20997" lon="6.01283">
        <ele>415.6</ele>
        <time>2021-06-03T08:39:48Z</time>
      </trkpt>
      <trkpt lat="47.21006" lon="6.01275">
        <ele>416</ele>
        <time>2021-06-03T08:39:52Z</time>
      </trkpt>
      <trkpt lat="47.2101" lon="6.01272">
        <ele>416</ele>
        <time>2021-06-03T08:39:53Z</time>
      </trkpt>
      <trkpt lat="47.21024" lon="6.01259">
        <ele>415</ele>
        <time>2021-06-03T08:39:58Z</time>
      </trkpt>
      <trkpt lat="47.2103" lon="6.01257">
        <ele>414.8</ele>
        <time>2021-06-03T08:40:00Z</time>
      </trkpt>
      <trkpt lat="47.21033" lon="6.01257">
        <ele>414.8</ele>
        <time>2021-06-03T08:40:01Z</time>
      </trkpt>
      <trkpt lat="47.21037" lon="6.01255">
        <ele>414.6</ele>
        <time>2021-06-03T08:40:02Z</time>
      </trkpt>
      <trkpt lat="47.21044" lon="6.01255">
        <ele>414.6</ele>
        <time>2021-06-03T08:40:05Z</time>
      </trkpt>
      <trkpt lat="47.21045" lon="6.01253">
        <ele>414.6</ele>
        <time>2021-06-03T08:40:06Z</time>
      </trkpt>
      <trkpt lat="47.21046" lon="6.01251">
        <ele>414.8</ele>
        <time>2021-06-03T08:40:07Z</time>
      </trkpt>
      <trkpt lat="47.21047" lon="6.0125">
        <ele>415</ele>
        <time>2021-06-03T08:40:08Z</time>
      </trkpt>
      <trkpt lat="47.21049" lon="6.01247">
        <ele>415</ele>
        <time>2021-06-03T08:40:09Z</time>
      </trkpt>
      <trkpt lat="47.21051" lon="6.01246">
        <ele>415.2</ele>
        <time>2021-06-03T08:40:10Z</time>
      </trkpt>
      <trkpt lat="47.21052" lon="6.01243">
        <ele>415.2</ele>
        <time>2021-06-03T08:40:11Z</time>
      </trkpt>
      <trkpt lat="47.21054" lon="6.01242">
        <ele>415.6</ele>
        <time>2021-06-03T08:40:12Z</time>
      </trkpt>
      <trkpt lat="47.21055" lon="6.0124">
        <ele>415.8</ele>
        <time>2021-06-03T08:40:13Z</time>
      </trkpt>
      <trkpt lat="47.21057" lon="6.01238">
        <ele>416</ele>
        <time>2021-06-03T08:40:14Z</time>
      </trkpt>
      <trkpt lat="47.21059" lon="6.01237">
        <ele>416.2</ele>
        <time>2021-06-03T08:40:15Z</time>
      </trkpt>
      <trkpt lat="47.2106" lon="6.01236">
        <ele>416.4</ele>
        <time>2021-06-03T08:40:16Z</time>
      </trkpt>
      <trkpt lat="47.21065" lon="6.01235">
        <ele>416.6</ele>
        <time>2021-06-03T08:40:18Z</time>
      </trkpt>
      <trkpt lat="47.21067" lon="6.01233">
        <ele>416.6</ele>
        <time>2021-06-03T08:40:19Z</time>
      </trkpt>
      <trkpt lat="47.2107" lon="6.01231">
        <ele>416.8</ele>
        <time>2021-06-03T08:40:21Z</time>
      </trkpt>
      <trkpt lat="47.21072" lon="6.01228">
        <ele>416.8</ele>
        <time>2021-06-03T08:40:22Z</time>
      </trkpt>
      <trkpt lat="47.21073" lon="6.01226">
        <ele>416.8</ele>
        <time>2021-06-03T08:40:23Z</time>
      </trkpt>
      <trkpt lat="47.21075" lon="6.01223">
        <ele>417</ele>
        <time>2021-06-03T08:40:24Z</time>
      </trkpt>
      <trkpt lat="47.21078" lon="6.01217">
        <ele>417.4</ele>
        <time>2021-06-03T08:40:27Z</time>
      </trkpt>
      <trkpt lat="47.21079" lon="6.01214">
        <ele>417.4</ele>
        <time>2021-06-03T08:40:28Z</time>
      </trkpt>
      <trkpt lat="47.21081" lon="6.01211">
        <ele>417.4</ele>
        <time>2021-06-03T08:40:29Z</time>
      </trkpt>
      <trkpt lat="47.21085" lon="6.01207">
        <ele>417.6</ele>
        <time>2021-06-03T08:40:31Z</time>
      </trkpt>
      <trkpt lat="47.21086" lon="6.01206">
        <ele>417.8</ele>
        <time>2021-06-03T08:40:32Z</time>
      </trkpt>
      <trkpt lat="47.21094" lon="6.012">
        <ele>418.6</ele>
        <time>2021-06-03T08:40:35Z</time>
      </trkpt>
      <trkpt lat="47.21098" lon="6.01197">
        <ele>418.8</ele>
        <time>2021-06-03T08:40:37Z</time>
      </trkpt>
      <trkpt lat="47.211" lon="6.01195">
        <ele>418.8</ele>
        <time>2021-06-03T08:40:38Z</time>
      </trkpt>
      <trkpt lat="47.21103" lon="6.01192">
        <ele>418.8</ele>
        <time>2021-06-03T08:40:39Z</time>
      </trkpt>
      <trkpt lat="47.21107" lon="6.0119">
        <ele>419</ele>
        <time>2021-06-03T08:40:40Z</time>
      </trkpt>
      <trkpt lat="47.2111" lon="6.01188">
        <ele>419</ele>
        <time>2021-06-03T08:40:41Z</time>
      </trkpt>
      <trkpt lat="47.21112" lon="6.01186">
        <ele>419</ele>
        <time>2021-06-03T08:40:42Z</time>
      </trkpt>
      <trkpt lat="47.21115" lon="6.01184">
        <ele>419.2</ele>
        <time>2021-06-03T08:40:43Z</time>
      </trkpt>
      <trkpt lat="47.21119" lon="6.01183">
        <ele>419.2</ele>
        <time>2021-06-03T08:40:44Z</time>
      </trkpt>
      <trkpt lat="47.21121" lon="6.01182">
        <ele>419.2</ele>
        <time>2021-06-03T08:40:45Z</time>
      </trkpt>
      <trkpt lat="47.21123" lon="6.0118">
        <ele>419.2</ele>
        <time>2021-06-03T08:40:46Z</time>
      </trkpt>
      <trkpt lat="47.21125" lon="6.01177">
        <ele>419.2</ele>
        <time>2021-06-03T08:40:47Z</time>
      </trkpt>
      <trkpt lat="47.21127" lon="6.01177">
        <ele>419.2</ele>
        <time>2021-06-03T08:40:48Z</time>
      </trkpt>
      <trkpt lat="47.21129" lon="6.01175">
        <ele>419.2</ele>
        <time>2021-06-03T08:40:49Z</time>
      </trkpt>
      <trkpt lat="47.21131" lon="6.01173">
        <ele>419.2</ele>
        <time>2021-06-03T08:40:50Z</time>
      </trkpt>
      <trkpt lat="47.21133" lon="6.01171">
        <ele>419</ele>
        <time>2021-06-03T08:40:51Z</time>
      </trkpt>
      <trkpt lat="47.21134" lon="6.01168">
        <ele>419</ele>
        <time>2021-06-03T08:40:52Z</time>
      </trkpt>
      <trkpt lat="47.21135" lon="6.01167">
        <ele>419</ele>
        <time>2021-06-03T08:40:53Z</time>
      </trkpt>
      <trkpt lat="47.21137" lon="6.01165">
        <ele>419</ele>
        <time>2021-06-03T08:40:54Z</time>
      </trkpt>
      <trkpt lat="47.21138" lon="6.01164">
        <ele>419</ele>
        <time>2021-06-03T08:40:55Z</time>
      </trkpt>
      <trkpt lat="47.21141" lon="6.0116">
        <ele>418.8</ele>
        <time>2021-06-03T08:40:57Z</time>
      </trkpt>
      <trkpt lat="47.21143" lon="6.01161">
        <ele>418.8</ele>
        <time>2021-06-03T08:40:58Z</time>
      </trkpt>
      <trkpt lat="47.21144" lon="6.01163">
        <ele>418.6</ele>
        <time>2021-06-03T08:40:59Z</time>
      </trkpt>
      <trkpt lat="47.21146" lon="6.01164">
        <ele>418.6</ele>
        <time>2021-06-03T08:41:00Z</time>
      </trkpt>
      <trkpt lat="47.21153" lon="6.01173">
        <ele>418</ele>
        <time>2021-06-03T08:41:05Z</time>
      </trkpt>
      <trkpt lat="47.21153" lon="6.01175">
        <ele>418</ele>
        <time>2021-06-03T08:41:06Z</time>
      </trkpt>
      <trkpt lat="47.21154" lon="6.01178">
        <ele>417.8</ele>
        <time>2021-06-03T08:41:07Z</time>
      </trkpt>
      <trkpt lat="47.21154" lon="6.01181">
        <ele>417.6</ele>
        <time>2021-06-03T08:41:08Z</time>
      </trkpt>
      <trkpt lat="47.21152" lon="6.01185">
        <ele>417.6</ele>
        <time>2021-06-03T08:41:09Z</time>
      </trkpt>
      <trkpt lat="47.21152" lon="6.01188">
        <ele>417.4</ele>
        <time>2021-06-03T08:41:10Z</time>
      </trkpt>
      <trkpt lat="47.21152" lon="6.01193">
        <ele>417.4</ele>
        <time>2021-06-03T08:41:12Z</time>
      </trkpt>
      <trkpt lat="47.21153" lon="6.01196">
        <ele>417.4</ele>
        <time>2021-06-03T08:41:13Z</time>
      </trkpt>
      <trkpt lat="47.21153" lon="6.01199">
        <ele>417.4</ele>
        <time>2021-06-03T08:41:14Z</time>
      </trkpt>
      <trkpt lat="47.21154" lon="6.01203">
        <ele>417.4</ele>
        <time>2021-06-03T08:41:15Z</time>
      </trkpt>
      <trkpt lat="47.21154" lon="6.01207">
        <ele>417.4</ele>
        <time>2021-06-03T08:41:16Z</time>
      </trkpt>
      <trkpt lat="47.21155" lon="6.01212">
        <ele>417.4</ele>
        <time>2021-06-03T08:41:17Z</time>
      </trkpt>
      <trkpt lat="47.21155" lon="6.01218">
        <ele>417.6</ele>
        <time>2021-06-03T08:41:19Z</time>
      </trkpt>
      <trkpt lat="47.21154" lon="6.01221">
        <ele>417.8</ele>
        <time>2021-06-03T08:41:20Z</time>
      </trkpt>
      <trkpt lat="47.21154" lon="6.01223">
        <ele>418</ele>
        <time>2021-06-03T08:41:21Z</time>
      </trkpt>
      <trkpt lat="47.21152" lon="6.01226">
        <ele>418</ele>
        <time>2021-06-03T08:41:22Z</time>
      </trkpt>
      <trkpt lat="47.21151" lon="6.01229">
        <ele>418.2</ele>
        <time>2021-06-03T08:41:23Z</time>
      </trkpt>
      <trkpt lat="47.2115" lon="6.01234">
        <ele>418.2</ele>
        <time>2021-06-03T08:41:24Z</time>
      </trkpt>
      <trkpt lat="47.21149" lon="6.01238">
        <ele>418.2</ele>
        <time>2021-06-03T08:41:25Z</time>
      </trkpt>
      <trkpt lat="47.21148" lon="6.01242">
        <ele>418.2</ele>
        <time>2021-06-03T08:41:26Z</time>
      </trkpt>
      <trkpt lat="47.21145" lon="6.0125">
        <ele>418.2</ele>
        <time>2021-06-03T08:41:29Z</time>
      </trkpt>
      <trkpt lat="47.21146" lon="6.01253">
        <ele>418.2</ele>
        <time>2021-06-03T08:41:30Z</time>
      </trkpt>
      <trkpt lat="47.21145" lon="6.01257">
        <ele>418.4</ele>
        <time>2021-06-03T08:41:31Z</time>
      </trkpt>
      <trkpt lat="47.21144" lon="6.0126">
        <ele>418.4</ele>
        <time>2021-06-03T08:41:32Z</time>
      </trkpt>
      <trkpt lat="47.2114" lon="6.01267">
        <ele>418.4</ele>
        <time>2021-06-03T08:41:34Z</time>
      </trkpt>
      <trkpt lat="47.21138" lon="6.01272">
        <ele>418.4</ele>
        <time>2021-06-03T08:41:35Z</time>
      </trkpt>
      <trkpt lat="47.21136" lon="6.01276">
        <ele>418.6</ele>
        <time>2021-06-03T08:41:36Z</time>
      </trkpt>
      <trkpt lat="47.21129" lon="6.01285">
        <ele>418.8</ele>
        <time>2021-06-03T08:41:39Z</time>
      </trkpt>
      <trkpt lat="47.21128" lon="6.0129">
        <ele>418.8</ele>
        <time>2021-06-03T08:41:40Z</time>
      </trkpt>
      <trkpt lat="47.21126" lon="6.01294">
        <ele>418.8</ele>
        <time>2021-06-03T08:41:41Z</time>
      </trkpt>
      <trkpt lat="47.21124" lon="6.01298">
        <ele>418.8</ele>
        <time>2021-06-03T08:41:42Z</time>
      </trkpt>
      <trkpt lat="47.21119" lon="6.01303">
        <ele>418.8</ele>
        <time>2021-06-03T08:41:44Z</time>
      </trkpt>
      <trkpt lat="47.2111" lon="6.01314">
        <ele>419.2</ele>
        <time>2021-06-03T08:41:49Z</time>
      </trkpt>
      <trkpt lat="47.21108" lon="6.01316">
        <ele>419.2</ele>
        <time>2021-06-03T08:41:50Z</time>
      </trkpt>
      <trkpt lat="47.21105" lon="6.01318">
        <ele>419.2</ele>
        <time>2021-06-03T08:41:51Z</time>
      </trkpt>
      <trkpt lat="47.21103" lon="6.0132">
        <ele>419.2</ele>
        <time>2021-06-03T08:41:52Z</time>
      </trkpt>
      <trkpt lat="47.21101" lon="6.01322">
        <ele>419.2</ele>
        <time>2021-06-03T08:41:53Z</time>
      </trkpt>
      <trkpt lat="47.21098" lon="6.01325">
        <ele>418.8</ele>
        <time>2021-06-03T08:41:55Z</time>
      </trkpt>
      <trkpt lat="47.21097" lon="6.01329">
        <ele>418.8</ele>
        <time>2021-06-03T08:41:56Z</time>
      </trkpt>
      <trkpt lat="47.211" lon="6.01335">
        <ele>418.8</ele>
        <time>2021-06-03T08:41:58Z</time>
      </trkpt>
      <trkpt lat="47.21107" lon="6.01339">
        <ele>418.6</ele>
        <time>2021-06-03T08:42:00Z</time>
      </trkpt>
      <trkpt lat="47.21109" lon="6.0134">
        <ele>418.6</ele>
        <time>2021-06-03T08:42:01Z</time>
      </trkpt>
      <trkpt lat="47.2111" lon="6.0134">
        <ele>418.6</ele>
        <time>2021-06-03T08:42:02Z</time>
      </trkpt>
      <trkpt lat="47.21117" lon="6.01347">
        <ele>418.8</ele>
        <time>2021-06-03T08:42:06Z</time>
      </trkpt>
      <trkpt lat="47.21119" lon="6.01349">
        <ele>418.8</ele>
        <time>2021-06-03T08:42:07Z</time>
      </trkpt>
      <trkpt lat="47.21123" lon="6.01354">
        <ele>419.2</ele>
        <time>2021-06-03T08:42:09Z</time>
      </trkpt>
      <trkpt lat="47.21125" lon="6.01356">
        <ele>419.4</ele>
        <time>2021-06-03T08:42:10Z</time>
      </trkpt>
      <trkpt lat="47.21129" lon="6.01357">
        <ele>419.4</ele>
        <time>2021-06-03T08:42:11Z</time>
      </trkpt>
      <trkpt lat="47.21131" lon="6.01359">
        <ele>419.4</ele>
        <time>2021-06-03T08:42:12Z</time>
      </trkpt>
      <trkpt lat="47.21133" lon="6.01362">
        <ele>419.6</ele>
        <time>2021-06-03T08:42:13Z</time>
      </trkpt>
      <trkpt lat="47.21145" lon="6.01378">
        <ele>420</ele>
        <time>2021-06-03T08:42:19Z</time>
      </trkpt>
      <trkpt lat="47.21148" lon="6.0138">
        <ele>420</ele>
        <time>2021-06-03T08:42:20Z</time>
      </trkpt>
      <trkpt lat="47.21158" lon="6.01388">
        <ele>420.4</ele>
        <time>2021-06-03T08:42:23Z</time>
      </trkpt>
      <trkpt lat="47.2116" lon="6.0139">
        <ele>420.4</ele>
        <time>2021-06-03T08:42:24Z</time>
      </trkpt>
      <trkpt lat="47.21173" lon="6.01403">
        <ele>420.8</ele>
        <time>2021-06-03T08:42:29Z</time>
      </trkpt>
      <trkpt lat="47.21184" lon="6.01418">
        <ele>421.2</ele>
        <time>2021-06-03T08:42:34Z</time>
      </trkpt>
      <trkpt lat="47.21192" lon="6.01426">
        <ele>421.4</ele>
        <time>2021-06-03T08:42:37Z</time>
      </trkpt>
      <trkpt lat="47.21196" lon="6.01431">
        <ele>421.4</ele>
        <time>2021-06-03T08:42:39Z</time>
      </trkpt>
      <trkpt lat="47.21204" lon="6.01441">
        <ele>421.8</ele>
        <time>2021-06-03T08:42:43Z</time>
      </trkpt>
      <trkpt lat="47.21207" lon="6.01443">
        <ele>422</ele>
        <time>2021-06-03T08:42:44Z</time>
      </trkpt>
      <trkpt lat="47.21211" lon="6.01449">
        <ele>422</ele>
        <time>2021-06-03T08:42:46Z</time>
      </trkpt>
      <trkpt lat="47.21213" lon="6.01451">
        <ele>422</ele>
        <time>2021-06-03T08:42:47Z</time>
      </trkpt>
      <trkpt lat="47.21221" lon="6.01458">
        <ele>422.2</ele>
        <time>2021-06-03T08:42:50Z</time>
      </trkpt>
      <trkpt lat="47.21223" lon="6.01461">
        <ele>422.2</ele>
        <time>2021-06-03T08:42:51Z</time>
      </trkpt>
      <trkpt lat="47.21226" lon="6.01465">
        <ele>422.2</ele>
        <time>2021-06-03T08:42:52Z</time>
      </trkpt>
      <trkpt lat="47.21232" lon="6.01471">
        <ele>422.4</ele>
        <time>2021-06-03T08:42:54Z</time>
      </trkpt>
      <trkpt lat="47.21234" lon="6.01473">
        <ele>422.4</ele>
        <time>2021-06-03T08:42:55Z</time>
      </trkpt>
      <trkpt lat="47.21237" lon="6.01481">
        <ele>422.4</ele>
        <time>2021-06-03T08:42:57Z</time>
      </trkpt>
      <trkpt lat="47.21241" lon="6.01487">
        <ele>422.4</ele>
        <time>2021-06-03T08:42:59Z</time>
      </trkpt>
      <trkpt lat="47.21243" lon="6.0149">
        <ele>422.6</ele>
        <time>2021-06-03T08:43:00Z</time>
      </trkpt>
      <trkpt lat="47.21247" lon="6.01496">
        <ele>422.4</ele>
        <time>2021-06-03T08:43:02Z</time>
      </trkpt>
      <trkpt lat="47.21249" lon="6.01499">
        <ele>422.2</ele>
        <time>2021-06-03T08:43:03Z</time>
      </trkpt>
      <trkpt lat="47.21253" lon="6.0151">
        <ele>422.6</ele>
        <time>2021-06-03T08:43:06Z</time>
      </trkpt>
      <trkpt lat="47.21254" lon="6.01514">
        <ele>422.6</ele>
        <time>2021-06-03T08:43:07Z</time>
      </trkpt>
      <trkpt lat="47.21255" lon="6.01518">
        <ele>422.6</ele>
        <time>2021-06-03T08:43:08Z</time>
      </trkpt>
      <trkpt lat="47.21257" lon="6.01523">
        <ele>422.6</ele>
        <time>2021-06-03T08:43:09Z</time>
      </trkpt>
      <trkpt lat="47.2126" lon="6.01537">
        <ele>422.6</ele>
        <time>2021-06-03T08:43:12Z</time>
      </trkpt>
      <trkpt lat="47.21261" lon="6.01541">
        <ele>422.6</ele>
        <time>2021-06-03T08:43:13Z</time>
      </trkpt>
      <trkpt lat="47.21262" lon="6.01545">
        <ele>422.8</ele>
        <time>2021-06-03T08:43:14Z</time>
      </trkpt>
      <trkpt lat="47.21263" lon="6.0155">
        <ele>422.8</ele>
        <time>2021-06-03T08:43:15Z</time>
      </trkpt>
      <trkpt lat="47.21267" lon="6.01556">
        <ele>423</ele>
        <time>2021-06-03T08:43:16Z</time>
      </trkpt>
      <trkpt lat="47.2127" lon="6.0156">
        <ele>423</ele>
        <time>2021-06-03T08:43:17Z</time>
      </trkpt>
      <trkpt lat="47.21273" lon="6.01565">
        <ele>423</ele>
        <time>2021-06-03T08:43:18Z</time>
      </trkpt>
      <trkpt lat="47.21275" lon="6.01569">
        <ele>423</ele>
        <time>2021-06-03T08:43:19Z</time>
      </trkpt>
      <trkpt lat="47.21277" lon="6.01574">
        <ele>423.2</ele>
        <time>2021-06-03T08:43:20Z</time>
      </trkpt>
      <trkpt lat="47.21278" lon="6.01578">
        <ele>423.2</ele>
        <time>2021-06-03T08:43:21Z</time>
      </trkpt>
      <trkpt lat="47.21278" lon="6.01584">
        <ele>423.4</ele>
        <time>2021-06-03T08:43:22Z</time>
      </trkpt>
      <trkpt lat="47.21279" lon="6.01587">
        <ele>423.4</ele>
        <time>2021-06-03T08:43:23Z</time>
      </trkpt>
      <trkpt lat="47.21283" lon="6.016">
        <ele>423.6</ele>
        <time>2021-06-03T08:43:27Z</time>
      </trkpt>
      <trkpt lat="47.21296" lon="6.01623">
        <ele>423.8</ele>
        <time>2021-06-03T08:43:32Z</time>
      </trkpt>
      <trkpt lat="47.21302" lon="6.01632">
        <ele>423.8</ele>
        <time>2021-06-03T08:43:34Z</time>
      </trkpt>
      <trkpt lat="47.21304" lon="6.01637">
        <ele>423.8</ele>
        <time>2021-06-03T08:43:35Z</time>
      </trkpt>
      <trkpt lat="47.21306" lon="6.01647">
        <ele>423.6</ele>
        <time>2021-06-03T08:43:37Z</time>
      </trkpt>
      <trkpt lat="47.21315" lon="6.01689">
        <ele>423</ele>
        <time>2021-06-03T08:43:44Z</time>
      </trkpt>
      <trkpt lat="47.21319" lon="6.017">
        <ele>423</ele>
        <time>2021-06-03T08:43:46Z</time>
      </trkpt>
      <trkpt lat="47.21321" lon="6.01712">
        <ele>422.6</ele>
        <time>2021-06-03T08:43:48Z</time>
      </trkpt>
      <trkpt lat="47.21321" lon="6.01719">
        <ele>422.6</ele>
        <time>2021-06-03T08:43:49Z</time>
      </trkpt>
      <trkpt lat="47.21319" lon="6.01725">
        <ele>422.4</ele>
        <time>2021-06-03T08:43:50Z</time>
      </trkpt>
      <trkpt lat="47.21318" lon="6.01732">
        <ele>422.2</ele>
        <time>2021-06-03T08:43:51Z</time>
      </trkpt>
      <trkpt lat="47.21317" lon="6.01747">
        <ele>421.6</ele>
        <time>2021-06-03T08:43:53Z</time>
      </trkpt>
      <trkpt lat="47.21319" lon="6.01754">
        <ele>421.4</ele>
        <time>2021-06-03T08:43:54Z</time>
      </trkpt>
      <trkpt lat="47.21322" lon="6.0176">
        <ele>421.2</ele>
        <time>2021-06-03T08:43:55Z</time>
      </trkpt>
      <trkpt lat="47.21325" lon="6.01766">
        <ele>421.2</ele>
        <time>2021-06-03T08:43:56Z</time>
      </trkpt>
      <trkpt lat="47.21328" lon="6.01768">
        <ele>421</ele>
        <time>2021-06-03T08:43:57Z</time>
      </trkpt>
      <trkpt lat="47.21332" lon="6.01772">
        <ele>420.8</ele>
        <time>2021-06-03T08:43:58Z</time>
      </trkpt>
      <trkpt lat="47.21334" lon="6.01775">
        <ele>420.6</ele>
        <time>2021-06-03T08:43:59Z</time>
      </trkpt>
      <trkpt lat="47.21335" lon="6.01778">
        <ele>420.4</ele>
        <time>2021-06-03T08:44:00Z</time>
      </trkpt>
      <trkpt lat="47.21337" lon="6.01782">
        <ele>420.4</ele>
        <time>2021-06-03T08:44:01Z</time>
      </trkpt>
      <trkpt lat="47.21338" lon="6.01786">
        <ele>420.2</ele>
        <time>2021-06-03T08:44:02Z</time>
      </trkpt>
      <trkpt lat="47.21339" lon="6.01789">
        <ele>420.2</ele>
        <time>2021-06-03T08:44:03Z</time>
      </trkpt>
      <trkpt lat="47.21339" lon="6.01792">
        <ele>420.2</ele>
        <time>2021-06-03T08:44:04Z</time>
      </trkpt>
      <trkpt lat="47.2134" lon="6.01795">
        <ele>420.2</ele>
        <time>2021-06-03T08:44:05Z</time>
      </trkpt>
      <trkpt lat="47.2134" lon="6.01798">
        <ele>420.2</ele>
        <time>2021-06-03T08:44:06Z</time>
      </trkpt>
      <trkpt lat="47.21341" lon="6.01801">
        <ele>420.2</ele>
        <time>2021-06-03T08:44:07Z</time>
      </trkpt>
      <trkpt lat="47.21341" lon="6.01803">
        <ele>420.2</ele>
        <time>2021-06-03T08:44:08Z</time>
      </trkpt>
      <trkpt lat="47.21341" lon="6.01806">
        <ele>420.4</ele>
        <time>2021-06-03T08:44:09Z</time>
      </trkpt>
      <trkpt lat="47.21344" lon="6.01819">
        <ele>420.6</ele>
        <time>2021-06-03T08:44:13Z</time>
      </trkpt>
      <trkpt lat="47.21348" lon="6.01832">
        <ele>421</ele>
        <time>2021-06-03T08:44:16Z</time>
      </trkpt>
      <trkpt lat="47.21348" lon="6.01839">
        <ele>421.2</ele>
        <time>2021-06-03T08:44:18Z</time>
      </trkpt>
      <trkpt lat="47.21348" lon="6.01844">
        <ele>421.4</ele>
        <time>2021-06-03T08:44:19Z</time>
      </trkpt>
      <trkpt lat="47.21348" lon="6.01849">
        <ele>421.6</ele>
        <time>2021-06-03T08:44:20Z</time>
      </trkpt>
      <trkpt lat="47.21348" lon="6.01855">
        <ele>422</ele>
        <time>2021-06-03T08:44:21Z</time>
      </trkpt>
      <trkpt lat="47.2135" lon="6.01859">
        <ele>422</ele>
        <time>2021-06-03T08:44:22Z</time>
      </trkpt>
      <trkpt lat="47.21352" lon="6.01863">
        <ele>422.2</ele>
        <time>2021-06-03T08:44:23Z</time>
      </trkpt>
      <trkpt lat="47.21352" lon="6.01867">
        <ele>422.6</ele>
        <time>2021-06-03T08:44:24Z</time>
      </trkpt>
      <trkpt lat="47.21352" lon="6.01875">
        <ele>423</ele>
        <time>2021-06-03T08:44:26Z</time>
      </trkpt>
      <trkpt lat="47.21352" lon="6.01877">
        <ele>423</ele>
        <time>2021-06-03T08:44:27Z</time>
      </trkpt>
      <trkpt lat="47.21353" lon="6.01881">
        <ele>423.2</ele>
        <time>2021-06-03T08:44:28Z</time>
      </trkpt>
      <trkpt lat="47.21352" lon="6.01894">
        <ele>423.8</ele>
        <time>2021-06-03T08:44:31Z</time>
      </trkpt>
      <trkpt lat="47.2135" lon="6.01898">
        <ele>423.8</ele>
        <time>2021-06-03T08:44:32Z</time>
      </trkpt>
      <trkpt lat="47.21349" lon="6.019">
        <ele>424</ele>
        <time>2021-06-03T08:44:33Z</time>
      </trkpt>
      <trkpt lat="47.21347" lon="6.01903">
        <ele>424</ele>
        <time>2021-06-03T08:44:34Z</time>
      </trkpt>
      <trkpt lat="47.21345" lon="6.01905">
        <ele>424.2</ele>
        <time>2021-06-03T08:44:35Z</time>
      </trkpt>
      <trkpt lat="47.21343" lon="6.01908">
        <ele>424.4</ele>
        <time>2021-06-03T08:44:36Z</time>
      </trkpt>
      <trkpt lat="47.21341" lon="6.01911">
        <ele>424.4</ele>
        <time>2021-06-03T08:44:37Z</time>
      </trkpt>
      <trkpt lat="47.21339" lon="6.01914">
        <ele>424.6</ele>
        <time>2021-06-03T08:44:38Z</time>
      </trkpt>
      <trkpt lat="47.21339" lon="6.01916">
        <ele>424.8</ele>
        <time>2021-06-03T08:44:39Z</time>
      </trkpt>
      <trkpt lat="47.21337" lon="6.01917">
        <ele>424.8</ele>
        <time>2021-06-03T08:44:40Z</time>
      </trkpt>
      <trkpt lat="47.21335" lon="6.01919">
        <ele>425</ele>
        <time>2021-06-03T08:44:41Z</time>
      </trkpt>
      <trkpt lat="47.21335" lon="6.01921">
        <ele>425.2</ele>
        <time>2021-06-03T08:44:42Z</time>
      </trkpt>
      <trkpt lat="47.21334" lon="6.01923">
        <ele>425.2</ele>
        <time>2021-06-03T08:44:43Z</time>
      </trkpt>
      <trkpt lat="47.21333" lon="6.01925">
        <ele>425.4</ele>
        <time>2021-06-03T08:44:44Z</time>
      </trkpt>
      <trkpt lat="47.21332" lon="6.01927">
        <ele>425.6</ele>
        <time>2021-06-03T08:44:45Z</time>
      </trkpt>
      <trkpt lat="47.21332" lon="6.0193">
        <ele>425.8</ele>
        <time>2021-06-03T08:44:46Z</time>
      </trkpt>
      <trkpt lat="47.21331" lon="6.01932">
        <ele>426</ele>
        <time>2021-06-03T08:44:47Z</time>
      </trkpt>
      <trkpt lat="47.2133" lon="6.01936">
        <ele>426.2</ele>
        <time>2021-06-03T08:44:48Z</time>
      </trkpt>
      <trkpt lat="47.21329" lon="6.01938">
        <ele>426.4</ele>
        <time>2021-06-03T08:44:49Z</time>
      </trkpt>
      <trkpt lat="47.21329" lon="6.01939">
        <ele>426.4</ele>
        <time>2021-06-03T08:44:50Z</time>
      </trkpt>
      <trkpt lat="47.21328" lon="6.01941">
        <ele>426.8</ele>
        <time>2021-06-03T08:44:51Z</time>
      </trkpt>
      <trkpt lat="47.21327" lon="6.01944">
        <ele>427</ele>
        <time>2021-06-03T08:44:52Z</time>
      </trkpt>
      <trkpt lat="47.21325" lon="6.01948">
        <ele>427.4</ele>
        <time>2021-06-03T08:44:53Z</time>
      </trkpt>
      <trkpt lat="47.21324" lon="6.01951">
        <ele>427.6</ele>
        <time>2021-06-03T08:44:54Z</time>
      </trkpt>
      <trkpt lat="47.21321" lon="6.01954">
        <ele>427.8</ele>
        <time>2021-06-03T08:44:55Z</time>
      </trkpt>
      <trkpt lat="47.21319" lon="6.01958">
        <ele>427.8</ele>
        <time>2021-06-03T08:44:56Z</time>
      </trkpt>
      <trkpt lat="47.21317" lon="6.01964">
        <ele>427.8</ele>
        <time>2021-06-03T08:44:57Z</time>
      </trkpt>
      <trkpt lat="47.21317" lon="6.01967">
        <ele>428</ele>
        <time>2021-06-03T08:44:58Z</time>
      </trkpt>
      <trkpt lat="47.21316" lon="6.01969">
        <ele>428</ele>
        <time>2021-06-03T08:44:59Z</time>
      </trkpt>
      <trkpt lat="47.21315" lon="6.01972">
        <ele>428</ele>
        <time>2021-06-03T08:45:00Z</time>
      </trkpt>
      <trkpt lat="47.21315" lon="6.01974">
        <ele>428.2</ele>
        <time>2021-06-03T08:45:01Z</time>
      </trkpt>
      <trkpt lat="47.21316" lon="6.01978">
        <ele>428.2</ele>
        <time>2021-06-03T08:45:02Z</time>
      </trkpt>
      <trkpt lat="47.21317" lon="6.01982">
        <ele>428.4</ele>
        <time>2021-06-03T08:45:03Z</time>
      </trkpt>
      <trkpt lat="47.21319" lon="6.01987">
        <ele>428.4</ele>
        <time>2021-06-03T08:45:04Z</time>
      </trkpt>
      <trkpt lat="47.2132" lon="6.01994">
        <ele>428.4</ele>
        <time>2021-06-03T08:45:05Z</time>
      </trkpt>
      <trkpt lat="47.21321" lon="6.01999">
        <ele>428.4</ele>
        <time>2021-06-03T08:45:06Z</time>
      </trkpt>
      <trkpt lat="47.2132" lon="6.02007">
        <ele>428.4</ele>
        <time>2021-06-03T08:45:07Z</time>
      </trkpt>
      <trkpt lat="47.21319" lon="6.02013">
        <ele>428.6</ele>
        <time>2021-06-03T08:45:08Z</time>
      </trkpt>
      <trkpt lat="47.21319" lon="6.02016">
        <ele>428.6</ele>
        <time>2021-06-03T08:45:09Z</time>
      </trkpt>
      <trkpt lat="47.21319" lon="6.02017">
        <ele>428.6</ele>
        <time>2021-06-03T08:45:10Z</time>
      </trkpt>
      <trkpt lat="47.21324" lon="6.02017">
        <ele>428.6</ele>
        <time>2021-06-03T08:45:11Z</time>
      </trkpt>
      <trkpt lat="47.21328" lon="6.02019">
        <ele>428.8</ele>
        <time>2021-06-03T08:45:12Z</time>
      </trkpt>
      <trkpt lat="47.21327" lon="6.02023">
        <ele>428.8</ele>
        <time>2021-06-03T08:45:13Z</time>
      </trkpt>
      <trkpt lat="47.21325" lon="6.02029">
        <ele>428.8</ele>
        <time>2021-06-03T08:45:14Z</time>
      </trkpt>
      <trkpt lat="47.21324" lon="6.02035">
        <ele>429.2</ele>
        <time>2021-06-03T08:45:15Z</time>
      </trkpt>
      <trkpt lat="47.21322" lon="6.02039">
        <ele>429.2</ele>
        <time>2021-06-03T08:45:16Z</time>
      </trkpt>
      <trkpt lat="47.21321" lon="6.02042">
        <ele>429.4</ele>
        <time>2021-06-03T08:45:17Z</time>
      </trkpt>
      <trkpt lat="47.21319" lon="6.02047">
        <ele>429.6</ele>
        <time>2021-06-03T08:45:18Z</time>
      </trkpt>
      <trkpt lat="47.21317" lon="6.02049">
        <ele>429.6</ele>
        <time>2021-06-03T08:45:19Z</time>
      </trkpt>
      <trkpt lat="47.21314" lon="6.02052">
        <ele>429.6</ele>
        <time>2021-06-03T08:45:20Z</time>
      </trkpt>
      <trkpt lat="47.21313" lon="6.02055">
        <ele>429.6</ele>
        <time>2021-06-03T08:45:21Z</time>
      </trkpt>
      <trkpt lat="47.21314" lon="6.02058">
        <ele>429.8</ele>
        <time>2021-06-03T08:45:22Z</time>
      </trkpt>
      <trkpt lat="47.21314" lon="6.0206">
        <ele>429.8</ele>
        <time>2021-06-03T08:45:23Z</time>
      </trkpt>
      <trkpt lat="47.21312" lon="6.02066">
        <ele>430.2</ele>
        <time>2021-06-03T08:45:25Z</time>
      </trkpt>
      <trkpt lat="47.2131" lon="6.0207">
        <ele>430.6</ele>
        <time>2021-06-03T08:45:26Z</time>
      </trkpt>
      <trkpt lat="47.21311" lon="6.02077">
        <ele>430.6</ele>
        <time>2021-06-03T08:45:27Z</time>
      </trkpt>
      <trkpt lat="47.21311" lon="6.02078">
        <ele>431</ele>
        <time>2021-06-03T08:45:28Z</time>
      </trkpt>
      <trkpt lat="47.21311" lon="6.02082">
        <ele>431.2</ele>
        <time>2021-06-03T08:45:29Z</time>
      </trkpt>
      <trkpt lat="47.2131" lon="6.02082">
        <ele>431.6</ele>
        <time>2021-06-03T08:45:30Z</time>
      </trkpt>
      <trkpt lat="47.2131" lon="6.02086">
        <ele>431.8</ele>
        <time>2021-06-03T08:45:31Z</time>
      </trkpt>
      <trkpt lat="47.21307" lon="6.02089">
        <ele>432.2</ele>
        <time>2021-06-03T08:45:32Z</time>
      </trkpt>
      <trkpt lat="47.21305" lon="6.02091">
        <ele>432.6</ele>
        <time>2021-06-03T08:45:33Z</time>
      </trkpt>
      <trkpt lat="47.21304" lon="6.02095">
        <ele>432.8</ele>
        <time>2021-06-03T08:45:34Z</time>
      </trkpt>
      <trkpt lat="47.21303" lon="6.02097">
        <ele>433.2</ele>
        <time>2021-06-03T08:45:35Z</time>
      </trkpt>
      <trkpt lat="47.21302" lon="6.021">
        <ele>433.6</ele>
        <time>2021-06-03T08:45:36Z</time>
      </trkpt>
      <trkpt lat="47.21302" lon="6.02103">
        <ele>433.8</ele>
        <time>2021-06-03T08:45:37Z</time>
      </trkpt>
      <trkpt lat="47.21303" lon="6.02109">
        <ele>434.2</ele>
        <time>2021-06-03T08:45:38Z</time>
      </trkpt>
      <trkpt lat="47.21302" lon="6.02115">
        <ele>434.4</ele>
        <time>2021-06-03T08:45:39Z</time>
      </trkpt>
      <trkpt lat="47.21302" lon="6.02119">
        <ele>434.6</ele>
        <time>2021-06-03T08:45:40Z</time>
      </trkpt>
      <trkpt lat="47.21302" lon="6.02121">
        <ele>434.6</ele>
        <time>2021-06-03T08:45:41Z</time>
      </trkpt>
      <trkpt lat="47.21302" lon="6.02122">
        <ele>434.8</ele>
        <time>2021-06-03T08:45:42Z</time>
      </trkpt>
      <trkpt lat="47.21301" lon="6.02124">
        <ele>434.8</ele>
        <time>2021-06-03T08:45:43Z</time>
      </trkpt>
      <trkpt lat="47.21301" lon="6.02126">
        <ele>434.8</ele>
        <time>2021-06-03T08:45:44Z</time>
      </trkpt>
      <trkpt lat="47.21305" lon="6.02127">
        <ele>435</ele>
        <time>2021-06-03T08:45:45Z</time>
      </trkpt>
      <trkpt lat="47.21306" lon="6.02128">
        <ele>435</ele>
        <time>2021-06-03T08:45:46Z</time>
      </trkpt>
      <trkpt lat="47.21308" lon="6.0213">
        <ele>435.2</ele>
        <time>2021-06-03T08:45:47Z</time>
      </trkpt>
      <trkpt lat="47.21308" lon="6.02131">
        <ele>435.2</ele>
        <time>2021-06-03T08:45:48Z</time>
      </trkpt>
      <trkpt lat="47.2131" lon="6.02132">
        <ele>435.4</ele>
        <time>2021-06-03T08:45:49Z</time>
      </trkpt>
      <trkpt lat="47.2131" lon="6.02134">
        <ele>435.6</ele>
        <time>2021-06-03T08:45:50Z</time>
      </trkpt>
      <trkpt lat="47.21311" lon="6.02135">
        <ele>435.6</ele>
        <time>2021-06-03T08:45:51Z</time>
      </trkpt>
      <trkpt lat="47.21312" lon="6.02137">
        <ele>435.8</ele>
        <time>2021-06-03T08:45:52Z</time>
      </trkpt>
      <trkpt lat="47.21312" lon="6.02138">
        <ele>435.6</ele>
        <time>2021-06-03T08:45:53Z</time>
      </trkpt>
      <trkpt lat="47.21313" lon="6.0214">
        <ele>436.2</ele>
        <time>2021-06-03T08:45:54Z</time>
      </trkpt>
      <trkpt lat="47.21313" lon="6.0214">
        <ele>436.2</ele>
        <time>2021-06-03T08:45:55Z</time>
      </trkpt>
      <trkpt lat="47.21314" lon="6.02141">
        <ele>436.4</ele>
        <time>2021-06-03T08:45:56Z</time>
      </trkpt>
      <trkpt lat="47.21315" lon="6.02143">
        <ele>436.6</ele>
        <time>2021-06-03T08:45:57Z</time>
      </trkpt>
      <trkpt lat="47.21316" lon="6.02145">
        <ele>436.8</ele>
        <time>2021-06-03T08:45:58Z</time>
      </trkpt>
      <trkpt lat="47.21316" lon="6.02145">
        <ele>436.8</ele>
        <time>2021-06-03T08:45:59Z</time>
      </trkpt>
      <trkpt lat="47.21316" lon="6.02145">
        <ele>437</ele>
        <time>2021-06-03T08:46:00Z</time>
      </trkpt>
      <trkpt lat="47.21316" lon="6.02146">
        <ele>437.2</ele>
        <time>2021-06-03T08:46:01Z</time>
      </trkpt>
      <trkpt lat="47.21316" lon="6.02149">
        <ele>437.4</ele>
        <time>2021-06-03T08:46:02Z</time>
      </trkpt>
      <trkpt lat="47.21316" lon="6.0215">
        <ele>437.6</ele>
        <time>2021-06-03T08:46:03Z</time>
      </trkpt>
      <trkpt lat="47.21316" lon="6.0215">
        <ele>437.8</ele>
        <time>2021-06-03T08:46:04Z</time>
      </trkpt>
      <trkpt lat="47.21316" lon="6.0215">
        <ele>438</ele>
        <time>2021-06-03T08:46:05Z</time>
      </trkpt>
      <trkpt lat="47.21316" lon="6.02151">
        <ele>438.2</ele>
        <time>2021-06-03T08:46:06Z</time>
      </trkpt>
      <trkpt lat="47.21316" lon="6.02152">
        <ele>438.2</ele>
        <time>2021-06-03T08:46:07Z</time>
      </trkpt>
      <trkpt lat="47.21316" lon="6.02155">
        <ele>438.4</ele>
        <time>2021-06-03T08:46:08Z</time>
      </trkpt>
      <trkpt lat="47.21316" lon="6.02158">
        <ele>438.4</ele>
        <time>2021-06-03T08:46:09Z</time>
      </trkpt>
      <trkpt lat="47.21316" lon="6.02162">
        <ele>438.6</ele>
        <time>2021-06-03T08:46:10Z</time>
      </trkpt>
      <trkpt lat="47.21316" lon="6.02163">
        <ele>438.6</ele>
        <time>2021-06-03T08:46:11Z</time>
      </trkpt>
      <trkpt lat="47.21316" lon="6.02166">
        <ele>438.8</ele>
        <time>2021-06-03T08:46:12Z</time>
      </trkpt>
      <trkpt lat="47.21315" lon="6.02166">
        <ele>439.2</ele>
        <time>2021-06-03T08:46:13Z</time>
      </trkpt>
      <trkpt lat="47.21315" lon="6.02169">
        <ele>439.4</ele>
        <time>2021-06-03T08:46:14Z</time>
      </trkpt>
      <trkpt lat="47.21314" lon="6.02176">
        <ele>439.8</ele>
        <time>2021-06-03T08:46:15Z</time>
      </trkpt>
      <trkpt lat="47.21314" lon="6.02176">
        <ele>439.8</ele>
        <time>2021-06-03T08:46:16Z</time>
      </trkpt>
      <trkpt lat="47.21314" lon="6.02179">
        <ele>440</ele>
        <time>2021-06-03T08:46:17Z</time>
      </trkpt>
      <trkpt lat="47.21314" lon="6.02183">
        <ele>440.2</ele>
        <time>2021-06-03T08:46:18Z</time>
      </trkpt>
      <trkpt lat="47.21316" lon="6.02188">
        <ele>440.2</ele>
        <time>2021-06-03T08:46:19Z</time>
      </trkpt>
      <trkpt lat="47.21318" lon="6.02192">
        <ele>440.4</ele>
        <time>2021-06-03T08:46:20Z</time>
      </trkpt>
      <trkpt lat="47.21319" lon="6.02196">
        <ele>440.6</ele>
        <time>2021-06-03T08:46:21Z</time>
      </trkpt>
      <trkpt lat="47.21321" lon="6.02197">
        <ele>440.8</ele>
        <time>2021-06-03T08:46:22Z</time>
      </trkpt>
      <trkpt lat="47.21323" lon="6.02198">
        <ele>441</ele>
        <time>2021-06-03T08:46:23Z</time>
      </trkpt>
      <trkpt lat="47.21325" lon="6.022">
        <ele>441.2</ele>
        <time>2021-06-03T08:46:24Z</time>
      </trkpt>
      <trkpt lat="47.21326" lon="6.02203">
        <ele>441</ele>
        <time>2021-06-03T08:46:25Z</time>
      </trkpt>
      <trkpt lat="47.21327" lon="6.02204">
        <ele>441.4</ele>
        <time>2021-06-03T08:46:26Z</time>
      </trkpt>
      <trkpt lat="47.21328" lon="6.02206">
        <ele>441.4</ele>
        <time>2021-06-03T08:46:27Z</time>
      </trkpt>
      <trkpt lat="47.2133" lon="6.02208">
        <ele>441.4</ele>
        <time>2021-06-03T08:46:28Z</time>
      </trkpt>
      <trkpt lat="47.21332" lon="6.02211">
        <ele>441.8</ele>
        <time>2021-06-03T08:46:29Z</time>
      </trkpt>
      <trkpt lat="47.21332" lon="6.02216">
        <ele>441.6</ele>
        <time>2021-06-03T08:46:30Z</time>
      </trkpt>
      <trkpt lat="47.21337" lon="6.0222">
        <ele>441.8</ele>
        <time>2021-06-03T08:46:31Z</time>
      </trkpt>
      <trkpt lat="47.21339" lon="6.02223">
        <ele>441.8</ele>
        <time>2021-06-03T08:46:32Z</time>
      </trkpt>
      <trkpt lat="47.2134" lon="6.02225">
        <ele>442</ele>
        <time>2021-06-03T08:46:33Z</time>
      </trkpt>
      <trkpt lat="47.21341" lon="6.02226">
        <ele>442</ele>
        <time>2021-06-03T08:46:34Z</time>
      </trkpt>
      <trkpt lat="47.21343" lon="6.02227">
        <ele>442.2</ele>
        <time>2021-06-03T08:46:35Z</time>
      </trkpt>
      <trkpt lat="47.21345" lon="6.02229">
        <ele>442.4</ele>
        <time>2021-06-03T08:46:36Z</time>
      </trkpt>
      <trkpt lat="47.21348" lon="6.02231">
        <ele>442.4</ele>
        <time>2021-06-03T08:46:37Z</time>
      </trkpt>
      <trkpt lat="47.21349" lon="6.02234">
        <ele>442.6</ele>
        <time>2021-06-03T08:46:38Z</time>
      </trkpt>
      <trkpt lat="47.2135" lon="6.02235">
        <ele>442.8</ele>
        <time>2021-06-03T08:46:39Z</time>
      </trkpt>
      <trkpt lat="47.21351" lon="6.02236">
        <ele>443</ele>
        <time>2021-06-03T08:46:40Z</time>
      </trkpt>
      <trkpt lat="47.21351" lon="6.02237">
        <ele>443.2</ele>
        <time>2021-06-03T08:46:41Z</time>
      </trkpt>
      <trkpt lat="47.21355" lon="6.02239">
        <ele>443.4</ele>
        <time>2021-06-03T08:46:42Z</time>
      </trkpt>
      <trkpt lat="47.21357" lon="6.02239">
        <ele>443.6</ele>
        <time>2021-06-03T08:46:43Z</time>
      </trkpt>
      <trkpt lat="47.21358" lon="6.0224">
        <ele>443.8</ele>
        <time>2021-06-03T08:46:44Z</time>
      </trkpt>
      <trkpt lat="47.21359" lon="6.02241">
        <ele>444</ele>
        <time>2021-06-03T08:46:45Z</time>
      </trkpt>
      <trkpt lat="47.2136" lon="6.02242">
        <ele>444</ele>
        <time>2021-06-03T08:46:46Z</time>
      </trkpt>
      <trkpt lat="47.21361" lon="6.02242">
        <ele>444.2</ele>
        <time>2021-06-03T08:46:47Z</time>
      </trkpt>
      <trkpt lat="47.21363" lon="6.02242">
        <ele>444.4</ele>
        <time>2021-06-03T08:46:48Z</time>
      </trkpt>
      <trkpt lat="47.21364" lon="6.02243">
        <ele>444.6</ele>
        <time>2021-06-03T08:46:49Z</time>
      </trkpt>
      <trkpt lat="47.21366" lon="6.02245">
        <ele>444.6</ele>
        <time>2021-06-03T08:46:50Z</time>
      </trkpt>
      <trkpt lat="47.21367" lon="6.02246">
        <ele>444.8</ele>
        <time>2021-06-03T08:46:51Z</time>
      </trkpt>
      <trkpt lat="47.21368" lon="6.02247">
        <ele>444.8</ele>
        <time>2021-06-03T08:46:52Z</time>
      </trkpt>
      <trkpt lat="47.21369" lon="6.02249">
        <ele>445</ele>
        <time>2021-06-03T08:46:53Z</time>
      </trkpt>
      <trkpt lat="47.2137" lon="6.0225">
        <ele>445</ele>
        <time>2021-06-03T08:46:54Z</time>
      </trkpt>
      <trkpt lat="47.2137" lon="6.0225">
        <ele>445</ele>
        <time>2021-06-03T08:46:55Z</time>
      </trkpt>
      <trkpt lat="47.2137" lon="6.0225">
        <ele>445.4</ele>
        <time>2021-06-03T08:47:01Z</time>
      </trkpt>
      <trkpt lat="47.21371" lon="6.0225">
        <ele>445.2</ele>
        <time>2021-06-03T08:47:42Z</time>
      </trkpt>
      <trkpt lat="47.21371" lon="6.0225">
        <ele>445.4</ele>
        <time>2021-06-03T08:47:49Z</time>
      </trkpt>
      <trkpt lat="47.21372" lon="6.02252">
        <ele>445.2</ele>
        <time>2021-06-03T08:48:12Z</time>
      </trkpt>
      <trkpt lat="47.21374" lon="6.02253">
        <ele>445</ele>
        <time>2021-06-03T08:48:13Z</time>
      </trkpt>
      <trkpt lat="47.21375" lon="6.02255">
        <ele>445</ele>
        <time>2021-06-03T08:48:14Z</time>
      </trkpt>
      <trkpt lat="47.21377" lon="6.02257">
        <ele>445</ele>
        <time>2021-06-03T08:48:15Z</time>
      </trkpt>
      <trkpt lat="47.21379" lon="6.0226">
        <ele>445</ele>
        <time>2021-06-03T08:48:16Z</time>
      </trkpt>
      <trkpt lat="47.2138" lon="6.02263">
        <ele>445</ele>
        <time>2021-06-03T08:48:17Z</time>
      </trkpt>
      <trkpt lat="47.21382" lon="6.02266">
        <ele>444.8</ele>
        <time>2021-06-03T08:48:18Z</time>
      </trkpt>
      <trkpt lat="47.21384" lon="6.02269">
        <ele>444.8</ele>
        <time>2021-06-03T08:48:19Z</time>
      </trkpt>
      <trkpt lat="47.2139" lon="6.02286">
        <ele>444.6</ele>
        <time>2021-06-03T08:48:24Z</time>
      </trkpt>
      <trkpt lat="47.2139" lon="6.0229">
        <ele>444.6</ele>
        <time>2021-06-03T08:48:25Z</time>
      </trkpt>
      <trkpt lat="47.21396" lon="6.02307">
        <ele>444.2</ele>
        <time>2021-06-03T08:48:28Z</time>
      </trkpt>
      <trkpt lat="47.21398" lon="6.02311">
        <ele>443.8</ele>
        <time>2021-06-03T08:48:29Z</time>
      </trkpt>
      <trkpt lat="47.21404" lon="6.02318">
        <ele>443.8</ele>
        <time>2021-06-03T08:48:30Z</time>
      </trkpt>
      <trkpt lat="47.21408" lon="6.02325">
        <ele>443.4</ele>
        <time>2021-06-03T08:48:31Z</time>
      </trkpt>
      <trkpt lat="47.21412" lon="6.02333">
        <ele>443.4</ele>
        <time>2021-06-03T08:48:32Z</time>
      </trkpt>
      <trkpt lat="47.21416" lon="6.02348">
        <ele>443.2</ele>
        <time>2021-06-03T08:48:34Z</time>
      </trkpt>
      <trkpt lat="47.21418" lon="6.02354">
        <ele>443.2</ele>
        <time>2021-06-03T08:48:35Z</time>
      </trkpt>
      <trkpt lat="47.2142" lon="6.02358">
        <ele>443</ele>
        <time>2021-06-03T08:48:36Z</time>
      </trkpt>
      <trkpt lat="47.21423" lon="6.02359">
        <ele>443</ele>
        <time>2021-06-03T08:48:37Z</time>
      </trkpt>
      <trkpt lat="47.21426" lon="6.02361">
        <ele>442.8</ele>
        <time>2021-06-03T08:48:38Z</time>
      </trkpt>
      <trkpt lat="47.2143" lon="6.02365">
        <ele>442.8</ele>
        <time>2021-06-03T08:48:39Z</time>
      </trkpt>
      <trkpt lat="47.21433" lon="6.02369">
        <ele>442.6</ele>
        <time>2021-06-03T08:48:40Z</time>
      </trkpt>
      <trkpt lat="47.21436" lon="6.0238">
        <ele>442.2</ele>
        <time>2021-06-03T08:48:43Z</time>
      </trkpt>
      <trkpt lat="47.21438" lon="6.02382">
        <ele>442.2</ele>
        <time>2021-06-03T08:48:44Z</time>
      </trkpt>
      <trkpt lat="47.2144" lon="6.02386">
        <ele>442</ele>
        <time>2021-06-03T08:48:45Z</time>
      </trkpt>
      <trkpt lat="47.21442" lon="6.02389">
        <ele>442</ele>
        <time>2021-06-03T08:48:46Z</time>
      </trkpt>
      <trkpt lat="47.21446" lon="6.02392">
        <ele>442</ele>
        <time>2021-06-03T08:48:47Z</time>
      </trkpt>
      <trkpt lat="47.21449" lon="6.02396">
        <ele>442</ele>
        <time>2021-06-03T08:48:48Z</time>
      </trkpt>
      <trkpt lat="47.21457" lon="6.02418">
        <ele>441.6</ele>
        <time>2021-06-03T08:48:52Z</time>
      </trkpt>
      <trkpt lat="47.21462" lon="6.02431">
        <ele>441.2</ele>
        <time>2021-06-03T08:48:54Z</time>
      </trkpt>
      <trkpt lat="47.21465" lon="6.02446">
        <ele>440.8</ele>
        <time>2021-06-03T08:48:56Z</time>
      </trkpt>
      <trkpt lat="47.21466" lon="6.02454">
        <ele>440.6</ele>
        <time>2021-06-03T08:48:57Z</time>
      </trkpt>
      <trkpt lat="47.21466" lon="6.02464">
        <ele>439.8</ele>
        <time>2021-06-03T08:48:59Z</time>
      </trkpt>
      <trkpt lat="47.21467" lon="6.02466">
        <ele>439.6</ele>
        <time>2021-06-03T08:49:00Z</time>
      </trkpt>
      <trkpt lat="47.21467" lon="6.02466">
        <ele>439.4</ele>
        <time>2021-06-03T08:49:01Z</time>
      </trkpt>
      <trkpt lat="47.21467" lon="6.02466">
        <ele>439</ele>
        <time>2021-06-03T08:49:04Z</time>
      </trkpt>
      <trkpt lat="47.21467" lon="6.02466">
        <ele>438.6</ele>
        <time>2021-06-03T08:49:11Z</time>
      </trkpt>
      <trkpt lat="47.21467" lon="6.02466">
        <ele>438.4</ele>
        <time>2021-06-03T08:49:24Z</time>
      </trkpt>
      <trkpt lat="47.21467" lon="6.02466">
        <ele>438.2</ele>
        <time>2021-06-03T08:50:41Z</time>
      </trkpt>
      <trkpt lat="47.21469" lon="6.02477">
        <ele>438.2</ele>
        <time>2021-06-03T08:50:44Z</time>
      </trkpt>
      <trkpt lat="47.2147" lon="6.02483">
        <ele>438.2</ele>
        <time>2021-06-03T08:50:45Z</time>
      </trkpt>
      <trkpt lat="47.21471" lon="6.0249">
        <ele>438.2</ele>
        <time>2021-06-03T08:50:46Z</time>
      </trkpt>
      <trkpt lat="47.21472" lon="6.02498">
        <ele>438.2</ele>
        <time>2021-06-03T08:50:47Z</time>
      </trkpt>
      <trkpt lat="47.21476" lon="6.02506">
        <ele>438.2</ele>
        <time>2021-06-03T08:50:48Z</time>
      </trkpt>
      <trkpt lat="47.21481" lon="6.02516">
        <ele>437.6</ele>
        <time>2021-06-03T08:50:49Z</time>
      </trkpt>
      <trkpt lat="47.21485" lon="6.02527">
        <ele>437.4</ele>
        <time>2021-06-03T08:50:50Z</time>
      </trkpt>
      <trkpt lat="47.21488" lon="6.02538">
        <ele>436.4</ele>
        <time>2021-06-03T08:50:51Z</time>
      </trkpt>
      <trkpt lat="47.2149" lon="6.02548">
        <ele>435</ele>
        <time>2021-06-03T08:50:52Z</time>
      </trkpt>
      <trkpt lat="47.21491" lon="6.02558">
        <ele>434.2</ele>
        <time>2021-06-03T08:50:53Z</time>
      </trkpt>
      <trkpt lat="47.21491" lon="6.02568">
        <ele>433.2</ele>
        <time>2021-06-03T08:50:54Z</time>
      </trkpt>
      <trkpt lat="47.21491" lon="6.02576">
        <ele>432.8</ele>
        <time>2021-06-03T08:50:55Z</time>
      </trkpt>
      <trkpt lat="47.2149" lon="6.02582">
        <ele>432.4</ele>
        <time>2021-06-03T08:50:56Z</time>
      </trkpt>
      <trkpt lat="47.2149" lon="6.02588">
        <ele>432.2</ele>
        <time>2021-06-03T08:50:57Z</time>
      </trkpt>
      <trkpt lat="47.21489" lon="6.02593">
        <ele>431.4</ele>
        <time>2021-06-03T08:50:58Z</time>
      </trkpt>
      <trkpt lat="47.21488" lon="6.02598">
        <ele>431.2</ele>
        <time>2021-06-03T08:50:59Z</time>
      </trkpt>
      <trkpt lat="47.21487" lon="6.02609">
        <ele>430.6</ele>
        <time>2021-06-03T08:51:01Z</time>
      </trkpt>
      <trkpt lat="47.21487" lon="6.02615">
        <ele>430.4</ele>
        <time>2021-06-03T08:51:02Z</time>
      </trkpt>
      <trkpt lat="47.21488" lon="6.02623">
        <ele>430</ele>
        <time>2021-06-03T08:51:03Z</time>
      </trkpt>
      <trkpt lat="47.21488" lon="6.02632">
        <ele>430</ele>
        <time>2021-06-03T08:51:04Z</time>
      </trkpt>
      <trkpt lat="47.21498" lon="6.02648">
        <ele>429.6</ele>
        <time>2021-06-03T08:51:06Z</time>
      </trkpt>
      <trkpt lat="47.21502" lon="6.02656">
        <ele>429.6</ele>
        <time>2021-06-03T08:51:07Z</time>
      </trkpt>
      <trkpt lat="47.21508" lon="6.02677">
        <ele>428.6</ele>
        <time>2021-06-03T08:51:10Z</time>
      </trkpt>
      <trkpt lat="47.21512" lon="6.02692">
        <ele>428.2</ele>
        <time>2021-06-03T08:51:12Z</time>
      </trkpt>
      <trkpt lat="47.21524" lon="6.02719">
        <ele>427.6</ele>
        <time>2021-06-03T08:51:16Z</time>
      </trkpt>
      <trkpt lat="47.21527" lon="6.02724">
        <ele>427.2</ele>
        <time>2021-06-03T08:51:17Z</time>
      </trkpt>
      <trkpt lat="47.21529" lon="6.0273">
        <ele>427</ele>
        <time>2021-06-03T08:51:18Z</time>
      </trkpt>
      <trkpt lat="47.21537" lon="6.02743">
        <ele>426.4</ele>
        <time>2021-06-03T08:51:20Z</time>
      </trkpt>
      <trkpt lat="47.21542" lon="6.02749">
        <ele>426</ele>
        <time>2021-06-03T08:51:21Z</time>
      </trkpt>
      <trkpt lat="47.21548" lon="6.02756">
        <ele>426</ele>
        <time>2021-06-03T08:51:22Z</time>
      </trkpt>
      <trkpt lat="47.21554" lon="6.02763">
        <ele>425.4</ele>
        <time>2021-06-03T08:51:23Z</time>
      </trkpt>
      <trkpt lat="47.21559" lon="6.02768">
        <ele>424.8</ele>
        <time>2021-06-03T08:51:24Z</time>
      </trkpt>
      <trkpt lat="47.21564" lon="6.02772">
        <ele>424.4</ele>
        <time>2021-06-03T08:51:25Z</time>
      </trkpt>
      <trkpt lat="47.2157" lon="6.02778">
        <ele>423.6</ele>
        <time>2021-06-03T08:51:26Z</time>
      </trkpt>
      <trkpt lat="47.2158" lon="6.0279">
        <ele>422</ele>
        <time>2021-06-03T08:51:28Z</time>
      </trkpt>
      <trkpt lat="47.21583" lon="6.02797">
        <ele>421.4</ele>
        <time>2021-06-03T08:51:29Z</time>
      </trkpt>
      <trkpt lat="47.21585" lon="6.02805">
        <ele>420.6</ele>
        <time>2021-06-03T08:51:30Z</time>
      </trkpt>
      <trkpt lat="47.21587" lon="6.02812">
        <ele>420</ele>
        <time>2021-06-03T08:51:31Z</time>
      </trkpt>
      <trkpt lat="47.21591" lon="6.02827">
        <ele>419</ele>
        <time>2021-06-03T08:51:33Z</time>
      </trkpt>
      <trkpt lat="47.21592" lon="6.02833">
        <ele>419</ele>
        <time>2021-06-03T08:51:34Z</time>
      </trkpt>
      <trkpt lat="47.21594" lon="6.02839">
        <ele>418.6</ele>
        <time>2021-06-03T08:51:35Z</time>
      </trkpt>
      <trkpt lat="47.21596" lon="6.02844">
        <ele>418.6</ele>
        <time>2021-06-03T08:51:36Z</time>
      </trkpt>
      <trkpt lat="47.21597" lon="6.02849">
        <ele>418.6</ele>
        <time>2021-06-03T08:51:37Z</time>
      </trkpt>
      <trkpt lat="47.21598" lon="6.02853">
        <ele>418.6</ele>
        <time>2021-06-03T08:51:38Z</time>
      </trkpt>
      <trkpt lat="47.216" lon="6.02857">
        <ele>418.6</ele>
        <time>2021-06-03T08:51:39Z</time>
      </trkpt>
      <trkpt lat="47.21601" lon="6.0286">
        <ele>418.6</ele>
        <time>2021-06-03T08:51:40Z</time>
      </trkpt>
      <trkpt lat="47.21602" lon="6.02864">
        <ele>418.6</ele>
        <time>2021-06-03T08:51:41Z</time>
      </trkpt>
      <trkpt lat="47.21602" lon="6.02867">
        <ele>418.8</ele>
        <time>2021-06-03T08:51:42Z</time>
      </trkpt>
      <trkpt lat="47.21603" lon="6.0287">
        <ele>418.8</ele>
        <time>2021-06-03T08:51:43Z</time>
      </trkpt>
      <trkpt lat="47.21604" lon="6.02872">
        <ele>419</ele>
        <time>2021-06-03T08:51:44Z</time>
      </trkpt>
      <trkpt lat="47.21605" lon="6.02874">
        <ele>419.2</ele>
        <time>2021-06-03T08:51:45Z</time>
      </trkpt>
      <trkpt lat="47.21605" lon="6.02876">
        <ele>419.4</ele>
        <time>2021-06-03T08:51:46Z</time>
      </trkpt>
      <trkpt lat="47.21604" lon="6.02878">
        <ele>419.4</ele>
        <time>2021-06-03T08:51:47Z</time>
      </trkpt>
      <trkpt lat="47.21605" lon="6.02879">
        <ele>419.6</ele>
        <time>2021-06-03T08:51:48Z</time>
      </trkpt>
      <trkpt lat="47.21605" lon="6.0288">
        <ele>419.8</ele>
        <time>2021-06-03T08:51:49Z</time>
      </trkpt>
      <trkpt lat="47.21605" lon="6.02881">
        <ele>419.8</ele>
        <time>2021-06-03T08:51:50Z</time>
      </trkpt>
      <trkpt lat="47.21604" lon="6.02882">
        <ele>420</ele>
        <time>2021-06-03T08:51:51Z</time>
      </trkpt>
      <trkpt lat="47.21604" lon="6.02882">
        <ele>420</ele>
        <time>2021-06-03T08:51:52Z</time>
      </trkpt>
      <trkpt lat="47.21604" lon="6.02883">
        <ele>420</ele>
        <time>2021-06-03T08:51:53Z</time>
      </trkpt>
      <trkpt lat="47.21604" lon="6.02882">
        <ele>420.2</ele>
        <time>2021-06-03T08:51:54Z</time>
      </trkpt>
      <trkpt lat="47.21604" lon="6.02881">
        <ele>420.2</ele>
        <time>2021-06-03T08:51:55Z</time>
      </trkpt>
      <trkpt lat="47.21604" lon="6.0288">
        <ele>420.2</ele>
        <time>2021-06-03T08:51:56Z</time>
      </trkpt>
      <trkpt lat="47.21603" lon="6.0288">
        <ele>420.2</ele>
        <time>2021-06-03T08:51:57Z</time>
      </trkpt>
      <trkpt lat="47.21603" lon="6.0288">
        <ele>420.2</ele>
        <time>2021-06-03T08:52:02Z</time>
      </trkpt>
      <trkpt lat="47.21605" lon="6.02884">
        <ele>420</ele>
        <time>2021-06-03T08:53:25Z</time>
      </trkpt>
      <trkpt lat="47.21606" lon="6.02887">
        <ele>420</ele>
        <time>2021-06-03T08:53:26Z</time>
      </trkpt>
      <trkpt lat="47.21607" lon="6.02891">
        <ele>420</ele>
        <time>2021-06-03T08:53:27Z</time>
      </trkpt>
      <trkpt lat="47.21609" lon="6.02895">
        <ele>420</ele>
        <time>2021-06-03T08:53:28Z</time>
      </trkpt>
      <trkpt lat="47.21612" lon="6.02908">
        <ele>420</ele>
        <time>2021-06-03T08:53:31Z</time>
      </trkpt>
      <trkpt lat="47.21619" lon="6.02943">
        <ele>420</ele>
        <time>2021-06-03T08:53:38Z</time>
      </trkpt>
      <trkpt lat="47.2162" lon="6.02954">
        <ele>420</ele>
        <time>2021-06-03T08:53:40Z</time>
      </trkpt>
      <trkpt lat="47.2162" lon="6.0296">
        <ele>420</ele>
        <time>2021-06-03T08:53:41Z</time>
      </trkpt>
      <trkpt lat="47.21619" lon="6.02977">
        <ele>419.8</ele>
        <time>2021-06-03T08:53:44Z</time>
      </trkpt>
      <trkpt lat="47.21625" lon="6.03019">
        <ele>419.6</ele>
        <time>2021-06-03T08:53:51Z</time>
      </trkpt>
      <trkpt lat="47.21642" lon="6.0307">
        <ele>420</ele>
        <time>2021-06-03T08:54:00Z</time>
      </trkpt>
      <trkpt lat="47.21646" lon="6.03083">
        <ele>420</ele>
        <time>2021-06-03T08:54:02Z</time>
      </trkpt>
      <trkpt lat="47.21652" lon="6.03103">
        <ele>419.8</ele>
        <time>2021-06-03T08:54:05Z</time>
      </trkpt>
      <trkpt lat="47.21662" lon="6.03146">
        <ele>419.4</ele>
        <time>2021-06-03T08:54:12Z</time>
      </trkpt>
      <trkpt lat="47.21664" lon="6.03152">
        <ele>419.4</ele>
        <time>2021-06-03T08:54:13Z</time>
      </trkpt>
      <trkpt lat="47.21665" lon="6.03158">
        <ele>419.4</ele>
        <time>2021-06-03T08:54:14Z</time>
      </trkpt>
      <trkpt lat="47.21665" lon="6.03164">
        <ele>419.2</ele>
        <time>2021-06-03T08:54:15Z</time>
      </trkpt>
      <trkpt lat="47.21666" lon="6.03171">
        <ele>419.2</ele>
        <time>2021-06-03T08:54:16Z</time>
      </trkpt>
      <trkpt lat="47.21667" lon="6.03178">
        <ele>419.2</ele>
        <time>2021-06-03T08:54:17Z</time>
      </trkpt>
      <trkpt lat="47.21668" lon="6.03185">
        <ele>419.2</ele>
        <time>2021-06-03T08:54:18Z</time>
      </trkpt>
      <trkpt lat="47.21681" lon="6.03244">
        <ele>419</ele>
        <time>2021-06-03T08:54:26Z</time>
      </trkpt>
      <trkpt lat="47.21685" lon="6.03258">
        <ele>418.8</ele>
        <time>2021-06-03T08:54:28Z</time>
      </trkpt>
      <trkpt lat="47.21691" lon="6.03278">
        <ele>418.6</ele>
        <time>2021-06-03T08:54:31Z</time>
      </trkpt>
      <trkpt lat="47.21693" lon="6.03285">
        <ele>418.6</ele>
        <time>2021-06-03T08:54:32Z</time>
      </trkpt>
      <trkpt lat="47.21695" lon="6.03292">
        <ele>418.6</ele>
        <time>2021-06-03T08:54:33Z</time>
      </trkpt>
      <trkpt lat="47.21697" lon="6.03299">
        <ele>418.4</ele>
        <time>2021-06-03T08:54:34Z</time>
      </trkpt>
      <trkpt lat="47.21718" lon="6.03353">
        <ele>417.8</ele>
        <time>2021-06-03T08:54:42Z</time>
      </trkpt>
      <trkpt lat="47.21721" lon="6.0336">
        <ele>417.6</ele>
        <time>2021-06-03T08:54:43Z</time>
      </trkpt>
      <trkpt lat="47.21735" lon="6.03403">
        <ele>417</ele>
        <time>2021-06-03T08:54:48Z</time>
      </trkpt>
      <trkpt lat="47.21739" lon="6.03424">
        <ele>416.6</ele>
        <time>2021-06-03T08:54:50Z</time>
      </trkpt>
      <trkpt lat="47.21742" lon="6.03443">
        <ele>415.6</ele>
        <time>2021-06-03T08:54:52Z</time>
      </trkpt>
      <trkpt lat="47.21745" lon="6.03451">
        <ele>415.2</ele>
        <time>2021-06-03T08:54:53Z</time>
      </trkpt>
      <trkpt lat="47.21748" lon="6.03458">
        <ele>415</ele>
        <time>2021-06-03T08:54:54Z</time>
      </trkpt>
      <trkpt lat="47.21752" lon="6.03464">
        <ele>414.8</ele>
        <time>2021-06-03T08:54:55Z</time>
      </trkpt>
      <trkpt lat="47.21757" lon="6.03469">
        <ele>414</ele>
        <time>2021-06-03T08:54:56Z</time>
      </trkpt>
      <trkpt lat="47.21763" lon="6.0347">
        <ele>413.8</ele>
        <time>2021-06-03T08:54:57Z</time>
      </trkpt>
      <trkpt lat="47.21776" lon="6.03467">
        <ele>413</ele>
        <time>2021-06-03T08:54:59Z</time>
      </trkpt>
      <trkpt lat="47.21783" lon="6.03463">
        <ele>412</ele>
        <time>2021-06-03T08:55:00Z</time>
      </trkpt>
      <trkpt lat="47.2179" lon="6.03458">
        <ele>411.6</ele>
        <time>2021-06-03T08:55:01Z</time>
      </trkpt>
      <trkpt lat="47.21797" lon="6.03455">
        <ele>410.6</ele>
        <time>2021-06-03T08:55:02Z</time>
      </trkpt>
      <trkpt lat="47.21804" lon="6.03453">
        <ele>410</ele>
        <time>2021-06-03T08:55:03Z</time>
      </trkpt>
      <trkpt lat="47.21811" lon="6.03452">
        <ele>409.6</ele>
        <time>2021-06-03T08:55:04Z</time>
      </trkpt>
      <trkpt lat="47.21817" lon="6.03452">
        <ele>409.2</ele>
        <time>2021-06-03T08:55:05Z</time>
      </trkpt>
      <trkpt lat="47.21823" lon="6.03452">
        <ele>409</ele>
        <time>2021-06-03T08:55:06Z</time>
      </trkpt>
      <trkpt lat="47.21828" lon="6.03451">
        <ele>408.8</ele>
        <time>2021-06-03T08:55:07Z</time>
      </trkpt>
      <trkpt lat="47.21832" lon="6.0345">
        <ele>408.8</ele>
        <time>2021-06-03T08:55:08Z</time>
      </trkpt>
      <trkpt lat="47.21837" lon="6.03448">
        <ele>408.6</ele>
        <time>2021-06-03T08:55:09Z</time>
      </trkpt>
      <trkpt lat="47.21841" lon="6.03447">
        <ele>408.6</ele>
        <time>2021-06-03T08:55:10Z</time>
      </trkpt>
      <trkpt lat="47.21845" lon="6.03445">
        <ele>408.8</ele>
        <time>2021-06-03T08:55:11Z</time>
      </trkpt>
      <trkpt lat="47.21849" lon="6.03443">
        <ele>408.8</ele>
        <time>2021-06-03T08:55:12Z</time>
      </trkpt>
      <trkpt lat="47.21852" lon="6.03442">
        <ele>408.8</ele>
        <time>2021-06-03T08:55:13Z</time>
      </trkpt>
      <trkpt lat="47.21857" lon="6.0344">
        <ele>408.8</ele>
        <time>2021-06-03T08:55:14Z</time>
      </trkpt>
      <trkpt lat="47.21861" lon="6.03439">
        <ele>408.8</ele>
        <time>2021-06-03T08:55:15Z</time>
      </trkpt>
      <trkpt lat="47.21877" lon="6.03435">
        <ele>408.8</ele>
        <time>2021-06-03T08:55:19Z</time>
      </trkpt>
      <trkpt lat="47.21882" lon="6.03435">
        <ele>408.8</ele>
        <time>2021-06-03T08:55:20Z</time>
      </trkpt>
      <trkpt lat="47.21905" lon="6.03438">
        <ele>408.6</ele>
        <time>2021-06-03T08:55:24Z</time>
      </trkpt>
      <trkpt lat="47.21921" lon="6.03441">
        <ele>407.8</ele>
        <time>2021-06-03T08:55:27Z</time>
      </trkpt>
      <trkpt lat="47.21927" lon="6.03442">
        <ele>407.4</ele>
        <time>2021-06-03T08:55:28Z</time>
      </trkpt>
      <trkpt lat="47.21947" lon="6.03443">
        <ele>406.2</ele>
        <time>2021-06-03T08:55:31Z</time>
      </trkpt>
      <trkpt lat="47.21963" lon="6.03443">
        <ele>405</ele>
        <time>2021-06-03T08:55:33Z</time>
      </trkpt>
      <trkpt lat="47.21978" lon="6.03444">
        <ele>404</ele>
        <time>2021-06-03T08:55:35Z</time>
      </trkpt>
      <trkpt lat="47.21985" lon="6.03445">
        <ele>403.6</ele>
        <time>2021-06-03T08:55:36Z</time>
      </trkpt>
      <trkpt lat="47.21993" lon="6.03446">
        <ele>402.4</ele>
        <time>2021-06-03T08:55:37Z</time>
      </trkpt>
      <trkpt lat="47.22008" lon="6.03448">
        <ele>400.6</ele>
        <time>2021-06-03T08:55:39Z</time>
      </trkpt>
      <trkpt lat="47.22014" lon="6.03448">
        <ele>400</ele>
        <time>2021-06-03T08:55:40Z</time>
      </trkpt>
      <trkpt lat="47.22021" lon="6.03449">
        <ele>398.4</ele>
        <time>2021-06-03T08:55:41Z</time>
      </trkpt>
      <trkpt lat="47.22027" lon="6.0345">
        <ele>396.6</ele>
        <time>2021-06-03T08:55:42Z</time>
      </trkpt>
      <trkpt lat="47.22033" lon="6.0345">
        <ele>395.6</ele>
        <time>2021-06-03T08:55:43Z</time>
      </trkpt>
      <trkpt lat="47.22039" lon="6.0345">
        <ele>394.4</ele>
        <time>2021-06-03T08:55:44Z</time>
      </trkpt>
      <trkpt lat="47.22045" lon="6.0345">
        <ele>394</ele>
        <time>2021-06-03T08:55:45Z</time>
      </trkpt>
      <trkpt lat="47.2205" lon="6.03449">
        <ele>393</ele>
        <time>2021-06-03T08:55:46Z</time>
      </trkpt>
      <trkpt lat="47.22063" lon="6.03449">
        <ele>391.2</ele>
        <time>2021-06-03T08:55:48Z</time>
      </trkpt>
      <trkpt lat="47.2207" lon="6.0345">
        <ele>390</ele>
        <time>2021-06-03T08:55:49Z</time>
      </trkpt>
      <trkpt lat="47.22076" lon="6.0345">
        <ele>389.4</ele>
        <time>2021-06-03T08:55:50Z</time>
      </trkpt>
      <trkpt lat="47.22081" lon="6.03451">
        <ele>388.4</ele>
        <time>2021-06-03T08:55:51Z</time>
      </trkpt>
      <trkpt lat="47.22087" lon="6.03453">
        <ele>388</ele>
        <time>2021-06-03T08:55:52Z</time>
      </trkpt>
      <trkpt lat="47.22092" lon="6.03458">
        <ele>386.2</ele>
        <time>2021-06-03T08:55:53Z</time>
      </trkpt>
      <trkpt lat="47.22095" lon="6.03466">
        <ele>385.4</ele>
        <time>2021-06-03T08:55:54Z</time>
      </trkpt>
      <trkpt lat="47.22098" lon="6.03476">
        <ele>384.4</ele>
        <time>2021-06-03T08:55:55Z</time>
      </trkpt>
      <trkpt lat="47.22101" lon="6.03485">
        <ele>383.4</ele>
        <time>2021-06-03T08:55:56Z</time>
      </trkpt>
      <trkpt lat="47.22104" lon="6.03494">
        <ele>382.8</ele>
        <time>2021-06-03T08:55:57Z</time>
      </trkpt>
      <trkpt lat="47.22107" lon="6.03501">
        <ele>381.8</ele>
        <time>2021-06-03T08:55:58Z</time>
      </trkpt>
      <trkpt lat="47.22111" lon="6.03505">
        <ele>381.4</ele>
        <time>2021-06-03T08:55:59Z</time>
      </trkpt>
      <trkpt lat="47.22115" lon="6.03508">
        <ele>380</ele>
        <time>2021-06-03T08:56:00Z</time>
      </trkpt>
      <trkpt lat="47.22119" lon="6.0351">
        <ele>379.4</ele>
        <time>2021-06-03T08:56:01Z</time>
      </trkpt>
      <trkpt lat="47.22124" lon="6.03507">
        <ele>378.6</ele>
        <time>2021-06-03T08:56:02Z</time>
      </trkpt>
      <trkpt lat="47.2213" lon="6.03501">
        <ele>377.8</ele>
        <time>2021-06-03T08:56:03Z</time>
      </trkpt>
      <trkpt lat="47.22142" lon="6.03486">
        <ele>376.8</ele>
        <time>2021-06-03T08:56:05Z</time>
      </trkpt>
      <trkpt lat="47.22149" lon="6.03478">
        <ele>376.2</ele>
        <time>2021-06-03T08:56:06Z</time>
      </trkpt>
      <trkpt lat="47.22155" lon="6.03469">
        <ele>375.2</ele>
        <time>2021-06-03T08:56:07Z</time>
      </trkpt>
      <trkpt lat="47.22161" lon="6.03462">
        <ele>374.8</ele>
        <time>2021-06-03T08:56:08Z</time>
      </trkpt>
      <trkpt lat="47.22166" lon="6.03458">
        <ele>374</ele>
        <time>2021-06-03T08:56:09Z</time>
      </trkpt>
      <trkpt lat="47.22172" lon="6.03456">
        <ele>373.6</ele>
        <time>2021-06-03T08:56:10Z</time>
      </trkpt>
      <trkpt lat="47.22177" lon="6.03457">
        <ele>372.2</ele>
        <time>2021-06-03T08:56:11Z</time>
      </trkpt>
      <trkpt lat="47.22181" lon="6.03459">
        <ele>370.6</ele>
        <time>2021-06-03T08:56:12Z</time>
      </trkpt>
      <trkpt lat="47.22184" lon="6.03462">
        <ele>370.2</ele>
        <time>2021-06-03T08:56:13Z</time>
      </trkpt>
      <trkpt lat="47.22187" lon="6.03465">
        <ele>369.6</ele>
        <time>2021-06-03T08:56:14Z</time>
      </trkpt>
      <trkpt lat="47.22189" lon="6.03468">
        <ele>369.2</ele>
        <time>2021-06-03T08:56:15Z</time>
      </trkpt>
      <trkpt lat="47.22195" lon="6.03475">
        <ele>368.4</ele>
        <time>2021-06-03T08:56:17Z</time>
      </trkpt>
      <trkpt lat="47.22198" lon="6.03477">
        <ele>368.2</ele>
        <time>2021-06-03T08:56:18Z</time>
      </trkpt>
      <trkpt lat="47.22203" lon="6.03482">
        <ele>367.8</ele>
        <time>2021-06-03T08:56:20Z</time>
      </trkpt>
      <trkpt lat="47.22207" lon="6.03485">
        <ele>367.4</ele>
        <time>2021-06-03T08:56:21Z</time>
      </trkpt>
      <trkpt lat="47.22209" lon="6.03488">
        <ele>367.2</ele>
        <time>2021-06-03T08:56:22Z</time>
      </trkpt>
      <trkpt lat="47.22215" lon="6.03495">
        <ele>366.6</ele>
        <time>2021-06-03T08:56:24Z</time>
      </trkpt>
      <trkpt lat="47.22218" lon="6.03498">
        <ele>366.4</ele>
        <time>2021-06-03T08:56:25Z</time>
      </trkpt>
      <trkpt lat="47.22235" lon="6.03518">
        <ele>365.4</ele>
        <time>2021-06-03T08:56:30Z</time>
      </trkpt>
      <trkpt lat="47.22244" lon="6.03528">
        <ele>365.2</ele>
        <time>2021-06-03T08:56:32Z</time>
      </trkpt>
      <trkpt lat="47.22254" lon="6.03541">
        <ele>364.8</ele>
        <time>2021-06-03T08:56:34Z</time>
      </trkpt>
      <trkpt lat="47.22266" lon="6.03554">
        <ele>364</ele>
        <time>2021-06-03T08:56:36Z</time>
      </trkpt>
      <trkpt lat="47.22283" lon="6.03575">
        <ele>362.6</ele>
        <time>2021-06-03T08:56:39Z</time>
      </trkpt>
      <trkpt lat="47.22288" lon="6.03581">
        <ele>362.2</ele>
        <time>2021-06-03T08:56:40Z</time>
      </trkpt>
      <trkpt lat="47.22294" lon="6.03587">
        <ele>361.8</ele>
        <time>2021-06-03T08:56:41Z</time>
      </trkpt>
      <trkpt lat="47.223" lon="6.03592">
        <ele>361.2</ele>
        <time>2021-06-03T08:56:42Z</time>
      </trkpt>
      <trkpt lat="47.22307" lon="6.03595">
        <ele>360.8</ele>
        <time>2021-06-03T08:56:43Z</time>
      </trkpt>
      <trkpt lat="47.22315" lon="6.03596">
        <ele>360.4</ele>
        <time>2021-06-03T08:56:44Z</time>
      </trkpt>
      <trkpt lat="47.22322" lon="6.03596">
        <ele>360</ele>
        <time>2021-06-03T08:56:45Z</time>
      </trkpt>
      <trkpt lat="47.2234" lon="6.036">
        <ele>359</ele>
        <time>2021-06-03T08:56:47Z</time>
      </trkpt>
      <trkpt lat="47.22356" lon="6.03606">
        <ele>357.8</ele>
        <time>2021-06-03T08:56:49Z</time>
      </trkpt>
      <trkpt lat="47.22363" lon="6.03609">
        <ele>357.6</ele>
        <time>2021-06-03T08:56:50Z</time>
      </trkpt>
      <trkpt lat="47.2237" lon="6.03611">
        <ele>356.8</ele>
        <time>2021-06-03T08:56:51Z</time>
      </trkpt>
      <trkpt lat="47.22377" lon="6.03614">
        <ele>356.2</ele>
        <time>2021-06-03T08:56:52Z</time>
      </trkpt>
      <trkpt lat="47.22383" lon="6.03616">
        <ele>355</ele>
        <time>2021-06-03T08:56:53Z</time>
      </trkpt>
      <trkpt lat="47.22387" lon="6.03617">
        <ele>354.6</ele>
        <time>2021-06-03T08:56:54Z</time>
      </trkpt>
      <trkpt lat="47.22391" lon="6.03618">
        <ele>353.4</ele>
        <time>2021-06-03T08:56:55Z</time>
      </trkpt>
      <trkpt lat="47.22395" lon="6.0362">
        <ele>352.6</ele>
        <time>2021-06-03T08:56:56Z</time>
      </trkpt>
      <trkpt lat="47.22398" lon="6.03621">
        <ele>352.2</ele>
        <time>2021-06-03T08:56:57Z</time>
      </trkpt>
      <trkpt lat="47.224" lon="6.03622">
        <ele>351.4</ele>
        <time>2021-06-03T08:56:58Z</time>
      </trkpt>
      <trkpt lat="47.22402" lon="6.03623">
        <ele>351</ele>
        <time>2021-06-03T08:56:59Z</time>
      </trkpt>
      <trkpt lat="47.22403" lon="6.03624">
        <ele>350.4</ele>
        <time>2021-06-03T08:57:00Z</time>
      </trkpt>
      <trkpt lat="47.22406" lon="6.03624">
        <ele>350</ele>
        <time>2021-06-03T08:57:01Z</time>
      </trkpt>
      <trkpt lat="47.22409" lon="6.03625">
        <ele>349.6</ele>
        <time>2021-06-03T08:57:02Z</time>
      </trkpt>
      <trkpt lat="47.22412" lon="6.03623">
        <ele>349.2</ele>
        <time>2021-06-03T08:57:03Z</time>
      </trkpt>
      <trkpt lat="47.22415" lon="6.0362">
        <ele>349</ele>
        <time>2021-06-03T08:57:04Z</time>
      </trkpt>
      <trkpt lat="47.2242" lon="6.03617">
        <ele>348.8</ele>
        <time>2021-06-03T08:57:05Z</time>
      </trkpt>
      <trkpt lat="47.22427" lon="6.03616">
        <ele>348.6</ele>
        <time>2021-06-03T08:57:06Z</time>
      </trkpt>
      <trkpt lat="47.22433" lon="6.03618">
        <ele>348.2</ele>
        <time>2021-06-03T08:57:07Z</time>
      </trkpt>
      <trkpt lat="47.22442" lon="6.03622">
        <ele>348</ele>
        <time>2021-06-03T08:57:08Z</time>
      </trkpt>
      <trkpt lat="47.22453" lon="6.03623">
        <ele>347.4</ele>
        <time>2021-06-03T08:57:09Z</time>
      </trkpt>
      <trkpt lat="47.22463" lon="6.03623">
        <ele>347</ele>
        <time>2021-06-03T08:57:10Z</time>
      </trkpt>
      <trkpt lat="47.22472" lon="6.03621">
        <ele>345.6</ele>
        <time>2021-06-03T08:57:11Z</time>
      </trkpt>
      <trkpt lat="47.22481" lon="6.03616">
        <ele>344.8</ele>
        <time>2021-06-03T08:57:12Z</time>
      </trkpt>
      <trkpt lat="47.2249" lon="6.03609">
        <ele>343.6</ele>
        <time>2021-06-03T08:57:13Z</time>
      </trkpt>
      <trkpt lat="47.22499" lon="6.03601">
        <ele>342.2</ele>
        <time>2021-06-03T08:57:14Z</time>
      </trkpt>
      <trkpt lat="47.22506" lon="6.03594">
        <ele>341.6</ele>
        <time>2021-06-03T08:57:15Z</time>
      </trkpt>
      <trkpt lat="47.22512" lon="6.03587">
        <ele>340.2</ele>
        <time>2021-06-03T08:57:16Z</time>
      </trkpt>
      <trkpt lat="47.22518" lon="6.0358">
        <ele>339.8</ele>
        <time>2021-06-03T08:57:17Z</time>
      </trkpt>
      <trkpt lat="47.22524" lon="6.03574">
        <ele>338.8</ele>
        <time>2021-06-03T08:57:18Z</time>
      </trkpt>
      <trkpt lat="47.2253" lon="6.03569">
        <ele>338</ele>
        <time>2021-06-03T08:57:19Z</time>
      </trkpt>
      <trkpt lat="47.22537" lon="6.03565">
        <ele>337.6</ele>
        <time>2021-06-03T08:57:20Z</time>
      </trkpt>
      <trkpt lat="47.22542" lon="6.03563">
        <ele>336.8</ele>
        <time>2021-06-03T08:57:21Z</time>
      </trkpt>
      <trkpt lat="47.22548" lon="6.03564">
        <ele>336.4</ele>
        <time>2021-06-03T08:57:22Z</time>
      </trkpt>
      <trkpt lat="47.22556" lon="6.03566">
        <ele>335.8</ele>
        <time>2021-06-03T08:57:23Z</time>
      </trkpt>
      <trkpt lat="47.22565" lon="6.03569">
        <ele>335.4</ele>
        <time>2021-06-03T08:57:24Z</time>
      </trkpt>
      <trkpt lat="47.22574" lon="6.03572">
        <ele>334.8</ele>
        <time>2021-06-03T08:57:25Z</time>
      </trkpt>
      <trkpt lat="47.22592" lon="6.03578">
        <ele>333</ele>
        <time>2021-06-03T08:57:27Z</time>
      </trkpt>
      <trkpt lat="47.22601" lon="6.03581">
        <ele>332</ele>
        <time>2021-06-03T08:57:28Z</time>
      </trkpt>
      <trkpt lat="47.2261" lon="6.03584">
        <ele>331.6</ele>
        <time>2021-06-03T08:57:29Z</time>
      </trkpt>
      <trkpt lat="47.22619" lon="6.03585">
        <ele>330.6</ele>
        <time>2021-06-03T08:57:30Z</time>
      </trkpt>
      <trkpt lat="47.22627" lon="6.03585">
        <ele>330.2</ele>
        <time>2021-06-03T08:57:31Z</time>
      </trkpt>
      <trkpt lat="47.22635" lon="6.03586">
        <ele>328.4</ele>
        <time>2021-06-03T08:57:32Z</time>
      </trkpt>
      <trkpt lat="47.22643" lon="6.03589">
        <ele>327.2</ele>
        <time>2021-06-03T08:57:33Z</time>
      </trkpt>
      <trkpt lat="47.22651" lon="6.03592">
        <ele>326.6</ele>
        <time>2021-06-03T08:57:34Z</time>
      </trkpt>
      <trkpt lat="47.22658" lon="6.03596">
        <ele>325</ele>
        <time>2021-06-03T08:57:35Z</time>
      </trkpt>
      <trkpt lat="47.22666" lon="6.03604">
        <ele>324.4</ele>
        <time>2021-06-03T08:57:36Z</time>
      </trkpt>
      <trkpt lat="47.22673" lon="6.0361">
        <ele>323.6</ele>
        <time>2021-06-03T08:57:37Z</time>
      </trkpt>
      <trkpt lat="47.22678" lon="6.03616">
        <ele>323</ele>
        <time>2021-06-03T08:57:38Z</time>
      </trkpt>
      <trkpt lat="47.22682" lon="6.03621">
        <ele>322.2</ele>
        <time>2021-06-03T08:57:39Z</time>
      </trkpt>
      <trkpt lat="47.22687" lon="6.03625">
        <ele>321.2</ele>
        <time>2021-06-03T08:57:40Z</time>
      </trkpt>
      <trkpt lat="47.22692" lon="6.03629">
        <ele>320.4</ele>
        <time>2021-06-03T08:57:41Z</time>
      </trkpt>
      <trkpt lat="47.22696" lon="6.03633">
        <ele>319.4</ele>
        <time>2021-06-03T08:57:42Z</time>
      </trkpt>
      <trkpt lat="47.22699" lon="6.03635">
        <ele>319</ele>
        <time>2021-06-03T08:57:43Z</time>
      </trkpt>
      <trkpt lat="47.22702" lon="6.03638">
        <ele>318.6</ele>
        <time>2021-06-03T08:57:44Z</time>
      </trkpt>
      <trkpt lat="47.22706" lon="6.03641">
        <ele>318.4</ele>
        <time>2021-06-03T08:57:45Z</time>
      </trkpt>
      <trkpt lat="47.22706" lon="6.03643">
        <ele>317.6</ele>
        <time>2021-06-03T08:57:46Z</time>
      </trkpt>
      <trkpt lat="47.22708" lon="6.03645">
        <ele>317.4</ele>
        <time>2021-06-03T08:57:47Z</time>
      </trkpt>
      <trkpt lat="47.22709" lon="6.03646">
        <ele>317</ele>
        <time>2021-06-03T08:57:48Z</time>
      </trkpt>
      <trkpt lat="47.22711" lon="6.03648">
        <ele>316.2</ele>
        <time>2021-06-03T08:57:50Z</time>
      </trkpt>
      <trkpt lat="47.22714" lon="6.03649">
        <ele>315.8</ele>
        <time>2021-06-03T08:57:51Z</time>
      </trkpt>
      <trkpt lat="47.22717" lon="6.03651">
        <ele>315.4</ele>
        <time>2021-06-03T08:57:53Z</time>
      </trkpt>
      <trkpt lat="47.22726" lon="6.03655">
        <ele>314.8</ele>
        <time>2021-06-03T08:57:57Z</time>
      </trkpt>
      <trkpt lat="47.22729" lon="6.03656">
        <ele>314.4</ele>
        <time>2021-06-03T08:57:58Z</time>
      </trkpt>
      <trkpt lat="47.22732" lon="6.03658">
        <ele>314.4</ele>
        <time>2021-06-03T08:57:59Z</time>
      </trkpt>
      <trkpt lat="47.22747" lon="6.03669">
        <ele>313.8</ele>
        <time>2021-06-03T08:58:02Z</time>
      </trkpt>
      <trkpt lat="47.22751" lon="6.03674">
        <ele>313.2</ele>
        <time>2021-06-03T08:58:03Z</time>
      </trkpt>
      <trkpt lat="47.22751" lon="6.03681">
        <ele>312.6</ele>
        <time>2021-06-03T08:58:04Z</time>
      </trkpt>
      <trkpt lat="47.22749" lon="6.03689">
        <ele>311.8</ele>
        <time>2021-06-03T08:58:05Z</time>
      </trkpt>
      <trkpt lat="47.22747" lon="6.03697">
        <ele>311.2</ele>
        <time>2021-06-03T08:58:06Z</time>
      </trkpt>
      <trkpt lat="47.22744" lon="6.03706">
        <ele>310.4</ele>
        <time>2021-06-03T08:58:07Z</time>
      </trkpt>
      <trkpt lat="47.22741" lon="6.03713">
        <ele>309.8</ele>
        <time>2021-06-03T08:58:08Z</time>
      </trkpt>
      <trkpt lat="47.22738" lon="6.03719">
        <ele>308.8</ele>
        <time>2021-06-03T08:58:09Z</time>
      </trkpt>
      <trkpt lat="47.22735" lon="6.03724">
        <ele>307.6</ele>
        <time>2021-06-03T08:58:10Z</time>
      </trkpt>
      <trkpt lat="47.22734" lon="6.03729">
        <ele>307</ele>
        <time>2021-06-03T08:58:11Z</time>
      </trkpt>
      <trkpt lat="47.22733" lon="6.03734">
        <ele>305.6</ele>
        <time>2021-06-03T08:58:12Z</time>
      </trkpt>
      <trkpt lat="47.22733" lon="6.03738">
        <ele>305</ele>
        <time>2021-06-03T08:58:13Z</time>
      </trkpt>
      <trkpt lat="47.22733" lon="6.03743">
        <ele>304</ele>
        <time>2021-06-03T08:58:14Z</time>
      </trkpt>
      <trkpt lat="47.22735" lon="6.03747">
        <ele>303.6</ele>
        <time>2021-06-03T08:58:15Z</time>
      </trkpt>
      <trkpt lat="47.22739" lon="6.03749">
        <ele>302.6</ele>
        <time>2021-06-03T08:58:16Z</time>
      </trkpt>
      <trkpt lat="47.22743" lon="6.03749">
        <ele>302.2</ele>
        <time>2021-06-03T08:58:17Z</time>
      </trkpt>
      <trkpt lat="47.22752" lon="6.03745">
        <ele>301</ele>
        <time>2021-06-03T08:58:19Z</time>
      </trkpt>
      <trkpt lat="47.22757" lon="6.03744">
        <ele>300.4</ele>
        <time>2021-06-03T08:58:20Z</time>
      </trkpt>
      <trkpt lat="47.22762" lon="6.03743">
        <ele>299.6</ele>
        <time>2021-06-03T08:58:21Z</time>
      </trkpt>
      <trkpt lat="47.22765" lon="6.03744">
        <ele>299</ele>
        <time>2021-06-03T08:58:22Z</time>
      </trkpt>
      <trkpt lat="47.22768" lon="6.0375">
        <ele>297.6</ele>
        <time>2021-06-03T08:58:23Z</time>
      </trkpt>
      <trkpt lat="47.22768" lon="6.03753">
        <ele>296.4</ele>
        <time>2021-06-03T08:58:24Z</time>
      </trkpt>
      <trkpt lat="47.22766" lon="6.03757">
        <ele>296</ele>
        <time>2021-06-03T08:58:25Z</time>
      </trkpt>
      <trkpt lat="47.22763" lon="6.03761">
        <ele>295.2</ele>
        <time>2021-06-03T08:58:26Z</time>
      </trkpt>
      <trkpt lat="47.2276" lon="6.03764">
        <ele>294.6</ele>
        <time>2021-06-03T08:58:27Z</time>
      </trkpt>
      <trkpt lat="47.22754" lon="6.03767">
        <ele>293.2</ele>
        <time>2021-06-03T08:58:28Z</time>
      </trkpt>
      <trkpt lat="47.22748" lon="6.03769">
        <ele>292.6</ele>
        <time>2021-06-03T08:58:29Z</time>
      </trkpt>
      <trkpt lat="47.22743" lon="6.03771">
        <ele>291.6</ele>
        <time>2021-06-03T08:58:30Z</time>
      </trkpt>
      <trkpt lat="47.2274" lon="6.03776">
        <ele>290.8</ele>
        <time>2021-06-03T08:58:31Z</time>
      </trkpt>
      <trkpt lat="47.22739" lon="6.03778">
        <ele>290.4</ele>
        <time>2021-06-03T08:58:32Z</time>
      </trkpt>
      <trkpt lat="47.22739" lon="6.03783">
        <ele>289.4</ele>
        <time>2021-06-03T08:58:33Z</time>
      </trkpt>
      <trkpt lat="47.22745" lon="6.03796">
        <ele>287.6</ele>
        <time>2021-06-03T08:58:35Z</time>
      </trkpt>
      <trkpt lat="47.22751" lon="6.03794">
        <ele>286.4</ele>
        <time>2021-06-03T08:58:37Z</time>
      </trkpt>
      <trkpt lat="47.22756" lon="6.03792">
        <ele>286</ele>
        <time>2021-06-03T08:58:38Z</time>
      </trkpt>
      <trkpt lat="47.22761" lon="6.0379">
        <ele>285.2</ele>
        <time>2021-06-03T08:58:39Z</time>
      </trkpt>
      <trkpt lat="47.22766" lon="6.03789">
        <ele>284.4</ele>
        <time>2021-06-03T08:58:40Z</time>
      </trkpt>
      <trkpt lat="47.22772" lon="6.03788">
        <ele>283.6</ele>
        <time>2021-06-03T08:58:41Z</time>
      </trkpt>
      <trkpt lat="47.22778" lon="6.03787">
        <ele>282.2</ele>
        <time>2021-06-03T08:58:42Z</time>
      </trkpt>
      <trkpt lat="47.22781" lon="6.03787">
        <ele>281.6</ele>
        <time>2021-06-03T08:58:43Z</time>
      </trkpt>
      <trkpt lat="47.22784" lon="6.03787">
        <ele>280.2</ele>
        <time>2021-06-03T08:58:44Z</time>
      </trkpt>
      <trkpt lat="47.22785" lon="6.03786">
        <ele>279.8</ele>
        <time>2021-06-03T08:58:45Z</time>
      </trkpt>
      <trkpt lat="47.22789" lon="6.03787">
        <ele>279</ele>
        <time>2021-06-03T08:58:46Z</time>
      </trkpt>
      <trkpt lat="47.22791" lon="6.03791">
        <ele>278</ele>
        <time>2021-06-03T08:58:47Z</time>
      </trkpt>
      <trkpt lat="47.22787" lon="6.03803">
        <ele>276.6</ele>
        <time>2021-06-03T08:58:49Z</time>
      </trkpt>
      <trkpt lat="47.2278" lon="6.03813">
        <ele>275.4</ele>
        <time>2021-06-03T08:58:51Z</time>
      </trkpt>
      <trkpt lat="47.22777" lon="6.03817">
        <ele>275</ele>
        <time>2021-06-03T08:58:52Z</time>
      </trkpt>
      <trkpt lat="47.22775" lon="6.03821">
        <ele>274</ele>
        <time>2021-06-03T08:58:53Z</time>
      </trkpt>
      <trkpt lat="47.22773" lon="6.03825">
        <ele>272.8</ele>
        <time>2021-06-03T08:58:54Z</time>
      </trkpt>
      <trkpt lat="47.22772" lon="6.03829">
        <ele>272.2</ele>
        <time>2021-06-03T08:58:55Z</time>
      </trkpt>
      <trkpt lat="47.2277" lon="6.03833">
        <ele>271.6</ele>
        <time>2021-06-03T08:58:56Z</time>
      </trkpt>
      <trkpt lat="47.22768" lon="6.03836">
        <ele>271.2</ele>
        <time>2021-06-03T08:58:57Z</time>
      </trkpt>
      <trkpt lat="47.22766" lon="6.03839">
        <ele>270.6</ele>
        <time>2021-06-03T08:58:58Z</time>
      </trkpt>
      <trkpt lat="47.22765" lon="6.03841">
        <ele>270.2</ele>
        <time>2021-06-03T08:58:59Z</time>
      </trkpt>
      <trkpt lat="47.22763" lon="6.03843">
        <ele>269.4</ele>
        <time>2021-06-03T08:59:00Z</time>
      </trkpt>
      <trkpt lat="47.22763" lon="6.03843">
        <ele>269.2</ele>
        <time>2021-06-03T08:59:01Z</time>
      </trkpt>
      <trkpt lat="47.22763" lon="6.03843">
        <ele>268.2</ele>
        <time>2021-06-03T08:59:03Z</time>
      </trkpt>
      <trkpt lat="47.2276" lon="6.03843">
        <ele>267.6</ele>
        <time>2021-06-03T08:59:06Z</time>
      </trkpt>
      <trkpt lat="47.22754" lon="6.03847">
        <ele>267.2</ele>
        <time>2021-06-03T08:59:09Z</time>
      </trkpt>
      <trkpt lat="47.22754" lon="6.03851">
        <ele>267.2</ele>
        <time>2021-06-03T08:59:10Z</time>
      </trkpt>
      <trkpt lat="47.22753" lon="6.03856">
        <ele>267</ele>
        <time>2021-06-03T08:59:11Z</time>
      </trkpt>
      <trkpt lat="47.22753" lon="6.03866">
        <ele>266.8</ele>
        <time>2021-06-03T08:59:13Z</time>
      </trkpt>
      <trkpt lat="47.22753" lon="6.03869">
        <ele>266.4</ele>
        <time>2021-06-03T08:59:14Z</time>
      </trkpt>
      <trkpt lat="47.22751" lon="6.03873">
        <ele>266.2</ele>
        <time>2021-06-03T08:59:15Z</time>
      </trkpt>
      <trkpt lat="47.22751" lon="6.03873">
        <ele>265.6</ele>
        <time>2021-06-03T08:59:16Z</time>
      </trkpt>
      <trkpt lat="47.22751" lon="6.03873">
        <ele>264.6</ele>
        <time>2021-06-03T08:59:18Z</time>
      </trkpt>
      <trkpt lat="47.22751" lon="6.03873">
        <ele>264.2</ele>
        <time>2021-06-03T08:59:19Z</time>
      </trkpt>
      <trkpt lat="47.22753" lon="6.03875">
        <ele>263.6</ele>
        <time>2021-06-03T08:59:32Z</time>
      </trkpt>
      <trkpt lat="47.22755" lon="6.03877">
        <ele>263.6</ele>
        <time>2021-06-03T08:59:33Z</time>
      </trkpt>
      <trkpt lat="47.22757" lon="6.03876">
        <ele>263.6</ele>
        <time>2021-06-03T08:59:34Z</time>
      </trkpt>
      <trkpt lat="47.22763" lon="6.03871">
        <ele>263.6</ele>
        <time>2021-06-03T08:59:36Z</time>
      </trkpt>
      <trkpt lat="47.22774" lon="6.03857">
        <ele>263.2</ele>
        <time>2021-06-03T08:59:40Z</time>
      </trkpt>
      <trkpt lat="47.22783" lon="6.03849">
        <ele>262.8</ele>
        <time>2021-06-03T08:59:42Z</time>
      </trkpt>
      <trkpt lat="47.2279" lon="6.03843">
        <ele>262.4</ele>
        <time>2021-06-03T08:59:44Z</time>
      </trkpt>
      <trkpt lat="47.22794" lon="6.0384">
        <ele>262.4</ele>
        <time>2021-06-03T08:59:45Z</time>
      </trkpt>
      <trkpt lat="47.22799" lon="6.03838">
        <ele>262.4</ele>
        <time>2021-06-03T08:59:46Z</time>
      </trkpt>
      <trkpt lat="47.22811" lon="6.03836">
        <ele>262</ele>
        <time>2021-06-03T08:59:49Z</time>
      </trkpt>
      <trkpt lat="47.22814" lon="6.03836">
        <ele>261.8</ele>
        <time>2021-06-03T08:59:50Z</time>
      </trkpt>
      <trkpt lat="47.22816" lon="6.03837">
        <ele>261.4</ele>
        <time>2021-06-03T08:59:51Z</time>
      </trkpt>
      <trkpt lat="47.22817" lon="6.0384">
        <ele>261.2</ele>
        <time>2021-06-03T08:59:52Z</time>
      </trkpt>
      <trkpt lat="47.22816" lon="6.03843">
        <ele>261</ele>
        <time>2021-06-03T08:59:53Z</time>
      </trkpt>
      <trkpt lat="47.22814" lon="6.03845">
        <ele>260.6</ele>
        <time>2021-06-03T08:59:54Z</time>
      </trkpt>
      <trkpt lat="47.22801" lon="6.03846">
        <ele>260.4</ele>
        <time>2021-06-03T08:59:57Z</time>
      </trkpt>
      <trkpt lat="47.22796" lon="6.03848">
        <ele>260.4</ele>
        <time>2021-06-03T08:59:58Z</time>
      </trkpt>
      <trkpt lat="47.22787" lon="6.03854">
        <ele>260</ele>
        <time>2021-06-03T09:00:00Z</time>
      </trkpt>
      <trkpt lat="47.22782" lon="6.03858">
        <ele>260</ele>
        <time>2021-06-03T09:00:01Z</time>
      </trkpt>
      <trkpt lat="47.22777" lon="6.03863">
        <ele>259.6</ele>
        <time>2021-06-03T09:00:02Z</time>
      </trkpt>
      <trkpt lat="47.22773" lon="6.03868">
        <ele>259.2</ele>
        <time>2021-06-03T09:00:03Z</time>
      </trkpt>
      <trkpt lat="47.22769" lon="6.03873">
        <ele>259</ele>
        <time>2021-06-03T09:00:04Z</time>
      </trkpt>
      <trkpt lat="47.22765" lon="6.0388">
        <ele>258.6</ele>
        <time>2021-06-03T09:00:05Z</time>
      </trkpt>
      <trkpt lat="47.22761" lon="6.03887">
        <ele>258.4</ele>
        <time>2021-06-03T09:00:06Z</time>
      </trkpt>
      <trkpt lat="47.22746" lon="6.03907">
        <ele>257.4</ele>
        <time>2021-06-03T09:00:09Z</time>
      </trkpt>
      <trkpt lat="47.22742" lon="6.03912">
        <ele>257</ele>
        <time>2021-06-03T09:00:10Z</time>
      </trkpt>
      <trkpt lat="47.22734" lon="6.03926">
        <ele>256.4</ele>
        <time>2021-06-03T09:00:12Z</time>
      </trkpt>
      <trkpt lat="47.2273" lon="6.03933">
        <ele>256</ele>
        <time>2021-06-03T09:00:13Z</time>
      </trkpt>
      <trkpt lat="47.22728" lon="6.03942">
        <ele>255.6</ele>
        <time>2021-06-03T09:00:14Z</time>
      </trkpt>
      <trkpt lat="47.22726" lon="6.03951">
        <ele>255.4</ele>
        <time>2021-06-03T09:00:15Z</time>
      </trkpt>
      <trkpt lat="47.22722" lon="6.03959">
        <ele>255</ele>
        <time>2021-06-03T09:00:16Z</time>
      </trkpt>
      <trkpt lat="47.22719" lon="6.03965">
        <ele>254.8</ele>
        <time>2021-06-03T09:00:17Z</time>
      </trkpt>
      <trkpt lat="47.22715" lon="6.03971">
        <ele>254.6</ele>
        <time>2021-06-03T09:00:18Z</time>
      </trkpt>
      <trkpt lat="47.2271" lon="6.03977">
        <ele>254.6</ele>
        <time>2021-06-03T09:00:19Z</time>
      </trkpt>
      <trkpt lat="47.22704" lon="6.03982">
        <ele>254.4</ele>
        <time>2021-06-03T09:00:20Z</time>
      </trkpt>
      <trkpt lat="47.22701" lon="6.03987">
        <ele>254.4</ele>
        <time>2021-06-03T09:00:21Z</time>
      </trkpt>
      <trkpt lat="47.22697" lon="6.03995">
        <ele>254.4</ele>
        <time>2021-06-03T09:00:22Z</time>
      </trkpt>
      <trkpt lat="47.22691" lon="6.0401">
        <ele>254.2</ele>
        <time>2021-06-03T09:00:24Z</time>
      </trkpt>
      <trkpt lat="47.2269" lon="6.04016">
        <ele>254.2</ele>
        <time>2021-06-03T09:00:25Z</time>
      </trkpt>
      <trkpt lat="47.22687" lon="6.04023">
        <ele>254.2</ele>
        <time>2021-06-03T09:00:26Z</time>
      </trkpt>
      <trkpt lat="47.22683" lon="6.04027">
        <ele>254.2</ele>
        <time>2021-06-03T09:00:27Z</time>
      </trkpt>
      <trkpt lat="47.22679" lon="6.04036">
        <ele>254.2</ele>
        <time>2021-06-03T09:00:28Z</time>
      </trkpt>
      <trkpt lat="47.22676" lon="6.0404">
        <ele>254.2</ele>
        <time>2021-06-03T09:00:29Z</time>
      </trkpt>
      <trkpt lat="47.22675" lon="6.04044">
        <ele>254.2</ele>
        <time>2021-06-03T09:00:30Z</time>
      </trkpt>
      <trkpt lat="47.22672" lon="6.04049">
        <ele>254.2</ele>
        <time>2021-06-03T09:00:31Z</time>
      </trkpt>
      <trkpt lat="47.22669" lon="6.04054">
        <ele>254.2</ele>
        <time>2021-06-03T09:00:32Z</time>
      </trkpt>
      <trkpt lat="47.22668" lon="6.04058">
        <ele>254.2</ele>
        <time>2021-06-03T09:00:33Z</time>
      </trkpt>
      <trkpt lat="47.22666" lon="6.0406">
        <ele>254.2</ele>
        <time>2021-06-03T09:00:34Z</time>
      </trkpt>
      <trkpt lat="47.22664" lon="6.04062">
        <ele>254.2</ele>
        <time>2021-06-03T09:00:35Z</time>
      </trkpt>
      <trkpt lat="47.22662" lon="6.04066">
        <ele>254.2</ele>
        <time>2021-06-03T09:00:36Z</time>
      </trkpt>
      <trkpt lat="47.22649" lon="6.04092">
        <ele>254.4</ele>
        <time>2021-06-03T09:00:41Z</time>
      </trkpt>
      <trkpt lat="47.22642" lon="6.04109">
        <ele>254.6</ele>
        <time>2021-06-03T09:00:44Z</time>
      </trkpt>
      <trkpt lat="47.2264" lon="6.04119">
        <ele>254.6</ele>
        <time>2021-06-03T09:00:46Z</time>
      </trkpt>
      <trkpt lat="47.22638" lon="6.04125">
        <ele>254.6</ele>
        <time>2021-06-03T09:00:47Z</time>
      </trkpt>
      <trkpt lat="47.22637" lon="6.04133">
        <ele>254.6</ele>
        <time>2021-06-03T09:00:48Z</time>
      </trkpt>
      <trkpt lat="47.22636" lon="6.04141">
        <ele>254.4</ele>
        <time>2021-06-03T09:00:49Z</time>
      </trkpt>
      <trkpt lat="47.22636" lon="6.0415">
        <ele>254.4</ele>
        <time>2021-06-03T09:00:50Z</time>
      </trkpt>
      <trkpt lat="47.22636" lon="6.04172">
        <ele>254.6</ele>
        <time>2021-06-03T09:00:53Z</time>
      </trkpt>
      <trkpt lat="47.22633" lon="6.04185">
        <ele>254.8</ele>
        <time>2021-06-03T09:00:55Z</time>
      </trkpt>
      <trkpt lat="47.22631" lon="6.04192">
        <ele>254.8</ele>
        <time>2021-06-03T09:00:56Z</time>
      </trkpt>
      <trkpt lat="47.22629" lon="6.04198">
        <ele>254.8</ele>
        <time>2021-06-03T09:00:57Z</time>
      </trkpt>
      <trkpt lat="47.22625" lon="6.04211">
        <ele>255</ele>
        <time>2021-06-03T09:00:59Z</time>
      </trkpt>
      <trkpt lat="47.2262" lon="6.04222">
        <ele>255.2</ele>
        <time>2021-06-03T09:01:01Z</time>
      </trkpt>
      <trkpt lat="47.22616" lon="6.04234">
        <ele>255.4</ele>
        <time>2021-06-03T09:01:03Z</time>
      </trkpt>
      <trkpt lat="47.22613" lon="6.04238">
        <ele>255.4</ele>
        <time>2021-06-03T09:01:04Z</time>
      </trkpt>
      <trkpt lat="47.22611" lon="6.04243">
        <ele>255.4</ele>
        <time>2021-06-03T09:01:05Z</time>
      </trkpt>
      <trkpt lat="47.22609" lon="6.04249">
        <ele>255.6</ele>
        <time>2021-06-03T09:01:06Z</time>
      </trkpt>
      <trkpt lat="47.22606" lon="6.04252">
        <ele>255.6</ele>
        <time>2021-06-03T09:01:07Z</time>
      </trkpt>
      <trkpt lat="47.226" lon="6.04256">
        <ele>255.8</ele>
        <time>2021-06-03T09:01:08Z</time>
      </trkpt>
      <trkpt lat="47.22597" lon="6.04261">
        <ele>255.6</ele>
        <time>2021-06-03T09:01:09Z</time>
      </trkpt>
      <trkpt lat="47.22595" lon="6.04266">
        <ele>255.8</ele>
        <time>2021-06-03T09:01:10Z</time>
      </trkpt>
      <trkpt lat="47.22595" lon="6.04272">
        <ele>255.8</ele>
        <time>2021-06-03T09:01:11Z</time>
      </trkpt>
      <trkpt lat="47.22594" lon="6.04279">
        <ele>256</ele>
        <time>2021-06-03T09:01:12Z</time>
      </trkpt>
      <trkpt lat="47.22593" lon="6.04284">
        <ele>256.2</ele>
        <time>2021-06-03T09:01:13Z</time>
      </trkpt>
      <trkpt lat="47.22592" lon="6.0429">
        <ele>256.2</ele>
        <time>2021-06-03T09:01:14Z</time>
      </trkpt>
      <trkpt lat="47.22591" lon="6.04295">
        <ele>256.4</ele>
        <time>2021-06-03T09:01:15Z</time>
      </trkpt>
      <trkpt lat="47.2259" lon="6.043">
        <ele>256.6</ele>
        <time>2021-06-03T09:01:16Z</time>
      </trkpt>
      <trkpt lat="47.22588" lon="6.04304">
        <ele>256.8</ele>
        <time>2021-06-03T09:01:17Z</time>
      </trkpt>
      <trkpt lat="47.22581" lon="6.0434">
        <ele>257.4</ele>
        <time>2021-06-03T09:01:24Z</time>
      </trkpt>
      <trkpt lat="47.2258" lon="6.04345">
        <ele>257.4</ele>
        <time>2021-06-03T09:01:25Z</time>
      </trkpt>
      <trkpt lat="47.22572" lon="6.04386">
        <ele>258.2</ele>
        <time>2021-06-03T09:01:33Z</time>
      </trkpt>
      <trkpt lat="47.22569" lon="6.04401">
        <ele>258.4</ele>
        <time>2021-06-03T09:01:36Z</time>
      </trkpt>
      <trkpt lat="47.22568" lon="6.04406">
        <ele>258.4</ele>
        <time>2021-06-03T09:01:37Z</time>
      </trkpt>
      <trkpt lat="47.22565" lon="6.04426">
        <ele>258.8</ele>
        <time>2021-06-03T09:01:41Z</time>
      </trkpt>
      <trkpt lat="47.22564" lon="6.04432">
        <ele>259</ele>
        <time>2021-06-03T09:01:42Z</time>
      </trkpt>
      <trkpt lat="47.22564" lon="6.04448">
        <ele>259.4</ele>
        <time>2021-06-03T09:01:45Z</time>
      </trkpt>
      <trkpt lat="47.22563" lon="6.04457">
        <ele>259.6</ele>
        <time>2021-06-03T09:01:47Z</time>
      </trkpt>
      <trkpt lat="47.22562" lon="6.04462">
        <ele>259.8</ele>
        <time>2021-06-03T09:01:48Z</time>
      </trkpt>
      <trkpt lat="47.22561" lon="6.04467">
        <ele>260</ele>
        <time>2021-06-03T09:01:49Z</time>
      </trkpt>
      <trkpt lat="47.22561" lon="6.04471">
        <ele>260</ele>
        <time>2021-06-03T09:01:50Z</time>
      </trkpt>
      <trkpt lat="47.22561" lon="6.04476">
        <ele>260.2</ele>
        <time>2021-06-03T09:01:51Z</time>
      </trkpt>
      <trkpt lat="47.22561" lon="6.04481">
        <ele>260.2</ele>
        <time>2021-06-03T09:01:52Z</time>
      </trkpt>
      <trkpt lat="47.22561" lon="6.04487">
        <ele>260.2</ele>
        <time>2021-06-03T09:01:53Z</time>
      </trkpt>
      <trkpt lat="47.2256" lon="6.04492">
        <ele>260.2</ele>
        <time>2021-06-03T09:01:54Z</time>
      </trkpt>
      <trkpt lat="47.2256" lon="6.04497">
        <ele>260</ele>
        <time>2021-06-03T09:01:55Z</time>
      </trkpt>
      <trkpt lat="47.2256" lon="6.04503">
        <ele>260</ele>
        <time>2021-06-03T09:01:56Z</time>
      </trkpt>
      <trkpt lat="47.2256" lon="6.04509">
        <ele>260</ele>
        <time>2021-06-03T09:01:57Z</time>
      </trkpt>
      <trkpt lat="47.22559" lon="6.04536">
        <ele>260.2</ele>
        <time>2021-06-03T09:02:02Z</time>
      </trkpt>
      <trkpt lat="47.22562" lon="6.04552">
        <ele>260.4</ele>
        <time>2021-06-03T09:02:05Z</time>
      </trkpt>
      <trkpt lat="47.22562" lon="6.04563">
        <ele>260.6</ele>
        <time>2021-06-03T09:02:07Z</time>
      </trkpt>
      <trkpt lat="47.22561" lon="6.04568">
        <ele>260.6</ele>
        <time>2021-06-03T09:02:08Z</time>
      </trkpt>
      <trkpt lat="47.22562" lon="6.04574">
        <ele>260.8</ele>
        <time>2021-06-03T09:02:09Z</time>
      </trkpt>
      <trkpt lat="47.22563" lon="6.04585">
        <ele>260.8</ele>
        <time>2021-06-03T09:02:11Z</time>
      </trkpt>
      <trkpt lat="47.22563" lon="6.04592">
        <ele>260.8</ele>
        <time>2021-06-03T09:02:12Z</time>
      </trkpt>
      <trkpt lat="47.22563" lon="6.04598">
        <ele>260.8</ele>
        <time>2021-06-03T09:02:13Z</time>
      </trkpt>
      <trkpt lat="47.22564" lon="6.04605">
        <ele>260.8</ele>
        <time>2021-06-03T09:02:14Z</time>
      </trkpt>
      <trkpt lat="47.22568" lon="6.04628">
        <ele>260.8</ele>
        <time>2021-06-03T09:02:17Z</time>
      </trkpt>
      <trkpt lat="47.2257" lon="6.04636">
        <ele>260.8</ele>
        <time>2021-06-03T09:02:18Z</time>
      </trkpt>
      <trkpt lat="47.22573" lon="6.04651">
        <ele>260.6</ele>
        <time>2021-06-03T09:02:20Z</time>
      </trkpt>
      <trkpt lat="47.22577" lon="6.04674">
        <ele>259.8</ele>
        <time>2021-06-03T09:02:23Z</time>
      </trkpt>
      <trkpt lat="47.22581" lon="6.04683">
        <ele>259.8</ele>
        <time>2021-06-03T09:02:24Z</time>
      </trkpt>
      <trkpt lat="47.22586" lon="6.04715">
        <ele>259.2</ele>
        <time>2021-06-03T09:02:28Z</time>
      </trkpt>
      <trkpt lat="47.22587" lon="6.04723">
        <ele>259</ele>
        <time>2021-06-03T09:02:29Z</time>
      </trkpt>
      <trkpt lat="47.22589" lon="6.04739">
        <ele>258.6</ele>
        <time>2021-06-03T09:02:31Z</time>
      </trkpt>
      <trkpt lat="47.22589" lon="6.04747">
        <ele>258.6</ele>
        <time>2021-06-03T09:02:32Z</time>
      </trkpt>
      <trkpt lat="47.2259" lon="6.04756">
        <ele>258.4</ele>
        <time>2021-06-03T09:02:33Z</time>
      </trkpt>
      <trkpt lat="47.22591" lon="6.04774">
        <ele>258</ele>
        <time>2021-06-03T09:02:35Z</time>
      </trkpt>
      <trkpt lat="47.22592" lon="6.04782">
        <ele>257.8</ele>
        <time>2021-06-03T09:02:36Z</time>
      </trkpt>
      <trkpt lat="47.22595" lon="6.04826">
        <ele>257.2</ele>
        <time>2021-06-03T09:02:41Z</time>
      </trkpt>
      <trkpt lat="47.22598" lon="6.04843">
        <ele>256.6</ele>
        <time>2021-06-03T09:02:43Z</time>
      </trkpt>
      <trkpt lat="47.22601" lon="6.04867">
        <ele>256</ele>
        <time>2021-06-03T09:02:46Z</time>
      </trkpt>
      <trkpt lat="47.22601" lon="6.04874">
        <ele>255.8</ele>
        <time>2021-06-03T09:02:47Z</time>
      </trkpt>
      <trkpt lat="47.22606" lon="6.04882">
        <ele>255.6</ele>
        <time>2021-06-03T09:02:48Z</time>
      </trkpt>
      <trkpt lat="47.22609" lon="6.04889">
        <ele>255.4</ele>
        <time>2021-06-03T09:02:49Z</time>
      </trkpt>
      <trkpt lat="47.22611" lon="6.04896">
        <ele>255.4</ele>
        <time>2021-06-03T09:02:50Z</time>
      </trkpt>
      <trkpt lat="47.22613" lon="6.04903">
        <ele>255.2</ele>
        <time>2021-06-03T09:02:51Z</time>
      </trkpt>
      <trkpt lat="47.22615" lon="6.04917">
        <ele>255</ele>
        <time>2021-06-03T09:02:53Z</time>
      </trkpt>
      <trkpt lat="47.22618" lon="6.04926">
        <ele>255</ele>
        <time>2021-06-03T09:02:54Z</time>
      </trkpt>
      <trkpt lat="47.22622" lon="6.04935">
        <ele>254.8</ele>
        <time>2021-06-03T09:02:55Z</time>
      </trkpt>
      <trkpt lat="47.22624" lon="6.04944">
        <ele>254.8</ele>
        <time>2021-06-03T09:02:56Z</time>
      </trkpt>
      <trkpt lat="47.22627" lon="6.04954">
        <ele>254.6</ele>
        <time>2021-06-03T09:02:57Z</time>
      </trkpt>
      <trkpt lat="47.22632" lon="6.04971">
        <ele>254.4</ele>
        <time>2021-06-03T09:02:59Z</time>
      </trkpt>
      <trkpt lat="47.22638" lon="6.0499">
        <ele>254.2</ele>
        <time>2021-06-03T09:03:01Z</time>
      </trkpt>
      <trkpt lat="47.22642" lon="6.05">
        <ele>254.2</ele>
        <time>2021-06-03T09:03:02Z</time>
      </trkpt>
      <trkpt lat="47.22645" lon="6.05009">
        <ele>254.2</ele>
        <time>2021-06-03T09:03:03Z</time>
      </trkpt>
      <trkpt lat="47.2265" lon="6.05029">
        <ele>254</ele>
        <time>2021-06-03T09:03:05Z</time>
      </trkpt>
      <trkpt lat="47.22656" lon="6.05049">
        <ele>253.8</ele>
        <time>2021-06-03T09:03:07Z</time>
      </trkpt>
      <trkpt lat="47.22663" lon="6.05082">
        <ele>252.8</ele>
        <time>2021-06-03T09:03:10Z</time>
      </trkpt>
      <trkpt lat="47.22675" lon="6.05116">
        <ele>251.8</ele>
        <time>2021-06-03T09:03:13Z</time>
      </trkpt>
      <trkpt lat="47.22682" lon="6.05147">
        <ele>251.2</ele>
        <time>2021-06-03T09:03:16Z</time>
      </trkpt>
      <trkpt lat="47.22684" lon="6.05155">
        <ele>250.8</ele>
        <time>2021-06-03T09:03:17Z</time>
      </trkpt>
      <trkpt lat="47.22687" lon="6.05161">
        <ele>250.6</ele>
        <time>2021-06-03T09:03:18Z</time>
      </trkpt>
      <trkpt lat="47.22688" lon="6.05166">
        <ele>250.2</ele>
        <time>2021-06-03T09:03:19Z</time>
      </trkpt>
      <trkpt lat="47.22691" lon="6.05166">
        <ele>250.2</ele>
        <time>2021-06-03T09:03:20Z</time>
      </trkpt>
      <trkpt lat="47.22694" lon="6.05166">
        <ele>250.2</ele>
        <time>2021-06-03T09:03:21Z</time>
      </trkpt>
      <trkpt lat="47.22697" lon="6.05166">
        <ele>250</ele>
        <time>2021-06-03T09:03:22Z</time>
      </trkpt>
      <trkpt lat="47.22698" lon="6.05166">
        <ele>250</ele>
        <time>2021-06-03T09:03:23Z</time>
      </trkpt>
      <trkpt lat="47.227" lon="6.05166">
        <ele>250</ele>
        <time>2021-06-03T09:03:24Z</time>
      </trkpt>
      <trkpt lat="47.22702" lon="6.05169">
        <ele>249.8</ele>
        <time>2021-06-03T09:03:25Z</time>
      </trkpt>
      <trkpt lat="47.22702" lon="6.05172">
        <ele>249.8</ele>
        <time>2021-06-03T09:03:26Z</time>
      </trkpt>
      <trkpt lat="47.22705" lon="6.0518">
        <ele>249.6</ele>
        <time>2021-06-03T09:03:28Z</time>
      </trkpt>
      <trkpt lat="47.22706" lon="6.05184">
        <ele>249.4</ele>
        <time>2021-06-03T09:03:29Z</time>
      </trkpt>
      <trkpt lat="47.22707" lon="6.05188">
        <ele>249.4</ele>
        <time>2021-06-03T09:03:30Z</time>
      </trkpt>
      <trkpt lat="47.22707" lon="6.05192">
        <ele>249.2</ele>
        <time>2021-06-03T09:03:31Z</time>
      </trkpt>
      <trkpt lat="47.22707" lon="6.05196">
        <ele>249.2</ele>
        <time>2021-06-03T09:03:32Z</time>
      </trkpt>
      <trkpt lat="47.22714" lon="6.05215">
        <ele>248.8</ele>
        <time>2021-06-03T09:03:36Z</time>
      </trkpt>
      <trkpt lat="47.22715" lon="6.0522">
        <ele>248.8</ele>
        <time>2021-06-03T09:03:37Z</time>
      </trkpt>
      <trkpt lat="47.22731" lon="6.05263">
        <ele>248.8</ele>
        <time>2021-06-03T09:03:45Z</time>
      </trkpt>
      <trkpt lat="47.22733" lon="6.05269">
        <ele>248.8</ele>
        <time>2021-06-03T09:03:46Z</time>
      </trkpt>
      <trkpt lat="47.22735" lon="6.05281">
        <ele>248.8</ele>
        <time>2021-06-03T09:03:48Z</time>
      </trkpt>
      <trkpt lat="47.22739" lon="6.05294">
        <ele>248.8</ele>
        <time>2021-06-03T09:03:50Z</time>
      </trkpt>
      <trkpt lat="47.22748" lon="6.0532">
        <ele>248.8</ele>
        <time>2021-06-03T09:03:54Z</time>
      </trkpt>
      <trkpt lat="47.22753" lon="6.05333">
        <ele>248.8</ele>
        <time>2021-06-03T09:03:56Z</time>
      </trkpt>
      <trkpt lat="47.22764" lon="6.05361">
        <ele>248.6</ele>
        <time>2021-06-03T09:04:00Z</time>
      </trkpt>
      <trkpt lat="47.22769" lon="6.05374">
        <ele>248.6</ele>
        <time>2021-06-03T09:04:02Z</time>
      </trkpt>
      <trkpt lat="47.22774" lon="6.05388">
        <ele>248.4</ele>
        <time>2021-06-03T09:04:04Z</time>
      </trkpt>
      <trkpt lat="47.2278" lon="6.05402">
        <ele>248.4</ele>
        <time>2021-06-03T09:04:06Z</time>
      </trkpt>
      <trkpt lat="47.22783" lon="6.05409">
        <ele>248.4</ele>
        <time>2021-06-03T09:04:07Z</time>
      </trkpt>
      <trkpt lat="47.22791" lon="6.05427">
        <ele>248.4</ele>
        <time>2021-06-03T09:04:10Z</time>
      </trkpt>
      <trkpt lat="47.22803" lon="6.05452">
        <ele>248.4</ele>
        <time>2021-06-03T09:04:14Z</time>
      </trkpt>
      <trkpt lat="47.22809" lon="6.05465">
        <ele>248.4</ele>
        <time>2021-06-03T09:04:16Z</time>
      </trkpt>
      <trkpt lat="47.22819" lon="6.05483">
        <ele>248.4</ele>
        <time>2021-06-03T09:04:19Z</time>
      </trkpt>
      <trkpt lat="47.22827" lon="6.05496">
        <ele>248.4</ele>
        <time>2021-06-03T09:04:21Z</time>
      </trkpt>
      <trkpt lat="47.22861" lon="6.05553">
        <ele>248.4</ele>
        <time>2021-06-03T09:04:30Z</time>
      </trkpt>
      <trkpt lat="47.22894" lon="6.05603">
        <ele>248.4</ele>
        <time>2021-06-03T09:04:38Z</time>
      </trkpt>
      <trkpt lat="47.22901" lon="6.05614">
        <ele>248.4</ele>
        <time>2021-06-03T09:04:40Z</time>
      </trkpt>
      <trkpt lat="47.22905" lon="6.05619">
        <ele>248.4</ele>
        <time>2021-06-03T09:04:41Z</time>
      </trkpt>
      <trkpt lat="47.22908" lon="6.05624">
        <ele>248.4</ele>
        <time>2021-06-03T09:04:42Z</time>
      </trkpt>
      <trkpt lat="47.22911" lon="6.05628">
        <ele>248.4</ele>
        <time>2021-06-03T09:04:43Z</time>
      </trkpt>
      <trkpt lat="47.22912" lon="6.0563">
        <ele>248.4</ele>
        <time>2021-06-03T09:04:44Z</time>
      </trkpt>
      <trkpt lat="47.22913" lon="6.05632">
        <ele>248.4</ele>
        <time>2021-06-03T09:04:45Z</time>
      </trkpt>
      <trkpt lat="47.22913" lon="6.05632">
        <ele>248.4</ele>
        <time>2021-06-03T09:04:46Z</time>
      </trkpt>
      <trkpt lat="47.22913" lon="6.05632">
        <ele>248.6</ele>
        <time>2021-06-03T09:04:55Z</time>
      </trkpt>
      <trkpt lat="47.22913" lon="6.05632">
        <ele>248.8</ele>
        <time>2021-06-03T09:05:22Z</time>
      </trkpt>
      <trkpt lat="47.22913" lon="6.05632">
        <ele>248.4</ele>
        <time>2021-06-03T09:05:31Z</time>
      </trkpt>
      <trkpt lat="47.22916" lon="6.05633">
        <ele>248.4</ele>
        <time>2021-06-03T09:05:33Z</time>
      </trkpt>
      <trkpt lat="47.22917" lon="6.05635">
        <ele>248.4</ele>
        <time>2021-06-03T09:05:34Z</time>
      </trkpt>
      <trkpt lat="47.2292" lon="6.05641">
        <ele>248.4</ele>
        <time>2021-06-03T09:05:36Z</time>
      </trkpt>
      <trkpt lat="47.22922" lon="6.05644">
        <ele>248.4</ele>
        <time>2021-06-03T09:05:37Z</time>
      </trkpt>
      <trkpt lat="47.2293" lon="6.05653">
        <ele>248.6</ele>
        <time>2021-06-03T09:05:40Z</time>
      </trkpt>
      <trkpt lat="47.22936" lon="6.05663">
        <ele>248.6</ele>
        <time>2021-06-03T09:05:43Z</time>
      </trkpt>
      <trkpt lat="47.22938" lon="6.05667">
        <ele>248.6</ele>
        <time>2021-06-03T09:05:44Z</time>
      </trkpt>
      <trkpt lat="47.22943" lon="6.05673">
        <ele>248.6</ele>
        <time>2021-06-03T09:05:46Z</time>
      </trkpt>
      <trkpt lat="47.22961" lon="6.057">
        <ele>248.4</ele>
        <time>2021-06-03T09:05:53Z</time>
      </trkpt>
      <trkpt lat="47.22974" lon="6.05717">
        <ele>248.4</ele>
        <time>2021-06-03T09:05:57Z</time>
      </trkpt>
      <trkpt lat="47.2298" lon="6.05726">
        <ele>248.4</ele>
        <time>2021-06-03T09:05:59Z</time>
      </trkpt>
      <trkpt lat="47.23009" lon="6.05758">
        <ele>248.2</ele>
        <time>2021-06-03T09:06:07Z</time>
      </trkpt>
      <trkpt lat="47.23038" lon="6.05788">
        <ele>248.2</ele>
        <time>2021-06-03T09:06:15Z</time>
      </trkpt>
      <trkpt lat="47.23042" lon="6.05791">
        <ele>248.4</ele>
        <time>2021-06-03T09:06:16Z</time>
      </trkpt>
      <trkpt lat="47.23046" lon="6.05794">
        <ele>248.4</ele>
        <time>2021-06-03T09:06:17Z</time>
      </trkpt>
      <trkpt lat="47.2305" lon="6.05798">
        <ele>248.4</ele>
        <time>2021-06-03T09:06:18Z</time>
      </trkpt>
      <trkpt lat="47.23054" lon="6.058">
        <ele>248.4</ele>
        <time>2021-06-03T09:06:19Z</time>
      </trkpt>
      <trkpt lat="47.23057" lon="6.05803">
        <ele>248.4</ele>
        <time>2021-06-03T09:06:20Z</time>
      </trkpt>
      <trkpt lat="47.23061" lon="6.05806">
        <ele>248.4</ele>
        <time>2021-06-03T09:06:21Z</time>
      </trkpt>
      <trkpt lat="47.23067" lon="6.05812">
        <ele>248.4</ele>
        <time>2021-06-03T09:06:23Z</time>
      </trkpt>
      <trkpt lat="47.2307" lon="6.05815">
        <ele>248.4</ele>
        <time>2021-06-03T09:06:24Z</time>
      </trkpt>
      <trkpt lat="47.23072" lon="6.05817">
        <ele>248.6</ele>
        <time>2021-06-03T09:06:25Z</time>
      </trkpt>
      <trkpt lat="47.23075" lon="6.05819">
        <ele>248.6</ele>
        <time>2021-06-03T09:06:26Z</time>
      </trkpt>
      <trkpt lat="47.23077" lon="6.0582">
        <ele>249</ele>
        <time>2021-06-03T09:06:27Z</time>
      </trkpt>
      <trkpt lat="47.23079" lon="6.05822">
        <ele>249</ele>
        <time>2021-06-03T09:06:28Z</time>
      </trkpt>
      <trkpt lat="47.23081" lon="6.05823">
        <ele>249.2</ele>
        <time>2021-06-03T09:06:29Z</time>
      </trkpt>
      <trkpt lat="47.23083" lon="6.05823">
        <ele>249.2</ele>
        <time>2021-06-03T09:06:30Z</time>
      </trkpt>
      <trkpt lat="47.23084" lon="6.0582">
        <ele>249.2</ele>
        <time>2021-06-03T09:06:31Z</time>
      </trkpt>
      <trkpt lat="47.23084" lon="6.05818">
        <ele>249.4</ele>
        <time>2021-06-03T09:06:32Z</time>
      </trkpt>
      <trkpt lat="47.23083" lon="6.05816">
        <ele>249.4</ele>
        <time>2021-06-03T09:06:33Z</time>
      </trkpt>
      <trkpt lat="47.23083" lon="6.05815">
        <ele>249.6</ele>
        <time>2021-06-03T09:06:34Z</time>
      </trkpt>
      <trkpt lat="47.23082" lon="6.05814">
        <ele>249.6</ele>
        <time>2021-06-03T09:06:35Z</time>
      </trkpt>
      <trkpt lat="47.23082" lon="6.05814">
        <ele>249.6</ele>
        <time>2021-06-03T09:06:36Z</time>
      </trkpt>
      <trkpt lat="47.23082" lon="6.05814">
        <ele>249.6</ele>
        <time>2021-06-03T09:06:37Z</time>
      </trkpt>
      <trkpt lat="47.23082" lon="6.05814">
        <ele>249.6</ele>
        <time>2021-06-03T09:06:38Z</time>
      </trkpt>
      <trkpt lat="47.23082" lon="6.05813">
        <ele>249.8</ele>
        <time>2021-06-03T09:06:39Z</time>
      </trkpt>
      <trkpt lat="47.23083" lon="6.05807">
        <ele>249.8</ele>
        <time>2021-06-03T09:06:41Z</time>
      </trkpt>
      <trkpt lat="47.23084" lon="6.05803">
        <ele>250</ele>
        <time>2021-06-03T09:06:42Z</time>
      </trkpt>
      <trkpt lat="47.23084" lon="6.058">
        <ele>250.2</ele>
        <time>2021-06-03T09:06:43Z</time>
      </trkpt>
      <trkpt lat="47.23085" lon="6.05799">
        <ele>250.2</ele>
        <time>2021-06-03T09:06:44Z</time>
      </trkpt>
      <trkpt lat="47.23087" lon="6.058">
        <ele>250.4</ele>
        <time>2021-06-03T09:06:45Z</time>
      </trkpt>
      <trkpt lat="47.23089" lon="6.05801">
        <ele>250.4</ele>
        <time>2021-06-03T09:06:46Z</time>
      </trkpt>
      <trkpt lat="47.23097" lon="6.05809">
        <ele>251</ele>
        <time>2021-06-03T09:06:50Z</time>
      </trkpt>
      <trkpt lat="47.23105" lon="6.05817">
        <ele>251.6</ele>
        <time>2021-06-03T09:06:54Z</time>
      </trkpt>
      <trkpt lat="47.23113" lon="6.05824">
        <ele>252.2</ele>
        <time>2021-06-03T09:06:58Z</time>
      </trkpt>
      <trkpt lat="47.23115" lon="6.05826">
        <ele>252.4</ele>
        <time>2021-06-03T09:06:59Z</time>
      </trkpt>
      <trkpt lat="47.23116" lon="6.05825">
        <ele>252.8</ele>
        <time>2021-06-03T09:07:00Z</time>
      </trkpt>
      <trkpt lat="47.23118" lon="6.05824">
        <ele>252.8</ele>
        <time>2021-06-03T09:07:01Z</time>
      </trkpt>
      <trkpt lat="47.2312" lon="6.05821">
        <ele>253</ele>
        <time>2021-06-03T09:07:02Z</time>
      </trkpt>
      <trkpt lat="47.23121" lon="6.05818">
        <ele>253.2</ele>
        <time>2021-06-03T09:07:03Z</time>
      </trkpt>
      <trkpt lat="47.23123" lon="6.05815">
        <ele>253.4</ele>
        <time>2021-06-03T09:07:04Z</time>
      </trkpt>
      <trkpt lat="47.23124" lon="6.05811">
        <ele>253.6</ele>
        <time>2021-06-03T09:07:05Z</time>
      </trkpt>
      <trkpt lat="47.23126" lon="6.05807">
        <ele>253.8</ele>
        <time>2021-06-03T09:07:06Z</time>
      </trkpt>
      <trkpt lat="47.23126" lon="6.05803">
        <ele>253.8</ele>
        <time>2021-06-03T09:07:07Z</time>
      </trkpt>
      <trkpt lat="47.23127" lon="6.05799">
        <ele>254</ele>
        <time>2021-06-03T09:07:08Z</time>
      </trkpt>
      <trkpt lat="47.23128" lon="6.05796">
        <ele>254</ele>
        <time>2021-06-03T09:07:09Z</time>
      </trkpt>
      <trkpt lat="47.23128" lon="6.05793">
        <ele>254</ele>
        <time>2021-06-03T09:07:10Z</time>
      </trkpt>
      <trkpt lat="47.23129" lon="6.05791">
        <ele>254.4</ele>
        <time>2021-06-03T09:07:11Z</time>
      </trkpt>
      <trkpt lat="47.23129" lon="6.05789">
        <ele>254.4</ele>
        <time>2021-06-03T09:07:12Z</time>
      </trkpt>
      <trkpt lat="47.23129" lon="6.05786">
        <ele>254.6</ele>
        <time>2021-06-03T09:07:13Z</time>
      </trkpt>
      <trkpt lat="47.23129" lon="6.05783">
        <ele>254.8</ele>
        <time>2021-06-03T09:07:14Z</time>
      </trkpt>
      <trkpt lat="47.2313" lon="6.0578">
        <ele>255</ele>
        <time>2021-06-03T09:07:15Z</time>
      </trkpt>
      <trkpt lat="47.23131" lon="6.05778">
        <ele>255</ele>
        <time>2021-06-03T09:07:16Z</time>
      </trkpt>
      <trkpt lat="47.23132" lon="6.05775">
        <ele>255.2</ele>
        <time>2021-06-03T09:07:17Z</time>
      </trkpt>
      <trkpt lat="47.23133" lon="6.05773">
        <ele>255.2</ele>
        <time>2021-06-03T09:07:18Z</time>
      </trkpt>
      <trkpt lat="47.23134" lon="6.05771">
        <ele>255.2</ele>
        <time>2021-06-03T09:07:19Z</time>
      </trkpt>
      <trkpt lat="47.23134" lon="6.05769">
        <ele>255.4</ele>
        <time>2021-06-03T09:07:20Z</time>
      </trkpt>
      <trkpt lat="47.23135" lon="6.05767">
        <ele>255.4</ele>
        <time>2021-06-03T09:07:21Z</time>
      </trkpt>
      <trkpt lat="47.23135" lon="6.05767">
        <ele>255.4</ele>
        <time>2021-06-03T09:07:22Z</time>
      </trkpt>
      <trkpt lat="47.23135" lon="6.05767">
        <ele>255.2</ele>
        <time>2021-06-03T09:07:23Z</time>
      </trkpt>
      <trkpt lat="47.23135" lon="6.05767">
        <ele>255.2</ele>
        <time>2021-06-03T09:07:28Z</time>
      </trkpt>
      <trkpt lat="47.23136" lon="6.05764">
        <ele>255.2</ele>
        <time>2021-06-03T09:07:32Z</time>
      </trkpt>
      <trkpt lat="47.23141" lon="6.05752">
        <ele>255</ele>
        <time>2021-06-03T09:07:38Z</time>
      </trkpt>
      <trkpt lat="47.23151" lon="6.0573">
        <ele>254.8</ele>
        <time>2021-06-03T09:07:44Z</time>
      </trkpt>
      <trkpt lat="47.23156" lon="6.05719">
        <ele>254.6</ele>
        <time>2021-06-03T09:07:47Z</time>
      </trkpt>
      <trkpt lat="47.23156" lon="6.05717">
        <ele>254.6</ele>
        <time>2021-06-03T09:07:48Z</time>
      </trkpt>
      <trkpt lat="47.23154" lon="6.05714">
        <ele>254.6</ele>
        <time>2021-06-03T09:07:49Z</time>
      </trkpt>
      <trkpt lat="47.2314" lon="6.05704">
        <ele>254.2</ele>
        <time>2021-06-03T09:07:53Z</time>
      </trkpt>
      <trkpt lat="47.23131" lon="6.05698">
        <ele>253.8</ele>
        <time>2021-06-03T09:07:55Z</time>
      </trkpt>
      <trkpt lat="47.23111" lon="6.05682">
        <ele>253</ele>
        <time>2021-06-03T09:07:59Z</time>
      </trkpt>
      <trkpt lat="47.23106" lon="6.05679">
        <ele>252.4</ele>
        <time>2021-06-03T09:08:00Z</time>
      </trkpt>
      <trkpt lat="47.23101" lon="6.05675">
        <ele>252</ele>
        <time>2021-06-03T09:08:01Z</time>
      </trkpt>
      <trkpt lat="47.23097" lon="6.05671">
        <ele>251.8</ele>
        <time>2021-06-03T09:08:02Z</time>
      </trkpt>
      <trkpt lat="47.23094" lon="6.05666">
        <ele>251.8</ele>
        <time>2021-06-03T09:08:03Z</time>
      </trkpt>
      <trkpt lat="47.23092" lon="6.05661">
        <ele>251.4</ele>
        <time>2021-06-03T09:08:04Z</time>
      </trkpt>
      <trkpt lat="47.23091" lon="6.05655">
        <ele>251</ele>
        <time>2021-06-03T09:08:05Z</time>
      </trkpt>
      <trkpt lat="47.2309" lon="6.05649">
        <ele>250.8</ele>
        <time>2021-06-03T09:08:06Z</time>
      </trkpt>
      <trkpt lat="47.2309" lon="6.05643">
        <ele>250.6</ele>
        <time>2021-06-03T09:08:07Z</time>
      </trkpt>
      <trkpt lat="47.2309" lon="6.0563">
        <ele>250.4</ele>
        <time>2021-06-03T09:08:09Z</time>
      </trkpt>
      <trkpt lat="47.2309" lon="6.05619">
        <ele>250.2</ele>
        <time>2021-06-03T09:08:11Z</time>
      </trkpt>
      <trkpt lat="47.23091" lon="6.05615">
        <ele>250.2</ele>
        <time>2021-06-03T09:08:12Z</time>
      </trkpt>
      <trkpt lat="47.23092" lon="6.05612">
        <ele>250.2</ele>
        <time>2021-06-03T09:08:13Z</time>
      </trkpt>
      <trkpt lat="47.23094" lon="6.0561">
        <ele>250.2</ele>
        <time>2021-06-03T09:08:14Z</time>
      </trkpt>
      <trkpt lat="47.23097" lon="6.0561">
        <ele>250.2</ele>
        <time>2021-06-03T09:08:15Z</time>
      </trkpt>
      <trkpt lat="47.23108" lon="6.05608">
        <ele>249.8</ele>
        <time>2021-06-03T09:08:19Z</time>
      </trkpt>
      <trkpt lat="47.23135" lon="6.05606">
        <ele>249.6</ele>
        <time>2021-06-03T09:08:27Z</time>
      </trkpt>
      <trkpt lat="47.23138" lon="6.05607">
        <ele>249.8</ele>
        <time>2021-06-03T09:08:28Z</time>
      </trkpt>
      <trkpt lat="47.23141" lon="6.0561">
        <ele>249.8</ele>
        <time>2021-06-03T09:08:29Z</time>
      </trkpt>
      <trkpt lat="47.23144" lon="6.05612">
        <ele>249.8</ele>
        <time>2021-06-03T09:08:30Z</time>
      </trkpt>
      <trkpt lat="47.23147" lon="6.05616">
        <ele>249.8</ele>
        <time>2021-06-03T09:08:31Z</time>
      </trkpt>
      <trkpt lat="47.23149" lon="6.05619">
        <ele>249.8</ele>
        <time>2021-06-03T09:08:32Z</time>
      </trkpt>
      <trkpt lat="47.23154" lon="6.05625">
        <ele>249.8</ele>
        <time>2021-06-03T09:08:34Z</time>
      </trkpt>
      <trkpt lat="47.23156" lon="6.05627">
        <ele>249.8</ele>
        <time>2021-06-03T09:08:35Z</time>
      </trkpt>
      <trkpt lat="47.23158" lon="6.05629">
        <ele>249.8</ele>
        <time>2021-06-03T09:08:36Z</time>
      </trkpt>
      <trkpt lat="47.2316" lon="6.05631">
        <ele>249.8</ele>
        <time>2021-06-03T09:08:37Z</time>
      </trkpt>
      <trkpt lat="47.23161" lon="6.05633">
        <ele>249.8</ele>
        <time>2021-06-03T09:08:38Z</time>
      </trkpt>
      <trkpt lat="47.23163" lon="6.05634">
        <ele>249.8</ele>
        <time>2021-06-03T09:08:39Z</time>
      </trkpt>
      <trkpt lat="47.23165" lon="6.05636">
        <ele>249.8</ele>
        <time>2021-06-03T09:08:40Z</time>
      </trkpt>
      <trkpt lat="47.23177" lon="6.05649">
        <ele>250</ele>
        <time>2021-06-03T09:08:46Z</time>
      </trkpt>
      <trkpt lat="47.23191" lon="6.05668">
        <ele>249.8</ele>
        <time>2021-06-03T09:08:51Z</time>
      </trkpt>
      <trkpt lat="47.23193" lon="6.05673">
        <ele>249.8</ele>
        <time>2021-06-03T09:08:52Z</time>
      </trkpt>
      <trkpt lat="47.23196" lon="6.05678">
        <ele>249.8</ele>
        <time>2021-06-03T09:08:53Z</time>
      </trkpt>
      <trkpt lat="47.23198" lon="6.05683">
        <ele>249.8</ele>
        <time>2021-06-03T09:08:54Z</time>
      </trkpt>
      <trkpt lat="47.232" lon="6.05689">
        <ele>249.8</ele>
        <time>2021-06-03T09:08:55Z</time>
      </trkpt>
      <trkpt lat="47.23203" lon="6.05699">
        <ele>249.6</ele>
        <time>2021-06-03T09:08:57Z</time>
      </trkpt>
      <trkpt lat="47.23204" lon="6.05705">
        <ele>249.4</ele>
        <time>2021-06-03T09:08:58Z</time>
      </trkpt>
      <trkpt lat="47.23206" lon="6.05716">
        <ele>249.2</ele>
        <time>2021-06-03T09:09:00Z</time>
      </trkpt>
      <trkpt lat="47.23207" lon="6.05721">
        <ele>249.2</ele>
        <time>2021-06-03T09:09:01Z</time>
      </trkpt>
      <trkpt lat="47.23208" lon="6.05727">
        <ele>249.2</ele>
        <time>2021-06-03T09:09:02Z</time>
      </trkpt>
      <trkpt lat="47.23209" lon="6.05733">
        <ele>249.2</ele>
        <time>2021-06-03T09:09:03Z</time>
      </trkpt>
      <trkpt lat="47.23211" lon="6.05744">
        <ele>249.2</ele>
        <time>2021-06-03T09:09:05Z</time>
      </trkpt>
      <trkpt lat="47.23212" lon="6.05749">
        <ele>249</ele>
        <time>2021-06-03T09:09:06Z</time>
      </trkpt>
      <trkpt lat="47.23213" lon="6.05754">
        <ele>249</ele>
        <time>2021-06-03T09:09:07Z</time>
      </trkpt>
      <trkpt lat="47.23216" lon="6.05764">
        <ele>249</ele>
        <time>2021-06-03T09:09:09Z</time>
      </trkpt>
      <trkpt lat="47.23219" lon="6.05768">
        <ele>249</ele>
        <time>2021-06-03T09:09:10Z</time>
      </trkpt>
      <trkpt lat="47.23221" lon="6.05772">
        <ele>249</ele>
        <time>2021-06-03T09:09:11Z</time>
      </trkpt>
      <trkpt lat="47.23232" lon="6.05788">
        <ele>249</ele>
        <time>2021-06-03T09:09:15Z</time>
      </trkpt>
      <trkpt lat="47.23253" lon="6.05813">
        <ele>248.8</ele>
        <time>2021-06-03T09:09:22Z</time>
      </trkpt>
      <trkpt lat="47.23259" lon="6.0582">
        <ele>248.8</ele>
        <time>2021-06-03T09:09:24Z</time>
      </trkpt>
      <trkpt lat="47.23275" lon="6.05838">
        <ele>248.8</ele>
        <time>2021-06-03T09:09:29Z</time>
      </trkpt>
      <trkpt lat="47.23303" lon="6.05866">
        <ele>249</ele>
        <time>2021-06-03T09:09:37Z</time>
      </trkpt>
      <trkpt lat="47.23341" lon="6.05896">
        <ele>249</ele>
        <time>2021-06-03T09:09:47Z</time>
      </trkpt>
      <trkpt lat="47.23383" lon="6.05923">
        <ele>249</ele>
        <time>2021-06-03T09:09:57Z</time>
      </trkpt>
      <trkpt lat="47.23403" lon="6.05932">
        <ele>249</ele>
        <time>2021-06-03T09:10:02Z</time>
      </trkpt>
      <trkpt lat="47.23407" lon="6.05934">
        <ele>249</ele>
        <time>2021-06-03T09:10:03Z</time>
      </trkpt>
      <trkpt lat="47.23412" lon="6.05935">
        <ele>249</ele>
        <time>2021-06-03T09:10:04Z</time>
      </trkpt>
      <trkpt lat="47.23416" lon="6.05936">
        <ele>249.2</ele>
        <time>2021-06-03T09:10:05Z</time>
      </trkpt>
      <trkpt lat="47.2342" lon="6.05937">
        <ele>249.4</ele>
        <time>2021-06-03T09:10:06Z</time>
      </trkpt>
      <trkpt lat="47.23424" lon="6.05938">
        <ele>249.4</ele>
        <time>2021-06-03T09:10:07Z</time>
      </trkpt>
      <trkpt lat="47.23428" lon="6.05938">
        <ele>249.4</ele>
        <time>2021-06-03T09:10:08Z</time>
      </trkpt>
      <trkpt lat="47.23432" lon="6.05939">
        <ele>249.4</ele>
        <time>2021-06-03T09:10:09Z</time>
      </trkpt>
      <trkpt lat="47.23436" lon="6.0594">
        <ele>249.4</ele>
        <time>2021-06-03T09:10:10Z</time>
      </trkpt>
      <trkpt lat="47.23441" lon="6.05941">
        <ele>249.4</ele>
        <time>2021-06-03T09:10:11Z</time>
      </trkpt>
      <trkpt lat="47.23457" lon="6.05944">
        <ele>249.6</ele>
        <time>2021-06-03T09:10:14Z</time>
      </trkpt>
      <trkpt lat="47.23493" lon="6.05949">
        <ele>249.6</ele>
        <time>2021-06-03T09:10:22Z</time>
      </trkpt>
      <trkpt lat="47.23538" lon="6.0596">
        <ele>249.6</ele>
        <time>2021-06-03T09:10:31Z</time>
      </trkpt>
      <trkpt lat="47.23585" lon="6.0598">
        <ele>249.4</ele>
        <time>2021-06-03T09:10:41Z</time>
      </trkpt>
      <trkpt lat="47.23589" lon="6.05982">
        <ele>249.4</ele>
        <time>2021-06-03T09:10:42Z</time>
      </trkpt>
      <trkpt lat="47.23593" lon="6.05985">
        <ele>249.4</ele>
        <time>2021-06-03T09:10:43Z</time>
      </trkpt>
      <trkpt lat="47.23597" lon="6.05987">
        <ele>249.4</ele>
        <time>2021-06-03T09:10:44Z</time>
      </trkpt>
      <trkpt lat="47.23601" lon="6.05989">
        <ele>249.4</ele>
        <time>2021-06-03T09:10:45Z</time>
      </trkpt>
      <trkpt lat="47.23614" lon="6.05996">
        <ele>249.6</ele>
        <time>2021-06-03T09:10:48Z</time>
      </trkpt>
      <trkpt lat="47.23628" lon="6.06003">
        <ele>249.6</ele>
        <time>2021-06-03T09:10:51Z</time>
      </trkpt>
      <trkpt lat="47.23649" lon="6.06012">
        <ele>249.4</ele>
        <time>2021-06-03T09:10:55Z</time>
      </trkpt>
      <trkpt lat="47.2369" lon="6.06033">
        <ele>249.2</ele>
        <time>2021-06-03T09:11:03Z</time>
      </trkpt>
      <trkpt lat="47.23711" lon="6.06043">
        <ele>249.2</ele>
        <time>2021-06-03T09:11:07Z</time>
      </trkpt>
      <trkpt lat="47.23716" lon="6.06045">
        <ele>249.2</ele>
        <time>2021-06-03T09:11:08Z</time>
      </trkpt>
      <trkpt lat="47.23721" lon="6.06048">
        <ele>249.2</ele>
        <time>2021-06-03T09:11:09Z</time>
      </trkpt>
      <trkpt lat="47.23726" lon="6.06051">
        <ele>249.2</ele>
        <time>2021-06-03T09:11:10Z</time>
      </trkpt>
      <trkpt lat="47.23731" lon="6.06054">
        <ele>249.2</ele>
        <time>2021-06-03T09:11:11Z</time>
      </trkpt>
      <trkpt lat="47.2374" lon="6.06059">
        <ele>249.2</ele>
        <time>2021-06-03T09:11:13Z</time>
      </trkpt>
      <trkpt lat="47.23745" lon="6.06062">
        <ele>249.2</ele>
        <time>2021-06-03T09:11:14Z</time>
      </trkpt>
      <trkpt lat="47.23749" lon="6.06064">
        <ele>249.2</ele>
        <time>2021-06-03T09:11:15Z</time>
      </trkpt>
      <trkpt lat="47.23754" lon="6.06067">
        <ele>249.2</ele>
        <time>2021-06-03T09:11:16Z</time>
      </trkpt>
      <trkpt lat="47.23758" lon="6.06069">
        <ele>249.2</ele>
        <time>2021-06-03T09:11:17Z</time>
      </trkpt>
      <trkpt lat="47.23763" lon="6.06072">
        <ele>249</ele>
        <time>2021-06-03T09:11:18Z</time>
      </trkpt>
      <trkpt lat="47.23767" lon="6.06075">
        <ele>249</ele>
        <time>2021-06-03T09:11:19Z</time>
      </trkpt>
      <trkpt lat="47.23771" lon="6.06078">
        <ele>249</ele>
        <time>2021-06-03T09:11:20Z</time>
      </trkpt>
      <trkpt lat="47.23775" lon="6.06081">
        <ele>249.2</ele>
        <time>2021-06-03T09:11:21Z</time>
      </trkpt>
      <trkpt lat="47.23782" lon="6.06086">
        <ele>249.4</ele>
        <time>2021-06-03T09:11:23Z</time>
      </trkpt>
      <trkpt lat="47.23791" lon="6.06094">
        <ele>249.4</ele>
        <time>2021-06-03T09:11:25Z</time>
      </trkpt>
      <trkpt lat="47.23828" lon="6.0612">
        <ele>249.8</ele>
        <time>2021-06-03T09:11:33Z</time>
      </trkpt>
      <trkpt lat="47.23855" lon="6.06139">
        <ele>250</ele>
        <time>2021-06-03T09:11:39Z</time>
      </trkpt>
      <trkpt lat="47.23859" lon="6.06142">
        <ele>250</ele>
        <time>2021-06-03T09:11:40Z</time>
      </trkpt>
      <trkpt lat="47.23864" lon="6.06144">
        <ele>250</ele>
        <time>2021-06-03T09:11:41Z</time>
      </trkpt>
      <trkpt lat="47.23868" lon="6.06146">
        <ele>249.8</ele>
        <time>2021-06-03T09:11:42Z</time>
      </trkpt>
      <trkpt lat="47.23872" lon="6.06149">
        <ele>249.8</ele>
        <time>2021-06-03T09:11:43Z</time>
      </trkpt>
      <trkpt lat="47.23887" lon="6.06157">
        <ele>249.8</ele>
        <time>2021-06-03T09:11:46Z</time>
      </trkpt>
      <trkpt lat="47.23902" lon="6.06165">
        <ele>249.6</ele>
        <time>2021-06-03T09:11:49Z</time>
      </trkpt>
      <trkpt lat="47.23933" lon="6.06183">
        <ele>249.4</ele>
        <time>2021-06-03T09:11:55Z</time>
      </trkpt>
      <trkpt lat="47.23943" lon="6.06188">
        <ele>249.2</ele>
        <time>2021-06-03T09:11:57Z</time>
      </trkpt>
      <trkpt lat="47.23952" lon="6.06192">
        <ele>249.2</ele>
        <time>2021-06-03T09:11:59Z</time>
      </trkpt>
      <trkpt lat="47.23957" lon="6.06194">
        <ele>249.2</ele>
        <time>2021-06-03T09:12:00Z</time>
      </trkpt>
      <trkpt lat="47.23961" lon="6.06197">
        <ele>249.2</ele>
        <time>2021-06-03T09:12:01Z</time>
      </trkpt>
      <trkpt lat="47.23965" lon="6.062">
        <ele>249.2</ele>
        <time>2021-06-03T09:12:02Z</time>
      </trkpt>
      <trkpt lat="47.23969" lon="6.06204">
        <ele>249.2</ele>
        <time>2021-06-03T09:12:03Z</time>
      </trkpt>
      <trkpt lat="47.24004" lon="6.06238">
        <ele>249.2</ele>
        <time>2021-06-03T09:12:11Z</time>
      </trkpt>
      <trkpt lat="47.2402" lon="6.06253">
        <ele>249.2</ele>
        <time>2021-06-03T09:12:15Z</time>
      </trkpt>
      <trkpt lat="47.24024" lon="6.06256">
        <ele>249.2</ele>
        <time>2021-06-03T09:12:16Z</time>
      </trkpt>
      <trkpt lat="47.24028" lon="6.0626">
        <ele>249.2</ele>
        <time>2021-06-03T09:12:17Z</time>
      </trkpt>
      <trkpt lat="47.24032" lon="6.06263">
        <ele>249.2</ele>
        <time>2021-06-03T09:12:18Z</time>
      </trkpt>
      <trkpt lat="47.24036" lon="6.06267">
        <ele>249.2</ele>
        <time>2021-06-03T09:12:19Z</time>
      </trkpt>
      <trkpt lat="47.2404" lon="6.06271">
        <ele>249.2</ele>
        <time>2021-06-03T09:12:20Z</time>
      </trkpt>
      <trkpt lat="47.24071" lon="6.06297">
        <ele>249</ele>
        <time>2021-06-03T09:12:27Z</time>
      </trkpt>
      <trkpt lat="47.24113" lon="6.06332">
        <ele>249</ele>
        <time>2021-06-03T09:12:36Z</time>
      </trkpt>
      <trkpt lat="47.24153" lon="6.06365">
        <ele>249</ele>
        <time>2021-06-03T09:12:44Z</time>
      </trkpt>
      <trkpt lat="47.24183" lon="6.06389">
        <ele>248.8</ele>
        <time>2021-06-03T09:12:50Z</time>
      </trkpt>
      <trkpt lat="47.24187" lon="6.06392">
        <ele>248.8</ele>
        <time>2021-06-03T09:12:51Z</time>
      </trkpt>
      <trkpt lat="47.24192" lon="6.06396">
        <ele>248.8</ele>
        <time>2021-06-03T09:12:52Z</time>
      </trkpt>
      <trkpt lat="47.24197" lon="6.064">
        <ele>248.8</ele>
        <time>2021-06-03T09:12:53Z</time>
      </trkpt>
      <trkpt lat="47.24202" lon="6.06405">
        <ele>248.8</ele>
        <time>2021-06-03T09:12:54Z</time>
      </trkpt>
      <trkpt lat="47.24237" lon="6.06433">
        <ele>248.8</ele>
        <time>2021-06-03T09:13:01Z</time>
      </trkpt>
      <trkpt lat="47.24287" lon="6.06465">
        <ele>248.8</ele>
        <time>2021-06-03T09:13:10Z</time>
      </trkpt>
      <trkpt lat="47.24298" lon="6.06472">
        <ele>248.6</ele>
        <time>2021-06-03T09:13:12Z</time>
      </trkpt>
      <trkpt lat="47.24325" lon="6.06488">
        <ele>248.8</ele>
        <time>2021-06-03T09:13:17Z</time>
      </trkpt>
      <trkpt lat="47.2433" lon="6.0649">
        <ele>248.8</ele>
        <time>2021-06-03T09:13:18Z</time>
      </trkpt>
      <trkpt lat="47.24334" lon="6.06492">
        <ele>248.8</ele>
        <time>2021-06-03T09:13:19Z</time>
      </trkpt>
      <trkpt lat="47.24339" lon="6.06495">
        <ele>249</ele>
        <time>2021-06-03T09:13:20Z</time>
      </trkpt>
      <trkpt lat="47.24343" lon="6.06497">
        <ele>249</ele>
        <time>2021-06-03T09:13:21Z</time>
      </trkpt>
      <trkpt lat="47.24348" lon="6.06499">
        <ele>249</ele>
        <time>2021-06-03T09:13:22Z</time>
      </trkpt>
      <trkpt lat="47.24352" lon="6.06501">
        <ele>249</ele>
        <time>2021-06-03T09:13:23Z</time>
      </trkpt>
      <trkpt lat="47.24356" lon="6.06504">
        <ele>249</ele>
        <time>2021-06-03T09:13:24Z</time>
      </trkpt>
      <trkpt lat="47.2436" lon="6.06506">
        <ele>249</ele>
        <time>2021-06-03T09:13:25Z</time>
      </trkpt>
      <trkpt lat="47.24364" lon="6.06509">
        <ele>249</ele>
        <time>2021-06-03T09:13:26Z</time>
      </trkpt>
      <trkpt lat="47.24367" lon="6.06511">
        <ele>249</ele>
        <time>2021-06-03T09:13:27Z</time>
      </trkpt>
      <trkpt lat="47.24371" lon="6.06514">
        <ele>249</ele>
        <time>2021-06-03T09:13:28Z</time>
      </trkpt>
      <trkpt lat="47.24374" lon="6.06517">
        <ele>249</ele>
        <time>2021-06-03T09:13:29Z</time>
      </trkpt>
      <trkpt lat="47.24377" lon="6.0652">
        <ele>249</ele>
        <time>2021-06-03T09:13:30Z</time>
      </trkpt>
      <trkpt lat="47.2438" lon="6.06524">
        <ele>249</ele>
        <time>2021-06-03T09:13:31Z</time>
      </trkpt>
      <trkpt lat="47.24382" lon="6.06529">
        <ele>249</ele>
        <time>2021-06-03T09:13:32Z</time>
      </trkpt>
      <trkpt lat="47.24384" lon="6.06533">
        <ele>249</ele>
        <time>2021-06-03T09:13:33Z</time>
      </trkpt>
      <trkpt lat="47.24392" lon="6.0654">
        <ele>249</ele>
        <time>2021-06-03T09:13:35Z</time>
      </trkpt>
      <trkpt lat="47.24396" lon="6.06543">
        <ele>248.8</ele>
        <time>2021-06-03T09:13:36Z</time>
      </trkpt>
      <trkpt lat="47.24413" lon="6.06556">
        <ele>248.6</ele>
        <time>2021-06-03T09:13:40Z</time>
      </trkpt>
      <trkpt lat="47.24427" lon="6.06568">
        <ele>248.2</ele>
        <time>2021-06-03T09:13:43Z</time>
      </trkpt>
      <trkpt lat="47.24457" lon="6.06591">
        <ele>248</ele>
        <time>2021-06-03T09:13:49Z</time>
      </trkpt>
      <trkpt lat="47.24483" lon="6.06613">
        <ele>248</ele>
        <time>2021-06-03T09:13:54Z</time>
      </trkpt>
      <trkpt lat="47.24494" lon="6.06622">
        <ele>248</ele>
        <time>2021-06-03T09:13:56Z</time>
      </trkpt>
      <trkpt lat="47.24499" lon="6.06626">
        <ele>248</ele>
        <time>2021-06-03T09:13:57Z</time>
      </trkpt>
      <trkpt lat="47.24519" lon="6.06641">
        <ele>248.2</ele>
        <time>2021-06-03T09:14:01Z</time>
      </trkpt>
      <trkpt lat="47.24524" lon="6.06645">
        <ele>248.2</ele>
        <time>2021-06-03T09:14:02Z</time>
      </trkpt>
      <trkpt lat="47.24529" lon="6.0665">
        <ele>248.2</ele>
        <time>2021-06-03T09:14:03Z</time>
      </trkpt>
      <trkpt lat="47.24534" lon="6.06654">
        <ele>248.2</ele>
        <time>2021-06-03T09:14:04Z</time>
      </trkpt>
      <trkpt lat="47.24545" lon="6.06661">
        <ele>248.2</ele>
        <time>2021-06-03T09:14:06Z</time>
      </trkpt>
      <trkpt lat="47.24597" lon="6.06706">
        <ele>248.2</ele>
        <time>2021-06-03T09:14:16Z</time>
      </trkpt>
      <trkpt lat="47.24636" lon="6.06746">
        <ele>248.6</ele>
        <time>2021-06-03T09:14:24Z</time>
      </trkpt>
      <trkpt lat="47.24645" lon="6.06755">
        <ele>248.6</ele>
        <time>2021-06-03T09:14:26Z</time>
      </trkpt>
      <trkpt lat="47.24649" lon="6.06759">
        <ele>248.6</ele>
        <time>2021-06-03T09:14:27Z</time>
      </trkpt>
      <trkpt lat="47.24653" lon="6.06763">
        <ele>248.8</ele>
        <time>2021-06-03T09:14:28Z</time>
      </trkpt>
      <trkpt lat="47.24657" lon="6.06768">
        <ele>248.8</ele>
        <time>2021-06-03T09:14:29Z</time>
      </trkpt>
      <trkpt lat="47.24661" lon="6.06773">
        <ele>248.8</ele>
        <time>2021-06-03T09:14:30Z</time>
      </trkpt>
      <trkpt lat="47.24664" lon="6.06777">
        <ele>248.8</ele>
        <time>2021-06-03T09:14:31Z</time>
      </trkpt>
      <trkpt lat="47.24668" lon="6.06781">
        <ele>248.8</ele>
        <time>2021-06-03T09:14:32Z</time>
      </trkpt>
      <trkpt lat="47.24672" lon="6.06786">
        <ele>248.8</ele>
        <time>2021-06-03T09:14:33Z</time>
      </trkpt>
      <trkpt lat="47.24675" lon="6.0679">
        <ele>248.8</ele>
        <time>2021-06-03T09:14:34Z</time>
      </trkpt>
      <trkpt lat="47.24679" lon="6.06795">
        <ele>248.8</ele>
        <time>2021-06-03T09:14:35Z</time>
      </trkpt>
      <trkpt lat="47.24687" lon="6.06805">
        <ele>248.8</ele>
        <time>2021-06-03T09:14:37Z</time>
      </trkpt>
      <trkpt lat="47.2472" lon="6.06846">
        <ele>248.8</ele>
        <time>2021-06-03T09:14:45Z</time>
      </trkpt>
      <trkpt lat="47.24763" lon="6.06897">
        <ele>249</ele>
        <time>2021-06-03T09:14:54Z</time>
      </trkpt>
      <trkpt lat="47.24803" lon="6.06947">
        <ele>248.8</ele>
        <time>2021-06-03T09:15:02Z</time>
      </trkpt>
      <trkpt lat="47.24825" lon="6.06979">
        <ele>248.6</ele>
        <time>2021-06-03T09:15:07Z</time>
      </trkpt>
      <trkpt lat="47.24829" lon="6.06985">
        <ele>248.6</ele>
        <time>2021-06-03T09:15:08Z</time>
      </trkpt>
      <trkpt lat="47.24833" lon="6.0699">
        <ele>248.6</ele>
        <time>2021-06-03T09:15:09Z</time>
      </trkpt>
      <trkpt lat="47.24837" lon="6.06995">
        <ele>248.6</ele>
        <time>2021-06-03T09:15:10Z</time>
      </trkpt>
      <trkpt lat="47.24841" lon="6.07001">
        <ele>248.4</ele>
        <time>2021-06-03T09:15:11Z</time>
      </trkpt>
      <trkpt lat="47.24848" lon="6.0701">
        <ele>248.4</ele>
        <time>2021-06-03T09:15:13Z</time>
      </trkpt>
      <trkpt lat="47.24852" lon="6.07014">
        <ele>248.6</ele>
        <time>2021-06-03T09:15:14Z</time>
      </trkpt>
      <trkpt lat="47.24855" lon="6.07019">
        <ele>248.6</ele>
        <time>2021-06-03T09:15:15Z</time>
      </trkpt>
      <trkpt lat="47.24858" lon="6.07023">
        <ele>248.6</ele>
        <time>2021-06-03T09:15:16Z</time>
      </trkpt>
      <trkpt lat="47.24862" lon="6.07027">
        <ele>248.6</ele>
        <time>2021-06-03T09:15:17Z</time>
      </trkpt>
      <trkpt lat="47.24881" lon="6.07048">
        <ele>248.8</ele>
        <time>2021-06-03T09:15:22Z</time>
      </trkpt>
      <trkpt lat="47.2491" lon="6.07081">
        <ele>249</ele>
        <time>2021-06-03T09:15:29Z</time>
      </trkpt>
      <trkpt lat="47.24948" lon="6.07133">
        <ele>248.8</ele>
        <time>2021-06-03T09:15:38Z</time>
      </trkpt>
      <trkpt lat="47.24965" lon="6.07155">
        <ele>249</ele>
        <time>2021-06-03T09:15:42Z</time>
      </trkpt>
      <trkpt lat="47.24975" lon="6.07165">
        <ele>249</ele>
        <time>2021-06-03T09:15:44Z</time>
      </trkpt>
      <trkpt lat="47.24989" lon="6.07176">
        <ele>249.2</ele>
        <time>2021-06-03T09:15:47Z</time>
      </trkpt>
      <trkpt lat="47.24992" lon="6.07179">
        <ele>249.6</ele>
        <time>2021-06-03T09:15:48Z</time>
      </trkpt>
      <trkpt lat="47.24996" lon="6.07182">
        <ele>249.6</ele>
        <time>2021-06-03T09:15:49Z</time>
      </trkpt>
      <trkpt lat="47.25" lon="6.07186">
        <ele>249.8</ele>
        <time>2021-06-03T09:15:50Z</time>
      </trkpt>
      <trkpt lat="47.25003" lon="6.0719">
        <ele>250</ele>
        <time>2021-06-03T09:15:51Z</time>
      </trkpt>
      <trkpt lat="47.25007" lon="6.07194">
        <ele>250</ele>
        <time>2021-06-03T09:15:52Z</time>
      </trkpt>
      <trkpt lat="47.2501" lon="6.072">
        <ele>250.2</ele>
        <time>2021-06-03T09:15:53Z</time>
      </trkpt>
      <trkpt lat="47.25014" lon="6.07205">
        <ele>250.2</ele>
        <time>2021-06-03T09:15:54Z</time>
      </trkpt>
      <trkpt lat="47.25018" lon="6.07211">
        <ele>250.2</ele>
        <time>2021-06-03T09:15:55Z</time>
      </trkpt>
      <trkpt lat="47.25054" lon="6.07262">
        <ele>249.8</ele>
        <time>2021-06-03T09:16:05Z</time>
      </trkpt>
      <trkpt lat="47.25085" lon="6.07299">
        <ele>249.4</ele>
        <time>2021-06-03T09:16:12Z</time>
      </trkpt>
      <trkpt lat="47.25094" lon="6.0731">
        <ele>249.4</ele>
        <time>2021-06-03T09:16:14Z</time>
      </trkpt>
      <trkpt lat="47.2514" lon="6.07355">
        <ele>249.2</ele>
        <time>2021-06-03T09:16:23Z</time>
      </trkpt>
      <trkpt lat="47.25182" lon="6.07394">
        <ele>249.2</ele>
        <time>2021-06-03T09:16:31Z</time>
      </trkpt>
      <trkpt lat="47.25221" lon="6.0744">
        <ele>249.4</ele>
        <time>2021-06-03T09:16:39Z</time>
      </trkpt>
      <trkpt lat="47.25268" lon="6.07493">
        <ele>249.4</ele>
        <time>2021-06-03T09:16:48Z</time>
      </trkpt>
      <trkpt lat="47.25294" lon="6.07518">
        <ele>249.6</ele>
        <time>2021-06-03T09:16:53Z</time>
      </trkpt>
      <trkpt lat="47.25299" lon="6.07523">
        <ele>249.6</ele>
        <time>2021-06-03T09:16:54Z</time>
      </trkpt>
      <trkpt lat="47.25304" lon="6.07528">
        <ele>249.6</ele>
        <time>2021-06-03T09:16:55Z</time>
      </trkpt>
      <trkpt lat="47.25309" lon="6.07533">
        <ele>249.6</ele>
        <time>2021-06-03T09:16:56Z</time>
      </trkpt>
      <trkpt lat="47.25314" lon="6.07537">
        <ele>249.6</ele>
        <time>2021-06-03T09:16:57Z</time>
      </trkpt>
      <trkpt lat="47.25318" lon="6.07541">
        <ele>249.6</ele>
        <time>2021-06-03T09:16:58Z</time>
      </trkpt>
      <trkpt lat="47.25322" lon="6.07546">
        <ele>249.6</ele>
        <time>2021-06-03T09:16:59Z</time>
      </trkpt>
      <trkpt lat="47.25327" lon="6.0755">
        <ele>249.6</ele>
        <time>2021-06-03T09:17:00Z</time>
      </trkpt>
      <trkpt lat="47.25331" lon="6.07554">
        <ele>249.6</ele>
        <time>2021-06-03T09:17:01Z</time>
      </trkpt>
      <trkpt lat="47.25334" lon="6.07558">
        <ele>249.6</ele>
        <time>2021-06-03T09:17:02Z</time>
      </trkpt>
      <trkpt lat="47.2534" lon="6.07562">
        <ele>249.6</ele>
        <time>2021-06-03T09:17:03Z</time>
      </trkpt>
      <trkpt lat="47.25344" lon="6.07565">
        <ele>249.6</ele>
        <time>2021-06-03T09:17:04Z</time>
      </trkpt>
      <trkpt lat="47.25348" lon="6.07569">
        <ele>249.6</ele>
        <time>2021-06-03T09:17:05Z</time>
      </trkpt>
      <trkpt lat="47.25351" lon="6.07571">
        <ele>249.6</ele>
        <time>2021-06-03T09:17:06Z</time>
      </trkpt>
      <trkpt lat="47.25354" lon="6.07574">
        <ele>249.6</ele>
        <time>2021-06-03T09:17:07Z</time>
      </trkpt>
      <trkpt lat="47.25358" lon="6.07577">
        <ele>249.8</ele>
        <time>2021-06-03T09:17:08Z</time>
      </trkpt>
      <trkpt lat="47.25361" lon="6.07579">
        <ele>249.8</ele>
        <time>2021-06-03T09:17:09Z</time>
      </trkpt>
      <trkpt lat="47.25369" lon="6.07587">
        <ele>250</ele>
        <time>2021-06-03T09:17:11Z</time>
      </trkpt>
      <trkpt lat="47.25394" lon="6.07608">
        <ele>250.4</ele>
        <time>2021-06-03T09:17:17Z</time>
      </trkpt>
      <trkpt lat="47.25404" lon="6.07615">
        <ele>250.4</ele>
        <time>2021-06-03T09:17:19Z</time>
      </trkpt>
      <trkpt lat="47.25408" lon="6.07619">
        <ele>250.6</ele>
        <time>2021-06-03T09:17:20Z</time>
      </trkpt>
      <trkpt lat="47.2545" lon="6.07655">
        <ele>251.2</ele>
        <time>2021-06-03T09:17:29Z</time>
      </trkpt>
      <trkpt lat="47.25476" lon="6.07678">
        <ele>251.4</ele>
        <time>2021-06-03T09:17:34Z</time>
      </trkpt>
      <trkpt lat="47.25481" lon="6.07683">
        <ele>251.4</ele>
        <time>2021-06-03T09:17:35Z</time>
      </trkpt>
      <trkpt lat="47.25485" lon="6.07687">
        <ele>251.4</ele>
        <time>2021-06-03T09:17:36Z</time>
      </trkpt>
      <trkpt lat="47.25489" lon="6.0769">
        <ele>251.4</ele>
        <time>2021-06-03T09:17:37Z</time>
      </trkpt>
      <trkpt lat="47.25493" lon="6.07694">
        <ele>251.4</ele>
        <time>2021-06-03T09:17:38Z</time>
      </trkpt>
      <trkpt lat="47.25497" lon="6.07697">
        <ele>251.4</ele>
        <time>2021-06-03T09:17:39Z</time>
      </trkpt>
      <trkpt lat="47.255" lon="6.07699">
        <ele>251.4</ele>
        <time>2021-06-03T09:17:40Z</time>
      </trkpt>
      <trkpt lat="47.25503" lon="6.07702">
        <ele>251.4</ele>
        <time>2021-06-03T09:17:41Z</time>
      </trkpt>
      <trkpt lat="47.25506" lon="6.07705">
        <ele>251.6</ele>
        <time>2021-06-03T09:17:42Z</time>
      </trkpt>
      <trkpt lat="47.25509" lon="6.07707">
        <ele>251.6</ele>
        <time>2021-06-03T09:17:43Z</time>
      </trkpt>
      <trkpt lat="47.25527" lon="6.07721">
        <ele>252</ele>
        <time>2021-06-03T09:17:48Z</time>
      </trkpt>
      <trkpt lat="47.25562" lon="6.07745">
        <ele>251.8</ele>
        <time>2021-06-03T09:17:56Z</time>
      </trkpt>
      <trkpt lat="47.25589" lon="6.07766">
        <ele>251.4</ele>
        <time>2021-06-03T09:18:01Z</time>
      </trkpt>
      <trkpt lat="47.25594" lon="6.07769">
        <ele>251.2</ele>
        <time>2021-06-03T09:18:02Z</time>
      </trkpt>
      <trkpt lat="47.25599" lon="6.07773">
        <ele>251.2</ele>
        <time>2021-06-03T09:18:03Z</time>
      </trkpt>
      <trkpt lat="47.25604" lon="6.07776">
        <ele>251</ele>
        <time>2021-06-03T09:18:04Z</time>
      </trkpt>
      <trkpt lat="47.25623" lon="6.07792">
        <ele>251</ele>
        <time>2021-06-03T09:18:08Z</time>
      </trkpt>
      <trkpt lat="47.25627" lon="6.07796">
        <ele>250.8</ele>
        <time>2021-06-03T09:18:09Z</time>
      </trkpt>
      <trkpt lat="47.25632" lon="6.07799">
        <ele>250.8</ele>
        <time>2021-06-03T09:18:10Z</time>
      </trkpt>
      <trkpt lat="47.25636" lon="6.07803">
        <ele>250.8</ele>
        <time>2021-06-03T09:18:11Z</time>
      </trkpt>
      <trkpt lat="47.25657" lon="6.07819">
        <ele>250.8</ele>
        <time>2021-06-03T09:18:15Z</time>
      </trkpt>
      <trkpt lat="47.25699" lon="6.07856">
        <ele>251</ele>
        <time>2021-06-03T09:18:24Z</time>
      </trkpt>
      <trkpt lat="47.25713" lon="6.07868">
        <ele>251.2</ele>
        <time>2021-06-03T09:18:27Z</time>
      </trkpt>
      <trkpt lat="47.25719" lon="6.07871">
        <ele>251.4</ele>
        <time>2021-06-03T09:18:28Z</time>
      </trkpt>
      <trkpt lat="47.25724" lon="6.07873">
        <ele>251.4</ele>
        <time>2021-06-03T09:18:29Z</time>
      </trkpt>
      <trkpt lat="47.25728" lon="6.07872">
        <ele>251.4</ele>
        <time>2021-06-03T09:18:30Z</time>
      </trkpt>
      <trkpt lat="47.25733" lon="6.07869">
        <ele>251.4</ele>
        <time>2021-06-03T09:18:31Z</time>
      </trkpt>
      <trkpt lat="47.25735" lon="6.07864">
        <ele>251.4</ele>
        <time>2021-06-03T09:18:32Z</time>
      </trkpt>
      <trkpt lat="47.25738" lon="6.0786">
        <ele>251.6</ele>
        <time>2021-06-03T09:18:33Z</time>
      </trkpt>
      <trkpt lat="47.2574" lon="6.07856">
        <ele>251.6</ele>
        <time>2021-06-03T09:18:34Z</time>
      </trkpt>
      <trkpt lat="47.25742" lon="6.07853">
        <ele>251.6</ele>
        <time>2021-06-03T09:18:35Z</time>
      </trkpt>
      <trkpt lat="47.25744" lon="6.07849">
        <ele>251.6</ele>
        <time>2021-06-03T09:18:36Z</time>
      </trkpt>
      <trkpt lat="47.25746" lon="6.07846">
        <ele>251.6</ele>
        <time>2021-06-03T09:18:37Z</time>
      </trkpt>
      <trkpt lat="47.25747" lon="6.07843">
        <ele>252</ele>
        <time>2021-06-03T09:18:38Z</time>
      </trkpt>
      <trkpt lat="47.25751" lon="6.07835">
        <ele>252.4</ele>
        <time>2021-06-03T09:18:40Z</time>
      </trkpt>
      <trkpt lat="47.25753" lon="6.07831">
        <ele>252.6</ele>
        <time>2021-06-03T09:18:41Z</time>
      </trkpt>
      <trkpt lat="47.25754" lon="6.07828">
        <ele>252.6</ele>
        <time>2021-06-03T09:18:42Z</time>
      </trkpt>
      <trkpt lat="47.25756" lon="6.07825">
        <ele>253</ele>
        <time>2021-06-03T09:18:43Z</time>
      </trkpt>
      <trkpt lat="47.25757" lon="6.07822">
        <ele>253</ele>
        <time>2021-06-03T09:18:44Z</time>
      </trkpt>
      <trkpt lat="47.25759" lon="6.07818">
        <ele>253.2</ele>
        <time>2021-06-03T09:18:45Z</time>
      </trkpt>
      <trkpt lat="47.25762" lon="6.07809">
        <ele>253.6</ele>
        <time>2021-06-03T09:18:47Z</time>
      </trkpt>
      <trkpt lat="47.25767" lon="6.07792">
        <ele>254.4</ele>
        <time>2021-06-03T09:18:51Z</time>
      </trkpt>
      <trkpt lat="47.25767" lon="6.07788">
        <ele>254.6</ele>
        <time>2021-06-03T09:18:52Z</time>
      </trkpt>
      <trkpt lat="47.25768" lon="6.07785">
        <ele>254.8</ele>
        <time>2021-06-03T09:18:53Z</time>
      </trkpt>
      <trkpt lat="47.25769" lon="6.0778">
        <ele>255</ele>
        <time>2021-06-03T09:18:54Z</time>
      </trkpt>
      <trkpt lat="47.2577" lon="6.07775">
        <ele>255.2</ele>
        <time>2021-06-03T09:18:55Z</time>
      </trkpt>
      <trkpt lat="47.2577" lon="6.07771">
        <ele>255.2</ele>
        <time>2021-06-03T09:18:56Z</time>
      </trkpt>
      <trkpt lat="47.25771" lon="6.07766">
        <ele>255.4</ele>
        <time>2021-06-03T09:18:57Z</time>
      </trkpt>
      <trkpt lat="47.25771" lon="6.07762">
        <ele>255.4</ele>
        <time>2021-06-03T09:18:58Z</time>
      </trkpt>
      <trkpt lat="47.25772" lon="6.07758">
        <ele>255.6</ele>
        <time>2021-06-03T09:18:59Z</time>
      </trkpt>
      <trkpt lat="47.25773" lon="6.07754">
        <ele>255.6</ele>
        <time>2021-06-03T09:19:00Z</time>
      </trkpt>
      <trkpt lat="47.25774" lon="6.07749">
        <ele>255.8</ele>
        <time>2021-06-03T09:19:01Z</time>
      </trkpt>
      <trkpt lat="47.25775" lon="6.07745">
        <ele>255.8</ele>
        <time>2021-06-03T09:19:02Z</time>
      </trkpt>
      <trkpt lat="47.25776" lon="6.07741">
        <ele>255.8</ele>
        <time>2021-06-03T09:19:03Z</time>
      </trkpt>
      <trkpt lat="47.25776" lon="6.07737">
        <ele>256</ele>
        <time>2021-06-03T09:19:04Z</time>
      </trkpt>
      <trkpt lat="47.25777" lon="6.07733">
        <ele>256</ele>
        <time>2021-06-03T09:19:05Z</time>
      </trkpt>
      <trkpt lat="47.25778" lon="6.07729">
        <ele>256.2</ele>
        <time>2021-06-03T09:19:06Z</time>
      </trkpt>
      <trkpt lat="47.25778" lon="6.07726">
        <ele>256.2</ele>
        <time>2021-06-03T09:19:07Z</time>
      </trkpt>
      <trkpt lat="47.25779" lon="6.07721">
        <ele>256.2</ele>
        <time>2021-06-03T09:19:08Z</time>
      </trkpt>
      <trkpt lat="47.2578" lon="6.07718">
        <ele>256.2</ele>
        <time>2021-06-03T09:19:09Z</time>
      </trkpt>
      <trkpt lat="47.25781" lon="6.07714">
        <ele>256.4</ele>
        <time>2021-06-03T09:19:10Z</time>
      </trkpt>
      <trkpt lat="47.25782" lon="6.0771">
        <ele>256.4</ele>
        <time>2021-06-03T09:19:11Z</time>
      </trkpt>
      <trkpt lat="47.25783" lon="6.07706">
        <ele>256.4</ele>
        <time>2021-06-03T09:19:12Z</time>
      </trkpt>
      <trkpt lat="47.25784" lon="6.07703">
        <ele>256.6</ele>
        <time>2021-06-03T09:19:13Z</time>
      </trkpt>
      <trkpt lat="47.25785" lon="6.07698">
        <ele>256.8</ele>
        <time>2021-06-03T09:19:14Z</time>
      </trkpt>
      <trkpt lat="47.25786" lon="6.07694">
        <ele>257</ele>
        <time>2021-06-03T09:19:15Z</time>
      </trkpt>
      <trkpt lat="47.25787" lon="6.07691">
        <ele>257</ele>
        <time>2021-06-03T09:19:16Z</time>
      </trkpt>
      <trkpt lat="47.25788" lon="6.07687">
        <ele>257</ele>
        <time>2021-06-03T09:19:17Z</time>
      </trkpt>
      <trkpt lat="47.25789" lon="6.07683">
        <ele>257.2</ele>
        <time>2021-06-03T09:19:18Z</time>
      </trkpt>
      <trkpt lat="47.25789" lon="6.0768">
        <ele>257.2</ele>
        <time>2021-06-03T09:19:19Z</time>
      </trkpt>
      <trkpt lat="47.2579" lon="6.07675">
        <ele>257.4</ele>
        <time>2021-06-03T09:19:20Z</time>
      </trkpt>
      <trkpt lat="47.25789" lon="6.07672">
        <ele>257.4</ele>
        <time>2021-06-03T09:19:21Z</time>
      </trkpt>
      <trkpt lat="47.25788" lon="6.07669">
        <ele>257.4</ele>
        <time>2021-06-03T09:19:22Z</time>
      </trkpt>
      <trkpt lat="47.25786" lon="6.07666">
        <ele>257.6</ele>
        <time>2021-06-03T09:19:23Z</time>
      </trkpt>
      <trkpt lat="47.25779" lon="6.07662">
        <ele>257.6</ele>
        <time>2021-06-03T09:19:25Z</time>
      </trkpt>
      <trkpt lat="47.25777" lon="6.0766">
        <ele>257.6</ele>
        <time>2021-06-03T09:19:26Z</time>
      </trkpt>
      <trkpt lat="47.25751" lon="6.07643">
        <ele>258</ele>
        <time>2021-06-03T09:19:35Z</time>
      </trkpt>
      <trkpt lat="47.25746" lon="6.0764">
        <ele>258.2</ele>
        <time>2021-06-03T09:19:37Z</time>
      </trkpt>
      <trkpt lat="47.2574" lon="6.07636">
        <ele>258.4</ele>
        <time>2021-06-03T09:19:39Z</time>
      </trkpt>
      <trkpt lat="47.25738" lon="6.07634">
        <ele>258.8</ele>
        <time>2021-06-03T09:19:40Z</time>
      </trkpt>
      <trkpt lat="47.25736" lon="6.07632">
        <ele>258.8</ele>
        <time>2021-06-03T09:19:41Z</time>
      </trkpt>
      <trkpt lat="47.25734" lon="6.07631">
        <ele>259</ele>
        <time>2021-06-03T09:19:42Z</time>
      </trkpt>
      <trkpt lat="47.25732" lon="6.0763">
        <ele>259</ele>
        <time>2021-06-03T09:19:43Z</time>
      </trkpt>
      <trkpt lat="47.25729" lon="6.07628">
        <ele>259.2</ele>
        <time>2021-06-03T09:19:44Z</time>
      </trkpt>
      <trkpt lat="47.25727" lon="6.07626">
        <ele>259.4</ele>
        <time>2021-06-03T09:19:45Z</time>
      </trkpt>
      <trkpt lat="47.25725" lon="6.07625">
        <ele>259.4</ele>
        <time>2021-06-03T09:19:46Z</time>
      </trkpt>
      <trkpt lat="47.25723" lon="6.07624">
        <ele>259.6</ele>
        <time>2021-06-03T09:19:47Z</time>
      </trkpt>
      <trkpt lat="47.25721" lon="6.07622">
        <ele>259.8</ele>
        <time>2021-06-03T09:19:48Z</time>
      </trkpt>
      <trkpt lat="47.25719" lon="6.07621">
        <ele>260</ele>
        <time>2021-06-03T09:19:49Z</time>
      </trkpt>
      <trkpt lat="47.25717" lon="6.0762">
        <ele>260.2</ele>
        <time>2021-06-03T09:19:50Z</time>
      </trkpt>
      <trkpt lat="47.25715" lon="6.07618">
        <ele>260.4</ele>
        <time>2021-06-03T09:19:51Z</time>
      </trkpt>
      <trkpt lat="47.25714" lon="6.07617">
        <ele>260.6</ele>
        <time>2021-06-03T09:19:52Z</time>
      </trkpt>
      <trkpt lat="47.2571" lon="6.07613">
        <ele>260.8</ele>
        <time>2021-06-03T09:19:54Z</time>
      </trkpt>
      <trkpt lat="47.25708" lon="6.07612">
        <ele>261</ele>
        <time>2021-06-03T09:19:55Z</time>
      </trkpt>
      <trkpt lat="47.25705" lon="6.0761">
        <ele>261.2</ele>
        <time>2021-06-03T09:19:56Z</time>
      </trkpt>
      <trkpt lat="47.25704" lon="6.07609">
        <ele>261.4</ele>
        <time>2021-06-03T09:19:57Z</time>
      </trkpt>
      <trkpt lat="47.25702" lon="6.07608">
        <ele>261.6</ele>
        <time>2021-06-03T09:19:58Z</time>
      </trkpt>
      <trkpt lat="47.257" lon="6.07607">
        <ele>262</ele>
        <time>2021-06-03T09:19:59Z</time>
      </trkpt>
      <trkpt lat="47.25698" lon="6.07605">
        <ele>262</ele>
        <time>2021-06-03T09:20:00Z</time>
      </trkpt>
      <trkpt lat="47.25697" lon="6.07604">
        <ele>262.4</ele>
        <time>2021-06-03T09:20:01Z</time>
      </trkpt>
      <trkpt lat="47.25695" lon="6.07603">
        <ele>262.4</ele>
        <time>2021-06-03T09:20:02Z</time>
      </trkpt>
      <trkpt lat="47.25693" lon="6.07602">
        <ele>262.6</ele>
        <time>2021-06-03T09:20:03Z</time>
      </trkpt>
      <trkpt lat="47.25691" lon="6.07601">
        <ele>262.6</ele>
        <time>2021-06-03T09:20:04Z</time>
      </trkpt>
      <trkpt lat="47.25688" lon="6.07599">
        <ele>262.8</ele>
        <time>2021-06-03T09:20:05Z</time>
      </trkpt>
      <trkpt lat="47.25686" lon="6.07598">
        <ele>262.8</ele>
        <time>2021-06-03T09:20:06Z</time>
      </trkpt>
      <trkpt lat="47.25684" lon="6.07597">
        <ele>263</ele>
        <time>2021-06-03T09:20:07Z</time>
      </trkpt>
      <trkpt lat="47.25682" lon="6.07596">
        <ele>263.2</ele>
        <time>2021-06-03T09:20:08Z</time>
      </trkpt>
      <trkpt lat="47.2568" lon="6.07595">
        <ele>263.2</ele>
        <time>2021-06-03T09:20:09Z</time>
      </trkpt>
      <trkpt lat="47.25678" lon="6.07593">
        <ele>263.4</ele>
        <time>2021-06-03T09:20:10Z</time>
      </trkpt>
      <trkpt lat="47.25675" lon="6.07592">
        <ele>263.4</ele>
        <time>2021-06-03T09:20:11Z</time>
      </trkpt>
      <trkpt lat="47.25673" lon="6.0759">
        <ele>263.6</ele>
        <time>2021-06-03T09:20:12Z</time>
      </trkpt>
      <trkpt lat="47.25671" lon="6.07588">
        <ele>263.6</ele>
        <time>2021-06-03T09:20:13Z</time>
      </trkpt>
      <trkpt lat="47.25669" lon="6.07587">
        <ele>263.8</ele>
        <time>2021-06-03T09:20:14Z</time>
      </trkpt>
      <trkpt lat="47.25666" lon="6.07585">
        <ele>264</ele>
        <time>2021-06-03T09:20:15Z</time>
      </trkpt>
      <trkpt lat="47.25665" lon="6.07584">
        <ele>264</ele>
        <time>2021-06-03T09:20:16Z</time>
      </trkpt>
      <trkpt lat="47.25663" lon="6.07582">
        <ele>264.2</ele>
        <time>2021-06-03T09:20:17Z</time>
      </trkpt>
      <trkpt lat="47.25661" lon="6.0758">
        <ele>264.4</ele>
        <time>2021-06-03T09:20:18Z</time>
      </trkpt>
      <trkpt lat="47.25659" lon="6.07578">
        <ele>264.4</ele>
        <time>2021-06-03T09:20:19Z</time>
      </trkpt>
      <trkpt lat="47.25657" lon="6.07576">
        <ele>264.6</ele>
        <time>2021-06-03T09:20:20Z</time>
      </trkpt>
      <trkpt lat="47.25655" lon="6.07574">
        <ele>264.6</ele>
        <time>2021-06-03T09:20:21Z</time>
      </trkpt>
      <trkpt lat="47.25653" lon="6.07572">
        <ele>264.8</ele>
        <time>2021-06-03T09:20:22Z</time>
      </trkpt>
      <trkpt lat="47.25652" lon="6.0757">
        <ele>265</ele>
        <time>2021-06-03T09:20:23Z</time>
      </trkpt>
      <trkpt lat="47.2565" lon="6.07568">
        <ele>265.2</ele>
        <time>2021-06-03T09:20:24Z</time>
      </trkpt>
      <trkpt lat="47.25648" lon="6.07566">
        <ele>265.2</ele>
        <time>2021-06-03T09:20:25Z</time>
      </trkpt>
      <trkpt lat="47.25647" lon="6.07563">
        <ele>265.4</ele>
        <time>2021-06-03T09:20:26Z</time>
      </trkpt>
      <trkpt lat="47.25645" lon="6.07561">
        <ele>265.6</ele>
        <time>2021-06-03T09:20:27Z</time>
      </trkpt>
      <trkpt lat="47.25644" lon="6.07558">
        <ele>265.6</ele>
        <time>2021-06-03T09:20:28Z</time>
      </trkpt>
      <trkpt lat="47.25642" lon="6.07556">
        <ele>265.8</ele>
        <time>2021-06-03T09:20:29Z</time>
      </trkpt>
      <trkpt lat="47.2564" lon="6.07554">
        <ele>265.8</ele>
        <time>2021-06-03T09:20:30Z</time>
      </trkpt>
      <trkpt lat="47.25639" lon="6.07551">
        <ele>266.2</ele>
        <time>2021-06-03T09:20:31Z</time>
      </trkpt>
      <trkpt lat="47.25637" lon="6.07549">
        <ele>266.4</ele>
        <time>2021-06-03T09:20:32Z</time>
      </trkpt>
      <trkpt lat="47.25635" lon="6.07546">
        <ele>266.4</ele>
        <time>2021-06-03T09:20:33Z</time>
      </trkpt>
      <trkpt lat="47.25634" lon="6.07543">
        <ele>266.6</ele>
        <time>2021-06-03T09:20:34Z</time>
      </trkpt>
      <trkpt lat="47.25632" lon="6.07541">
        <ele>266.6</ele>
        <time>2021-06-03T09:20:35Z</time>
      </trkpt>
      <trkpt lat="47.25631" lon="6.07538">
        <ele>266.8</ele>
        <time>2021-06-03T09:20:36Z</time>
      </trkpt>
      <trkpt lat="47.2563" lon="6.07535">
        <ele>266.8</ele>
        <time>2021-06-03T09:20:37Z</time>
      </trkpt>
      <trkpt lat="47.25629" lon="6.07533">
        <ele>267</ele>
        <time>2021-06-03T09:20:38Z</time>
      </trkpt>
      <trkpt lat="47.25627" lon="6.0753">
        <ele>267</ele>
        <time>2021-06-03T09:20:39Z</time>
      </trkpt>
      <trkpt lat="47.25626" lon="6.07527">
        <ele>267.2</ele>
        <time>2021-06-03T09:20:40Z</time>
      </trkpt>
      <trkpt lat="47.25625" lon="6.07525">
        <ele>267.4</ele>
        <time>2021-06-03T09:20:41Z</time>
      </trkpt>
      <trkpt lat="47.25624" lon="6.07523">
        <ele>267.6</ele>
        <time>2021-06-03T09:20:42Z</time>
      </trkpt>
      <trkpt lat="47.25623" lon="6.07521">
        <ele>267.8</ele>
        <time>2021-06-03T09:20:43Z</time>
      </trkpt>
      <trkpt lat="47.25622" lon="6.0752">
        <ele>267.8</ele>
        <time>2021-06-03T09:20:44Z</time>
      </trkpt>
      <trkpt lat="47.25621" lon="6.07519">
        <ele>268</ele>
        <time>2021-06-03T09:20:45Z</time>
      </trkpt>
      <trkpt lat="47.25621" lon="6.07517">
        <ele>268</ele>
        <time>2021-06-03T09:20:46Z</time>
      </trkpt>
      <trkpt lat="47.2562" lon="6.07515">
        <ele>268.2</ele>
        <time>2021-06-03T09:20:47Z</time>
      </trkpt>
      <trkpt lat="47.25619" lon="6.07514">
        <ele>268.2</ele>
        <time>2021-06-03T09:20:48Z</time>
      </trkpt>
      <trkpt lat="47.25619" lon="6.07514">
        <ele>268.2</ele>
        <time>2021-06-03T09:20:49Z</time>
      </trkpt>
      <trkpt lat="47.25619" lon="6.07514">
        <ele>268.4</ele>
        <time>2021-06-03T09:20:51Z</time>
      </trkpt>
      <trkpt lat="47.25618" lon="6.07511">
        <ele>269</ele>
        <time>2021-06-03T09:21:00Z</time>
      </trkpt>
      <trkpt lat="47.25618" lon="6.07509">
        <ele>269</ele>
        <time>2021-06-03T09:21:01Z</time>
      </trkpt>
      <trkpt lat="47.25617" lon="6.07508">
        <ele>269</ele>
        <time>2021-06-03T09:21:02Z</time>
      </trkpt>
      <trkpt lat="47.25616" lon="6.07506">
        <ele>269</ele>
        <time>2021-06-03T09:21:03Z</time>
      </trkpt>
      <trkpt lat="47.25615" lon="6.07504">
        <ele>269</ele>
        <time>2021-06-03T09:21:04Z</time>
      </trkpt>
      <trkpt lat="47.25614" lon="6.07502">
        <ele>269.2</ele>
        <time>2021-06-03T09:21:05Z</time>
      </trkpt>
      <trkpt lat="47.25613" lon="6.075">
        <ele>269.2</ele>
        <time>2021-06-03T09:21:06Z</time>
      </trkpt>
      <trkpt lat="47.25612" lon="6.07499">
        <ele>269.2</ele>
        <time>2021-06-03T09:21:07Z</time>
      </trkpt>
      <trkpt lat="47.2561" lon="6.07496">
        <ele>269.2</ele>
        <time>2021-06-03T09:21:08Z</time>
      </trkpt>
      <trkpt lat="47.25606" lon="6.07486">
        <ele>269.8</ele>
        <time>2021-06-03T09:21:12Z</time>
      </trkpt>
      <trkpt lat="47.25601" lon="6.07476">
        <ele>270.4</ele>
        <time>2021-06-03T09:21:16Z</time>
      </trkpt>
      <trkpt lat="47.25598" lon="6.07471">
        <ele>270.8</ele>
        <time>2021-06-03T09:21:18Z</time>
      </trkpt>
      <trkpt lat="47.25596" lon="6.07467">
        <ele>271.2</ele>
        <time>2021-06-03T09:21:20Z</time>
      </trkpt>
      <trkpt lat="47.25594" lon="6.07462">
        <ele>271.2</ele>
        <time>2021-06-03T09:21:22Z</time>
      </trkpt>
      <trkpt lat="47.25592" lon="6.07457">
        <ele>271.6</ele>
        <time>2021-06-03T09:21:24Z</time>
      </trkpt>
      <trkpt lat="47.25591" lon="6.07455">
        <ele>271.8</ele>
        <time>2021-06-03T09:21:25Z</time>
      </trkpt>
      <trkpt lat="47.2559" lon="6.07452">
        <ele>272.2</ele>
        <time>2021-06-03T09:21:26Z</time>
      </trkpt>
      <trkpt lat="47.25588" lon="6.07449">
        <ele>272.4</ele>
        <time>2021-06-03T09:21:27Z</time>
      </trkpt>
      <trkpt lat="47.25588" lon="6.07447">
        <ele>272.8</ele>
        <time>2021-06-03T09:21:28Z</time>
      </trkpt>
      <trkpt lat="47.25587" lon="6.07444">
        <ele>272.8</ele>
        <time>2021-06-03T09:21:29Z</time>
      </trkpt>
      <trkpt lat="47.25586" lon="6.07442">
        <ele>273.2</ele>
        <time>2021-06-03T09:21:30Z</time>
      </trkpt>
      <trkpt lat="47.25585" lon="6.07439">
        <ele>273.4</ele>
        <time>2021-06-03T09:21:31Z</time>
      </trkpt>
      <trkpt lat="47.25585" lon="6.07436">
        <ele>273.6</ele>
        <time>2021-06-03T09:21:32Z</time>
      </trkpt>
      <trkpt lat="47.25584" lon="6.07433">
        <ele>274</ele>
        <time>2021-06-03T09:21:33Z</time>
      </trkpt>
      <trkpt lat="47.25583" lon="6.0743">
        <ele>274.2</ele>
        <time>2021-06-03T09:21:34Z</time>
      </trkpt>
      <trkpt lat="47.25582" lon="6.07427">
        <ele>274.2</ele>
        <time>2021-06-03T09:21:35Z</time>
      </trkpt>
      <trkpt lat="47.25582" lon="6.07424">
        <ele>274.2</ele>
        <time>2021-06-03T09:21:36Z</time>
      </trkpt>
      <trkpt lat="47.25581" lon="6.07421">
        <ele>274.4</ele>
        <time>2021-06-03T09:21:37Z</time>
      </trkpt>
      <trkpt lat="47.25581" lon="6.07418">
        <ele>274.8</ele>
        <time>2021-06-03T09:21:38Z</time>
      </trkpt>
      <trkpt lat="47.2558" lon="6.07416">
        <ele>275</ele>
        <time>2021-06-03T09:21:39Z</time>
      </trkpt>
      <trkpt lat="47.2558" lon="6.07413">
        <ele>275.2</ele>
        <time>2021-06-03T09:21:40Z</time>
      </trkpt>
      <trkpt lat="47.25579" lon="6.07409">
        <ele>275.4</ele>
        <time>2021-06-03T09:21:41Z</time>
      </trkpt>
      <trkpt lat="47.25579" lon="6.07406">
        <ele>275.8</ele>
        <time>2021-06-03T09:21:42Z</time>
      </trkpt>
      <trkpt lat="47.25578" lon="6.07403">
        <ele>276.2</ele>
        <time>2021-06-03T09:21:43Z</time>
      </trkpt>
      <trkpt lat="47.25578" lon="6.07399">
        <ele>276.2</ele>
        <time>2021-06-03T09:21:44Z</time>
      </trkpt>
      <trkpt lat="47.25577" lon="6.07396">
        <ele>276.4</ele>
        <time>2021-06-03T09:21:45Z</time>
      </trkpt>
      <trkpt lat="47.25576" lon="6.07393">
        <ele>276.4</ele>
        <time>2021-06-03T09:21:46Z</time>
      </trkpt>
      <trkpt lat="47.25576" lon="6.07389">
        <ele>276.4</ele>
        <time>2021-06-03T09:21:47Z</time>
      </trkpt>
      <trkpt lat="47.25575" lon="6.07386">
        <ele>276.6</ele>
        <time>2021-06-03T09:21:48Z</time>
      </trkpt>
      <trkpt lat="47.25575" lon="6.07383">
        <ele>276.6</ele>
        <time>2021-06-03T09:21:49Z</time>
      </trkpt>
      <trkpt lat="47.25575" lon="6.0738">
        <ele>276.8</ele>
        <time>2021-06-03T09:21:50Z</time>
      </trkpt>
      <trkpt lat="47.25575" lon="6.07376">
        <ele>276.8</ele>
        <time>2021-06-03T09:21:51Z</time>
      </trkpt>
      <trkpt lat="47.25574" lon="6.07373">
        <ele>277</ele>
        <time>2021-06-03T09:21:52Z</time>
      </trkpt>
      <trkpt lat="47.25574" lon="6.07369">
        <ele>277</ele>
        <time>2021-06-03T09:21:53Z</time>
      </trkpt>
      <trkpt lat="47.25574" lon="6.07366">
        <ele>277.2</ele>
        <time>2021-06-03T09:21:54Z</time>
      </trkpt>
      <trkpt lat="47.25574" lon="6.07363">
        <ele>277.4</ele>
        <time>2021-06-03T09:21:55Z</time>
      </trkpt>
      <trkpt lat="47.25574" lon="6.07359">
        <ele>277.4</ele>
        <time>2021-06-03T09:21:56Z</time>
      </trkpt>
      <trkpt lat="47.25574" lon="6.07356">
        <ele>277.6</ele>
        <time>2021-06-03T09:21:57Z</time>
      </trkpt>
      <trkpt lat="47.25574" lon="6.07353">
        <ele>277.6</ele>
        <time>2021-06-03T09:21:58Z</time>
      </trkpt>
      <trkpt lat="47.25574" lon="6.0735">
        <ele>278</ele>
        <time>2021-06-03T09:21:59Z</time>
      </trkpt>
      <trkpt lat="47.25574" lon="6.07346">
        <ele>278</ele>
        <time>2021-06-03T09:22:00Z</time>
      </trkpt>
      <trkpt lat="47.25574" lon="6.07343">
        <ele>278.4</ele>
        <time>2021-06-03T09:22:01Z</time>
      </trkpt>
      <trkpt lat="47.25574" lon="6.0734">
        <ele>278.6</ele>
        <time>2021-06-03T09:22:02Z</time>
      </trkpt>
      <trkpt lat="47.25575" lon="6.07337">
        <ele>278.8</ele>
        <time>2021-06-03T09:22:03Z</time>
      </trkpt>
      <trkpt lat="47.25575" lon="6.07334">
        <ele>279</ele>
        <time>2021-06-03T09:22:04Z</time>
      </trkpt>
      <trkpt lat="47.25575" lon="6.0733">
        <ele>279</ele>
        <time>2021-06-03T09:22:05Z</time>
      </trkpt>
      <trkpt lat="47.25575" lon="6.07327">
        <ele>279.2</ele>
        <time>2021-06-03T09:22:06Z</time>
      </trkpt>
      <trkpt lat="47.25576" lon="6.07324">
        <ele>279.2</ele>
        <time>2021-06-03T09:22:07Z</time>
      </trkpt>
      <trkpt lat="47.25576" lon="6.07321">
        <ele>279.4</ele>
        <time>2021-06-03T09:22:08Z</time>
      </trkpt>
      <trkpt lat="47.25576" lon="6.07318">
        <ele>279.8</ele>
        <time>2021-06-03T09:22:09Z</time>
      </trkpt>
      <trkpt lat="47.25576" lon="6.07316">
        <ele>279.8</ele>
        <time>2021-06-03T09:22:10Z</time>
      </trkpt>
      <trkpt lat="47.25577" lon="6.07314">
        <ele>280</ele>
        <time>2021-06-03T09:22:11Z</time>
      </trkpt>
      <trkpt lat="47.25577" lon="6.07312">
        <ele>280.2</ele>
        <time>2021-06-03T09:22:12Z</time>
      </trkpt>
      <trkpt lat="47.25577" lon="6.07309">
        <ele>280.4</ele>
        <time>2021-06-03T09:22:13Z</time>
      </trkpt>
      <trkpt lat="47.25577" lon="6.07306">
        <ele>280.4</ele>
        <time>2021-06-03T09:22:14Z</time>
      </trkpt>
      <trkpt lat="47.25578" lon="6.07303">
        <ele>280.6</ele>
        <time>2021-06-03T09:22:15Z</time>
      </trkpt>
      <trkpt lat="47.25578" lon="6.07301">
        <ele>280.6</ele>
        <time>2021-06-03T09:22:16Z</time>
      </trkpt>
      <trkpt lat="47.25579" lon="6.07297">
        <ele>280.8</ele>
        <time>2021-06-03T09:22:17Z</time>
      </trkpt>
      <trkpt lat="47.25579" lon="6.07293">
        <ele>280.8</ele>
        <time>2021-06-03T09:22:18Z</time>
      </trkpt>
      <trkpt lat="47.25579" lon="6.0729">
        <ele>280.8</ele>
        <time>2021-06-03T09:22:19Z</time>
      </trkpt>
      <trkpt lat="47.25579" lon="6.07287">
        <ele>281</ele>
        <time>2021-06-03T09:22:20Z</time>
      </trkpt>
      <trkpt lat="47.25579" lon="6.07283">
        <ele>281.2</ele>
        <time>2021-06-03T09:22:21Z</time>
      </trkpt>
      <trkpt lat="47.2558" lon="6.0728">
        <ele>281.2</ele>
        <time>2021-06-03T09:22:22Z</time>
      </trkpt>
      <trkpt lat="47.2558" lon="6.07276">
        <ele>281.4</ele>
        <time>2021-06-03T09:22:23Z</time>
      </trkpt>
      <trkpt lat="47.2558" lon="6.07273">
        <ele>281.4</ele>
        <time>2021-06-03T09:22:24Z</time>
      </trkpt>
      <trkpt lat="47.2558" lon="6.0727">
        <ele>281.4</ele>
        <time>2021-06-03T09:22:25Z</time>
      </trkpt>
      <trkpt lat="47.2558" lon="6.07266">
        <ele>281.6</ele>
        <time>2021-06-03T09:22:26Z</time>
      </trkpt>
      <trkpt lat="47.2558" lon="6.07263">
        <ele>281.6</ele>
        <time>2021-06-03T09:22:27Z</time>
      </trkpt>
      <trkpt lat="47.2558" lon="6.0726">
        <ele>281.8</ele>
        <time>2021-06-03T09:22:28Z</time>
      </trkpt>
      <trkpt lat="47.2558" lon="6.07257">
        <ele>281.8</ele>
        <time>2021-06-03T09:22:29Z</time>
      </trkpt>
      <trkpt lat="47.2558" lon="6.07253">
        <ele>281.8</ele>
        <time>2021-06-03T09:22:30Z</time>
      </trkpt>
      <trkpt lat="47.2558" lon="6.0725">
        <ele>281.8</ele>
        <time>2021-06-03T09:22:31Z</time>
      </trkpt>
      <trkpt lat="47.2558" lon="6.07246">
        <ele>281.8</ele>
        <time>2021-06-03T09:22:32Z</time>
      </trkpt>
      <trkpt lat="47.2558" lon="6.07243">
        <ele>282</ele>
        <time>2021-06-03T09:22:33Z</time>
      </trkpt>
      <trkpt lat="47.25581" lon="6.0724">
        <ele>282</ele>
        <time>2021-06-03T09:22:34Z</time>
      </trkpt>
      <trkpt lat="47.25581" lon="6.07237">
        <ele>282</ele>
        <time>2021-06-03T09:22:35Z</time>
      </trkpt>
      <trkpt lat="47.25581" lon="6.07234">
        <ele>282</ele>
        <time>2021-06-03T09:22:36Z</time>
      </trkpt>
      <trkpt lat="47.25581" lon="6.07231">
        <ele>282</ele>
        <time>2021-06-03T09:22:37Z</time>
      </trkpt>
      <trkpt lat="47.2558" lon="6.07214">
        <ele>282.2</ele>
        <time>2021-06-03T09:22:42Z</time>
      </trkpt>
      <trkpt lat="47.25579" lon="6.07193">
        <ele>282.4</ele>
        <time>2021-06-03T09:22:48Z</time>
      </trkpt>
      <trkpt lat="47.25579" lon="6.07186">
        <ele>282.4</ele>
        <time>2021-06-03T09:22:50Z</time>
      </trkpt>
      <trkpt lat="47.25579" lon="6.07182">
        <ele>282.6</ele>
        <time>2021-06-03T09:22:51Z</time>
      </trkpt>
      <trkpt lat="47.25578" lon="6.07175">
        <ele>282.8</ele>
        <time>2021-06-03T09:22:53Z</time>
      </trkpt>
      <trkpt lat="47.25578" lon="6.07171">
        <ele>282.8</ele>
        <time>2021-06-03T09:22:54Z</time>
      </trkpt>
      <trkpt lat="47.25578" lon="6.07168">
        <ele>283</ele>
        <time>2021-06-03T09:22:55Z</time>
      </trkpt>
      <trkpt lat="47.25577" lon="6.07165">
        <ele>283</ele>
        <time>2021-06-03T09:22:56Z</time>
      </trkpt>
      <trkpt lat="47.25576" lon="6.07161">
        <ele>283.2</ele>
        <time>2021-06-03T09:22:57Z</time>
      </trkpt>
      <trkpt lat="47.25576" lon="6.07158">
        <ele>283.2</ele>
        <time>2021-06-03T09:22:58Z</time>
      </trkpt>
      <trkpt lat="47.25576" lon="6.07155">
        <ele>283.6</ele>
        <time>2021-06-03T09:22:59Z</time>
      </trkpt>
      <trkpt lat="47.25575" lon="6.07152">
        <ele>283.8</ele>
        <time>2021-06-03T09:23:00Z</time>
      </trkpt>
      <trkpt lat="47.25575" lon="6.07149">
        <ele>284</ele>
        <time>2021-06-03T09:23:01Z</time>
      </trkpt>
      <trkpt lat="47.25574" lon="6.07145">
        <ele>284.2</ele>
        <time>2021-06-03T09:23:02Z</time>
      </trkpt>
      <trkpt lat="47.25574" lon="6.07143">
        <ele>284.4</ele>
        <time>2021-06-03T09:23:03Z</time>
      </trkpt>
      <trkpt lat="47.25572" lon="6.07137">
        <ele>284.6</ele>
        <time>2021-06-03T09:23:05Z</time>
      </trkpt>
      <trkpt lat="47.25569" lon="6.07129">
        <ele>285.2</ele>
        <time>2021-06-03T09:23:08Z</time>
      </trkpt>
      <trkpt lat="47.25569" lon="6.07126">
        <ele>285.2</ele>
        <time>2021-06-03T09:23:09Z</time>
      </trkpt>
      <trkpt lat="47.25568" lon="6.07123">
        <ele>285.6</ele>
        <time>2021-06-03T09:23:10Z</time>
      </trkpt>
      <trkpt lat="47.25567" lon="6.0712">
        <ele>285.6</ele>
        <time>2021-06-03T09:23:11Z</time>
      </trkpt>
      <trkpt lat="47.25567" lon="6.07118">
        <ele>286</ele>
        <time>2021-06-03T09:23:12Z</time>
      </trkpt>
      <trkpt lat="47.25566" lon="6.07116">
        <ele>286.2</ele>
        <time>2021-06-03T09:23:13Z</time>
      </trkpt>
      <trkpt lat="47.25566" lon="6.07112">
        <ele>286.2</ele>
        <time>2021-06-03T09:23:14Z</time>
      </trkpt>
      <trkpt lat="47.25565" lon="6.0711">
        <ele>286.4</ele>
        <time>2021-06-03T09:23:15Z</time>
      </trkpt>
      <trkpt lat="47.25565" lon="6.07107">
        <ele>286.4</ele>
        <time>2021-06-03T09:23:16Z</time>
      </trkpt>
      <trkpt lat="47.25565" lon="6.07105">
        <ele>286.4</ele>
        <time>2021-06-03T09:23:17Z</time>
      </trkpt>
      <trkpt lat="47.25564" lon="6.07102">
        <ele>286.6</ele>
        <time>2021-06-03T09:23:18Z</time>
      </trkpt>
      <trkpt lat="47.25564" lon="6.071">
        <ele>286.6</ele>
        <time>2021-06-03T09:23:19Z</time>
      </trkpt>
      <trkpt lat="47.25563" lon="6.07097">
        <ele>286.8</ele>
        <time>2021-06-03T09:23:20Z</time>
      </trkpt>
      <trkpt lat="47.25562" lon="6.07095">
        <ele>287</ele>
        <time>2021-06-03T09:23:21Z</time>
      </trkpt>
      <trkpt lat="47.25561" lon="6.07092">
        <ele>287.4</ele>
        <time>2021-06-03T09:23:22Z</time>
      </trkpt>
      <trkpt lat="47.2556" lon="6.0709">
        <ele>287.4</ele>
        <time>2021-06-03T09:23:23Z</time>
      </trkpt>
      <trkpt lat="47.25559" lon="6.07087">
        <ele>287.8</ele>
        <time>2021-06-03T09:23:24Z</time>
      </trkpt>
      <trkpt lat="47.25558" lon="6.07085">
        <ele>288</ele>
        <time>2021-06-03T09:23:25Z</time>
      </trkpt>
      <trkpt lat="47.25557" lon="6.07083">
        <ele>288.2</ele>
        <time>2021-06-03T09:23:26Z</time>
      </trkpt>
      <trkpt lat="47.25556" lon="6.0708">
        <ele>288.4</ele>
        <time>2021-06-03T09:23:27Z</time>
      </trkpt>
      <trkpt lat="47.25556" lon="6.07078">
        <ele>288.6</ele>
        <time>2021-06-03T09:23:28Z</time>
      </trkpt>
      <trkpt lat="47.25555" lon="6.07076">
        <ele>288.8</ele>
        <time>2021-06-03T09:23:29Z</time>
      </trkpt>
      <trkpt lat="47.25554" lon="6.07074">
        <ele>289</ele>
        <time>2021-06-03T09:23:30Z</time>
      </trkpt>
      <trkpt lat="47.25553" lon="6.07072">
        <ele>289.2</ele>
        <time>2021-06-03T09:23:31Z</time>
      </trkpt>
      <trkpt lat="47.25552" lon="6.0707">
        <ele>289.4</ele>
        <time>2021-06-03T09:23:32Z</time>
      </trkpt>
      <trkpt lat="47.25551" lon="6.07068">
        <ele>289.6</ele>
        <time>2021-06-03T09:23:33Z</time>
      </trkpt>
      <trkpt lat="47.2555" lon="6.07066">
        <ele>290</ele>
        <time>2021-06-03T09:23:34Z</time>
      </trkpt>
      <trkpt lat="47.25549" lon="6.07064">
        <ele>290.2</ele>
        <time>2021-06-03T09:23:35Z</time>
      </trkpt>
      <trkpt lat="47.25548" lon="6.07062">
        <ele>290.4</ele>
        <time>2021-06-03T09:23:36Z</time>
      </trkpt>
      <trkpt lat="47.25547" lon="6.0706">
        <ele>290.6</ele>
        <time>2021-06-03T09:23:37Z</time>
      </trkpt>
      <trkpt lat="47.25547" lon="6.07059">
        <ele>290.8</ele>
        <time>2021-06-03T09:23:38Z</time>
      </trkpt>
      <trkpt lat="47.25546" lon="6.07057">
        <ele>291</ele>
        <time>2021-06-03T09:23:39Z</time>
      </trkpt>
      <trkpt lat="47.25545" lon="6.07055">
        <ele>291.2</ele>
        <time>2021-06-03T09:23:40Z</time>
      </trkpt>
      <trkpt lat="47.25544" lon="6.07053">
        <ele>291.4</ele>
        <time>2021-06-03T09:23:41Z</time>
      </trkpt>
      <trkpt lat="47.25543" lon="6.07051">
        <ele>291.6</ele>
        <time>2021-06-03T09:23:42Z</time>
      </trkpt>
      <trkpt lat="47.25542" lon="6.0705">
        <ele>291.8</ele>
        <time>2021-06-03T09:23:43Z</time>
      </trkpt>
      <trkpt lat="47.25541" lon="6.07048">
        <ele>292</ele>
        <time>2021-06-03T09:23:44Z</time>
      </trkpt>
      <trkpt lat="47.2554" lon="6.07046">
        <ele>292</ele>
        <time>2021-06-03T09:23:45Z</time>
      </trkpt>
      <trkpt lat="47.25539" lon="6.07044">
        <ele>292.4</ele>
        <time>2021-06-03T09:23:46Z</time>
      </trkpt>
      <trkpt lat="47.25538" lon="6.07043">
        <ele>292.6</ele>
        <time>2021-06-03T09:23:47Z</time>
      </trkpt>
      <trkpt lat="47.25536" lon="6.07041">
        <ele>292.8</ele>
        <time>2021-06-03T09:23:48Z</time>
      </trkpt>
      <trkpt lat="47.25534" lon="6.07039">
        <ele>292.8</ele>
        <time>2021-06-03T09:23:49Z</time>
      </trkpt>
      <trkpt lat="47.25533" lon="6.07037">
        <ele>293.2</ele>
        <time>2021-06-03T09:23:50Z</time>
      </trkpt>
      <trkpt lat="47.25532" lon="6.07036">
        <ele>293.6</ele>
        <time>2021-06-03T09:23:51Z</time>
      </trkpt>
      <trkpt lat="47.25531" lon="6.07034">
        <ele>293.6</ele>
        <time>2021-06-03T09:23:52Z</time>
      </trkpt>
      <trkpt lat="47.2553" lon="6.07032">
        <ele>293.8</ele>
        <time>2021-06-03T09:23:53Z</time>
      </trkpt>
      <trkpt lat="47.25529" lon="6.0703">
        <ele>293.8</ele>
        <time>2021-06-03T09:23:54Z</time>
      </trkpt>
      <trkpt lat="47.25529" lon="6.07028">
        <ele>294.2</ele>
        <time>2021-06-03T09:23:55Z</time>
      </trkpt>
      <trkpt lat="47.25528" lon="6.07025">
        <ele>294.4</ele>
        <time>2021-06-03T09:23:56Z</time>
      </trkpt>
      <trkpt lat="47.25527" lon="6.07024">
        <ele>294.6</ele>
        <time>2021-06-03T09:23:57Z</time>
      </trkpt>
      <trkpt lat="47.25526" lon="6.07022">
        <ele>295</ele>
        <time>2021-06-03T09:23:58Z</time>
      </trkpt>
      <trkpt lat="47.25526" lon="6.0702">
        <ele>295.2</ele>
        <time>2021-06-03T09:23:59Z</time>
      </trkpt>
      <trkpt lat="47.25525" lon="6.07018">
        <ele>295.4</ele>
        <time>2021-06-03T09:24:00Z</time>
      </trkpt>
      <trkpt lat="47.25524" lon="6.07016">
        <ele>295.4</ele>
        <time>2021-06-03T09:24:01Z</time>
      </trkpt>
      <trkpt lat="47.25523" lon="6.07014">
        <ele>295.8</ele>
        <time>2021-06-03T09:24:02Z</time>
      </trkpt>
      <trkpt lat="47.25522" lon="6.07012">
        <ele>296</ele>
        <time>2021-06-03T09:24:03Z</time>
      </trkpt>
      <trkpt lat="47.25522" lon="6.0701">
        <ele>296.2</ele>
        <time>2021-06-03T09:24:04Z</time>
      </trkpt>
      <trkpt lat="47.25521" lon="6.07008">
        <ele>296.4</ele>
        <time>2021-06-03T09:24:05Z</time>
      </trkpt>
      <trkpt lat="47.25521" lon="6.07005">
        <ele>296.4</ele>
        <time>2021-06-03T09:24:06Z</time>
      </trkpt>
      <trkpt lat="47.2552" lon="6.07003">
        <ele>296.8</ele>
        <time>2021-06-03T09:24:07Z</time>
      </trkpt>
      <trkpt lat="47.2552" lon="6.07001">
        <ele>297</ele>
        <time>2021-06-03T09:24:08Z</time>
      </trkpt>
      <trkpt lat="47.25519" lon="6.06998">
        <ele>297.2</ele>
        <time>2021-06-03T09:24:09Z</time>
      </trkpt>
      <trkpt lat="47.25519" lon="6.06996">
        <ele>297.4</ele>
        <time>2021-06-03T09:24:10Z</time>
      </trkpt>
      <trkpt lat="47.25519" lon="6.06993">
        <ele>297.6</ele>
        <time>2021-06-03T09:24:11Z</time>
      </trkpt>
      <trkpt lat="47.25518" lon="6.06991">
        <ele>298</ele>
        <time>2021-06-03T09:24:12Z</time>
      </trkpt>
      <trkpt lat="47.25518" lon="6.06988">
        <ele>298</ele>
        <time>2021-06-03T09:24:13Z</time>
      </trkpt>
      <trkpt lat="47.25518" lon="6.06986">
        <ele>298.4</ele>
        <time>2021-06-03T09:24:14Z</time>
      </trkpt>
      <trkpt lat="47.25517" lon="6.06983">
        <ele>298.6</ele>
        <time>2021-06-03T09:24:15Z</time>
      </trkpt>
      <trkpt lat="47.25517" lon="6.0698">
        <ele>298.8</ele>
        <time>2021-06-03T09:24:16Z</time>
      </trkpt>
      <trkpt lat="47.25517" lon="6.06978">
        <ele>299</ele>
        <time>2021-06-03T09:24:17Z</time>
      </trkpt>
      <trkpt lat="47.25517" lon="6.06976">
        <ele>299.2</ele>
        <time>2021-06-03T09:24:18Z</time>
      </trkpt>
      <trkpt lat="47.25517" lon="6.06973">
        <ele>299.4</ele>
        <time>2021-06-03T09:24:19Z</time>
      </trkpt>
      <trkpt lat="47.25516" lon="6.06971">
        <ele>299.6</ele>
        <time>2021-06-03T09:24:20Z</time>
      </trkpt>
      <trkpt lat="47.25516" lon="6.06968">
        <ele>300</ele>
        <time>2021-06-03T09:24:21Z</time>
      </trkpt>
      <trkpt lat="47.25516" lon="6.06966">
        <ele>300.2</ele>
        <time>2021-06-03T09:24:22Z</time>
      </trkpt>
      <trkpt lat="47.25516" lon="6.06963">
        <ele>300.4</ele>
        <time>2021-06-03T09:24:23Z</time>
      </trkpt>
      <trkpt lat="47.25516" lon="6.06961">
        <ele>300.8</ele>
        <time>2021-06-03T09:24:24Z</time>
      </trkpt>
      <trkpt lat="47.25517" lon="6.06958">
        <ele>301</ele>
        <time>2021-06-03T09:24:25Z</time>
      </trkpt>
      <trkpt lat="47.25517" lon="6.06956">
        <ele>301.4</ele>
        <time>2021-06-03T09:24:26Z</time>
      </trkpt>
      <trkpt lat="47.25518" lon="6.06954">
        <ele>301.6</ele>
        <time>2021-06-03T09:24:27Z</time>
      </trkpt>
      <trkpt lat="47.25518" lon="6.06952">
        <ele>301.8</ele>
        <time>2021-06-03T09:24:28Z</time>
      </trkpt>
      <trkpt lat="47.25518" lon="6.06949">
        <ele>301.8</ele>
        <time>2021-06-03T09:24:29Z</time>
      </trkpt>
      <trkpt lat="47.25518" lon="6.06947">
        <ele>301.8</ele>
        <time>2021-06-03T09:24:30Z</time>
      </trkpt>
      <trkpt lat="47.25519" lon="6.06945">
        <ele>302</ele>
        <time>2021-06-03T09:24:31Z</time>
      </trkpt>
      <trkpt lat="47.25519" lon="6.06943">
        <ele>302</ele>
        <time>2021-06-03T09:24:32Z</time>
      </trkpt>
      <trkpt lat="47.25518" lon="6.0694">
        <ele>302.2</ele>
        <time>2021-06-03T09:24:33Z</time>
      </trkpt>
      <trkpt lat="47.25518" lon="6.06937">
        <ele>302.6</ele>
        <time>2021-06-03T09:24:34Z</time>
      </trkpt>
      <trkpt lat="47.25517" lon="6.06935">
        <ele>302.6</ele>
        <time>2021-06-03T09:24:35Z</time>
      </trkpt>
      <trkpt lat="47.25517" lon="6.06933">
        <ele>302.8</ele>
        <time>2021-06-03T09:24:36Z</time>
      </trkpt>
      <trkpt lat="47.25517" lon="6.06932">
        <ele>303</ele>
        <time>2021-06-03T09:24:37Z</time>
      </trkpt>
      <trkpt lat="47.25517" lon="6.06931">
        <ele>303</ele>
        <time>2021-06-03T09:24:38Z</time>
      </trkpt>
      <trkpt lat="47.25517" lon="6.06931">
        <ele>303.2</ele>
        <time>2021-06-03T09:24:40Z</time>
      </trkpt>
      <trkpt lat="47.25517" lon="6.06931">
        <ele>303.6</ele>
        <time>2021-06-03T09:24:53Z</time>
      </trkpt>
      <trkpt lat="47.25517" lon="6.06923">
        <ele>303.2</ele>
        <time>2021-06-03T09:26:02Z</time>
      </trkpt>
      <trkpt lat="47.25516" lon="6.06917">
        <ele>303.2</ele>
        <time>2021-06-03T09:26:04Z</time>
      </trkpt>
      <trkpt lat="47.25515" lon="6.06914">
        <ele>303.2</ele>
        <time>2021-06-03T09:26:05Z</time>
      </trkpt>
      <trkpt lat="47.25514" lon="6.06912">
        <ele>303.2</ele>
        <time>2021-06-03T09:26:06Z</time>
      </trkpt>
      <trkpt lat="47.25512" lon="6.06904">
        <ele>303.4</ele>
        <time>2021-06-03T09:26:09Z</time>
      </trkpt>
      <trkpt lat="47.25508" lon="6.06894">
        <ele>303.8</ele>
        <time>2021-06-03T09:26:13Z</time>
      </trkpt>
      <trkpt lat="47.25507" lon="6.06892">
        <ele>303.8</ele>
        <time>2021-06-03T09:26:14Z</time>
      </trkpt>
      <trkpt lat="47.25504" lon="6.06884">
        <ele>304.2</ele>
        <time>2021-06-03T09:26:17Z</time>
      </trkpt>
      <trkpt lat="47.25502" lon="6.06877">
        <ele>304.4</ele>
        <time>2021-06-03T09:26:20Z</time>
      </trkpt>
      <trkpt lat="47.25501" lon="6.06874">
        <ele>304.6</ele>
        <time>2021-06-03T09:26:21Z</time>
      </trkpt>
      <trkpt lat="47.255" lon="6.06872">
        <ele>304.8</ele>
        <time>2021-06-03T09:26:22Z</time>
      </trkpt>
      <trkpt lat="47.25498" lon="6.06866">
        <ele>305.2</ele>
        <time>2021-06-03T09:26:24Z</time>
      </trkpt>
      <trkpt lat="47.25497" lon="6.06864">
        <ele>305.4</ele>
        <time>2021-06-03T09:26:25Z</time>
      </trkpt>
      <trkpt lat="47.25493" lon="6.06856">
        <ele>306</ele>
        <time>2021-06-03T09:26:28Z</time>
      </trkpt>
      <trkpt lat="47.25491" lon="6.06852">
        <ele>306.2</ele>
        <time>2021-06-03T09:26:30Z</time>
      </trkpt>
      <trkpt lat="47.25487" lon="6.06848">
        <ele>306.8</ele>
        <time>2021-06-03T09:26:32Z</time>
      </trkpt>
      <trkpt lat="47.25486" lon="6.06846">
        <ele>307.2</ele>
        <time>2021-06-03T09:26:33Z</time>
      </trkpt>
      <trkpt lat="47.25485" lon="6.06844">
        <ele>307.2</ele>
        <time>2021-06-03T09:26:34Z</time>
      </trkpt>
      <trkpt lat="47.25483" lon="6.06842">
        <ele>307.4</ele>
        <time>2021-06-03T09:26:35Z</time>
      </trkpt>
      <trkpt lat="47.2548" lon="6.06839">
        <ele>307.6</ele>
        <time>2021-06-03T09:26:36Z</time>
      </trkpt>
      <trkpt lat="47.25479" lon="6.06837">
        <ele>307.8</ele>
        <time>2021-06-03T09:26:37Z</time>
      </trkpt>
      <trkpt lat="47.25478" lon="6.06835">
        <ele>307.8</ele>
        <time>2021-06-03T09:26:38Z</time>
      </trkpt>
      <trkpt lat="47.25476" lon="6.06832">
        <ele>308</ele>
        <time>2021-06-03T09:26:39Z</time>
      </trkpt>
      <trkpt lat="47.25475" lon="6.0683">
        <ele>308.4</ele>
        <time>2021-06-03T09:26:40Z</time>
      </trkpt>
      <trkpt lat="47.25474" lon="6.06828">
        <ele>308.4</ele>
        <time>2021-06-03T09:26:41Z</time>
      </trkpt>
      <trkpt lat="47.25473" lon="6.06826">
        <ele>308.6</ele>
        <time>2021-06-03T09:26:42Z</time>
      </trkpt>
      <trkpt lat="47.25472" lon="6.06824">
        <ele>308.6</ele>
        <time>2021-06-03T09:26:43Z</time>
      </trkpt>
      <trkpt lat="47.2547" lon="6.06822">
        <ele>308.8</ele>
        <time>2021-06-03T09:26:44Z</time>
      </trkpt>
      <trkpt lat="47.25469" lon="6.06819">
        <ele>308.8</ele>
        <time>2021-06-03T09:26:45Z</time>
      </trkpt>
      <trkpt lat="47.25467" lon="6.06816">
        <ele>309</ele>
        <time>2021-06-03T09:26:46Z</time>
      </trkpt>
      <trkpt lat="47.25467" lon="6.06814">
        <ele>309.4</ele>
        <time>2021-06-03T09:26:47Z</time>
      </trkpt>
      <trkpt lat="47.25466" lon="6.06812">
        <ele>309.4</ele>
        <time>2021-06-03T09:26:48Z</time>
      </trkpt>
      <trkpt lat="47.25465" lon="6.06809">
        <ele>309.6</ele>
        <time>2021-06-03T09:26:49Z</time>
      </trkpt>
      <trkpt lat="47.25463" lon="6.06807">
        <ele>309.8</ele>
        <time>2021-06-03T09:26:50Z</time>
      </trkpt>
      <trkpt lat="47.25462" lon="6.06805">
        <ele>310</ele>
        <time>2021-06-03T09:26:51Z</time>
      </trkpt>
      <trkpt lat="47.25461" lon="6.06803">
        <ele>310.2</ele>
        <time>2021-06-03T09:26:52Z</time>
      </trkpt>
      <trkpt lat="47.25459" lon="6.06801">
        <ele>310.2</ele>
        <time>2021-06-03T09:26:53Z</time>
      </trkpt>
      <trkpt lat="47.25458" lon="6.06799">
        <ele>310.4</ele>
        <time>2021-06-03T09:26:54Z</time>
      </trkpt>
      <trkpt lat="47.25456" lon="6.06796">
        <ele>310.6</ele>
        <time>2021-06-03T09:26:55Z</time>
      </trkpt>
      <trkpt lat="47.25455" lon="6.06794">
        <ele>310.6</ele>
        <time>2021-06-03T09:26:56Z</time>
      </trkpt>
      <trkpt lat="47.25453" lon="6.06792">
        <ele>310.8</ele>
        <time>2021-06-03T09:26:57Z</time>
      </trkpt>
      <trkpt lat="47.25451" lon="6.06789">
        <ele>311</ele>
        <time>2021-06-03T09:26:58Z</time>
      </trkpt>
      <trkpt lat="47.25449" lon="6.06786">
        <ele>311</ele>
        <time>2021-06-03T09:26:59Z</time>
      </trkpt>
      <trkpt lat="47.25447" lon="6.06784">
        <ele>311</ele>
        <time>2021-06-03T09:27:00Z</time>
      </trkpt>
      <trkpt lat="47.25446" lon="6.06781">
        <ele>311.2</ele>
        <time>2021-06-03T09:27:01Z</time>
      </trkpt>
      <trkpt lat="47.25445" lon="6.06778">
        <ele>311.4</ele>
        <time>2021-06-03T09:27:02Z</time>
      </trkpt>
      <trkpt lat="47.25445" lon="6.06775">
        <ele>311.6</ele>
        <time>2021-06-03T09:27:03Z</time>
      </trkpt>
      <trkpt lat="47.25446" lon="6.06773">
        <ele>311.6</ele>
        <time>2021-06-03T09:27:04Z</time>
      </trkpt>
      <trkpt lat="47.25447" lon="6.06771">
        <ele>311.8</ele>
        <time>2021-06-03T09:27:05Z</time>
      </trkpt>
      <trkpt lat="47.25449" lon="6.0677">
        <ele>312.2</ele>
        <time>2021-06-03T09:27:06Z</time>
      </trkpt>
      <trkpt lat="47.2545" lon="6.06769">
        <ele>312.2</ele>
        <time>2021-06-03T09:27:07Z</time>
      </trkpt>
      <trkpt lat="47.25452" lon="6.0677">
        <ele>312.8</ele>
        <time>2021-06-03T09:27:08Z</time>
      </trkpt>
      <trkpt lat="47.25453" lon="6.06769">
        <ele>313.2</ele>
        <time>2021-06-03T09:27:09Z</time>
      </trkpt>
      <trkpt lat="47.25455" lon="6.06769">
        <ele>313.6</ele>
        <time>2021-06-03T09:27:10Z</time>
      </trkpt>
      <trkpt lat="47.25456" lon="6.0677">
        <ele>314</ele>
        <time>2021-06-03T09:27:11Z</time>
      </trkpt>
      <trkpt lat="47.25457" lon="6.06771">
        <ele>314.2</ele>
        <time>2021-06-03T09:27:12Z</time>
      </trkpt>
      <trkpt lat="47.25458" lon="6.06771">
        <ele>314.4</ele>
        <time>2021-06-03T09:27:13Z</time>
      </trkpt>
      <trkpt lat="47.2546" lon="6.06772">
        <ele>314.6</ele>
        <time>2021-06-03T09:27:14Z</time>
      </trkpt>
      <trkpt lat="47.25461" lon="6.06772">
        <ele>315</ele>
        <time>2021-06-03T09:27:15Z</time>
      </trkpt>
      <trkpt lat="47.25462" lon="6.06772">
        <ele>315.2</ele>
        <time>2021-06-03T09:27:16Z</time>
      </trkpt>
      <trkpt lat="47.25463" lon="6.06772">
        <ele>315.6</ele>
        <time>2021-06-03T09:27:17Z</time>
      </trkpt>
      <trkpt lat="47.25464" lon="6.06773">
        <ele>315.8</ele>
        <time>2021-06-03T09:27:18Z</time>
      </trkpt>
      <trkpt lat="47.25466" lon="6.06773">
        <ele>315.8</ele>
        <time>2021-06-03T09:27:19Z</time>
      </trkpt>
      <trkpt lat="47.25467" lon="6.06774">
        <ele>316</ele>
        <time>2021-06-03T09:27:20Z</time>
      </trkpt>
      <trkpt lat="47.25469" lon="6.06774">
        <ele>316.2</ele>
        <time>2021-06-03T09:27:21Z</time>
      </trkpt>
      <trkpt lat="47.2547" lon="6.06775">
        <ele>316.4</ele>
        <time>2021-06-03T09:27:22Z</time>
      </trkpt>
      <trkpt lat="47.25471" lon="6.06775">
        <ele>316.4</ele>
        <time>2021-06-03T09:27:23Z</time>
      </trkpt>
      <trkpt lat="47.25472" lon="6.06776">
        <ele>316.6</ele>
        <time>2021-06-03T09:27:24Z</time>
      </trkpt>
      <trkpt lat="47.25474" lon="6.06777">
        <ele>316.8</ele>
        <time>2021-06-03T09:27:25Z</time>
      </trkpt>
      <trkpt lat="47.25475" lon="6.06777">
        <ele>316.8</ele>
        <time>2021-06-03T09:27:26Z</time>
      </trkpt>
      <trkpt lat="47.25476" lon="6.06778">
        <ele>317</ele>
        <time>2021-06-03T09:27:27Z</time>
      </trkpt>
      <trkpt lat="47.25478" lon="6.06778">
        <ele>317</ele>
        <time>2021-06-03T09:27:28Z</time>
      </trkpt>
      <trkpt lat="47.2548" lon="6.06779">
        <ele>317</ele>
        <time>2021-06-03T09:27:29Z</time>
      </trkpt>
      <trkpt lat="47.25481" lon="6.06779">
        <ele>317.2</ele>
        <time>2021-06-03T09:27:30Z</time>
      </trkpt>
      <trkpt lat="47.25483" lon="6.06779">
        <ele>317.4</ele>
        <time>2021-06-03T09:27:31Z</time>
      </trkpt>
      <trkpt lat="47.25485" lon="6.0678">
        <ele>317.6</ele>
        <time>2021-06-03T09:27:32Z</time>
      </trkpt>
      <trkpt lat="47.25486" lon="6.0678">
        <ele>317.8</ele>
        <time>2021-06-03T09:27:33Z</time>
      </trkpt>
      <trkpt lat="47.25488" lon="6.0678">
        <ele>318</ele>
        <time>2021-06-03T09:27:34Z</time>
      </trkpt>
      <trkpt lat="47.2549" lon="6.0678">
        <ele>318</ele>
        <time>2021-06-03T09:27:35Z</time>
      </trkpt>
      <trkpt lat="47.25491" lon="6.0678">
        <ele>318.2</ele>
        <time>2021-06-03T09:27:36Z</time>
      </trkpt>
      <trkpt lat="47.25493" lon="6.0678">
        <ele>318.4</ele>
        <time>2021-06-03T09:27:37Z</time>
      </trkpt>
      <trkpt lat="47.25496" lon="6.06781">
        <ele>318.4</ele>
        <time>2021-06-03T09:27:38Z</time>
      </trkpt>
      <trkpt lat="47.25499" lon="6.06782">
        <ele>318.4</ele>
        <time>2021-06-03T09:27:39Z</time>
      </trkpt>
      <trkpt lat="47.25501" lon="6.06782">
        <ele>318.6</ele>
        <time>2021-06-03T09:27:40Z</time>
      </trkpt>
      <trkpt lat="47.25504" lon="6.06782">
        <ele>318.8</ele>
        <time>2021-06-03T09:27:41Z</time>
      </trkpt>
      <trkpt lat="47.25507" lon="6.06782">
        <ele>319</ele>
        <time>2021-06-03T09:27:42Z</time>
      </trkpt>
      <trkpt lat="47.25511" lon="6.06782">
        <ele>319</ele>
        <time>2021-06-03T09:27:43Z</time>
      </trkpt>
      <trkpt lat="47.25513" lon="6.06782">
        <ele>319.2</ele>
        <time>2021-06-03T09:27:44Z</time>
      </trkpt>
      <trkpt lat="47.25515" lon="6.06781">
        <ele>319.4</ele>
        <time>2021-06-03T09:27:45Z</time>
      </trkpt>
      <trkpt lat="47.25516" lon="6.06782">
        <ele>319.4</ele>
        <time>2021-06-03T09:27:46Z</time>
      </trkpt>
      <trkpt lat="47.25518" lon="6.06781">
        <ele>319.6</ele>
        <time>2021-06-03T09:27:47Z</time>
      </trkpt>
      <trkpt lat="47.2552" lon="6.06781">
        <ele>319.6</ele>
        <time>2021-06-03T09:27:48Z</time>
      </trkpt>
      <trkpt lat="47.25522" lon="6.06781">
        <ele>320</ele>
        <time>2021-06-03T09:27:49Z</time>
      </trkpt>
      <trkpt lat="47.25524" lon="6.0678">
        <ele>320</ele>
        <time>2021-06-03T09:27:50Z</time>
      </trkpt>
      <trkpt lat="47.25526" lon="6.06779">
        <ele>320.2</ele>
        <time>2021-06-03T09:27:51Z</time>
      </trkpt>
      <trkpt lat="47.25528" lon="6.06777">
        <ele>320.2</ele>
        <time>2021-06-03T09:27:52Z</time>
      </trkpt>
      <trkpt lat="47.25529" lon="6.06775">
        <ele>320.4</ele>
        <time>2021-06-03T09:27:53Z</time>
      </trkpt>
      <trkpt lat="47.2553" lon="6.06773">
        <ele>320.4</ele>
        <time>2021-06-03T09:27:54Z</time>
      </trkpt>
      <trkpt lat="47.25532" lon="6.0677">
        <ele>320.6</ele>
        <time>2021-06-03T09:27:55Z</time>
      </trkpt>
      <trkpt lat="47.25532" lon="6.06769">
        <ele>320.6</ele>
        <time>2021-06-03T09:27:56Z</time>
      </trkpt>
      <trkpt lat="47.25533" lon="6.06766">
        <ele>320.8</ele>
        <time>2021-06-03T09:27:57Z</time>
      </trkpt>
      <trkpt lat="47.25534" lon="6.06763">
        <ele>320.8</ele>
        <time>2021-06-03T09:27:58Z</time>
      </trkpt>
      <trkpt lat="47.25535" lon="6.06761">
        <ele>321</ele>
        <time>2021-06-03T09:27:59Z</time>
      </trkpt>
      <trkpt lat="47.25536" lon="6.06759">
        <ele>321</ele>
        <time>2021-06-03T09:28:00Z</time>
      </trkpt>
      <trkpt lat="47.25536" lon="6.06756">
        <ele>321</ele>
        <time>2021-06-03T09:28:01Z</time>
      </trkpt>
      <trkpt lat="47.25536" lon="6.06754">
        <ele>321.2</ele>
        <time>2021-06-03T09:28:02Z</time>
      </trkpt>
      <trkpt lat="47.25537" lon="6.06752">
        <ele>321.6</ele>
        <time>2021-06-03T09:28:03Z</time>
      </trkpt>
      <trkpt lat="47.25537" lon="6.0675">
        <ele>321.6</ele>
        <time>2021-06-03T09:28:04Z</time>
      </trkpt>
      <trkpt lat="47.25538" lon="6.06748">
        <ele>321.8</ele>
        <time>2021-06-03T09:28:05Z</time>
      </trkpt>
      <trkpt lat="47.25538" lon="6.06745">
        <ele>322</ele>
        <time>2021-06-03T09:28:06Z</time>
      </trkpt>
      <trkpt lat="47.25538" lon="6.06743">
        <ele>322.2</ele>
        <time>2021-06-03T09:28:07Z</time>
      </trkpt>
      <trkpt lat="47.25538" lon="6.0674">
        <ele>322.4</ele>
        <time>2021-06-03T09:28:08Z</time>
      </trkpt>
      <trkpt lat="47.25539" lon="6.06738">
        <ele>322.6</ele>
        <time>2021-06-03T09:28:09Z</time>
      </trkpt>
      <trkpt lat="47.25539" lon="6.06736">
        <ele>322.6</ele>
        <time>2021-06-03T09:28:10Z</time>
      </trkpt>
      <trkpt lat="47.25539" lon="6.06733">
        <ele>322.8</ele>
        <time>2021-06-03T09:28:11Z</time>
      </trkpt>
      <trkpt lat="47.2554" lon="6.0673">
        <ele>322.8</ele>
        <time>2021-06-03T09:28:12Z</time>
      </trkpt>
      <trkpt lat="47.2554" lon="6.06728">
        <ele>323</ele>
        <time>2021-06-03T09:28:13Z</time>
      </trkpt>
      <trkpt lat="47.25541" lon="6.06726">
        <ele>323.2</ele>
        <time>2021-06-03T09:28:14Z</time>
      </trkpt>
      <trkpt lat="47.25541" lon="6.06723">
        <ele>323.4</ele>
        <time>2021-06-03T09:28:15Z</time>
      </trkpt>
      <trkpt lat="47.25542" lon="6.0672">
        <ele>323.6</ele>
        <time>2021-06-03T09:28:16Z</time>
      </trkpt>
      <trkpt lat="47.25543" lon="6.06717">
        <ele>323.8</ele>
        <time>2021-06-03T09:28:17Z</time>
      </trkpt>
      <trkpt lat="47.25543" lon="6.06715">
        <ele>323.8</ele>
        <time>2021-06-03T09:28:18Z</time>
      </trkpt>
      <trkpt lat="47.25543" lon="6.06713">
        <ele>324</ele>
        <time>2021-06-03T09:28:19Z</time>
      </trkpt>
      <trkpt lat="47.25543" lon="6.0671">
        <ele>324.2</ele>
        <time>2021-06-03T09:28:20Z</time>
      </trkpt>
      <trkpt lat="47.25544" lon="6.06707">
        <ele>324.4</ele>
        <time>2021-06-03T09:28:21Z</time>
      </trkpt>
      <trkpt lat="47.25544" lon="6.06705">
        <ele>324.8</ele>
        <time>2021-06-03T09:28:22Z</time>
      </trkpt>
      <trkpt lat="47.25544" lon="6.06703">
        <ele>324.8</ele>
        <time>2021-06-03T09:28:23Z</time>
      </trkpt>
      <trkpt lat="47.25545" lon="6.067">
        <ele>325</ele>
        <time>2021-06-03T09:28:24Z</time>
      </trkpt>
      <trkpt lat="47.25545" lon="6.06696">
        <ele>325</ele>
        <time>2021-06-03T09:28:25Z</time>
      </trkpt>
      <trkpt lat="47.25545" lon="6.06693">
        <ele>325.2</ele>
        <time>2021-06-03T09:28:26Z</time>
      </trkpt>
      <trkpt lat="47.25546" lon="6.06691">
        <ele>325.4</ele>
        <time>2021-06-03T09:28:27Z</time>
      </trkpt>
      <trkpt lat="47.25546" lon="6.06689">
        <ele>325.4</ele>
        <time>2021-06-03T09:28:28Z</time>
      </trkpt>
      <trkpt lat="47.25546" lon="6.06687">
        <ele>325.8</ele>
        <time>2021-06-03T09:28:29Z</time>
      </trkpt>
      <trkpt lat="47.25546" lon="6.06684">
        <ele>325.8</ele>
        <time>2021-06-03T09:28:30Z</time>
      </trkpt>
      <trkpt lat="47.25546" lon="6.06682">
        <ele>326</ele>
        <time>2021-06-03T09:28:31Z</time>
      </trkpt>
      <trkpt lat="47.25546" lon="6.0668">
        <ele>326.2</ele>
        <time>2021-06-03T09:28:32Z</time>
      </trkpt>
      <trkpt lat="47.25546" lon="6.06677">
        <ele>326.4</ele>
        <time>2021-06-03T09:28:33Z</time>
      </trkpt>
      <trkpt lat="47.25546" lon="6.06675">
        <ele>326.6</ele>
        <time>2021-06-03T09:28:34Z</time>
      </trkpt>
      <trkpt lat="47.25547" lon="6.06672">
        <ele>326.8</ele>
        <time>2021-06-03T09:28:35Z</time>
      </trkpt>
      <trkpt lat="47.25547" lon="6.0667">
        <ele>326.8</ele>
        <time>2021-06-03T09:28:36Z</time>
      </trkpt>
      <trkpt lat="47.25547" lon="6.06668">
        <ele>326.8</ele>
        <time>2021-06-03T09:28:37Z</time>
      </trkpt>
      <trkpt lat="47.25548" lon="6.06667">
        <ele>327.2</ele>
        <time>2021-06-03T09:28:38Z</time>
      </trkpt>
      <trkpt lat="47.25548" lon="6.06664">
        <ele>327.4</ele>
        <time>2021-06-03T09:28:39Z</time>
      </trkpt>
      <trkpt lat="47.25548" lon="6.06662">
        <ele>327.4</ele>
        <time>2021-06-03T09:28:40Z</time>
      </trkpt>
      <trkpt lat="47.25547" lon="6.0666">
        <ele>327.6</ele>
        <time>2021-06-03T09:28:41Z</time>
      </trkpt>
      <trkpt lat="47.25547" lon="6.06657">
        <ele>327.8</ele>
        <time>2021-06-03T09:28:42Z</time>
      </trkpt>
      <trkpt lat="47.25547" lon="6.06655">
        <ele>328</ele>
        <time>2021-06-03T09:28:43Z</time>
      </trkpt>
      <trkpt lat="47.25547" lon="6.06652">
        <ele>328</ele>
        <time>2021-06-03T09:28:44Z</time>
      </trkpt>
      <trkpt lat="47.25547" lon="6.0665">
        <ele>328.2</ele>
        <time>2021-06-03T09:28:45Z</time>
      </trkpt>
      <trkpt lat="47.25547" lon="6.06648">
        <ele>328.2</ele>
        <time>2021-06-03T09:28:46Z</time>
      </trkpt>
      <trkpt lat="47.25546" lon="6.06647">
        <ele>328.4</ele>
        <time>2021-06-03T09:28:47Z</time>
      </trkpt>
      <trkpt lat="47.25546" lon="6.06646">
        <ele>328.4</ele>
        <time>2021-06-03T09:28:48Z</time>
      </trkpt>
      <trkpt lat="47.25546" lon="6.06644">
        <ele>328.6</ele>
        <time>2021-06-03T09:28:49Z</time>
      </trkpt>
      <trkpt lat="47.25545" lon="6.06642">
        <ele>328.8</ele>
        <time>2021-06-03T09:28:50Z</time>
      </trkpt>
      <trkpt lat="47.25545" lon="6.0664">
        <ele>328.8</ele>
        <time>2021-06-03T09:28:51Z</time>
      </trkpt>
      <trkpt lat="47.25545" lon="6.06638">
        <ele>329</ele>
        <time>2021-06-03T09:28:52Z</time>
      </trkpt>
      <trkpt lat="47.25545" lon="6.06635">
        <ele>329</ele>
        <time>2021-06-03T09:28:53Z</time>
      </trkpt>
      <trkpt lat="47.25544" lon="6.06633">
        <ele>329.2</ele>
        <time>2021-06-03T09:28:54Z</time>
      </trkpt>
      <trkpt lat="47.25544" lon="6.06629">
        <ele>329.2</ele>
        <time>2021-06-03T09:28:55Z</time>
      </trkpt>
      <trkpt lat="47.25544" lon="6.06627">
        <ele>329.4</ele>
        <time>2021-06-03T09:28:56Z</time>
      </trkpt>
      <trkpt lat="47.25544" lon="6.06624">
        <ele>329.4</ele>
        <time>2021-06-03T09:28:57Z</time>
      </trkpt>
      <trkpt lat="47.25544" lon="6.06621">
        <ele>329.6</ele>
        <time>2021-06-03T09:28:58Z</time>
      </trkpt>
      <trkpt lat="47.25544" lon="6.06619">
        <ele>329.8</ele>
        <time>2021-06-03T09:28:59Z</time>
      </trkpt>
      <trkpt lat="47.25544" lon="6.06616">
        <ele>329.8</ele>
        <time>2021-06-03T09:29:00Z</time>
      </trkpt>
      <trkpt lat="47.25544" lon="6.06615">
        <ele>330</ele>
        <time>2021-06-03T09:29:01Z</time>
      </trkpt>
      <trkpt lat="47.25543" lon="6.06612">
        <ele>330.2</ele>
        <time>2021-06-03T09:29:02Z</time>
      </trkpt>
      <trkpt lat="47.25541" lon="6.06608">
        <ele>330.4</ele>
        <time>2021-06-03T09:29:03Z</time>
      </trkpt>
      <trkpt lat="47.25541" lon="6.06606">
        <ele>330.6</ele>
        <time>2021-06-03T09:29:04Z</time>
      </trkpt>
      <trkpt lat="47.25541" lon="6.06604">
        <ele>330.8</ele>
        <time>2021-06-03T09:29:05Z</time>
      </trkpt>
      <trkpt lat="47.25541" lon="6.06603">
        <ele>330.8</ele>
        <time>2021-06-03T09:29:06Z</time>
      </trkpt>
      <trkpt lat="47.2554" lon="6.06601">
        <ele>331</ele>
        <time>2021-06-03T09:29:07Z</time>
      </trkpt>
      <trkpt lat="47.2554" lon="6.066">
        <ele>331.2</ele>
        <time>2021-06-03T09:29:08Z</time>
      </trkpt>
      <trkpt lat="47.2554" lon="6.06598">
        <ele>331.4</ele>
        <time>2021-06-03T09:29:09Z</time>
      </trkpt>
      <trkpt lat="47.2554" lon="6.06596">
        <ele>331.6</ele>
        <time>2021-06-03T09:29:10Z</time>
      </trkpt>
      <trkpt lat="47.25539" lon="6.06594">
        <ele>331.8</ele>
        <time>2021-06-03T09:29:11Z</time>
      </trkpt>
      <trkpt lat="47.25538" lon="6.06591">
        <ele>332.2</ele>
        <time>2021-06-03T09:29:12Z</time>
      </trkpt>
      <trkpt lat="47.25538" lon="6.06588">
        <ele>332.2</ele>
        <time>2021-06-03T09:29:13Z</time>
      </trkpt>
      <trkpt lat="47.25536" lon="6.06586">
        <ele>332.6</ele>
        <time>2021-06-03T09:29:14Z</time>
      </trkpt>
      <trkpt lat="47.25535" lon="6.06584">
        <ele>332.8</ele>
        <time>2021-06-03T09:29:15Z</time>
      </trkpt>
      <trkpt lat="47.25534" lon="6.06583">
        <ele>333</ele>
        <time>2021-06-03T09:29:16Z</time>
      </trkpt>
      <trkpt lat="47.25532" lon="6.06581">
        <ele>333.2</ele>
        <time>2021-06-03T09:29:17Z</time>
      </trkpt>
      <trkpt lat="47.25531" lon="6.0658">
        <ele>333.4</ele>
        <time>2021-06-03T09:29:18Z</time>
      </trkpt>
      <trkpt lat="47.2553" lon="6.06578">
        <ele>333.6</ele>
        <time>2021-06-03T09:29:19Z</time>
      </trkpt>
      <trkpt lat="47.25528" lon="6.06577">
        <ele>333.6</ele>
        <time>2021-06-03T09:29:20Z</time>
      </trkpt>
      <trkpt lat="47.25527" lon="6.06575">
        <ele>333.8</ele>
        <time>2021-06-03T09:29:21Z</time>
      </trkpt>
      <trkpt lat="47.25525" lon="6.06572">
        <ele>334</ele>
        <time>2021-06-03T09:29:22Z</time>
      </trkpt>
      <trkpt lat="47.25523" lon="6.0657">
        <ele>334.2</ele>
        <time>2021-06-03T09:29:23Z</time>
      </trkpt>
      <trkpt lat="47.25522" lon="6.06569">
        <ele>334.4</ele>
        <time>2021-06-03T09:29:24Z</time>
      </trkpt>
      <trkpt lat="47.25521" lon="6.06568">
        <ele>334.6</ele>
        <time>2021-06-03T09:29:25Z</time>
      </trkpt>
      <trkpt lat="47.25519" lon="6.06567">
        <ele>334.8</ele>
        <time>2021-06-03T09:29:26Z</time>
      </trkpt>
      <trkpt lat="47.25518" lon="6.06566">
        <ele>335</ele>
        <time>2021-06-03T09:29:27Z</time>
      </trkpt>
      <trkpt lat="47.25517" lon="6.06565">
        <ele>335</ele>
        <time>2021-06-03T09:29:28Z</time>
      </trkpt>
      <trkpt lat="47.25515" lon="6.06565">
        <ele>335</ele>
        <time>2021-06-03T09:29:29Z</time>
      </trkpt>
      <trkpt lat="47.25513" lon="6.06564">
        <ele>335.2</ele>
        <time>2021-06-03T09:29:30Z</time>
      </trkpt>
      <trkpt lat="47.25511" lon="6.06562">
        <ele>335.6</ele>
        <time>2021-06-03T09:29:31Z</time>
      </trkpt>
      <trkpt lat="47.2551" lon="6.06561">
        <ele>335.6</ele>
        <time>2021-06-03T09:29:32Z</time>
      </trkpt>
      <trkpt lat="47.25509" lon="6.0656">
        <ele>336</ele>
        <time>2021-06-03T09:29:33Z</time>
      </trkpt>
      <trkpt lat="47.25508" lon="6.0656">
        <ele>336</ele>
        <time>2021-06-03T09:29:34Z</time>
      </trkpt>
      <trkpt lat="47.25506" lon="6.06559">
        <ele>336.4</ele>
        <time>2021-06-03T09:29:35Z</time>
      </trkpt>
      <trkpt lat="47.25503" lon="6.06558">
        <ele>336.6</ele>
        <time>2021-06-03T09:29:36Z</time>
      </trkpt>
      <trkpt lat="47.25501" lon="6.06557">
        <ele>336.8</ele>
        <time>2021-06-03T09:29:37Z</time>
      </trkpt>
      <trkpt lat="47.255" lon="6.06555">
        <ele>336.8</ele>
        <time>2021-06-03T09:29:38Z</time>
      </trkpt>
      <trkpt lat="47.25499" lon="6.06555">
        <ele>337</ele>
        <time>2021-06-03T09:29:39Z</time>
      </trkpt>
      <trkpt lat="47.25497" lon="6.06555">
        <ele>337.2</ele>
        <time>2021-06-03T09:29:40Z</time>
      </trkpt>
      <trkpt lat="47.25497" lon="6.06554">
        <ele>337.2</ele>
        <time>2021-06-03T09:29:41Z</time>
      </trkpt>
      <trkpt lat="47.25496" lon="6.06553">
        <ele>337.4</ele>
        <time>2021-06-03T09:29:42Z</time>
      </trkpt>
      <trkpt lat="47.25495" lon="6.06551">
        <ele>337.6</ele>
        <time>2021-06-03T09:29:43Z</time>
      </trkpt>
      <trkpt lat="47.25495" lon="6.06549">
        <ele>337.6</ele>
        <time>2021-06-03T09:29:44Z</time>
      </trkpt>
      <trkpt lat="47.25494" lon="6.06549">
        <ele>338</ele>
        <time>2021-06-03T09:29:45Z</time>
      </trkpt>
      <trkpt lat="47.25492" lon="6.06549">
        <ele>338</ele>
        <time>2021-06-03T09:29:46Z</time>
      </trkpt>
      <trkpt lat="47.2549" lon="6.06548">
        <ele>338.2</ele>
        <time>2021-06-03T09:29:47Z</time>
      </trkpt>
      <trkpt lat="47.25489" lon="6.06548">
        <ele>338.2</ele>
        <time>2021-06-03T09:29:48Z</time>
      </trkpt>
      <trkpt lat="47.25487" lon="6.06548">
        <ele>338.4</ele>
        <time>2021-06-03T09:29:49Z</time>
      </trkpt>
      <trkpt lat="47.25485" lon="6.06547">
        <ele>338.6</ele>
        <time>2021-06-03T09:29:50Z</time>
      </trkpt>
      <trkpt lat="47.25484" lon="6.06547">
        <ele>338.6</ele>
        <time>2021-06-03T09:29:51Z</time>
      </trkpt>
      <trkpt lat="47.25483" lon="6.06546">
        <ele>338.8</ele>
        <time>2021-06-03T09:29:52Z</time>
      </trkpt>
      <trkpt lat="47.25482" lon="6.06547">
        <ele>338.8</ele>
        <time>2021-06-03T09:29:53Z</time>
      </trkpt>
      <trkpt lat="47.2548" lon="6.06546">
        <ele>339</ele>
        <time>2021-06-03T09:29:54Z</time>
      </trkpt>
      <trkpt lat="47.25479" lon="6.06545">
        <ele>339.2</ele>
        <time>2021-06-03T09:29:55Z</time>
      </trkpt>
      <trkpt lat="47.25478" lon="6.06544">
        <ele>339</ele>
        <time>2021-06-03T09:29:56Z</time>
      </trkpt>
      <trkpt lat="47.25477" lon="6.06544">
        <ele>339.4</ele>
        <time>2021-06-03T09:29:57Z</time>
      </trkpt>
      <trkpt lat="47.25476" lon="6.06543">
        <ele>339.4</ele>
        <time>2021-06-03T09:29:58Z</time>
      </trkpt>
      <trkpt lat="47.25474" lon="6.06542">
        <ele>339.8</ele>
        <time>2021-06-03T09:29:59Z</time>
      </trkpt>
      <trkpt lat="47.25472" lon="6.06541">
        <ele>339.8</ele>
        <time>2021-06-03T09:30:00Z</time>
      </trkpt>
      <trkpt lat="47.2547" lon="6.0654">
        <ele>340</ele>
        <time>2021-06-03T09:30:01Z</time>
      </trkpt>
      <trkpt lat="47.25469" lon="6.06539">
        <ele>340</ele>
        <time>2021-06-03T09:30:02Z</time>
      </trkpt>
      <trkpt lat="47.25467" lon="6.06539">
        <ele>340</ele>
        <time>2021-06-03T09:30:03Z</time>
      </trkpt>
      <trkpt lat="47.25465" lon="6.06538">
        <ele>340.2</ele>
        <time>2021-06-03T09:30:04Z</time>
      </trkpt>
      <trkpt lat="47.25464" lon="6.06537">
        <ele>340.2</ele>
        <time>2021-06-03T09:30:05Z</time>
      </trkpt>
      <trkpt lat="47.25463" lon="6.06537">
        <ele>340.4</ele>
        <time>2021-06-03T09:30:06Z</time>
      </trkpt>
      <trkpt lat="47.25462" lon="6.06535">
        <ele>340.6</ele>
        <time>2021-06-03T09:30:07Z</time>
      </trkpt>
      <trkpt lat="47.25461" lon="6.06532">
        <ele>340.6</ele>
        <time>2021-06-03T09:30:08Z</time>
      </trkpt>
      <trkpt lat="47.25459" lon="6.06531">
        <ele>340.8</ele>
        <time>2021-06-03T09:30:09Z</time>
      </trkpt>
      <trkpt lat="47.25457" lon="6.06529">
        <ele>341</ele>
        <time>2021-06-03T09:30:10Z</time>
      </trkpt>
      <trkpt lat="47.25455" lon="6.06529">
        <ele>341.2</ele>
        <time>2021-06-03T09:30:11Z</time>
      </trkpt>
      <trkpt lat="47.25454" lon="6.06528">
        <ele>341.4</ele>
        <time>2021-06-03T09:30:12Z</time>
      </trkpt>
      <trkpt lat="47.25453" lon="6.06528">
        <ele>341.4</ele>
        <time>2021-06-03T09:30:13Z</time>
      </trkpt>
      <trkpt lat="47.25451" lon="6.06528">
        <ele>341.6</ele>
        <time>2021-06-03T09:30:14Z</time>
      </trkpt>
      <trkpt lat="47.25449" lon="6.06527">
        <ele>341.6</ele>
        <time>2021-06-03T09:30:15Z</time>
      </trkpt>
      <trkpt lat="47.25448" lon="6.06527">
        <ele>341.8</ele>
        <time>2021-06-03T09:30:16Z</time>
      </trkpt>
      <trkpt lat="47.25448" lon="6.06527">
        <ele>342</ele>
        <time>2021-06-03T09:30:17Z</time>
      </trkpt>
      <trkpt lat="47.25446" lon="6.06526">
        <ele>342.2</ele>
        <time>2021-06-03T09:30:18Z</time>
      </trkpt>
      <trkpt lat="47.25445" lon="6.06524">
        <ele>342.2</ele>
        <time>2021-06-03T09:30:19Z</time>
      </trkpt>
      <trkpt lat="47.25444" lon="6.06524">
        <ele>342.4</ele>
        <time>2021-06-03T09:30:20Z</time>
      </trkpt>
      <trkpt lat="47.25442" lon="6.06524">
        <ele>342.4</ele>
        <time>2021-06-03T09:30:21Z</time>
      </trkpt>
      <trkpt lat="47.25441" lon="6.06524">
        <ele>342.6</ele>
        <time>2021-06-03T09:30:22Z</time>
      </trkpt>
      <trkpt lat="47.2544" lon="6.06523">
        <ele>342.8</ele>
        <time>2021-06-03T09:30:23Z</time>
      </trkpt>
      <trkpt lat="47.2544" lon="6.06522">
        <ele>342.8</ele>
        <time>2021-06-03T09:30:24Z</time>
      </trkpt>
      <trkpt lat="47.25438" lon="6.06522">
        <ele>343</ele>
        <time>2021-06-03T09:30:25Z</time>
      </trkpt>
      <trkpt lat="47.25436" lon="6.0652">
        <ele>343.2</ele>
        <time>2021-06-03T09:30:26Z</time>
      </trkpt>
      <trkpt lat="47.25435" lon="6.06519">
        <ele>343.2</ele>
        <time>2021-06-03T09:30:27Z</time>
      </trkpt>
      <trkpt lat="47.25433" lon="6.06518">
        <ele>343.4</ele>
        <time>2021-06-03T09:30:28Z</time>
      </trkpt>
      <trkpt lat="47.25431" lon="6.06517">
        <ele>343.6</ele>
        <time>2021-06-03T09:30:29Z</time>
      </trkpt>
      <trkpt lat="47.2543" lon="6.06517">
        <ele>343.6</ele>
        <time>2021-06-03T09:30:30Z</time>
      </trkpt>
      <trkpt lat="47.25429" lon="6.06517">
        <ele>343.6</ele>
        <time>2021-06-03T09:30:31Z</time>
      </trkpt>
      <trkpt lat="47.25427" lon="6.06516">
        <ele>343.8</ele>
        <time>2021-06-03T09:30:32Z</time>
      </trkpt>
      <trkpt lat="47.25425" lon="6.06515">
        <ele>344</ele>
        <time>2021-06-03T09:30:33Z</time>
      </trkpt>
      <trkpt lat="47.25424" lon="6.06515">
        <ele>344.2</ele>
        <time>2021-06-03T09:30:34Z</time>
      </trkpt>
      <trkpt lat="47.25423" lon="6.06514">
        <ele>344.2</ele>
        <time>2021-06-03T09:30:35Z</time>
      </trkpt>
      <trkpt lat="47.25422" lon="6.06513">
        <ele>344.4</ele>
        <time>2021-06-03T09:30:36Z</time>
      </trkpt>
      <trkpt lat="47.2542" lon="6.06512">
        <ele>344.4</ele>
        <time>2021-06-03T09:30:37Z</time>
      </trkpt>
      <trkpt lat="47.25419" lon="6.06511">
        <ele>344.4</ele>
        <time>2021-06-03T09:30:38Z</time>
      </trkpt>
      <trkpt lat="47.25418" lon="6.0651">
        <ele>344.6</ele>
        <time>2021-06-03T09:30:39Z</time>
      </trkpt>
      <trkpt lat="47.25417" lon="6.06509">
        <ele>344.6</ele>
        <time>2021-06-03T09:30:40Z</time>
      </trkpt>
      <trkpt lat="47.25416" lon="6.06508">
        <ele>344.8</ele>
        <time>2021-06-03T09:30:41Z</time>
      </trkpt>
      <trkpt lat="47.25414" lon="6.06508">
        <ele>345</ele>
        <time>2021-06-03T09:30:42Z</time>
      </trkpt>
      <trkpt lat="47.25412" lon="6.06508">
        <ele>345</ele>
        <time>2021-06-03T09:30:43Z</time>
      </trkpt>
      <trkpt lat="47.2541" lon="6.06508">
        <ele>345.2</ele>
        <time>2021-06-03T09:30:44Z</time>
      </trkpt>
      <trkpt lat="47.25408" lon="6.06507">
        <ele>345.2</ele>
        <time>2021-06-03T09:30:45Z</time>
      </trkpt>
      <trkpt lat="47.25405" lon="6.06507">
        <ele>345.4</ele>
        <time>2021-06-03T09:30:46Z</time>
      </trkpt>
      <trkpt lat="47.25403" lon="6.06506">
        <ele>345.4</ele>
        <time>2021-06-03T09:30:47Z</time>
      </trkpt>
      <trkpt lat="47.25401" lon="6.06505">
        <ele>345.6</ele>
        <time>2021-06-03T09:30:48Z</time>
      </trkpt>
      <trkpt lat="47.254" lon="6.06504">
        <ele>345.6</ele>
        <time>2021-06-03T09:30:49Z</time>
      </trkpt>
      <trkpt lat="47.25398" lon="6.06503">
        <ele>345.8</ele>
        <time>2021-06-03T09:30:50Z</time>
      </trkpt>
      <trkpt lat="47.25396" lon="6.06502">
        <ele>345.8</ele>
        <time>2021-06-03T09:30:51Z</time>
      </trkpt>
      <trkpt lat="47.25394" lon="6.06501">
        <ele>346</ele>
        <time>2021-06-03T09:30:52Z</time>
      </trkpt>
      <trkpt lat="47.25393" lon="6.065">
        <ele>346</ele>
        <time>2021-06-03T09:30:53Z</time>
      </trkpt>
      <trkpt lat="47.25391" lon="6.065">
        <ele>346.2</ele>
        <time>2021-06-03T09:30:54Z</time>
      </trkpt>
      <trkpt lat="47.2539" lon="6.06499">
        <ele>346.2</ele>
        <time>2021-06-03T09:30:55Z</time>
      </trkpt>
      <trkpt lat="47.25388" lon="6.06498">
        <ele>346.6</ele>
        <time>2021-06-03T09:30:56Z</time>
      </trkpt>
      <trkpt lat="47.25386" lon="6.06498">
        <ele>346.6</ele>
        <time>2021-06-03T09:30:57Z</time>
      </trkpt>
      <trkpt lat="47.25385" lon="6.06498">
        <ele>346.8</ele>
        <time>2021-06-03T09:30:58Z</time>
      </trkpt>
      <trkpt lat="47.25384" lon="6.06498">
        <ele>347</ele>
        <time>2021-06-03T09:30:59Z</time>
      </trkpt>
      <trkpt lat="47.25383" lon="6.06497">
        <ele>347</ele>
        <time>2021-06-03T09:31:00Z</time>
      </trkpt>
      <trkpt lat="47.25381" lon="6.06496">
        <ele>347.2</ele>
        <time>2021-06-03T09:31:01Z</time>
      </trkpt>
      <trkpt lat="47.25379" lon="6.06495">
        <ele>347.2</ele>
        <time>2021-06-03T09:31:02Z</time>
      </trkpt>
      <trkpt lat="47.25378" lon="6.06495">
        <ele>347.4</ele>
        <time>2021-06-03T09:31:03Z</time>
      </trkpt>
      <trkpt lat="47.25376" lon="6.06493">
        <ele>347.4</ele>
        <time>2021-06-03T09:31:04Z</time>
      </trkpt>
      <trkpt lat="47.25374" lon="6.06492">
        <ele>347.6</ele>
        <time>2021-06-03T09:31:05Z</time>
      </trkpt>
      <trkpt lat="47.25372" lon="6.06491">
        <ele>347.6</ele>
        <time>2021-06-03T09:31:06Z</time>
      </trkpt>
      <trkpt lat="47.2537" lon="6.0649">
        <ele>347.8</ele>
        <time>2021-06-03T09:31:07Z</time>
      </trkpt>
      <trkpt lat="47.25369" lon="6.06489">
        <ele>347.8</ele>
        <time>2021-06-03T09:31:08Z</time>
      </trkpt>
      <trkpt lat="47.25368" lon="6.06488">
        <ele>348</ele>
        <time>2021-06-03T09:31:09Z</time>
      </trkpt>
      <trkpt lat="47.25366" lon="6.06487">
        <ele>348</ele>
        <time>2021-06-03T09:31:10Z</time>
      </trkpt>
      <trkpt lat="47.25364" lon="6.06485">
        <ele>348</ele>
        <time>2021-06-03T09:31:11Z</time>
      </trkpt>
      <trkpt lat="47.25362" lon="6.06484">
        <ele>348</ele>
        <time>2021-06-03T09:31:12Z</time>
      </trkpt>
      <trkpt lat="47.25361" lon="6.06482">
        <ele>348</ele>
        <time>2021-06-03T09:31:13Z</time>
      </trkpt>
      <trkpt lat="47.2536" lon="6.06479">
        <ele>348</ele>
        <time>2021-06-03T09:31:14Z</time>
      </trkpt>
      <trkpt lat="47.25359" lon="6.06476">
        <ele>348.2</ele>
        <time>2021-06-03T09:31:15Z</time>
      </trkpt>
      <trkpt lat="47.2536" lon="6.06473">
        <ele>348.2</ele>
        <time>2021-06-03T09:31:16Z</time>
      </trkpt>
      <trkpt lat="47.2536" lon="6.0647">
        <ele>348.2</ele>
        <time>2021-06-03T09:31:17Z</time>
      </trkpt>
      <trkpt lat="47.25362" lon="6.06467">
        <ele>348.2</ele>
        <time>2021-06-03T09:31:18Z</time>
      </trkpt>
      <trkpt lat="47.25364" lon="6.06463">
        <ele>348.4</ele>
        <time>2021-06-03T09:31:20Z</time>
      </trkpt>
      <trkpt lat="47.25366" lon="6.06462">
        <ele>348.2</ele>
        <time>2021-06-03T09:31:21Z</time>
      </trkpt>
      <trkpt lat="47.25368" lon="6.0646">
        <ele>348.4</ele>
        <time>2021-06-03T09:31:22Z</time>
      </trkpt>
      <trkpt lat="47.25376" lon="6.06455">
        <ele>348.6</ele>
        <time>2021-06-03T09:31:26Z</time>
      </trkpt>
      <trkpt lat="47.25376" lon="6.06454">
        <ele>348.6</ele>
        <time>2021-06-03T09:31:27Z</time>
      </trkpt>
      <trkpt lat="47.25376" lon="6.06454">
        <ele>348.6</ele>
        <time>2021-06-03T09:31:29Z</time>
      </trkpt>
      <trkpt lat="47.25376" lon="6.06454">
        <ele>348.6</ele>
        <time>2021-06-03T09:31:42Z</time>
      </trkpt>
      <trkpt lat="47.25376" lon="6.06454">
        <ele>348.6</ele>
        <time>2021-06-03T09:31:44Z</time>
      </trkpt>
      <trkpt lat="47.25376" lon="6.06454">
        <ele>348.4</ele>
        <time>2021-06-03T09:31:56Z</time>
      </trkpt>
      <trkpt lat="47.25381" lon="6.06451">
        <ele>348.4</ele>
        <time>2021-06-03T09:31:59Z</time>
      </trkpt>
      <trkpt lat="47.25383" lon="6.06449">
        <ele>348.4</ele>
        <time>2021-06-03T09:32:00Z</time>
      </trkpt>
      <trkpt lat="47.25385" lon="6.06447">
        <ele>348.2</ele>
        <time>2021-06-03T09:32:01Z</time>
      </trkpt>
      <trkpt lat="47.25389" lon="6.06442">
        <ele>347.8</ele>
        <time>2021-06-03T09:32:03Z</time>
      </trkpt>
      <trkpt lat="47.25394" lon="6.06436">
        <ele>347.6</ele>
        <time>2021-06-03T09:32:05Z</time>
      </trkpt>
      <trkpt lat="47.25405" lon="6.06425">
        <ele>347.4</ele>
        <time>2021-06-03T09:32:09Z</time>
      </trkpt>
      <trkpt lat="47.25411" lon="6.06422">
        <ele>347.4</ele>
        <time>2021-06-03T09:32:11Z</time>
      </trkpt>
      <trkpt lat="47.25427" lon="6.06402">
        <ele>347</ele>
        <time>2021-06-03T09:32:17Z</time>
      </trkpt>
      <trkpt lat="47.25438" lon="6.06387">
        <ele>347</ele>
        <time>2021-06-03T09:32:21Z</time>
      </trkpt>
      <trkpt lat="47.25453" lon="6.06369">
        <ele>346.8</ele>
        <time>2021-06-03T09:32:27Z</time>
      </trkpt>
      <trkpt lat="47.25456" lon="6.06364">
        <ele>346.8</ele>
        <time>2021-06-03T09:32:29Z</time>
      </trkpt>
      <trkpt lat="47.25458" lon="6.06362">
        <ele>346.8</ele>
        <time>2021-06-03T09:32:30Z</time>
      </trkpt>
      <trkpt lat="47.2546" lon="6.06361">
        <ele>346.8</ele>
        <time>2021-06-03T09:32:31Z</time>
      </trkpt>
      <trkpt lat="47.25462" lon="6.06359">
        <ele>346.8</ele>
        <time>2021-06-03T09:32:32Z</time>
      </trkpt>
      <trkpt lat="47.25466" lon="6.06356">
        <ele>346.8</ele>
        <time>2021-06-03T09:32:33Z</time>
      </trkpt>
      <trkpt lat="47.25468" lon="6.06353">
        <ele>346.8</ele>
        <time>2021-06-03T09:32:34Z</time>
      </trkpt>
      <trkpt lat="47.2547" lon="6.06351">
        <ele>346.6</ele>
        <time>2021-06-03T09:32:35Z</time>
      </trkpt>
      <trkpt lat="47.25472" lon="6.06348">
        <ele>346.4</ele>
        <time>2021-06-03T09:32:36Z</time>
      </trkpt>
      <trkpt lat="47.25474" lon="6.06345">
        <ele>346.4</ele>
        <time>2021-06-03T09:32:37Z</time>
      </trkpt>
      <trkpt lat="47.25476" lon="6.06342">
        <ele>346.4</ele>
        <time>2021-06-03T09:32:38Z</time>
      </trkpt>
      <trkpt lat="47.25478" lon="6.06336">
        <ele>346.4</ele>
        <time>2021-06-03T09:32:39Z</time>
      </trkpt>
      <trkpt lat="47.25489" lon="6.06319">
        <ele>346.6</ele>
        <time>2021-06-03T09:32:43Z</time>
      </trkpt>
      <trkpt lat="47.25498" lon="6.06304">
        <ele>346.6</ele>
        <time>2021-06-03T09:32:47Z</time>
      </trkpt>
      <trkpt lat="47.25504" lon="6.06296">
        <ele>346.6</ele>
        <time>2021-06-03T09:32:49Z</time>
      </trkpt>
      <trkpt lat="47.25506" lon="6.06293">
        <ele>346.6</ele>
        <time>2021-06-03T09:32:50Z</time>
      </trkpt>
      <trkpt lat="47.25507" lon="6.0629">
        <ele>346.6</ele>
        <time>2021-06-03T09:32:51Z</time>
      </trkpt>
      <trkpt lat="47.25509" lon="6.06286">
        <ele>346.6</ele>
        <time>2021-06-03T09:32:52Z</time>
      </trkpt>
      <trkpt lat="47.25512" lon="6.06281">
        <ele>346.6</ele>
        <time>2021-06-03T09:32:53Z</time>
      </trkpt>
      <trkpt lat="47.25515" lon="6.06277">
        <ele>346.6</ele>
        <time>2021-06-03T09:32:54Z</time>
      </trkpt>
      <trkpt lat="47.25516" lon="6.06274">
        <ele>346.6</ele>
        <time>2021-06-03T09:32:55Z</time>
      </trkpt>
      <trkpt lat="47.25517" lon="6.06273">
        <ele>346.6</ele>
        <time>2021-06-03T09:32:56Z</time>
      </trkpt>
      <trkpt lat="47.25522" lon="6.06262">
        <ele>346.6</ele>
        <time>2021-06-03T09:32:59Z</time>
      </trkpt>
      <trkpt lat="47.25537" lon="6.06237">
        <ele>346.4</ele>
        <time>2021-06-03T09:33:04Z</time>
      </trkpt>
      <trkpt lat="47.2554" lon="6.0623">
        <ele>346</ele>
        <time>2021-06-03T09:33:06Z</time>
      </trkpt>
      <trkpt lat="47.25548" lon="6.06214">
        <ele>345.4</ele>
        <time>2021-06-03T09:33:09Z</time>
      </trkpt>
      <trkpt lat="47.2555" lon="6.06211">
        <ele>345.2</ele>
        <time>2021-06-03T09:33:10Z</time>
      </trkpt>
      <trkpt lat="47.25553" lon="6.06208">
        <ele>345.2</ele>
        <time>2021-06-03T09:33:11Z</time>
      </trkpt>
      <trkpt lat="47.2556" lon="6.06198">
        <ele>344.8</ele>
        <time>2021-06-03T09:33:13Z</time>
      </trkpt>
      <trkpt lat="47.25573" lon="6.06184">
        <ele>344</ele>
        <time>2021-06-03T09:33:16Z</time>
      </trkpt>
      <trkpt lat="47.25577" lon="6.06179">
        <ele>343.8</ele>
        <time>2021-06-03T09:33:17Z</time>
      </trkpt>
      <trkpt lat="47.25583" lon="6.06171">
        <ele>343.6</ele>
        <time>2021-06-03T09:33:18Z</time>
      </trkpt>
      <trkpt lat="47.25587" lon="6.06165">
        <ele>343.4</ele>
        <time>2021-06-03T09:33:19Z</time>
      </trkpt>
      <trkpt lat="47.25596" lon="6.06151">
        <ele>343</ele>
        <time>2021-06-03T09:33:21Z</time>
      </trkpt>
      <trkpt lat="47.25598" lon="6.06146">
        <ele>342.8</ele>
        <time>2021-06-03T09:33:22Z</time>
      </trkpt>
      <trkpt lat="47.25602" lon="6.0614">
        <ele>342.4</ele>
        <time>2021-06-03T09:33:23Z</time>
      </trkpt>
      <trkpt lat="47.25611" lon="6.06128">
        <ele>341.8</ele>
        <time>2021-06-03T09:33:25Z</time>
      </trkpt>
      <trkpt lat="47.25618" lon="6.06117">
        <ele>341.6</ele>
        <time>2021-06-03T09:33:26Z</time>
      </trkpt>
      <trkpt lat="47.25621" lon="6.06111">
        <ele>341.4</ele>
        <time>2021-06-03T09:33:27Z</time>
      </trkpt>
      <trkpt lat="47.25625" lon="6.06105">
        <ele>341.2</ele>
        <time>2021-06-03T09:33:28Z</time>
      </trkpt>
      <trkpt lat="47.25628" lon="6.061">
        <ele>341</ele>
        <time>2021-06-03T09:33:29Z</time>
      </trkpt>
      <trkpt lat="47.25629" lon="6.06097">
        <ele>340.8</ele>
        <time>2021-06-03T09:33:30Z</time>
      </trkpt>
      <trkpt lat="47.2563" lon="6.06095">
        <ele>340.4</ele>
        <time>2021-06-03T09:33:31Z</time>
      </trkpt>
      <trkpt lat="47.25632" lon="6.06093">
        <ele>340</ele>
        <time>2021-06-03T09:33:32Z</time>
      </trkpt>
      <trkpt lat="47.25635" lon="6.06088">
        <ele>339.8</ele>
        <time>2021-06-03T09:33:33Z</time>
      </trkpt>
      <trkpt lat="47.25638" lon="6.06083">
        <ele>339.6</ele>
        <time>2021-06-03T09:33:34Z</time>
      </trkpt>
      <trkpt lat="47.25639" lon="6.06078">
        <ele>339.4</ele>
        <time>2021-06-03T09:33:35Z</time>
      </trkpt>
      <trkpt lat="47.2564" lon="6.06074">
        <ele>339.4</ele>
        <time>2021-06-03T09:33:36Z</time>
      </trkpt>
      <trkpt lat="47.25642" lon="6.06069">
        <ele>339.2</ele>
        <time>2021-06-03T09:33:37Z</time>
      </trkpt>
      <trkpt lat="47.25643" lon="6.06064">
        <ele>339.2</ele>
        <time>2021-06-03T09:33:38Z</time>
      </trkpt>
      <trkpt lat="47.25643" lon="6.06058">
        <ele>339.2</ele>
        <time>2021-06-03T09:33:39Z</time>
      </trkpt>
      <trkpt lat="47.25643" lon="6.06052">
        <ele>339.2</ele>
        <time>2021-06-03T09:33:40Z</time>
      </trkpt>
      <trkpt lat="47.25643" lon="6.06044">
        <ele>339.4</ele>
        <time>2021-06-03T09:33:41Z</time>
      </trkpt>
      <trkpt lat="47.25645" lon="6.06038">
        <ele>339.4</ele>
        <time>2021-06-03T09:33:42Z</time>
      </trkpt>
      <trkpt lat="47.25647" lon="6.06032">
        <ele>339.4</ele>
        <time>2021-06-03T09:33:43Z</time>
      </trkpt>
      <trkpt lat="47.25649" lon="6.06029">
        <ele>339.4</ele>
        <time>2021-06-03T09:33:44Z</time>
      </trkpt>
      <trkpt lat="47.25651" lon="6.06025">
        <ele>339.4</ele>
        <time>2021-06-03T09:33:45Z</time>
      </trkpt>
      <trkpt lat="47.25654" lon="6.0602">
        <ele>339.6</ele>
        <time>2021-06-03T09:33:46Z</time>
      </trkpt>
      <trkpt lat="47.25656" lon="6.06015">
        <ele>339.6</ele>
        <time>2021-06-03T09:33:47Z</time>
      </trkpt>
      <trkpt lat="47.25661" lon="6.06">
        <ele>339.6</ele>
        <time>2021-06-03T09:33:50Z</time>
      </trkpt>
      <trkpt lat="47.25661" lon="6.05998">
        <ele>339.6</ele>
        <time>2021-06-03T09:33:51Z</time>
      </trkpt>
      <trkpt lat="47.25661" lon="6.05997">
        <ele>339.6</ele>
        <time>2021-06-03T09:33:53Z</time>
      </trkpt>
      <trkpt lat="47.25663" lon="6.05995">
        <ele>339.4</ele>
        <time>2021-06-03T09:34:03Z</time>
      </trkpt>
      <trkpt lat="47.25664" lon="6.0599">
        <ele>339.4</ele>
        <time>2021-06-03T09:34:05Z</time>
      </trkpt>
      <trkpt lat="47.25669" lon="6.05982">
        <ele>339.4</ele>
        <time>2021-06-03T09:34:08Z</time>
      </trkpt>
      <trkpt lat="47.25669" lon="6.05979">
        <ele>339.4</ele>
        <time>2021-06-03T09:34:09Z</time>
      </trkpt>
      <trkpt lat="47.25668" lon="6.05976">
        <ele>339.4</ele>
        <time>2021-06-03T09:34:10Z</time>
      </trkpt>
      <trkpt lat="47.25667" lon="6.05971">
        <ele>339.4</ele>
        <time>2021-06-03T09:34:12Z</time>
      </trkpt>
      <trkpt lat="47.25667" lon="6.05968">
        <ele>339.6</ele>
        <time>2021-06-03T09:34:13Z</time>
      </trkpt>
      <trkpt lat="47.25667" lon="6.05965">
        <ele>339.6</ele>
        <time>2021-06-03T09:34:14Z</time>
      </trkpt>
      <trkpt lat="47.25668" lon="6.05962">
        <ele>339.8</ele>
        <time>2021-06-03T09:34:15Z</time>
      </trkpt>
      <trkpt lat="47.2567" lon="6.05958">
        <ele>339.8</ele>
        <time>2021-06-03T09:34:16Z</time>
      </trkpt>
      <trkpt lat="47.25673" lon="6.05955">
        <ele>340</ele>
        <time>2021-06-03T09:34:17Z</time>
      </trkpt>
      <trkpt lat="47.25675" lon="6.05951">
        <ele>340</ele>
        <time>2021-06-03T09:34:18Z</time>
      </trkpt>
      <trkpt lat="47.25688" lon="6.05932">
        <ele>340.2</ele>
        <time>2021-06-03T09:34:23Z</time>
      </trkpt>
      <trkpt lat="47.25691" lon="6.05928">
        <ele>340.2</ele>
        <time>2021-06-03T09:34:24Z</time>
      </trkpt>
      <trkpt lat="47.25699" lon="6.05915">
        <ele>339.8</ele>
        <time>2021-06-03T09:34:28Z</time>
      </trkpt>
      <trkpt lat="47.25701" lon="6.05913">
        <ele>339.6</ele>
        <time>2021-06-03T09:34:29Z</time>
      </trkpt>
      <trkpt lat="47.25703" lon="6.0591">
        <ele>339.6</ele>
        <time>2021-06-03T09:34:30Z</time>
      </trkpt>
      <trkpt lat="47.25704" lon="6.05907">
        <ele>339.6</ele>
        <time>2021-06-03T09:34:31Z</time>
      </trkpt>
      <trkpt lat="47.25704" lon="6.05904">
        <ele>339.6</ele>
        <time>2021-06-03T09:34:32Z</time>
      </trkpt>
      <trkpt lat="47.25702" lon="6.05902">
        <ele>339.8</ele>
        <time>2021-06-03T09:34:33Z</time>
      </trkpt>
      <trkpt lat="47.25702" lon="6.059">
        <ele>340</ele>
        <time>2021-06-03T09:34:34Z</time>
      </trkpt>
      <trkpt lat="47.25701" lon="6.05897">
        <ele>340.2</ele>
        <time>2021-06-03T09:34:35Z</time>
      </trkpt>
      <trkpt lat="47.257" lon="6.05894">
        <ele>340.4</ele>
        <time>2021-06-03T09:34:36Z</time>
      </trkpt>
      <trkpt lat="47.25699" lon="6.05891">
        <ele>340.6</ele>
        <time>2021-06-03T09:34:37Z</time>
      </trkpt>
      <trkpt lat="47.25698" lon="6.05888">
        <ele>340.8</ele>
        <time>2021-06-03T09:34:38Z</time>
      </trkpt>
      <trkpt lat="47.25698" lon="6.05885">
        <ele>341</ele>
        <time>2021-06-03T09:34:39Z</time>
      </trkpt>
      <trkpt lat="47.25698" lon="6.05882">
        <ele>341.2</ele>
        <time>2021-06-03T09:34:40Z</time>
      </trkpt>
      <trkpt lat="47.25697" lon="6.05879">
        <ele>341.4</ele>
        <time>2021-06-03T09:34:41Z</time>
      </trkpt>
      <trkpt lat="47.25696" lon="6.05876">
        <ele>341.6</ele>
        <time>2021-06-03T09:34:42Z</time>
      </trkpt>
      <trkpt lat="47.25695" lon="6.05873">
        <ele>341.8</ele>
        <time>2021-06-03T09:34:43Z</time>
      </trkpt>
      <trkpt lat="47.25695" lon="6.05871">
        <ele>342</ele>
        <time>2021-06-03T09:34:44Z</time>
      </trkpt>
      <trkpt lat="47.25696" lon="6.05868">
        <ele>342.2</ele>
        <time>2021-06-03T09:34:45Z</time>
      </trkpt>
      <trkpt lat="47.25697" lon="6.05864">
        <ele>342.2</ele>
        <time>2021-06-03T09:34:46Z</time>
      </trkpt>
      <trkpt lat="47.25698" lon="6.05861">
        <ele>342.6</ele>
        <time>2021-06-03T09:34:47Z</time>
      </trkpt>
      <trkpt lat="47.25699" lon="6.05858">
        <ele>342.6</ele>
        <time>2021-06-03T09:34:48Z</time>
      </trkpt>
      <trkpt lat="47.25699" lon="6.05855">
        <ele>342.8</ele>
        <time>2021-06-03T09:34:49Z</time>
      </trkpt>
      <trkpt lat="47.257" lon="6.05851">
        <ele>343.2</ele>
        <time>2021-06-03T09:34:50Z</time>
      </trkpt>
      <trkpt lat="47.257" lon="6.05848">
        <ele>343.4</ele>
        <time>2021-06-03T09:34:51Z</time>
      </trkpt>
      <trkpt lat="47.257" lon="6.05844">
        <ele>343.6</ele>
        <time>2021-06-03T09:34:52Z</time>
      </trkpt>
      <trkpt lat="47.257" lon="6.05841">
        <ele>343.8</ele>
        <time>2021-06-03T09:34:53Z</time>
      </trkpt>
      <trkpt lat="47.25701" lon="6.05838">
        <ele>344.2</ele>
        <time>2021-06-03T09:34:54Z</time>
      </trkpt>
      <trkpt lat="47.25701" lon="6.05834">
        <ele>344.4</ele>
        <time>2021-06-03T09:34:55Z</time>
      </trkpt>
      <trkpt lat="47.25701" lon="6.0583">
        <ele>344.6</ele>
        <time>2021-06-03T09:34:56Z</time>
      </trkpt>
      <trkpt lat="47.25701" lon="6.05826">
        <ele>344.8</ele>
        <time>2021-06-03T09:34:57Z</time>
      </trkpt>
      <trkpt lat="47.25701" lon="6.05822">
        <ele>345</ele>
        <time>2021-06-03T09:34:58Z</time>
      </trkpt>
      <trkpt lat="47.25702" lon="6.05817">
        <ele>345.2</ele>
        <time>2021-06-03T09:34:59Z</time>
      </trkpt>
      <trkpt lat="47.25703" lon="6.05813">
        <ele>345.4</ele>
        <time>2021-06-03T09:35:00Z</time>
      </trkpt>
      <trkpt lat="47.25703" lon="6.05809">
        <ele>345.6</ele>
        <time>2021-06-03T09:35:01Z</time>
      </trkpt>
      <trkpt lat="47.25703" lon="6.05806">
        <ele>345.8</ele>
        <time>2021-06-03T09:35:02Z</time>
      </trkpt>
      <trkpt lat="47.25704" lon="6.05804">
        <ele>345.8</ele>
        <time>2021-06-03T09:35:03Z</time>
      </trkpt>
      <trkpt lat="47.25705" lon="6.05803">
        <ele>346</ele>
        <time>2021-06-03T09:35:04Z</time>
      </trkpt>
      <trkpt lat="47.25706" lon="6.05801">
        <ele>346.2</ele>
        <time>2021-06-03T09:35:05Z</time>
      </trkpt>
      <trkpt lat="47.25707" lon="6.05798">
        <ele>346.4</ele>
        <time>2021-06-03T09:35:06Z</time>
      </trkpt>
      <trkpt lat="47.25708" lon="6.05795">
        <ele>346.6</ele>
        <time>2021-06-03T09:35:07Z</time>
      </trkpt>
      <trkpt lat="47.25709" lon="6.0579">
        <ele>346.8</ele>
        <time>2021-06-03T09:35:08Z</time>
      </trkpt>
      <trkpt lat="47.2571" lon="6.05785">
        <ele>346.8</ele>
        <time>2021-06-03T09:35:09Z</time>
      </trkpt>
      <trkpt lat="47.25711" lon="6.05782">
        <ele>347</ele>
        <time>2021-06-03T09:35:10Z</time>
      </trkpt>
      <trkpt lat="47.25711" lon="6.05778">
        <ele>347.2</ele>
        <time>2021-06-03T09:35:11Z</time>
      </trkpt>
      <trkpt lat="47.25712" lon="6.05776">
        <ele>347.4</ele>
        <time>2021-06-03T09:35:12Z</time>
      </trkpt>
      <trkpt lat="47.25712" lon="6.05772">
        <ele>347.6</ele>
        <time>2021-06-03T09:35:13Z</time>
      </trkpt>
      <trkpt lat="47.25713" lon="6.05769">
        <ele>347.8</ele>
        <time>2021-06-03T09:35:14Z</time>
      </trkpt>
      <trkpt lat="47.25714" lon="6.05767">
        <ele>348.2</ele>
        <time>2021-06-03T09:35:15Z</time>
      </trkpt>
      <trkpt lat="47.25716" lon="6.05764">
        <ele>348.2</ele>
        <time>2021-06-03T09:35:16Z</time>
      </trkpt>
      <trkpt lat="47.25717" lon="6.05763">
        <ele>348.4</ele>
        <time>2021-06-03T09:35:17Z</time>
      </trkpt>
      <trkpt lat="47.25719" lon="6.0576">
        <ele>348.6</ele>
        <time>2021-06-03T09:35:18Z</time>
      </trkpt>
      <trkpt lat="47.2572" lon="6.05757">
        <ele>348.6</ele>
        <time>2021-06-03T09:35:19Z</time>
      </trkpt>
      <trkpt lat="47.25722" lon="6.05754">
        <ele>349</ele>
        <time>2021-06-03T09:35:20Z</time>
      </trkpt>
      <trkpt lat="47.25723" lon="6.05752">
        <ele>349</ele>
        <time>2021-06-03T09:35:21Z</time>
      </trkpt>
      <trkpt lat="47.25723" lon="6.0575">
        <ele>349.2</ele>
        <time>2021-06-03T09:35:22Z</time>
      </trkpt>
      <trkpt lat="47.25723" lon="6.05747">
        <ele>349.4</ele>
        <time>2021-06-03T09:35:23Z</time>
      </trkpt>
      <trkpt lat="47.25725" lon="6.05744">
        <ele>349.6</ele>
        <time>2021-06-03T09:35:24Z</time>
      </trkpt>
      <trkpt lat="47.25725" lon="6.05743">
        <ele>349.8</ele>
        <time>2021-06-03T09:35:25Z</time>
      </trkpt>
      <trkpt lat="47.25724" lon="6.0574">
        <ele>349.8</ele>
        <time>2021-06-03T09:35:26Z</time>
      </trkpt>
      <trkpt lat="47.25724" lon="6.05736">
        <ele>350</ele>
        <time>2021-06-03T09:35:27Z</time>
      </trkpt>
      <trkpt lat="47.25722" lon="6.05733">
        <ele>350.2</ele>
        <time>2021-06-03T09:35:28Z</time>
      </trkpt>
      <trkpt lat="47.25722" lon="6.0573">
        <ele>350.4</ele>
        <time>2021-06-03T09:35:29Z</time>
      </trkpt>
      <trkpt lat="47.25722" lon="6.05727">
        <ele>350.8</ele>
        <time>2021-06-03T09:35:30Z</time>
      </trkpt>
      <trkpt lat="47.25723" lon="6.05724">
        <ele>350.8</ele>
        <time>2021-06-03T09:35:31Z</time>
      </trkpt>
      <trkpt lat="47.25724" lon="6.05722">
        <ele>351</ele>
        <time>2021-06-03T09:35:32Z</time>
      </trkpt>
      <trkpt lat="47.25725" lon="6.05718">
        <ele>351.2</ele>
        <time>2021-06-03T09:35:33Z</time>
      </trkpt>
      <trkpt lat="47.25725" lon="6.05715">
        <ele>351.2</ele>
        <time>2021-06-03T09:35:34Z</time>
      </trkpt>
      <trkpt lat="47.25726" lon="6.05712">
        <ele>351.4</ele>
        <time>2021-06-03T09:35:35Z</time>
      </trkpt>
      <trkpt lat="47.25727" lon="6.0571">
        <ele>351.4</ele>
        <time>2021-06-03T09:35:36Z</time>
      </trkpt>
      <trkpt lat="47.25726" lon="6.05708">
        <ele>351.6</ele>
        <time>2021-06-03T09:35:37Z</time>
      </trkpt>
      <trkpt lat="47.25726" lon="6.05706">
        <ele>351.6</ele>
        <time>2021-06-03T09:35:38Z</time>
      </trkpt>
      <trkpt lat="47.25727" lon="6.05703">
        <ele>351.8</ele>
        <time>2021-06-03T09:35:39Z</time>
      </trkpt>
      <trkpt lat="47.25727" lon="6.057">
        <ele>352</ele>
        <time>2021-06-03T09:35:40Z</time>
      </trkpt>
      <trkpt lat="47.25727" lon="6.05698">
        <ele>352.2</ele>
        <time>2021-06-03T09:35:41Z</time>
      </trkpt>
      <trkpt lat="47.25727" lon="6.05697">
        <ele>352.2</ele>
        <time>2021-06-03T09:35:42Z</time>
      </trkpt>
      <trkpt lat="47.25729" lon="6.05696">
        <ele>352.4</ele>
        <time>2021-06-03T09:35:43Z</time>
      </trkpt>
      <trkpt lat="47.25729" lon="6.05691">
        <ele>352.4</ele>
        <time>2021-06-03T09:35:44Z</time>
      </trkpt>
      <trkpt lat="47.2573" lon="6.05689">
        <ele>352.4</ele>
        <time>2021-06-03T09:35:45Z</time>
      </trkpt>
      <trkpt lat="47.25731" lon="6.05688">
        <ele>352.6</ele>
        <time>2021-06-03T09:35:46Z</time>
      </trkpt>
      <trkpt lat="47.25732" lon="6.05686">
        <ele>352.6</ele>
        <time>2021-06-03T09:35:47Z</time>
      </trkpt>
      <trkpt lat="47.25734" lon="6.05684">
        <ele>352.4</ele>
        <time>2021-06-03T09:35:48Z</time>
      </trkpt>
      <trkpt lat="47.25735" lon="6.05683">
        <ele>352.4</ele>
        <time>2021-06-03T09:35:49Z</time>
      </trkpt>
      <trkpt lat="47.25736" lon="6.05682">
        <ele>352.6</ele>
        <time>2021-06-03T09:35:50Z</time>
      </trkpt>
      <trkpt lat="47.25737" lon="6.05681">
        <ele>352.6</ele>
        <time>2021-06-03T09:35:51Z</time>
      </trkpt>
      <trkpt lat="47.25738" lon="6.05678">
        <ele>352.4</ele>
        <time>2021-06-03T09:35:52Z</time>
      </trkpt>
      <trkpt lat="47.2574" lon="6.05675">
        <ele>352.6</ele>
        <time>2021-06-03T09:35:53Z</time>
      </trkpt>
      <trkpt lat="47.25742" lon="6.0567">
        <ele>352.6</ele>
        <time>2021-06-03T09:35:54Z</time>
      </trkpt>
      <trkpt lat="47.25743" lon="6.05668">
        <ele>352.8</ele>
        <time>2021-06-03T09:35:55Z</time>
      </trkpt>
      <trkpt lat="47.25743" lon="6.05668">
        <ele>352.8</ele>
        <time>2021-06-03T09:35:56Z</time>
      </trkpt>
      <trkpt lat="47.25744" lon="6.05666">
        <ele>352.8</ele>
        <time>2021-06-03T09:35:57Z</time>
      </trkpt>
      <trkpt lat="47.25745" lon="6.05665">
        <ele>353</ele>
        <time>2021-06-03T09:35:58Z</time>
      </trkpt>
      <trkpt lat="47.25746" lon="6.05663">
        <ele>353</ele>
        <time>2021-06-03T09:35:59Z</time>
      </trkpt>
      <trkpt lat="47.25746" lon="6.05663">
        <ele>353</ele>
        <time>2021-06-03T09:36:00Z</time>
      </trkpt>
      <trkpt lat="47.25748" lon="6.05661">
        <ele>353</ele>
        <time>2021-06-03T09:36:01Z</time>
      </trkpt>
      <trkpt lat="47.2575" lon="6.05656">
        <ele>353.2</ele>
        <time>2021-06-03T09:36:02Z</time>
      </trkpt>
      <trkpt lat="47.25752" lon="6.05651">
        <ele>353.2</ele>
        <time>2021-06-03T09:36:03Z</time>
      </trkpt>
      <trkpt lat="47.25753" lon="6.05649">
        <ele>353.2</ele>
        <time>2021-06-03T09:36:04Z</time>
      </trkpt>
      <trkpt lat="47.25754" lon="6.05647">
        <ele>353.2</ele>
        <time>2021-06-03T09:36:05Z</time>
      </trkpt>
      <trkpt lat="47.25754" lon="6.05647">
        <ele>353.2</ele>
        <time>2021-06-03T09:36:06Z</time>
      </trkpt>
      <trkpt lat="47.25756" lon="6.05644">
        <ele>353.4</ele>
        <time>2021-06-03T09:36:07Z</time>
      </trkpt>
      <trkpt lat="47.25757" lon="6.05643">
        <ele>353.4</ele>
        <time>2021-06-03T09:36:08Z</time>
      </trkpt>
      <trkpt lat="47.25758" lon="6.05641">
        <ele>353.4</ele>
        <time>2021-06-03T09:36:09Z</time>
      </trkpt>
      <trkpt lat="47.2576" lon="6.05638">
        <ele>353.6</ele>
        <time>2021-06-03T09:36:11Z</time>
      </trkpt>
      <trkpt lat="47.25763" lon="6.05633">
        <ele>353.6</ele>
        <time>2021-06-03T09:36:12Z</time>
      </trkpt>
      <trkpt lat="47.25764" lon="6.05631">
        <ele>353.6</ele>
        <time>2021-06-03T09:36:13Z</time>
      </trkpt>
      <trkpt lat="47.25767" lon="6.05628">
        <ele>353.6</ele>
        <time>2021-06-03T09:36:14Z</time>
      </trkpt>
      <trkpt lat="47.25767" lon="6.05628">
        <ele>353.6</ele>
        <time>2021-06-03T09:36:15Z</time>
      </trkpt>
      <trkpt lat="47.25767" lon="6.05628">
        <ele>353.4</ele>
        <time>2021-06-03T09:36:16Z</time>
      </trkpt>
      <trkpt lat="47.2577" lon="6.05628">
        <ele>353.4</ele>
        <time>2021-06-03T09:36:17Z</time>
      </trkpt>
      <trkpt lat="47.25771" lon="6.05629">
        <ele>353.4</ele>
        <time>2021-06-03T09:36:18Z</time>
      </trkpt>
      <trkpt lat="47.25773" lon="6.05628">
        <ele>353.4</ele>
        <time>2021-06-03T09:36:19Z</time>
      </trkpt>
      <trkpt lat="47.25776" lon="6.05625">
        <ele>353.4</ele>
        <time>2021-06-03T09:36:20Z</time>
      </trkpt>
      <trkpt lat="47.25776" lon="6.05625">
        <ele>353.4</ele>
        <time>2021-06-03T09:36:21Z</time>
      </trkpt>
      <trkpt lat="47.25779" lon="6.0562">
        <ele>353.4</ele>
        <time>2021-06-03T09:36:22Z</time>
      </trkpt>
      <trkpt lat="47.25782" lon="6.05617">
        <ele>353.4</ele>
        <time>2021-06-03T09:36:23Z</time>
      </trkpt>
      <trkpt lat="47.25785" lon="6.05617">
        <ele>353.4</ele>
        <time>2021-06-03T09:36:24Z</time>
      </trkpt>
      <trkpt lat="47.25788" lon="6.05615">
        <ele>353.4</ele>
        <time>2021-06-03T09:36:25Z</time>
      </trkpt>
      <trkpt lat="47.2579" lon="6.05614">
        <ele>353.4</ele>
        <time>2021-06-03T09:36:26Z</time>
      </trkpt>
      <trkpt lat="47.25793" lon="6.05612">
        <ele>353.4</ele>
        <time>2021-06-03T09:36:27Z</time>
      </trkpt>
      <trkpt lat="47.25795" lon="6.05608">
        <ele>353.6</ele>
        <time>2021-06-03T09:36:28Z</time>
      </trkpt>
      <trkpt lat="47.25797" lon="6.05603">
        <ele>353.8</ele>
        <time>2021-06-03T09:36:29Z</time>
      </trkpt>
      <trkpt lat="47.258" lon="6.05601">
        <ele>353.8</ele>
        <time>2021-06-03T09:36:30Z</time>
      </trkpt>
      <trkpt lat="47.25803" lon="6.05597">
        <ele>353.8</ele>
        <time>2021-06-03T09:36:32Z</time>
      </trkpt>
      <trkpt lat="47.25804" lon="6.05594">
        <ele>354</ele>
        <time>2021-06-03T09:36:33Z</time>
      </trkpt>
      <trkpt lat="47.25807" lon="6.05589">
        <ele>354</ele>
        <time>2021-06-03T09:36:34Z</time>
      </trkpt>
      <trkpt lat="47.25812" lon="6.05583">
        <ele>354</ele>
        <time>2021-06-03T09:36:37Z</time>
      </trkpt>
      <trkpt lat="47.25812" lon="6.05583">
        <ele>354</ele>
        <time>2021-06-03T09:36:38Z</time>
      </trkpt>
      <trkpt lat="47.25815" lon="6.05582">
        <ele>354.2</ele>
        <time>2021-06-03T09:36:39Z</time>
      </trkpt>
      <trkpt lat="47.25821" lon="6.0557">
        <ele>354.2</ele>
        <time>2021-06-03T09:36:41Z</time>
      </trkpt>
      <trkpt lat="47.25822" lon="6.05571">
        <ele>354.2</ele>
        <time>2021-06-03T09:36:42Z</time>
      </trkpt>
      <trkpt lat="47.25824" lon="6.0557">
        <ele>354.2</ele>
        <time>2021-06-03T09:36:43Z</time>
      </trkpt>
      <trkpt lat="47.25826" lon="6.05571">
        <ele>354.2</ele>
        <time>2021-06-03T09:36:44Z</time>
      </trkpt>
      <trkpt lat="47.25826" lon="6.0557">
        <ele>354.2</ele>
        <time>2021-06-03T09:36:45Z</time>
      </trkpt>
      <trkpt lat="47.25826" lon="6.05568">
        <ele>354.4</ele>
        <time>2021-06-03T09:36:46Z</time>
      </trkpt>
      <trkpt lat="47.25827" lon="6.05567">
        <ele>354.4</ele>
        <time>2021-06-03T09:36:47Z</time>
      </trkpt>
      <trkpt lat="47.2583" lon="6.05565">
        <ele>354.4</ele>
        <time>2021-06-03T09:36:48Z</time>
      </trkpt>
      <trkpt lat="47.25833" lon="6.05562">
        <ele>354.4</ele>
        <time>2021-06-03T09:36:49Z</time>
      </trkpt>
      <trkpt lat="47.25835" lon="6.05561">
        <ele>354.4</ele>
        <time>2021-06-03T09:36:50Z</time>
      </trkpt>
      <trkpt lat="47.25835" lon="6.05561">
        <ele>354.4</ele>
        <time>2021-06-03T09:36:51Z</time>
      </trkpt>
      <trkpt lat="47.25837" lon="6.05559">
        <ele>354.4</ele>
        <time>2021-06-03T09:36:52Z</time>
      </trkpt>
      <trkpt lat="47.2584" lon="6.05557">
        <ele>354.6</ele>
        <time>2021-06-03T09:36:55Z</time>
      </trkpt>
      <trkpt lat="47.25841" lon="6.05557">
        <ele>354.8</ele>
        <time>2021-06-03T09:36:56Z</time>
      </trkpt>
      <trkpt lat="47.25845" lon="6.05552">
        <ele>354.8</ele>
        <time>2021-06-03T09:36:59Z</time>
      </trkpt>
      <trkpt lat="47.25845" lon="6.05552">
        <ele>354.8</ele>
        <time>2021-06-03T09:37:00Z</time>
      </trkpt>
      <trkpt lat="47.2585" lon="6.05549">
        <ele>355</ele>
        <time>2021-06-03T09:37:02Z</time>
      </trkpt>
      <trkpt lat="47.25851" lon="6.05548">
        <ele>355</ele>
        <time>2021-06-03T09:37:03Z</time>
      </trkpt>
      <trkpt lat="47.25853" lon="6.05547">
        <ele>355</ele>
        <time>2021-06-03T09:37:04Z</time>
      </trkpt>
      <trkpt lat="47.25855" lon="6.05546">
        <ele>355.2</ele>
        <time>2021-06-03T09:37:05Z</time>
      </trkpt>
      <trkpt lat="47.25856" lon="6.05545">
        <ele>355</ele>
        <time>2021-06-03T09:37:06Z</time>
      </trkpt>
      <trkpt lat="47.25857" lon="6.05545">
        <ele>355</ele>
        <time>2021-06-03T09:37:07Z</time>
      </trkpt>
      <trkpt lat="47.25858" lon="6.05544">
        <ele>355.4</ele>
        <time>2021-06-03T09:37:08Z</time>
      </trkpt>
      <trkpt lat="47.25858" lon="6.05544">
        <ele>355.2</ele>
        <time>2021-06-03T09:37:09Z</time>
      </trkpt>
      <trkpt lat="47.25858" lon="6.0554">
        <ele>355.2</ele>
        <time>2021-06-03T09:37:10Z</time>
      </trkpt>
      <trkpt lat="47.25856" lon="6.05539">
        <ele>355.4</ele>
        <time>2021-06-03T09:37:11Z</time>
      </trkpt>
      <trkpt lat="47.25854" lon="6.05534">
        <ele>355.6</ele>
        <time>2021-06-03T09:37:13Z</time>
      </trkpt>
      <trkpt lat="47.25853" lon="6.0553">
        <ele>355.6</ele>
        <time>2021-06-03T09:37:14Z</time>
      </trkpt>
      <trkpt lat="47.25852" lon="6.05527">
        <ele>355.6</ele>
        <time>2021-06-03T09:37:15Z</time>
      </trkpt>
      <trkpt lat="47.25851" lon="6.05522">
        <ele>355.6</ele>
        <time>2021-06-03T09:37:16Z</time>
      </trkpt>
      <trkpt lat="47.25849" lon="6.05519">
        <ele>355.8</ele>
        <time>2021-06-03T09:37:17Z</time>
      </trkpt>
      <trkpt lat="47.25847" lon="6.05516">
        <ele>355.8</ele>
        <time>2021-06-03T09:37:18Z</time>
      </trkpt>
      <trkpt lat="47.25847" lon="6.05516">
        <ele>355.8</ele>
        <time>2021-06-03T09:37:19Z</time>
      </trkpt>
      <trkpt lat="47.25846" lon="6.05508">
        <ele>355.8</ele>
        <time>2021-06-03T09:37:20Z</time>
      </trkpt>
      <trkpt lat="47.25846" lon="6.05504">
        <ele>355.8</ele>
        <time>2021-06-03T09:37:21Z</time>
      </trkpt>
      <trkpt lat="47.25851" lon="6.05472">
        <ele>355.6</ele>
        <time>2021-06-03T09:37:29Z</time>
      </trkpt>
      <trkpt lat="47.25852" lon="6.05468">
        <ele>355.6</ele>
        <time>2021-06-03T09:37:30Z</time>
      </trkpt>
      <trkpt lat="47.25864" lon="6.05435">
        <ele>355.6</ele>
        <time>2021-06-03T09:37:38Z</time>
      </trkpt>
      <trkpt lat="47.25866" lon="6.05433">
        <ele>355.6</ele>
        <time>2021-06-03T09:37:39Z</time>
      </trkpt>
      <trkpt lat="47.25869" lon="6.05432">
        <ele>355.6</ele>
        <time>2021-06-03T09:37:40Z</time>
      </trkpt>
      <trkpt lat="47.25871" lon="6.05431">
        <ele>355.6</ele>
        <time>2021-06-03T09:37:41Z</time>
      </trkpt>
      <trkpt lat="47.25871" lon="6.05431">
        <ele>355.6</ele>
        <time>2021-06-03T09:37:42Z</time>
      </trkpt>
      <trkpt lat="47.25877" lon="6.05432">
        <ele>355.8</ele>
        <time>2021-06-03T09:37:43Z</time>
      </trkpt>
      <trkpt lat="47.2588" lon="6.05433">
        <ele>356</ele>
        <time>2021-06-03T09:37:44Z</time>
      </trkpt>
      <trkpt lat="47.25882" lon="6.05434">
        <ele>356</ele>
        <time>2021-06-03T09:37:45Z</time>
      </trkpt>
      <trkpt lat="47.25884" lon="6.05436">
        <ele>356.2</ele>
        <time>2021-06-03T09:37:46Z</time>
      </trkpt>
      <trkpt lat="47.25887" lon="6.05437">
        <ele>356.4</ele>
        <time>2021-06-03T09:37:47Z</time>
      </trkpt>
      <trkpt lat="47.2589" lon="6.05437">
        <ele>356.6</ele>
        <time>2021-06-03T09:37:48Z</time>
      </trkpt>
      <trkpt lat="47.25892" lon="6.05439">
        <ele>356.6</ele>
        <time>2021-06-03T09:37:49Z</time>
      </trkpt>
      <trkpt lat="47.25892" lon="6.05439">
        <ele>356.6</ele>
        <time>2021-06-03T09:37:50Z</time>
      </trkpt>
      <trkpt lat="47.25896" lon="6.05442">
        <ele>356.8</ele>
        <time>2021-06-03T09:37:51Z</time>
      </trkpt>
      <trkpt lat="47.25899" lon="6.05443">
        <ele>357</ele>
        <time>2021-06-03T09:37:52Z</time>
      </trkpt>
      <trkpt lat="47.25901" lon="6.05444">
        <ele>357</ele>
        <time>2021-06-03T09:37:53Z</time>
      </trkpt>
      <trkpt lat="47.25901" lon="6.05444">
        <ele>357</ele>
        <time>2021-06-03T09:37:54Z</time>
      </trkpt>
      <trkpt lat="47.25923" lon="6.05461">
        <ele>357.6</ele>
        <time>2021-06-03T09:38:03Z</time>
      </trkpt>
      <trkpt lat="47.25924" lon="6.05463">
        <ele>357.6</ele>
        <time>2021-06-03T09:38:04Z</time>
      </trkpt>
      <trkpt lat="47.25927" lon="6.05468">
        <ele>358</ele>
        <time>2021-06-03T09:38:06Z</time>
      </trkpt>
      <trkpt lat="47.25928" lon="6.0547">
        <ele>358</ele>
        <time>2021-06-03T09:38:07Z</time>
      </trkpt>
      <trkpt lat="47.25929" lon="6.05473">
        <ele>358.2</ele>
        <time>2021-06-03T09:38:08Z</time>
      </trkpt>
      <trkpt lat="47.2593" lon="6.05474">
        <ele>358.2</ele>
        <time>2021-06-03T09:38:09Z</time>
      </trkpt>
      <trkpt lat="47.2593" lon="6.05474">
        <ele>358.2</ele>
        <time>2021-06-03T09:38:10Z</time>
      </trkpt>
      <trkpt lat="47.25938" lon="6.05485">
        <ele>358.4</ele>
        <time>2021-06-03T09:38:14Z</time>
      </trkpt>
      <trkpt lat="47.25938" lon="6.05485">
        <ele>358.4</ele>
        <time>2021-06-03T09:38:15Z</time>
      </trkpt>
      <trkpt lat="47.25942" lon="6.05488">
        <ele>358.4</ele>
        <time>2021-06-03T09:38:16Z</time>
      </trkpt>
      <trkpt lat="47.25943" lon="6.05488">
        <ele>358.4</ele>
        <time>2021-06-03T09:38:17Z</time>
      </trkpt>
      <trkpt lat="47.25945" lon="6.05488">
        <ele>358.4</ele>
        <time>2021-06-03T09:38:18Z</time>
      </trkpt>
      <trkpt lat="47.25946" lon="6.05488">
        <ele>358.6</ele>
        <time>2021-06-03T09:38:19Z</time>
      </trkpt>
      <trkpt lat="47.25949" lon="6.05487">
        <ele>358.6</ele>
        <time>2021-06-03T09:38:20Z</time>
      </trkpt>
      <trkpt lat="47.25951" lon="6.05487">
        <ele>358.6</ele>
        <time>2021-06-03T09:38:21Z</time>
      </trkpt>
      <trkpt lat="47.25964" lon="6.05477">
        <ele>358.8</ele>
        <time>2021-06-03T09:38:26Z</time>
      </trkpt>
      <trkpt lat="47.2597" lon="6.05473">
        <ele>358.4</ele>
        <time>2021-06-03T09:38:28Z</time>
      </trkpt>
      <trkpt lat="47.25972" lon="6.05472">
        <ele>358.4</ele>
        <time>2021-06-03T09:38:29Z</time>
      </trkpt>
      <trkpt lat="47.25974" lon="6.05471">
        <ele>358.4</ele>
        <time>2021-06-03T09:38:30Z</time>
      </trkpt>
      <trkpt lat="47.25984" lon="6.05466">
        <ele>358.4</ele>
        <time>2021-06-03T09:38:33Z</time>
      </trkpt>
      <trkpt lat="47.26005" lon="6.05453">
        <ele>358.6</ele>
        <time>2021-06-03T09:38:38Z</time>
      </trkpt>
      <trkpt lat="47.26009" lon="6.05451">
        <ele>358.6</ele>
        <time>2021-06-03T09:38:39Z</time>
      </trkpt>
      <trkpt lat="47.26013" lon="6.0545">
        <ele>358.6</ele>
        <time>2021-06-03T09:38:40Z</time>
      </trkpt>
      <trkpt lat="47.26035" lon="6.0544">
        <ele>358.8</ele>
        <time>2021-06-03T09:38:45Z</time>
      </trkpt>
      <trkpt lat="47.26045" lon="6.05436">
        <ele>358.8</ele>
        <time>2021-06-03T09:38:48Z</time>
      </trkpt>
      <trkpt lat="47.26047" lon="6.05434">
        <ele>358.8</ele>
        <time>2021-06-03T09:38:49Z</time>
      </trkpt>
      <trkpt lat="47.2605" lon="6.05433">
        <ele>358.8</ele>
        <time>2021-06-03T09:38:50Z</time>
      </trkpt>
      <trkpt lat="47.26052" lon="6.0543">
        <ele>358.8</ele>
        <time>2021-06-03T09:38:51Z</time>
      </trkpt>
      <trkpt lat="47.26058" lon="6.05426">
        <ele>359</ele>
        <time>2021-06-03T09:38:53Z</time>
      </trkpt>
      <trkpt lat="47.26062" lon="6.05425">
        <ele>359.2</ele>
        <time>2021-06-03T09:38:54Z</time>
      </trkpt>
      <trkpt lat="47.26065" lon="6.05423">
        <ele>359.2</ele>
        <time>2021-06-03T09:38:55Z</time>
      </trkpt>
      <trkpt lat="47.26068" lon="6.05421">
        <ele>359.2</ele>
        <time>2021-06-03T09:38:56Z</time>
      </trkpt>
      <trkpt lat="47.26077" lon="6.05422">
        <ele>359.2</ele>
        <time>2021-06-03T09:38:59Z</time>
      </trkpt>
      <trkpt lat="47.2608" lon="6.05422">
        <ele>359</ele>
        <time>2021-06-03T09:39:00Z</time>
      </trkpt>
      <trkpt lat="47.26086" lon="6.05422">
        <ele>359</ele>
        <time>2021-06-03T09:39:01Z</time>
      </trkpt>
      <trkpt lat="47.26118" lon="6.05415">
        <ele>358.4</ele>
        <time>2021-06-03T09:39:06Z</time>
      </trkpt>
      <trkpt lat="47.26126" lon="6.0541">
        <ele>357.6</ele>
        <time>2021-06-03T09:39:08Z</time>
      </trkpt>
      <trkpt lat="47.26129" lon="6.05408">
        <ele>357.4</ele>
        <time>2021-06-03T09:39:09Z</time>
      </trkpt>
      <trkpt lat="47.26132" lon="6.05405">
        <ele>357</ele>
        <time>2021-06-03T09:39:10Z</time>
      </trkpt>
      <trkpt lat="47.26134" lon="6.05401">
        <ele>356.4</ele>
        <time>2021-06-03T09:39:11Z</time>
      </trkpt>
      <trkpt lat="47.26136" lon="6.05398">
        <ele>356.4</ele>
        <time>2021-06-03T09:39:12Z</time>
      </trkpt>
      <trkpt lat="47.26138" lon="6.05393">
        <ele>356</ele>
        <time>2021-06-03T09:39:13Z</time>
      </trkpt>
      <trkpt lat="47.26138" lon="6.05393">
        <ele>355.8</ele>
        <time>2021-06-03T09:39:14Z</time>
      </trkpt>
      <trkpt lat="47.26141" lon="6.05382">
        <ele>355.6</ele>
        <time>2021-06-03T09:39:15Z</time>
      </trkpt>
      <trkpt lat="47.26142" lon="6.05376">
        <ele>355.4</ele>
        <time>2021-06-03T09:39:16Z</time>
      </trkpt>
      <trkpt lat="47.26142" lon="6.0537">
        <ele>355</ele>
        <time>2021-06-03T09:39:17Z</time>
      </trkpt>
      <trkpt lat="47.26141" lon="6.05364">
        <ele>354.8</ele>
        <time>2021-06-03T09:39:18Z</time>
      </trkpt>
      <trkpt lat="47.26138" lon="6.05358">
        <ele>354.4</ele>
        <time>2021-06-03T09:39:19Z</time>
      </trkpt>
      <trkpt lat="47.26134" lon="6.0535">
        <ele>353.8</ele>
        <time>2021-06-03T09:39:20Z</time>
      </trkpt>
      <trkpt lat="47.26132" lon="6.05343">
        <ele>353.6</ele>
        <time>2021-06-03T09:39:21Z</time>
      </trkpt>
      <trkpt lat="47.26126" lon="6.05331">
        <ele>352.8</ele>
        <time>2021-06-03T09:39:23Z</time>
      </trkpt>
      <trkpt lat="47.26126" lon="6.05331">
        <ele>352.2</ele>
        <time>2021-06-03T09:39:24Z</time>
      </trkpt>
      <trkpt lat="47.2612" lon="6.0532">
        <ele>351.8</ele>
        <time>2021-06-03T09:39:25Z</time>
      </trkpt>
      <trkpt lat="47.26118" lon="6.05314">
        <ele>351.8</ele>
        <time>2021-06-03T09:39:26Z</time>
      </trkpt>
      <trkpt lat="47.26115" lon="6.05307">
        <ele>351.6</ele>
        <time>2021-06-03T09:39:27Z</time>
      </trkpt>
      <trkpt lat="47.26109" lon="6.05295">
        <ele>351</ele>
        <time>2021-06-03T09:39:29Z</time>
      </trkpt>
      <trkpt lat="47.26106" lon="6.0529">
        <ele>351</ele>
        <time>2021-06-03T09:39:30Z</time>
      </trkpt>
      <trkpt lat="47.26096" lon="6.05273">
        <ele>349.6</ele>
        <time>2021-06-03T09:39:33Z</time>
      </trkpt>
      <trkpt lat="47.26093" lon="6.0526">
        <ele>349</ele>
        <time>2021-06-03T09:39:35Z</time>
      </trkpt>
      <trkpt lat="47.26093" lon="6.0526">
        <ele>348.2</ele>
        <time>2021-06-03T09:39:36Z</time>
      </trkpt>
      <trkpt lat="47.26088" lon="6.05251">
        <ele>347.8</ele>
        <time>2021-06-03T09:39:37Z</time>
      </trkpt>
      <trkpt lat="47.26086" lon="6.05248">
        <ele>346.8</ele>
        <time>2021-06-03T09:39:38Z</time>
      </trkpt>
      <trkpt lat="47.26084" lon="6.05244">
        <ele>346.4</ele>
        <time>2021-06-03T09:39:39Z</time>
      </trkpt>
      <trkpt lat="47.26084" lon="6.05244">
        <ele>345.6</ele>
        <time>2021-06-03T09:39:40Z</time>
      </trkpt>
      <trkpt lat="47.26083" lon="6.05232">
        <ele>344.6</ele>
        <time>2021-06-03T09:39:41Z</time>
      </trkpt>
      <trkpt lat="47.26082" lon="6.05226">
        <ele>344</ele>
        <time>2021-06-03T09:39:42Z</time>
      </trkpt>
      <trkpt lat="47.26081" lon="6.05221">
        <ele>343.2</ele>
        <time>2021-06-03T09:39:43Z</time>
      </trkpt>
      <trkpt lat="47.26079" lon="6.05216">
        <ele>342.2</ele>
        <time>2021-06-03T09:39:44Z</time>
      </trkpt>
      <trkpt lat="47.26079" lon="6.05211">
        <ele>341.2</ele>
        <time>2021-06-03T09:39:45Z</time>
      </trkpt>
      <trkpt lat="47.2608" lon="6.05207">
        <ele>340.8</ele>
        <time>2021-06-03T09:39:46Z</time>
      </trkpt>
      <trkpt lat="47.2608" lon="6.05202">
        <ele>340</ele>
        <time>2021-06-03T09:39:47Z</time>
      </trkpt>
      <trkpt lat="47.2608" lon="6.05197">
        <ele>339</ele>
        <time>2021-06-03T09:39:48Z</time>
      </trkpt>
      <trkpt lat="47.2608" lon="6.05194">
        <ele>338.8</ele>
        <time>2021-06-03T09:39:49Z</time>
      </trkpt>
      <trkpt lat="47.26081" lon="6.0519">
        <ele>338.4</ele>
        <time>2021-06-03T09:39:50Z</time>
      </trkpt>
      <trkpt lat="47.26081" lon="6.05186">
        <ele>338.2</ele>
        <time>2021-06-03T09:39:51Z</time>
      </trkpt>
      <trkpt lat="47.2608" lon="6.05184">
        <ele>337.8</ele>
        <time>2021-06-03T09:39:52Z</time>
      </trkpt>
      <trkpt lat="47.26079" lon="6.05182">
        <ele>337.6</ele>
        <time>2021-06-03T09:39:53Z</time>
      </trkpt>
      <trkpt lat="47.26077" lon="6.05179">
        <ele>337.2</ele>
        <time>2021-06-03T09:39:54Z</time>
      </trkpt>
      <trkpt lat="47.26075" lon="6.05177">
        <ele>336.8</ele>
        <time>2021-06-03T09:39:55Z</time>
      </trkpt>
      <trkpt lat="47.26073" lon="6.05175">
        <ele>336.6</ele>
        <time>2021-06-03T09:39:56Z</time>
      </trkpt>
      <trkpt lat="47.26065" lon="6.05171">
        <ele>336.4</ele>
        <time>2021-06-03T09:39:59Z</time>
      </trkpt>
      <trkpt lat="47.26062" lon="6.0517">
        <ele>336.2</ele>
        <time>2021-06-03T09:40:00Z</time>
      </trkpt>
      <trkpt lat="47.26056" lon="6.05167">
        <ele>335.6</ele>
        <time>2021-06-03T09:40:02Z</time>
      </trkpt>
      <trkpt lat="47.26043" lon="6.05162">
        <ele>335.2</ele>
        <time>2021-06-03T09:40:05Z</time>
      </trkpt>
      <trkpt lat="47.26036" lon="6.05157">
        <ele>334.6</ele>
        <time>2021-06-03T09:40:07Z</time>
      </trkpt>
      <trkpt lat="47.26034" lon="6.05153">
        <ele>334.2</ele>
        <time>2021-06-03T09:40:08Z</time>
      </trkpt>
      <trkpt lat="47.26034" lon="6.05148">
        <ele>333.8</ele>
        <time>2021-06-03T09:40:09Z</time>
      </trkpt>
      <trkpt lat="47.26035" lon="6.05143">
        <ele>333.6</ele>
        <time>2021-06-03T09:40:10Z</time>
      </trkpt>
      <trkpt lat="47.26038" lon="6.05138">
        <ele>333.4</ele>
        <time>2021-06-03T09:40:11Z</time>
      </trkpt>
      <trkpt lat="47.26041" lon="6.05135">
        <ele>333.2</ele>
        <time>2021-06-03T09:40:12Z</time>
      </trkpt>
      <trkpt lat="47.26052" lon="6.05132">
        <ele>332.6</ele>
        <time>2021-06-03T09:40:14Z</time>
      </trkpt>
      <trkpt lat="47.26057" lon="6.05132">
        <ele>331.8</ele>
        <time>2021-06-03T09:40:15Z</time>
      </trkpt>
      <trkpt lat="47.26062" lon="6.05132">
        <ele>331.2</ele>
        <time>2021-06-03T09:40:16Z</time>
      </trkpt>
      <trkpt lat="47.26068" lon="6.05133">
        <ele>330.8</ele>
        <time>2021-06-03T09:40:17Z</time>
      </trkpt>
      <trkpt lat="47.26074" lon="6.05133">
        <ele>329.8</ele>
        <time>2021-06-03T09:40:18Z</time>
      </trkpt>
      <trkpt lat="47.2608" lon="6.05133">
        <ele>329.6</ele>
        <time>2021-06-03T09:40:19Z</time>
      </trkpt>
      <trkpt lat="47.26091" lon="6.05133">
        <ele>329</ele>
        <time>2021-06-03T09:40:21Z</time>
      </trkpt>
      <trkpt lat="47.26095" lon="6.05131">
        <ele>328.6</ele>
        <time>2021-06-03T09:40:22Z</time>
      </trkpt>
      <trkpt lat="47.26099" lon="6.05127">
        <ele>328.4</ele>
        <time>2021-06-03T09:40:23Z</time>
      </trkpt>
      <trkpt lat="47.26102" lon="6.05124">
        <ele>328</ele>
        <time>2021-06-03T09:40:24Z</time>
      </trkpt>
      <trkpt lat="47.26106" lon="6.05118">
        <ele>327.8</ele>
        <time>2021-06-03T09:40:25Z</time>
      </trkpt>
      <trkpt lat="47.26109" lon="6.05113">
        <ele>327.6</ele>
        <time>2021-06-03T09:40:26Z</time>
      </trkpt>
      <trkpt lat="47.26111" lon="6.05107">
        <ele>327.4</ele>
        <time>2021-06-03T09:40:27Z</time>
      </trkpt>
      <trkpt lat="47.26113" lon="6.05102">
        <ele>327.2</ele>
        <time>2021-06-03T09:40:28Z</time>
      </trkpt>
      <trkpt lat="47.26115" lon="6.05097">
        <ele>327</ele>
        <time>2021-06-03T09:40:29Z</time>
      </trkpt>
      <trkpt lat="47.26118" lon="6.05093">
        <ele>327</ele>
        <time>2021-06-03T09:40:30Z</time>
      </trkpt>
      <trkpt lat="47.2612" lon="6.05089">
        <ele>326.4</ele>
        <time>2021-06-03T09:40:31Z</time>
      </trkpt>
      <trkpt lat="47.26124" lon="6.0508">
        <ele>326</ele>
        <time>2021-06-03T09:40:33Z</time>
      </trkpt>
      <trkpt lat="47.26126" lon="6.05075">
        <ele>325.8</ele>
        <time>2021-06-03T09:40:34Z</time>
      </trkpt>
      <trkpt lat="47.26133" lon="6.0506">
        <ele>325.4</ele>
        <time>2021-06-03T09:40:37Z</time>
      </trkpt>
      <trkpt lat="47.26149" lon="6.05033">
        <ele>324.8</ele>
        <time>2021-06-03T09:40:42Z</time>
      </trkpt>
      <trkpt lat="47.26168" lon="6.05002">
        <ele>324.6</ele>
        <time>2021-06-03T09:40:47Z</time>
      </trkpt>
      <trkpt lat="47.26172" lon="6.04998">
        <ele>324.4</ele>
        <time>2021-06-03T09:40:48Z</time>
      </trkpt>
      <trkpt lat="47.26176" lon="6.04996">
        <ele>324.2</ele>
        <time>2021-06-03T09:40:49Z</time>
      </trkpt>
      <trkpt lat="47.2618" lon="6.04993">
        <ele>323.8</ele>
        <time>2021-06-03T09:40:50Z</time>
      </trkpt>
      <trkpt lat="47.26184" lon="6.0499">
        <ele>323.6</ele>
        <time>2021-06-03T09:40:51Z</time>
      </trkpt>
      <trkpt lat="47.26186" lon="6.04987">
        <ele>323.4</ele>
        <time>2021-06-03T09:40:52Z</time>
      </trkpt>
      <trkpt lat="47.26187" lon="6.04984">
        <ele>323</ele>
        <time>2021-06-03T09:40:53Z</time>
      </trkpt>
      <trkpt lat="47.26187" lon="6.04981">
        <ele>323</ele>
        <time>2021-06-03T09:40:54Z</time>
      </trkpt>
      <trkpt lat="47.26187" lon="6.04977">
        <ele>322.6</ele>
        <time>2021-06-03T09:40:55Z</time>
      </trkpt>
      <trkpt lat="47.26188" lon="6.04974">
        <ele>322.6</ele>
        <time>2021-06-03T09:40:56Z</time>
      </trkpt>
      <trkpt lat="47.26188" lon="6.04971">
        <ele>322.4</ele>
        <time>2021-06-03T09:40:57Z</time>
      </trkpt>
      <trkpt lat="47.26188" lon="6.04967">
        <ele>322.4</ele>
        <time>2021-06-03T09:40:58Z</time>
      </trkpt>
      <trkpt lat="47.26189" lon="6.04965">
        <ele>322.2</ele>
        <time>2021-06-03T09:40:59Z</time>
      </trkpt>
      <trkpt lat="47.2619" lon="6.04962">
        <ele>322</ele>
        <time>2021-06-03T09:41:00Z</time>
      </trkpt>
      <trkpt lat="47.2619" lon="6.04959">
        <ele>322</ele>
        <time>2021-06-03T09:41:01Z</time>
      </trkpt>
      <trkpt lat="47.2619" lon="6.04955">
        <ele>321.8</ele>
        <time>2021-06-03T09:41:02Z</time>
      </trkpt>
      <trkpt lat="47.26189" lon="6.04953">
        <ele>321.8</ele>
        <time>2021-06-03T09:41:03Z</time>
      </trkpt>
      <trkpt lat="47.26188" lon="6.04951">
        <ele>321.8</ele>
        <time>2021-06-03T09:41:04Z</time>
      </trkpt>
      <trkpt lat="47.26187" lon="6.04948">
        <ele>321.8</ele>
        <time>2021-06-03T09:41:05Z</time>
      </trkpt>
      <trkpt lat="47.26186" lon="6.04945">
        <ele>321.6</ele>
        <time>2021-06-03T09:41:06Z</time>
      </trkpt>
      <trkpt lat="47.26184" lon="6.04941">
        <ele>321.6</ele>
        <time>2021-06-03T09:41:07Z</time>
      </trkpt>
      <trkpt lat="47.26175" lon="6.04928">
        <ele>321.4</ele>
        <time>2021-06-03T09:41:11Z</time>
      </trkpt>
      <trkpt lat="47.26169" lon="6.04922">
        <ele>321.2</ele>
        <time>2021-06-03T09:41:13Z</time>
      </trkpt>
      <trkpt lat="47.26167" lon="6.0492">
        <ele>321.2</ele>
        <time>2021-06-03T09:41:14Z</time>
      </trkpt>
      <trkpt lat="47.26164" lon="6.04917">
        <ele>321</ele>
        <time>2021-06-03T09:41:15Z</time>
      </trkpt>
      <trkpt lat="47.26161" lon="6.04915">
        <ele>320.8</ele>
        <time>2021-06-03T09:41:16Z</time>
      </trkpt>
      <trkpt lat="47.26148" lon="6.04901">
        <ele>320.4</ele>
        <time>2021-06-03T09:41:21Z</time>
      </trkpt>
      <trkpt lat="47.26148" lon="6.04898">
        <ele>320.4</ele>
        <time>2021-06-03T09:41:22Z</time>
      </trkpt>
      <trkpt lat="47.26148" lon="6.04895">
        <ele>320.2</ele>
        <time>2021-06-03T09:41:23Z</time>
      </trkpt>
      <trkpt lat="47.26148" lon="6.04893">
        <ele>320</ele>
        <time>2021-06-03T09:41:24Z</time>
      </trkpt>
      <trkpt lat="47.26147" lon="6.04891">
        <ele>320</ele>
        <time>2021-06-03T09:41:25Z</time>
      </trkpt>
      <trkpt lat="47.26145" lon="6.04888">
        <ele>319.8</ele>
        <time>2021-06-03T09:41:26Z</time>
      </trkpt>
      <trkpt lat="47.26143" lon="6.04885">
        <ele>319.8</ele>
        <time>2021-06-03T09:41:27Z</time>
      </trkpt>
      <trkpt lat="47.26142" lon="6.04883">
        <ele>319.8</ele>
        <time>2021-06-03T09:41:28Z</time>
      </trkpt>
      <trkpt lat="47.2614" lon="6.04879">
        <ele>319.6</ele>
        <time>2021-06-03T09:41:30Z</time>
      </trkpt>
      <trkpt lat="47.26139" lon="6.04877">
        <ele>319.6</ele>
        <time>2021-06-03T09:41:31Z</time>
      </trkpt>
      <trkpt lat="47.26139" lon="6.04875">
        <ele>319.6</ele>
        <time>2021-06-03T09:41:32Z</time>
      </trkpt>
      <trkpt lat="47.26139" lon="6.04872">
        <ele>319.6</ele>
        <time>2021-06-03T09:41:33Z</time>
      </trkpt>
      <trkpt lat="47.26141" lon="6.04866">
        <ele>319.6</ele>
        <time>2021-06-03T09:41:35Z</time>
      </trkpt>
      <trkpt lat="47.2614" lon="6.04863">
        <ele>319.6</ele>
        <time>2021-06-03T09:41:36Z</time>
      </trkpt>
      <trkpt lat="47.26138" lon="6.04859">
        <ele>319.6</ele>
        <time>2021-06-03T09:41:37Z</time>
      </trkpt>
      <trkpt lat="47.26131" lon="6.04849">
        <ele>319.6</ele>
        <time>2021-06-03T09:41:40Z</time>
      </trkpt>
      <trkpt lat="47.26128" lon="6.04845">
        <ele>319.6</ele>
        <time>2021-06-03T09:41:41Z</time>
      </trkpt>
      <trkpt lat="47.26126" lon="6.04841">
        <ele>319.4</ele>
        <time>2021-06-03T09:41:42Z</time>
      </trkpt>
      <trkpt lat="47.26123" lon="6.04839">
        <ele>319.4</ele>
        <time>2021-06-03T09:41:43Z</time>
      </trkpt>
      <trkpt lat="47.26121" lon="6.04836">
        <ele>319.2</ele>
        <time>2021-06-03T09:41:44Z</time>
      </trkpt>
      <trkpt lat="47.26114" lon="6.04826">
        <ele>319</ele>
        <time>2021-06-03T09:41:47Z</time>
      </trkpt>
      <trkpt lat="47.26111" lon="6.04823">
        <ele>319</ele>
        <time>2021-06-03T09:41:48Z</time>
      </trkpt>
      <trkpt lat="47.26109" lon="6.0482">
        <ele>318.8</ele>
        <time>2021-06-03T09:41:49Z</time>
      </trkpt>
      <trkpt lat="47.26106" lon="6.04817">
        <ele>318.8</ele>
        <time>2021-06-03T09:41:50Z</time>
      </trkpt>
      <trkpt lat="47.26104" lon="6.04814">
        <ele>318.8</ele>
        <time>2021-06-03T09:41:51Z</time>
      </trkpt>
      <trkpt lat="47.26101" lon="6.0481">
        <ele>318.8</ele>
        <time>2021-06-03T09:41:52Z</time>
      </trkpt>
      <trkpt lat="47.26093" lon="6.04798">
        <ele>318.6</ele>
        <time>2021-06-03T09:41:55Z</time>
      </trkpt>
      <trkpt lat="47.2608" lon="6.04781">
        <ele>318.4</ele>
        <time>2021-06-03T09:41:59Z</time>
      </trkpt>
      <trkpt lat="47.26077" lon="6.04777">
        <ele>318.4</ele>
        <time>2021-06-03T09:42:00Z</time>
      </trkpt>
      <trkpt lat="47.26069" lon="6.04764">
        <ele>318.4</ele>
        <time>2021-06-03T09:42:03Z</time>
      </trkpt>
      <trkpt lat="47.26051" lon="6.04739">
        <ele>317.8</ele>
        <time>2021-06-03T09:42:09Z</time>
      </trkpt>
      <trkpt lat="47.26041" lon="6.04725">
        <ele>317.6</ele>
        <time>2021-06-03T09:42:12Z</time>
      </trkpt>
      <trkpt lat="47.26034" lon="6.04715">
        <ele>317.2</ele>
        <time>2021-06-03T09:42:14Z</time>
      </trkpt>
      <trkpt lat="47.2603" lon="6.0471">
        <ele>317</ele>
        <time>2021-06-03T09:42:15Z</time>
      </trkpt>
      <trkpt lat="47.26026" lon="6.04704">
        <ele>316.8</ele>
        <time>2021-06-03T09:42:16Z</time>
      </trkpt>
      <trkpt lat="47.26022" lon="6.04698">
        <ele>316.6</ele>
        <time>2021-06-03T09:42:17Z</time>
      </trkpt>
      <trkpt lat="47.26004" lon="6.04674">
        <ele>316.2</ele>
        <time>2021-06-03T09:42:21Z</time>
      </trkpt>
      <trkpt lat="47.25999" lon="6.04669">
        <ele>316.2</ele>
        <time>2021-06-03T09:42:22Z</time>
      </trkpt>
      <trkpt lat="47.25995" lon="6.04662">
        <ele>316</ele>
        <time>2021-06-03T09:42:23Z</time>
      </trkpt>
      <trkpt lat="47.25991" lon="6.04657">
        <ele>315.8</ele>
        <time>2021-06-03T09:42:24Z</time>
      </trkpt>
      <trkpt lat="47.25979" lon="6.0464">
        <ele>314.6</ele>
        <time>2021-06-03T09:42:27Z</time>
      </trkpt>
      <trkpt lat="47.25975" lon="6.04634">
        <ele>314.4</ele>
        <time>2021-06-03T09:42:28Z</time>
      </trkpt>
      <trkpt lat="47.25972" lon="6.04628">
        <ele>314.4</ele>
        <time>2021-06-03T09:42:29Z</time>
      </trkpt>
      <trkpt lat="47.25968" lon="6.04623">
        <ele>314.2</ele>
        <time>2021-06-03T09:42:30Z</time>
      </trkpt>
      <trkpt lat="47.25968" lon="6.04623">
        <ele>314.2</ele>
        <time>2021-06-03T09:42:31Z</time>
      </trkpt>
      <trkpt lat="47.2596" lon="6.04613">
        <ele>314.2</ele>
        <time>2021-06-03T09:42:32Z</time>
      </trkpt>
      <trkpt lat="47.25956" lon="6.04608">
        <ele>314</ele>
        <time>2021-06-03T09:42:33Z</time>
      </trkpt>
      <trkpt lat="47.25953" lon="6.04602">
        <ele>314</ele>
        <time>2021-06-03T09:42:34Z</time>
      </trkpt>
      <trkpt lat="47.25948" lon="6.04597">
        <ele>313.8</ele>
        <time>2021-06-03T09:42:35Z</time>
      </trkpt>
      <trkpt lat="47.25945" lon="6.04592">
        <ele>313.8</ele>
        <time>2021-06-03T09:42:36Z</time>
      </trkpt>
      <trkpt lat="47.25941" lon="6.04587">
        <ele>313.6</ele>
        <time>2021-06-03T09:42:37Z</time>
      </trkpt>
      <trkpt lat="47.25916" lon="6.04554">
        <ele>313.2</ele>
        <time>2021-06-03T09:42:43Z</time>
      </trkpt>
      <trkpt lat="47.25909" lon="6.04544">
        <ele>312.6</ele>
        <time>2021-06-03T09:42:45Z</time>
      </trkpt>
      <trkpt lat="47.25909" lon="6.04544">
        <ele>312.2</ele>
        <time>2021-06-03T09:42:46Z</time>
      </trkpt>
      <trkpt lat="47.25903" lon="6.04536">
        <ele>312</ele>
        <time>2021-06-03T09:42:47Z</time>
      </trkpt>
      <trkpt lat="47.25901" lon="6.04533">
        <ele>312</ele>
        <time>2021-06-03T09:42:48Z</time>
      </trkpt>
      <trkpt lat="47.25899" lon="6.0453">
        <ele>311.8</ele>
        <time>2021-06-03T09:42:49Z</time>
      </trkpt>
      <trkpt lat="47.25896" lon="6.04526">
        <ele>311.8</ele>
        <time>2021-06-03T09:42:50Z</time>
      </trkpt>
      <trkpt lat="47.25887" lon="6.04515">
        <ele>311.2</ele>
        <time>2021-06-03T09:42:54Z</time>
      </trkpt>
      <trkpt lat="47.25881" lon="6.04506">
        <ele>311.2</ele>
        <time>2021-06-03T09:42:55Z</time>
      </trkpt>
      <trkpt lat="47.25857" lon="6.04473">
        <ele>310.2</ele>
        <time>2021-06-03T09:43:01Z</time>
      </trkpt>
      <trkpt lat="47.25853" lon="6.04467">
        <ele>310</ele>
        <time>2021-06-03T09:43:02Z</time>
      </trkpt>
      <trkpt lat="47.25833" lon="6.04438">
        <ele>309.4</ele>
        <time>2021-06-03T09:43:07Z</time>
      </trkpt>
      <trkpt lat="47.25829" lon="6.04433">
        <ele>309</ele>
        <time>2021-06-03T09:43:08Z</time>
      </trkpt>
      <trkpt lat="47.25805" lon="6.04399">
        <ele>308.2</ele>
        <time>2021-06-03T09:43:14Z</time>
      </trkpt>
      <trkpt lat="47.25793" lon="6.04382">
        <ele>308.2</ele>
        <time>2021-06-03T09:43:17Z</time>
      </trkpt>
      <trkpt lat="47.25786" lon="6.04372">
        <ele>308</ele>
        <time>2021-06-03T09:43:19Z</time>
      </trkpt>
      <trkpt lat="47.25779" lon="6.04362">
        <ele>307.8</ele>
        <time>2021-06-03T09:43:21Z</time>
      </trkpt>
      <trkpt lat="47.25775" lon="6.04357">
        <ele>307.8</ele>
        <time>2021-06-03T09:43:22Z</time>
      </trkpt>
      <trkpt lat="47.25772" lon="6.04352">
        <ele>307.8</ele>
        <time>2021-06-03T09:43:23Z</time>
      </trkpt>
      <trkpt lat="47.25768" lon="6.04346">
        <ele>307.6</ele>
        <time>2021-06-03T09:43:24Z</time>
      </trkpt>
      <trkpt lat="47.25757" lon="6.0433">
        <ele>307.6</ele>
        <time>2021-06-03T09:43:27Z</time>
      </trkpt>
      <trkpt lat="47.25739" lon="6.04305">
        <ele>307.6</ele>
        <time>2021-06-03T09:43:32Z</time>
      </trkpt>
      <trkpt lat="47.25736" lon="6.04301">
        <ele>307.6</ele>
        <time>2021-06-03T09:43:33Z</time>
      </trkpt>
      <trkpt lat="47.25732" lon="6.04297">
        <ele>307.6</ele>
        <time>2021-06-03T09:43:34Z</time>
      </trkpt>
      <trkpt lat="47.25729" lon="6.04292">
        <ele>307.6</ele>
        <time>2021-06-03T09:43:35Z</time>
      </trkpt>
      <trkpt lat="47.25726" lon="6.04288">
        <ele>307.6</ele>
        <time>2021-06-03T09:43:36Z</time>
      </trkpt>
      <trkpt lat="47.25723" lon="6.04284">
        <ele>307.4</ele>
        <time>2021-06-03T09:43:37Z</time>
      </trkpt>
      <trkpt lat="47.2572" lon="6.0428">
        <ele>307.2</ele>
        <time>2021-06-03T09:43:38Z</time>
      </trkpt>
      <trkpt lat="47.25718" lon="6.04277">
        <ele>307.2</ele>
        <time>2021-06-03T09:43:39Z</time>
      </trkpt>
      <trkpt lat="47.25715" lon="6.04273">
        <ele>307</ele>
        <time>2021-06-03T09:43:40Z</time>
      </trkpt>
      <trkpt lat="47.25713" lon="6.0427">
        <ele>307</ele>
        <time>2021-06-03T09:43:41Z</time>
      </trkpt>
      <trkpt lat="47.25696" lon="6.04246">
        <ele>306.8</ele>
        <time>2021-06-03T09:43:47Z</time>
      </trkpt>
      <trkpt lat="47.25682" lon="6.04229">
        <ele>306.6</ele>
        <time>2021-06-03T09:43:51Z</time>
      </trkpt>
      <trkpt lat="47.25675" lon="6.04218">
        <ele>306.6</ele>
        <time>2021-06-03T09:43:53Z</time>
      </trkpt>
      <trkpt lat="47.25653" lon="6.04189">
        <ele>306.2</ele>
        <time>2021-06-03T09:43:59Z</time>
      </trkpt>
      <trkpt lat="47.25649" lon="6.04184">
        <ele>306.2</ele>
        <time>2021-06-03T09:44:00Z</time>
      </trkpt>
      <trkpt lat="47.25619" lon="6.04139">
        <ele>305.2</ele>
        <time>2021-06-03T09:44:08Z</time>
      </trkpt>
      <trkpt lat="47.25615" lon="6.04133">
        <ele>305.2</ele>
        <time>2021-06-03T09:44:09Z</time>
      </trkpt>
      <trkpt lat="47.256" lon="6.04113">
        <ele>304.8</ele>
        <time>2021-06-03T09:44:13Z</time>
      </trkpt>
      <trkpt lat="47.25597" lon="6.04108">
        <ele>304.8</ele>
        <time>2021-06-03T09:44:14Z</time>
      </trkpt>
      <trkpt lat="47.25595" lon="6.04102">
        <ele>304.8</ele>
        <time>2021-06-03T09:44:15Z</time>
      </trkpt>
      <trkpt lat="47.25594" lon="6.04096">
        <ele>304.6</ele>
        <time>2021-06-03T09:44:16Z</time>
      </trkpt>
      <trkpt lat="47.25593" lon="6.04089">
        <ele>304.4</ele>
        <time>2021-06-03T09:44:17Z</time>
      </trkpt>
      <trkpt lat="47.25591" lon="6.04084">
        <ele>304.4</ele>
        <time>2021-06-03T09:44:18Z</time>
      </trkpt>
      <trkpt lat="47.25588" lon="6.0408">
        <ele>304.4</ele>
        <time>2021-06-03T09:44:19Z</time>
      </trkpt>
      <trkpt lat="47.25584" lon="6.04077">
        <ele>304.2</ele>
        <time>2021-06-03T09:44:20Z</time>
      </trkpt>
      <trkpt lat="47.25581" lon="6.04076">
        <ele>304.2</ele>
        <time>2021-06-03T09:44:21Z</time>
      </trkpt>
      <trkpt lat="47.25578" lon="6.04074">
        <ele>304</ele>
        <time>2021-06-03T09:44:22Z</time>
      </trkpt>
      <trkpt lat="47.25578" lon="6.04074">
        <ele>304</ele>
        <time>2021-06-03T09:44:23Z</time>
      </trkpt>
      <trkpt lat="47.25572" lon="6.04069">
        <ele>304</ele>
        <time>2021-06-03T09:44:24Z</time>
      </trkpt>
      <trkpt lat="47.25562" lon="6.04056">
        <ele>303.8</ele>
        <time>2021-06-03T09:44:27Z</time>
      </trkpt>
      <trkpt lat="47.25546" lon="6.04035">
        <ele>303.2</ele>
        <time>2021-06-03T09:44:31Z</time>
      </trkpt>
      <trkpt lat="47.25539" lon="6.04025">
        <ele>303.2</ele>
        <time>2021-06-03T09:44:33Z</time>
      </trkpt>
      <trkpt lat="47.25519" lon="6.03998">
        <ele>302.2</ele>
        <time>2021-06-03T09:44:38Z</time>
      </trkpt>
      <trkpt lat="47.25506" lon="6.03981">
        <ele>301.8</ele>
        <time>2021-06-03T09:44:41Z</time>
      </trkpt>
      <trkpt lat="47.25502" lon="6.03975">
        <ele>301.6</ele>
        <time>2021-06-03T09:44:42Z</time>
      </trkpt>
      <trkpt lat="47.25493" lon="6.03963">
        <ele>301.2</ele>
        <time>2021-06-03T09:44:44Z</time>
      </trkpt>
      <trkpt lat="47.25471" lon="6.03932">
        <ele>300.6</ele>
        <time>2021-06-03T09:44:49Z</time>
      </trkpt>
      <trkpt lat="47.25466" lon="6.03926">
        <ele>300.2</ele>
        <time>2021-06-03T09:44:50Z</time>
      </trkpt>
      <trkpt lat="47.25447" lon="6.03902">
        <ele>299.2</ele>
        <time>2021-06-03T09:44:54Z</time>
      </trkpt>
      <trkpt lat="47.25437" lon="6.0389">
        <ele>298.8</ele>
        <time>2021-06-03T09:44:56Z</time>
      </trkpt>
      <trkpt lat="47.25434" lon="6.03884">
        <ele>298.4</ele>
        <time>2021-06-03T09:44:57Z</time>
      </trkpt>
      <trkpt lat="47.25434" lon="6.03884">
        <ele>298</ele>
        <time>2021-06-03T09:44:58Z</time>
      </trkpt>
      <trkpt lat="47.25427" lon="6.03874">
        <ele>297.8</ele>
        <time>2021-06-03T09:44:59Z</time>
      </trkpt>
      <trkpt lat="47.25425" lon="6.0387">
        <ele>297.6</ele>
        <time>2021-06-03T09:45:00Z</time>
      </trkpt>
      <trkpt lat="47.25422" lon="6.03866">
        <ele>297.4</ele>
        <time>2021-06-03T09:45:01Z</time>
      </trkpt>
      <trkpt lat="47.25418" lon="6.03861">
        <ele>297.2</ele>
        <time>2021-06-03T09:45:02Z</time>
      </trkpt>
      <trkpt lat="47.25406" lon="6.03846">
        <ele>296.8</ele>
        <time>2021-06-03T09:45:05Z</time>
      </trkpt>
      <trkpt lat="47.25389" lon="6.03824">
        <ele>296.4</ele>
        <time>2021-06-03T09:45:09Z</time>
      </trkpt>
      <trkpt lat="47.25375" lon="6.03806">
        <ele>295.8</ele>
        <time>2021-06-03T09:45:12Z</time>
      </trkpt>
      <trkpt lat="47.25359" lon="6.03785">
        <ele>295.4</ele>
        <time>2021-06-03T09:45:15Z</time>
      </trkpt>
      <trkpt lat="47.25351" lon="6.03774">
        <ele>294.6</ele>
        <time>2021-06-03T09:45:17Z</time>
      </trkpt>
      <trkpt lat="47.25321" lon="6.03735">
        <ele>293.4</ele>
        <time>2021-06-03T09:45:23Z</time>
      </trkpt>
      <trkpt lat="47.25316" lon="6.03728">
        <ele>293.2</ele>
        <time>2021-06-03T09:45:24Z</time>
      </trkpt>
      <trkpt lat="47.25298" lon="6.03705">
        <ele>292.4</ele>
        <time>2021-06-03T09:45:28Z</time>
      </trkpt>
      <trkpt lat="47.25294" lon="6.03699">
        <ele>292.2</ele>
        <time>2021-06-03T09:45:29Z</time>
      </trkpt>
      <trkpt lat="47.2529" lon="6.03693">
        <ele>292</ele>
        <time>2021-06-03T09:45:30Z</time>
      </trkpt>
      <trkpt lat="47.25286" lon="6.03687">
        <ele>291.8</ele>
        <time>2021-06-03T09:45:31Z</time>
      </trkpt>
      <trkpt lat="47.25282" lon="6.03682">
        <ele>291.6</ele>
        <time>2021-06-03T09:45:32Z</time>
      </trkpt>
      <trkpt lat="47.25278" lon="6.03677">
        <ele>291.4</ele>
        <time>2021-06-03T09:45:33Z</time>
      </trkpt>
      <trkpt lat="47.25273" lon="6.0367">
        <ele>291.2</ele>
        <time>2021-06-03T09:45:34Z</time>
      </trkpt>
      <trkpt lat="47.25268" lon="6.03665">
        <ele>290.8</ele>
        <time>2021-06-03T09:45:35Z</time>
      </trkpt>
      <trkpt lat="47.25268" lon="6.03665">
        <ele>290.8</ele>
        <time>2021-06-03T09:45:36Z</time>
      </trkpt>
      <trkpt lat="47.2526" lon="6.03654">
        <ele>290.6</ele>
        <time>2021-06-03T09:45:37Z</time>
      </trkpt>
      <trkpt lat="47.25256" lon="6.03648">
        <ele>290.4</ele>
        <time>2021-06-03T09:45:38Z</time>
      </trkpt>
      <trkpt lat="47.25252" lon="6.03644">
        <ele>290.2</ele>
        <time>2021-06-03T09:45:39Z</time>
      </trkpt>
      <trkpt lat="47.25225" lon="6.03608">
        <ele>289.2</ele>
        <time>2021-06-03T09:45:45Z</time>
      </trkpt>
      <trkpt lat="47.25217" lon="6.03594">
        <ele>289</ele>
        <time>2021-06-03T09:45:47Z</time>
      </trkpt>
      <trkpt lat="47.25203" lon="6.03574">
        <ele>288.2</ele>
        <time>2021-06-03T09:45:50Z</time>
      </trkpt>
      <trkpt lat="47.25185" lon="6.03551">
        <ele>287.6</ele>
        <time>2021-06-03T09:45:54Z</time>
      </trkpt>
      <trkpt lat="47.25175" lon="6.03538">
        <ele>287.2</ele>
        <time>2021-06-03T09:45:56Z</time>
      </trkpt>
      <trkpt lat="47.25166" lon="6.03527">
        <ele>286.8</ele>
        <time>2021-06-03T09:45:58Z</time>
      </trkpt>
      <trkpt lat="47.25162" lon="6.03522">
        <ele>286.6</ele>
        <time>2021-06-03T09:45:59Z</time>
      </trkpt>
      <trkpt lat="47.25158" lon="6.03517">
        <ele>286.4</ele>
        <time>2021-06-03T09:46:00Z</time>
      </trkpt>
      <trkpt lat="47.25154" lon="6.03512">
        <ele>286.2</ele>
        <time>2021-06-03T09:46:01Z</time>
      </trkpt>
      <trkpt lat="47.25138" lon="6.0349">
        <ele>285</ele>
        <time>2021-06-03T09:46:05Z</time>
      </trkpt>
      <trkpt lat="47.25129" lon="6.03478">
        <ele>284.6</ele>
        <time>2021-06-03T09:46:07Z</time>
      </trkpt>
      <trkpt lat="47.25124" lon="6.03472">
        <ele>284</ele>
        <time>2021-06-03T09:46:08Z</time>
      </trkpt>
      <trkpt lat="47.25106" lon="6.03447">
        <ele>283</ele>
        <time>2021-06-03T09:46:12Z</time>
      </trkpt>
      <trkpt lat="47.25101" lon="6.0344">
        <ele>282.6</ele>
        <time>2021-06-03T09:46:13Z</time>
      </trkpt>
      <trkpt lat="47.25081" lon="6.03412">
        <ele>281.4</ele>
        <time>2021-06-03T09:46:17Z</time>
      </trkpt>
      <trkpt lat="47.25081" lon="6.03412">
        <ele>280.8</ele>
        <time>2021-06-03T09:46:18Z</time>
      </trkpt>
      <trkpt lat="47.25065" lon="6.03389">
        <ele>280.4</ele>
        <time>2021-06-03T09:46:20Z</time>
      </trkpt>
      <trkpt lat="47.2506" lon="6.03382">
        <ele>280.2</ele>
        <time>2021-06-03T09:46:21Z</time>
      </trkpt>
      <trkpt lat="47.25045" lon="6.03358">
        <ele>278.8</ele>
        <time>2021-06-03T09:46:24Z</time>
      </trkpt>
      <trkpt lat="47.25034" lon="6.03343">
        <ele>278</ele>
        <time>2021-06-03T09:46:26Z</time>
      </trkpt>
      <trkpt lat="47.25029" lon="6.03336">
        <ele>277.8</ele>
        <time>2021-06-03T09:46:27Z</time>
      </trkpt>
      <trkpt lat="47.25011" lon="6.03306">
        <ele>277.2</ele>
        <time>2021-06-03T09:46:31Z</time>
      </trkpt>
      <trkpt lat="47.25006" lon="6.03299">
        <ele>276.8</ele>
        <time>2021-06-03T09:46:32Z</time>
      </trkpt>
      <trkpt lat="47.25002" lon="6.03292">
        <ele>276.8</ele>
        <time>2021-06-03T09:46:33Z</time>
      </trkpt>
      <trkpt lat="47.24997" lon="6.03285">
        <ele>276.2</ele>
        <time>2021-06-03T09:46:34Z</time>
      </trkpt>
      <trkpt lat="47.24992" lon="6.03279">
        <ele>276.2</ele>
        <time>2021-06-03T09:46:35Z</time>
      </trkpt>
      <trkpt lat="47.24988" lon="6.03272">
        <ele>275.4</ele>
        <time>2021-06-03T09:46:36Z</time>
      </trkpt>
      <trkpt lat="47.24984" lon="6.03266">
        <ele>275.2</ele>
        <time>2021-06-03T09:46:37Z</time>
      </trkpt>
      <trkpt lat="47.24967" lon="6.03239">
        <ele>274.6</ele>
        <time>2021-06-03T09:46:41Z</time>
      </trkpt>
      <trkpt lat="47.24963" lon="6.03232">
        <ele>274.4</ele>
        <time>2021-06-03T09:46:42Z</time>
      </trkpt>
      <trkpt lat="47.2496" lon="6.03226">
        <ele>274.4</ele>
        <time>2021-06-03T09:46:43Z</time>
      </trkpt>
      <trkpt lat="47.24956" lon="6.03219">
        <ele>274.2</ele>
        <time>2021-06-03T09:46:44Z</time>
      </trkpt>
      <trkpt lat="47.24956" lon="6.03219">
        <ele>274.2</ele>
        <time>2021-06-03T09:46:45Z</time>
      </trkpt>
      <trkpt lat="47.24946" lon="6.03199">
        <ele>274.2</ele>
        <time>2021-06-03T09:46:47Z</time>
      </trkpt>
      <trkpt lat="47.24939" lon="6.03187">
        <ele>274</ele>
        <time>2021-06-03T09:46:49Z</time>
      </trkpt>
      <trkpt lat="47.24936" lon="6.0318">
        <ele>274</ele>
        <time>2021-06-03T09:46:50Z</time>
      </trkpt>
      <trkpt lat="47.24921" lon="6.03153">
        <ele>273.6</ele>
        <time>2021-06-03T09:46:54Z</time>
      </trkpt>
      <trkpt lat="47.24914" lon="6.0314">
        <ele>273.2</ele>
        <time>2021-06-03T09:46:56Z</time>
      </trkpt>
      <trkpt lat="47.24898" lon="6.03114">
        <ele>272.2</ele>
        <time>2021-06-03T09:47:00Z</time>
      </trkpt>
      <trkpt lat="47.24891" lon="6.031">
        <ele>271.8</ele>
        <time>2021-06-03T09:47:02Z</time>
      </trkpt>
      <trkpt lat="47.24868" lon="6.0305">
        <ele>271</ele>
        <time>2021-06-03T09:47:09Z</time>
      </trkpt>
      <trkpt lat="47.24859" lon="6.03031">
        <ele>270.4</ele>
        <time>2021-06-03T09:47:12Z</time>
      </trkpt>
      <trkpt lat="47.24856" lon="6.03024">
        <ele>270.4</ele>
        <time>2021-06-03T09:47:13Z</time>
      </trkpt>
      <trkpt lat="47.24854" lon="6.03017">
        <ele>270.2</ele>
        <time>2021-06-03T09:47:14Z</time>
      </trkpt>
      <trkpt lat="47.24852" lon="6.0301">
        <ele>270.2</ele>
        <time>2021-06-03T09:47:15Z</time>
      </trkpt>
      <trkpt lat="47.24849" lon="6.03003">
        <ele>270.2</ele>
        <time>2021-06-03T09:47:16Z</time>
      </trkpt>
      <trkpt lat="47.24847" lon="6.02997">
        <ele>270.2</ele>
        <time>2021-06-03T09:47:17Z</time>
      </trkpt>
      <trkpt lat="47.24844" lon="6.02991">
        <ele>270.2</ele>
        <time>2021-06-03T09:47:18Z</time>
      </trkpt>
      <trkpt lat="47.24844" lon="6.02985">
        <ele>270.2</ele>
        <time>2021-06-03T09:47:19Z</time>
      </trkpt>
      <trkpt lat="47.24841" lon="6.0298">
        <ele>270.2</ele>
        <time>2021-06-03T09:47:20Z</time>
      </trkpt>
      <trkpt lat="47.24838" lon="6.02975">
        <ele>270.4</ele>
        <time>2021-06-03T09:47:21Z</time>
      </trkpt>
      <trkpt lat="47.24833" lon="6.02965">
        <ele>270.4</ele>
        <time>2021-06-03T09:47:23Z</time>
      </trkpt>
      <trkpt lat="47.24827" lon="6.02955">
        <ele>270.4</ele>
        <time>2021-06-03T09:47:25Z</time>
      </trkpt>
      <trkpt lat="47.24824" lon="6.02952">
        <ele>270.4</ele>
        <time>2021-06-03T09:47:26Z</time>
      </trkpt>
      <trkpt lat="47.24821" lon="6.02946">
        <ele>270.4</ele>
        <time>2021-06-03T09:47:27Z</time>
      </trkpt>
      <trkpt lat="47.24819" lon="6.02941">
        <ele>270.2</ele>
        <time>2021-06-03T09:47:28Z</time>
      </trkpt>
      <trkpt lat="47.24812" lon="6.02932">
        <ele>270.2</ele>
        <time>2021-06-03T09:47:30Z</time>
      </trkpt>
      <trkpt lat="47.248" lon="6.02911">
        <ele>270</ele>
        <time>2021-06-03T09:47:34Z</time>
      </trkpt>
      <trkpt lat="47.24795" lon="6.029">
        <ele>269.8</ele>
        <time>2021-06-03T09:47:36Z</time>
      </trkpt>
      <trkpt lat="47.24792" lon="6.02896">
        <ele>269.8</ele>
        <time>2021-06-03T09:47:37Z</time>
      </trkpt>
      <trkpt lat="47.24771" lon="6.02858">
        <ele>269.4</ele>
        <time>2021-06-03T09:47:45Z</time>
      </trkpt>
      <trkpt lat="47.24761" lon="6.02838">
        <ele>269.2</ele>
        <time>2021-06-03T09:47:49Z</time>
      </trkpt>
      <trkpt lat="47.24757" lon="6.02828">
        <ele>269</ele>
        <time>2021-06-03T09:47:51Z</time>
      </trkpt>
      <trkpt lat="47.24755" lon="6.02823">
        <ele>269</ele>
        <time>2021-06-03T09:47:52Z</time>
      </trkpt>
      <trkpt lat="47.24751" lon="6.02813">
        <ele>269</ele>
        <time>2021-06-03T09:47:54Z</time>
      </trkpt>
      <trkpt lat="47.24749" lon="6.02808">
        <ele>269</ele>
        <time>2021-06-03T09:47:55Z</time>
      </trkpt>
      <trkpt lat="47.24746" lon="6.02803">
        <ele>269</ele>
        <time>2021-06-03T09:47:56Z</time>
      </trkpt>
      <trkpt lat="47.24744" lon="6.02798">
        <ele>269</ele>
        <time>2021-06-03T09:47:57Z</time>
      </trkpt>
      <trkpt lat="47.24742" lon="6.02793">
        <ele>269</ele>
        <time>2021-06-03T09:47:58Z</time>
      </trkpt>
      <trkpt lat="47.2474" lon="6.02788">
        <ele>268.8</ele>
        <time>2021-06-03T09:47:59Z</time>
      </trkpt>
      <trkpt lat="47.24737" lon="6.02784">
        <ele>268.8</ele>
        <time>2021-06-03T09:48:00Z</time>
      </trkpt>
      <trkpt lat="47.24735" lon="6.0278">
        <ele>268.8</ele>
        <time>2021-06-03T09:48:01Z</time>
      </trkpt>
      <trkpt lat="47.24732" lon="6.02775">
        <ele>268.8</ele>
        <time>2021-06-03T09:48:02Z</time>
      </trkpt>
      <trkpt lat="47.2473" lon="6.0277">
        <ele>268.8</ele>
        <time>2021-06-03T09:48:03Z</time>
      </trkpt>
      <trkpt lat="47.24727" lon="6.02766">
        <ele>268.8</ele>
        <time>2021-06-03T09:48:04Z</time>
      </trkpt>
      <trkpt lat="47.24725" lon="6.02761">
        <ele>268.8</ele>
        <time>2021-06-03T09:48:05Z</time>
      </trkpt>
      <trkpt lat="47.24721" lon="6.02753">
        <ele>268.8</ele>
        <time>2021-06-03T09:48:07Z</time>
      </trkpt>
      <trkpt lat="47.24719" lon="6.02749">
        <ele>268.8</ele>
        <time>2021-06-03T09:48:08Z</time>
      </trkpt>
      <trkpt lat="47.24717" lon="6.02745">
        <ele>269</ele>
        <time>2021-06-03T09:48:09Z</time>
      </trkpt>
      <trkpt lat="47.24716" lon="6.02741">
        <ele>269</ele>
        <time>2021-06-03T09:48:10Z</time>
      </trkpt>
      <trkpt lat="47.24715" lon="6.02738">
        <ele>269</ele>
        <time>2021-06-03T09:48:11Z</time>
      </trkpt>
      <trkpt lat="47.24711" lon="6.02724">
        <ele>269</ele>
        <time>2021-06-03T09:48:14Z</time>
      </trkpt>
      <trkpt lat="47.24696" lon="6.02694">
        <ele>269</ele>
        <time>2021-06-03T09:48:21Z</time>
      </trkpt>
      <trkpt lat="47.24677" lon="6.02654">
        <ele>268.8</ele>
        <time>2021-06-03T09:48:29Z</time>
      </trkpt>
      <trkpt lat="47.24665" lon="6.02627">
        <ele>269</ele>
        <time>2021-06-03T09:48:35Z</time>
      </trkpt>
      <trkpt lat="47.24663" lon="6.02623">
        <ele>269.2</ele>
        <time>2021-06-03T09:48:36Z</time>
      </trkpt>
      <trkpt lat="47.24662" lon="6.0262">
        <ele>269.2</ele>
        <time>2021-06-03T09:48:37Z</time>
      </trkpt>
      <trkpt lat="47.2466" lon="6.02616">
        <ele>269.2</ele>
        <time>2021-06-03T09:48:38Z</time>
      </trkpt>
      <trkpt lat="47.24658" lon="6.02613">
        <ele>269.2</ele>
        <time>2021-06-03T09:48:39Z</time>
      </trkpt>
      <trkpt lat="47.24656" lon="6.0261">
        <ele>269.2</ele>
        <time>2021-06-03T09:48:40Z</time>
      </trkpt>
      <trkpt lat="47.24644" lon="6.02586">
        <ele>269.2</ele>
        <time>2021-06-03T09:48:46Z</time>
      </trkpt>
      <trkpt lat="47.24627" lon="6.02553">
        <ele>269.2</ele>
        <time>2021-06-03T09:48:53Z</time>
      </trkpt>
      <trkpt lat="47.2462" lon="6.02535">
        <ele>269.4</ele>
        <time>2021-06-03T09:48:57Z</time>
      </trkpt>
      <trkpt lat="47.24609" lon="6.02513">
        <ele>269.8</ele>
        <time>2021-06-03T09:49:02Z</time>
      </trkpt>
      <trkpt lat="47.24607" lon="6.02509">
        <ele>270</ele>
        <time>2021-06-03T09:49:03Z</time>
      </trkpt>
      <trkpt lat="47.24603" lon="6.025">
        <ele>270.4</ele>
        <time>2021-06-03T09:49:05Z</time>
      </trkpt>
      <trkpt lat="47.24601" lon="6.02495">
        <ele>270.6</ele>
        <time>2021-06-03T09:49:06Z</time>
      </trkpt>
      <trkpt lat="47.24599" lon="6.0249">
        <ele>270.6</ele>
        <time>2021-06-03T09:49:07Z</time>
      </trkpt>
      <trkpt lat="47.24598" lon="6.02486">
        <ele>270.8</ele>
        <time>2021-06-03T09:49:08Z</time>
      </trkpt>
      <trkpt lat="47.24594" lon="6.02477">
        <ele>271</ele>
        <time>2021-06-03T09:49:10Z</time>
      </trkpt>
      <trkpt lat="47.24592" lon="6.02474">
        <ele>271.2</ele>
        <time>2021-06-03T09:49:11Z</time>
      </trkpt>
      <trkpt lat="47.24589" lon="6.02468">
        <ele>271.4</ele>
        <time>2021-06-03T09:49:13Z</time>
      </trkpt>
      <trkpt lat="47.24589" lon="6.02463">
        <ele>271.4</ele>
        <time>2021-06-03T09:49:14Z</time>
      </trkpt>
      <trkpt lat="47.24589" lon="6.02459">
        <ele>271.6</ele>
        <time>2021-06-03T09:49:15Z</time>
      </trkpt>
      <trkpt lat="47.24589" lon="6.02454">
        <ele>271.8</ele>
        <time>2021-06-03T09:49:16Z</time>
      </trkpt>
      <trkpt lat="47.24589" lon="6.0245">
        <ele>271.8</ele>
        <time>2021-06-03T09:49:17Z</time>
      </trkpt>
      <trkpt lat="47.24588" lon="6.02446">
        <ele>272</ele>
        <time>2021-06-03T09:49:18Z</time>
      </trkpt>
      <trkpt lat="47.24588" lon="6.02443">
        <ele>272.2</ele>
        <time>2021-06-03T09:49:19Z</time>
      </trkpt>
      <trkpt lat="47.24587" lon="6.02438">
        <ele>272.2</ele>
        <time>2021-06-03T09:49:20Z</time>
      </trkpt>
      <trkpt lat="47.24587" lon="6.02434">
        <ele>272.6</ele>
        <time>2021-06-03T09:49:21Z</time>
      </trkpt>
      <trkpt lat="47.24587" lon="6.0243">
        <ele>272.6</ele>
        <time>2021-06-03T09:49:22Z</time>
      </trkpt>
      <trkpt lat="47.24587" lon="6.02425">
        <ele>272.8</ele>
        <time>2021-06-03T09:49:23Z</time>
      </trkpt>
      <trkpt lat="47.24588" lon="6.02421">
        <ele>273.2</ele>
        <time>2021-06-03T09:49:24Z</time>
      </trkpt>
      <trkpt lat="47.24588" lon="6.02417">
        <ele>273.4</ele>
        <time>2021-06-03T09:49:25Z</time>
      </trkpt>
      <trkpt lat="47.24589" lon="6.02414">
        <ele>273.6</ele>
        <time>2021-06-03T09:49:26Z</time>
      </trkpt>
      <trkpt lat="47.24589" lon="6.0241">
        <ele>273.6</ele>
        <time>2021-06-03T09:49:27Z</time>
      </trkpt>
      <trkpt lat="47.2459" lon="6.02407">
        <ele>273.8</ele>
        <time>2021-06-03T09:49:28Z</time>
      </trkpt>
      <trkpt lat="47.24591" lon="6.02403">
        <ele>274</ele>
        <time>2021-06-03T09:49:29Z</time>
      </trkpt>
      <trkpt lat="47.24591" lon="6.02399">
        <ele>274</ele>
        <time>2021-06-03T09:49:30Z</time>
      </trkpt>
      <trkpt lat="47.24593" lon="6.02395">
        <ele>274.2</ele>
        <time>2021-06-03T09:49:31Z</time>
      </trkpt>
      <trkpt lat="47.24594" lon="6.02391">
        <ele>274.2</ele>
        <time>2021-06-03T09:49:32Z</time>
      </trkpt>
      <trkpt lat="47.24596" lon="6.02387">
        <ele>274.4</ele>
        <time>2021-06-03T09:49:33Z</time>
      </trkpt>
      <trkpt lat="47.24597" lon="6.02384">
        <ele>274.6</ele>
        <time>2021-06-03T09:49:34Z</time>
      </trkpt>
      <trkpt lat="47.24599" lon="6.02381">
        <ele>274.8</ele>
        <time>2021-06-03T09:49:35Z</time>
      </trkpt>
      <trkpt lat="47.24601" lon="6.02378">
        <ele>275.2</ele>
        <time>2021-06-03T09:49:36Z</time>
      </trkpt>
      <trkpt lat="47.24603" lon="6.02375">
        <ele>275.2</ele>
        <time>2021-06-03T09:49:37Z</time>
      </trkpt>
      <trkpt lat="47.24605" lon="6.02373">
        <ele>275.4</ele>
        <time>2021-06-03T09:49:38Z</time>
      </trkpt>
      <trkpt lat="47.24606" lon="6.0237">
        <ele>275.6</ele>
        <time>2021-06-03T09:49:39Z</time>
      </trkpt>
      <trkpt lat="47.24608" lon="6.02367">
        <ele>275.8</ele>
        <time>2021-06-03T09:49:40Z</time>
      </trkpt>
      <trkpt lat="47.24609" lon="6.02364">
        <ele>275.8</ele>
        <time>2021-06-03T09:49:41Z</time>
      </trkpt>
      <trkpt lat="47.2461" lon="6.02361">
        <ele>276</ele>
        <time>2021-06-03T09:49:42Z</time>
      </trkpt>
      <trkpt lat="47.24612" lon="6.02359">
        <ele>276</ele>
        <time>2021-06-03T09:49:43Z</time>
      </trkpt>
      <trkpt lat="47.24614" lon="6.02356">
        <ele>276.2</ele>
        <time>2021-06-03T09:49:44Z</time>
      </trkpt>
      <trkpt lat="47.24615" lon="6.02353">
        <ele>276.4</ele>
        <time>2021-06-03T09:49:45Z</time>
      </trkpt>
      <trkpt lat="47.24617" lon="6.02351">
        <ele>276.4</ele>
        <time>2021-06-03T09:49:46Z</time>
      </trkpt>
      <trkpt lat="47.24619" lon="6.02348">
        <ele>276.8</ele>
        <time>2021-06-03T09:49:47Z</time>
      </trkpt>
      <trkpt lat="47.2462" lon="6.02345">
        <ele>277</ele>
        <time>2021-06-03T09:49:48Z</time>
      </trkpt>
      <trkpt lat="47.24622" lon="6.02342">
        <ele>277</ele>
        <time>2021-06-03T09:49:49Z</time>
      </trkpt>
      <trkpt lat="47.24623" lon="6.02338">
        <ele>277</ele>
        <time>2021-06-03T09:49:50Z</time>
      </trkpt>
      <trkpt lat="47.24623" lon="6.02338">
        <ele>277.2</ele>
        <time>2021-06-03T09:49:51Z</time>
      </trkpt>
      <trkpt lat="47.24624" lon="6.02331">
        <ele>277.2</ele>
        <time>2021-06-03T09:49:52Z</time>
      </trkpt>
      <trkpt lat="47.24625" lon="6.02327">
        <ele>277.4</ele>
        <time>2021-06-03T09:49:53Z</time>
      </trkpt>
      <trkpt lat="47.24625" lon="6.02327">
        <ele>277.6</ele>
        <time>2021-06-03T09:49:54Z</time>
      </trkpt>
      <trkpt lat="47.24628" lon="6.02322">
        <ele>277.8</ele>
        <time>2021-06-03T09:49:55Z</time>
      </trkpt>
      <trkpt lat="47.2463" lon="6.02319">
        <ele>277.8</ele>
        <time>2021-06-03T09:49:56Z</time>
      </trkpt>
      <trkpt lat="47.24631" lon="6.02316">
        <ele>278</ele>
        <time>2021-06-03T09:49:57Z</time>
      </trkpt>
      <trkpt lat="47.24633" lon="6.02314">
        <ele>278</ele>
        <time>2021-06-03T09:49:58Z</time>
      </trkpt>
      <trkpt lat="47.24635" lon="6.02312">
        <ele>278.2</ele>
        <time>2021-06-03T09:49:59Z</time>
      </trkpt>
      <trkpt lat="47.24636" lon="6.0231">
        <ele>278.2</ele>
        <time>2021-06-03T09:50:00Z</time>
      </trkpt>
      <trkpt lat="47.24638" lon="6.02308">
        <ele>278.2</ele>
        <time>2021-06-03T09:50:01Z</time>
      </trkpt>
      <trkpt lat="47.24639" lon="6.02306">
        <ele>278.4</ele>
        <time>2021-06-03T09:50:02Z</time>
      </trkpt>
      <trkpt lat="47.2464" lon="6.02305">
        <ele>278.4</ele>
        <time>2021-06-03T09:50:03Z</time>
      </trkpt>
      <trkpt lat="47.24642" lon="6.02304">
        <ele>278.6</ele>
        <time>2021-06-03T09:50:04Z</time>
      </trkpt>
      <trkpt lat="47.24644" lon="6.02303">
        <ele>278.6</ele>
        <time>2021-06-03T09:50:05Z</time>
      </trkpt>
      <trkpt lat="47.24645" lon="6.02302">
        <ele>278.6</ele>
        <time>2021-06-03T09:50:06Z</time>
      </trkpt>
      <trkpt lat="47.24647" lon="6.02301">
        <ele>278.8</ele>
        <time>2021-06-03T09:50:07Z</time>
      </trkpt>
      <trkpt lat="47.24648" lon="6.02299">
        <ele>278.8</ele>
        <time>2021-06-03T09:50:08Z</time>
      </trkpt>
      <trkpt lat="47.24649" lon="6.02299">
        <ele>279</ele>
        <time>2021-06-03T09:50:09Z</time>
      </trkpt>
      <trkpt lat="47.24651" lon="6.02299">
        <ele>279.2</ele>
        <time>2021-06-03T09:50:10Z</time>
      </trkpt>
      <trkpt lat="47.24651" lon="6.02299">
        <ele>279.2</ele>
        <time>2021-06-03T09:50:11Z</time>
      </trkpt>
      <trkpt lat="47.24652" lon="6.02298">
        <ele>279.4</ele>
        <time>2021-06-03T09:50:12Z</time>
      </trkpt>
      <trkpt lat="47.24652" lon="6.02299">
        <ele>279.4</ele>
        <time>2021-06-03T09:50:13Z</time>
      </trkpt>
      <trkpt lat="47.24653" lon="6.023">
        <ele>279.4</ele>
        <time>2021-06-03T09:50:14Z</time>
      </trkpt>
      <trkpt lat="47.24653" lon="6.023">
        <ele>279.6</ele>
        <time>2021-06-03T09:50:15Z</time>
      </trkpt>
      <trkpt lat="47.24652" lon="6.02299">
        <ele>279.8</ele>
        <time>2021-06-03T09:50:16Z</time>
      </trkpt>
      <trkpt lat="47.24653" lon="6.02299">
        <ele>279.8</ele>
        <time>2021-06-03T09:50:18Z</time>
      </trkpt>
      <trkpt lat="47.24653" lon="6.02299">
        <ele>279.8</ele>
        <time>2021-06-03T09:50:19Z</time>
      </trkpt>
      <trkpt lat="47.24653" lon="6.02299">
        <ele>280</ele>
        <time>2021-06-03T09:50:22Z</time>
      </trkpt>
      <trkpt lat="47.24653" lon="6.02299">
        <ele>280.2</ele>
        <time>2021-06-03T09:50:25Z</time>
      </trkpt>
      <trkpt lat="47.24653" lon="6.02299">
        <ele>280.2</ele>
        <time>2021-06-03T09:50:27Z</time>
      </trkpt>
    </trkseg>
  </trk>
</gpx>